# Wetter Temperatur Luftdruck Luftfeuchtigkeit Sichtweite Windgeschwindigkeit Windrichtung Zeit
1 Clouds 24 1017 83 10000 4.6 40 20:57 17.10.2019
2 Clouds 24 1017 88 9000 4.6 50 20:38 17.10.2019
3 Clouds 24 1017 88 9000 4.6 50 20:19 17.10.2019
4 Clouds 25 1017 83 7000 4.1 50 19:56 17.10.2019
5 Clouds 25 1018 83 6000 2.1 50 19:37 17.10.2019
6 Clouds 25 1018 83 6000 2.1 50 19:18 17.10.2019
7 Clouds 25 1018 83 6000 2.1 50 18:42 17.10.2019
8 Clouds 25 1018 83 7000 2.1 50 18:21 17.10.2019
9 Clouds 25 1018 83 7000 2.1 60 17:55 17.10.2019
10 Clouds 25 1018 83 7000 1 0 17:37 17.10.2019
11 Clouds 25 1018 83 7000 1 0 17:19 17.10.2019
12 Clouds 25 1018 83 7000 0.5 0 16:42 17.10.2019
13 Clouds 25 1017 78 7000 0.5 0 16:19 17.10.2019
14 Clouds 25 1017 83 8000 1 0 15:59 17.10.2019
15 Rain 25 1017 78 8000 2.445 50 15:41 17.10.2019
16 Rain 25 1017 78 8000 2.968 143 15:20 17.10.2019
17 Rain 25 1016 78 8000 1.5 140 14:58 17.10.2019
18 Rain 25 1016 78 9000 2.6 150 14:39 17.10.2019
19 Rain 25 1016 78 9000 2.6 150 14:21 17.10.2019
20 Rain 26 1015 74 8000 3.1 150 13:41 17.10.2019
21 Rain 26 1015 74 8000 3.1 150 13:21 17.10.2019
22 Clouds 26 1015 78 7000 2.6 160 12:58 17.10.2019
23 Clouds 26 1015 78 7000 4.6 140 12:39 17.10.2019
24 Clouds 26 1015 78 7000 4.6 140 12:20 17.10.2019
25 Clouds 27 1015 74 7000 4.6 140 11:56 17.10.2019
26 Clouds 27 1015 78 7000 5.1 140 11:38 17.10.2019
27 Clouds 27 1015 78 7000 5.1 140 11:18 17.10.2019
28 Clouds 28 1014 74 7000 4.1 180 10:42 17.10.2019
29 Clouds 28 1014 74 7000 4.1 180 10:20 17.10.2019
30 -273 0 0 0 0 0 09:57 17.10.2019
31 -273 0 0 0 0 0 09:57 17.10.2019
32 Clouds 29 1015 66 10000 1.5 290 09:38 17.10.2019
33 Clouds 29 1015 66 10000 1.5 290 09:38 17.10.2019
34 Clouds 29 1015 66 10000 1.5 290 09:20 17.10.2019
35 Clouds 29 1015 66 10000 2.1 320 08:56 17.10.2019
36 Clouds 29 1016 66 10000 2.1 30 08:37 17.10.2019
37 Clouds 29 1016 66 10000 2.1 30 08:18 17.10.2019
38 Clouds 29 1016 66 10000 2.1 30 08:18 17.10.2019
39 Clouds 30 1016 62 9000 2.1 0 07:43 17.10.2019
40 Clouds 29 1017 70 9000 1.5 0 07:21 17.10.2019
41 Clouds 29 1017 70 9000 1.5 0 07:21 17.10.2019
42 Clouds 29 1017 74 8000 1 0 06:55 17.10.2019
43 Clouds 28 1018 74 7000 1.5 330 06:37 17.10.2019
44 Clouds 28 1018 74 7000 1.5 330 06:18 17.10.2019
45 Clouds 28 1018 78 6000 2.1 320 05:40 17.10.2019
46 Clouds 28 1018 78 6000 2.1 320 05:19 17.10.2019
47 Mist 26 1019 83 4800 2.1 310 04:48 17.10.2019
48 Mist 25 1018 88 4300 0.5 0 03:46 17.10.2019
49 Mist 24 1018 88 5000 1.438 8 02:32 17.10.2019
50 Mist 24 1017 94 4700 1.438 8 00:42 17.10.2019
51 Mist 24 1017 94 4200 0.5 0 00:21 17.10.2019
52 Mist 23 1016 100 4100 1 0 23:59 16.10.2019
53 Mist 23 1016 100 4100 1 320 23:40 16.10.2019
54 Mist 23 1016 100 4100 1 320 23:18 16.10.2019
55 Mist 24 1017 88 4100 1.5 320 22:54 16.10.2019
56 Mist 24 1017 94 4000 2.1 310 22:36 16.10.2019
57 Mist 24 1017 94 4000 2.1 310 22:18 16.10.2019
58 -273 0 0 0 0 0 21:54 16.10.2019
59 Mist 24 1017 94 5000 2.1 310 21:54 16.10.2019
60 Mist 24 1017 94 4600 2.1 310 21:36 16.10.2019
61 Mist 24 1017 94 4600 2.1 310 21:18 16.10.2019
62 Mist 24 1017 94 4600 2.1 320 20:55 16.10.2019
63 -273 0 0 0 0 0 20:55 16.10.2019
64 Mist 24 1017 94 3900 2.1 310 20:37 16.10.2019
65 Mist 24 1017 94 3900 2.1 310 20:19 16.10.2019
66 Mist 24 1017 94 4300 2.1 310 19:40 16.10.2019
67 Mist 24 1017 94 4300 2.1 310 19:40 16.10.2019
68 Mist 24 1017 94 4300 2.1 310 19:21 16.10.2019
69 Mist 24 1017 94 4300 2.1 310 19:21 16.10.2019
70 Rain 24 1018 94 4300 2.6 270 18:58 16.10.2019
71 Rain 24 1018 94 3800 2.6 0 18:37 16.10.2019
72 Rain 24 1018 94 3800 2.6 0 18:18 16.10.2019
73 Rain 25 1018 88 4000 2.1 50 17:55 16.10.2019
74 Rain 25 1018 83 4500 3.6 150 17:36 16.10.2019
75 Rain 25 1018 83 4500 3.6 150 17:18 16.10.2019
76 Clouds 26 1018 83 6000 2.1 220 16:43 16.10.2019
77 Clouds 26 1017 78 9000 1 0 16:23 16.10.2019
78 Clouds 26 1017 78 7000 1.5 80 15:59 16.10.2019
79 Clouds 27 1016 69 9000 1.5 40 15:39 16.10.2019
80 Clouds 27 1016 69 9000 1.5 40 15:19 16.10.2019
81 Clouds 27 1016 69 9000 1.5 40 14:58 16.10.2019
82 Clouds 27 1016 69 9000 1.5 40 14:58 16.10.2019
83 Clouds 27 1016 69 9000 1.5 40 14:39 16.10.2019
84 Clouds 27 1016 69 10000 2.1 60 14:20 16.10.2019
85 -273 0 0 0 0 0 13:57 16.10.2019
86 Clouds 27 1016 69 10000 1.5 40 13:39 16.10.2019
87 Clouds 27 1015 69 10000 1.5 0 13:21 16.10.2019
88 Clouds 28 1015 69 10000 2.1 0 12:42 16.10.2019
89 Clouds 28 1015 69 10000 2.1 0 12:42 16.10.2019
90 Rain 28 1015 69 10000 2.6 40 12:20 16.10.2019
91 Rain 29 1015 66 10000 3.1 30 11:55 16.10.2019
92 Rain 29 1015 66 10000 3.1 30 11:36 16.10.2019
93 Clouds 29 1015 62 10000 3.1 20 11:18 16.10.2019
94 Clouds 29 1015 62 10000 3.1 20 10:36 16.10.2019
95 Clouds 30 1015 58 10000 1.5 20 10:18 16.10.2019
96 Clouds 30 1015 58 10000 3.1 30 09:40 16.10.2019
97 Clouds 30 1015 58 10000 3.1 30 09:40 16.10.2019
98 Clouds 30 1016 58 10000 3.6 50 09:22 16.10.2019
99 Clouds 30 1016 58 10000 3.1 40 08:48 16.10.2019
100 -273 0 0 0 0 0 08:30 16.10.2019
101 Clouds 29 1017 58 10000 3.1 40 08:30 16.10.2019
102 Clouds 30 1017 58 10000 2.6 0 07:59 16.10.2019
103 Clouds 30 1017 58 10000 2.6 0 07:41 16.10.2019
104 Clouds 30 1018 58 10000 2.1 0 07:22 16.10.2019
105 Clouds 30 1018 62 10000 2.1 0 06:47 16.10.2019
106 Rain 28 1019 65 10000 3.1 50 06:28 16.10.2019
107 Clouds 26 1020 69 10000 1.5 20 04:25 16.10.2019
108 Clouds 25 1019 78 10000 2.1 320 02:51 16.10.2019
109 Mist 24 1018 94 4500 1 320 01:20 16.10.2019
110 Mist 24 1018 94 5000 1 0 00:58 16.10.2019
111 Mist 24 1018 94 5000 1 0 00:58 16.10.2019
112 Mist 24 1018 94 5000 1 0 00:39 16.10.2019
113 Mist 24 1017 94 5000 1.5 330 23:42 15.10.2019
114 Mist 24 1017 88 5000 1.5 330 23:23 15.10.2019
115 Rain 24 1017 88 6000 1.5 320 22:59 15.10.2019
116 Rain 24 1017 88 6000 1.5 320 22:40 15.10.2019
117 Rain 24 1017 88 6000 1 300 22:21 15.10.2019
118 Rain 24 1018 88 7000 1.5 310 21:57 15.10.2019
119 Rain 24 1018 88 7000 1.5 310 21:39 15.10.2019
120 Rain 24 1018 88 8000 1 0 21:20 15.10.2019
121 Rain 24 1018 88 7000 2.1 300 20:58 15.10.2019
122 Rain 24 1018 88 7000 2.1 300 20:40 15.10.2019
123 Rain 24 1018 88 8000 1.5 290 20:22 15.10.2019
124 Rain 25 1018 73 10000 0.5 0 19:59 15.10.2019
125 Rain 25 1018 73 10000 0.5 0 19:41 15.10.2019
126 Rain 24 1019 88 7000 1 0 19:20 15.10.2019
127 Rain 24 1019 88 7000 1 0 19:20 15.10.2019
128 Rain 24 1019 88 7000 1.5 310 18:55 15.10.2019
129 Rain 24 1019 88 7000 1.5 310 18:55 15.10.2019
130 Rain 24 1019 88 7000 1.5 310 18:37 15.10.2019
131 Clouds 25 1019 83 8000 2.6 310 18:19 15.10.2019
132 Clouds 25 1019 83 9000 2.1 310 17:42 15.10.2019
133 Clouds 25 1019 83 8000 2.1 320 17:21 15.10.2019
134 Clouds 25 1019 83 8000 2.1 320 16:59 15.10.2019
135 Clouds 25 1019 83 8000 2.1 320 16:59 15.10.2019
136 Clouds 25 1019 83 8000 2.1 320 16:40 15.10.2019
137 Clouds 25 1019 83 8000 1.5 300 16:21 15.10.2019
138 Clouds 25 1019 83 8000 1.5 300 16:21 15.10.2019
139 Clouds 25 1019 83 9000 1.5 320 15:55 15.10.2019
140 Clouds 25 1019 83 9000 1.5 320 15:37 15.10.2019
141 Clouds 25 1018 78 10000 1.5 320 15:19 15.10.2019
142 Rain 25 1018 78 10000 2.1 0 14:38 15.10.2019
143 Rain 26 1018 74 10000 1 0 14:20 15.10.2019
144 Rain 26 1018 74 10000 1.5 360 13:59 15.10.2019
145 Rain 26 1018 74 10000 1.5 360 13:40 15.10.2019
146 Rain 26 1017 74 10000 1.5 10 13:20 15.10.2019
147 Rain 26 1017 74 10000 1.5 350 12:44 15.10.2019
148 Clouds 26 1017 74 10000 2.6 0 12:22 15.10.2019
149 Clouds 27 1017 69 10000 3.6 0 11:58 15.10.2019
150 Clouds 27 1017 69 10000 3.6 0 11:40 15.10.2019
151 Clouds 27 1017 65 10000 3.1 360 11:19 15.10.2019
152 Clouds 27 1017 65 10000 3.6 350 10:46 15.10.2019
153 Clouds 27 1017 65 10000 4.1 340 10:23 15.10.2019
154 Clear 27 1017 65 10000 3.1 360 09:59 15.10.2019
155 Clear 27 1017 65 10000 3.6 340 09:40 15.10.2019
156 Clear 27 1017 65 10000 3.6 340 09:21 15.10.2019
157 Clouds 28 1018 61 10000 4.1 340 08:57 15.10.2019
158 Clouds 28 1018 61 10000 4.1 340 08:57 15.10.2019
159 Clouds 27 1018 65 10000 4.1 10 08:37 15.10.2019
160 Clouds 27 1018 65 10000 4.1 10 08:18 15.10.2019
161 Clouds 28 1019 65 10000 3.1 0 07:43 15.10.2019
162 Clouds 27 1019 65 10000 3.6 0 07:21 15.10.2019
163 Clouds 26 1019 69 10000 2.6 0 06:54 15.10.2019
164 Clouds 26 1019 69 10000 2.6 0 06:36 15.10.2019
165 Clouds 26 1020 69 10000 4.6 0 05:54 15.10.2019
166 Clouds 26 1020 69 10000 4.6 0 05:35 15.10.2019
167 Clouds 25 1021 73 10000 3.6 20 04:39 15.10.2019
168 Clouds 26 1020 69 10000 3.6 0 03:57 15.10.2019
169 Clouds 25 1020 73 10000 2.6 10 03:27 15.10.2019
170 Rain 24 1019 78 10000 3.1 20 01:51 15.10.2019
171 Clouds 24 1019 78 10000 3.1 10 01:23 15.10.2019
172 Clear 24 1018 78 10000 3.1 20 00:52 15.10.2019
173 Clear 24 1018 78 10000 3.1 20 00:22 15.10.2019
174 Clear 24 1018 83 10000 3.1 10 23:46 14.10.2019
175 Clouds 24 1018 83 10000 3.6 10 23:21 14.10.2019
176 Rain 24 1018 83 10000 3.6 360 22:59 14.10.2019
177 Rain 24 1018 83 10000 3.6 360 22:39 14.10.2019
178 Clear 25 1018 73 10000 3.6 360 22:19 14.10.2019
179 Clear 25 1018 73 10000 3.6 360 22:19 14.10.2019
180 Clear 25 1018 73 10000 3.6 360 22:19 14.10.2019
181 Clear 25 1018 73 10000 3.6 10 21:56 14.10.2019
182 Clear 25 1018 73 10000 3.6 10 21:56 14.10.2019
183 Clear 25 1018 73 10000 3.6 10 21:37 14.10.2019
184 Clear 25 1018 73 10000 3.1 10 21:19 14.10.2019
185 Clear 25 1018 73 10000 3.1 20 20:55 14.10.2019
186 Clear 25 1018 73 10000 3.1 30 20:37 14.10.2019
187 Clear 25 1018 73 10000 3.1 30 20:18 14.10.2019
188 Clouds 25 1019 73 10000 3.6 0 19:42 14.10.2019
189 Clear 25 1019 73 10000 3.6 0 19:23 14.10.2019
190 Clear 25 1019 78 10000 3.6 30 18:59 14.10.2019
191 Clear 25 1019 78 10000 3.6 20 18:39 14.10.2019
192 Clear 25 1019 78 10000 3.6 20 18:19 14.10.2019
193 Clear 25 1019 78 10000 3.6 20 18:19 14.10.2019
194 Clear 25 1019 78 10000 3.6 20 18:19 14.10.2019
195 Clear 25 1019 78 10000 1.5 0 17:57 14.10.2019
196 Clear 24 1019 83 10000 3.1 30 17:38 14.10.2019
197 Clear 24 1019 83 10000 3.1 30 17:20 14.10.2019
198 Rain 26 1019 74 10000 4.6 60 16:44 14.10.2019
199 Rain 26 1019 74 10000 4.6 60 16:21 14.10.2019
200 Clear 27 1018 69 10000 4.6 50 15:43 14.10.2019
201 Clear 27 1018 69 10000 4.6 50 15:24 14.10.2019
202 Clear 27 1018 69 10000 3.1 50 14:58 14.10.2019
203 Clear 27 1017 69 10000 3.6 40 14:39 14.10.2019
204 Clear 27 1017 69 10000 3.6 40 14:20 14.10.2019
205 Clouds 27 1017 69 10000 4.1 30 13:44 14.10.2019
206 Clouds 27 1016 69 10000 4.1 0 13:21 14.10.2019
207 Clouds 28 1016 69 10000 3.6 30 12:55 14.10.2019
208 Clouds 28 1016 69 10000 4.1 20 12:37 14.10.2019
209 Clouds 28 1016 69 10000 4.1 20 12:18 14.10.2019
210 Clear 29 1016 66 10000 4.1 0 11:44 14.10.2019
211 -273 0 0 0 0 0 11:26 14.10.2019
212 Clouds 30 1015 62 10000 4.6 10 10:57 14.10.2019
213 Clouds 30 1015 62 10000 4.6 10 10:57 14.10.2019
214 Clouds 30 1016 62 10000 4.6 10 10:38 14.10.2019
215 Clouds 30 1016 62 10000 4.6 10 10:19 14.10.2019
216 Clouds 30 1016 62 10000 3.6 30 09:42 14.10.2019
217 -273 0 0 0 0 0 09:41 14.10.2019
218 Clouds 30 1016 62 10000 3.6 30 09:21 14.10.2019
219 Clouds 30 1017 66 10000 4.6 30 08:51 14.10.2019
220 Clouds 30 1017 66 10000 4.6 30 08:23 14.10.2019
221 Clouds 29 1018 62 10000 4.6 360 07:47 14.10.2019
222 Clouds 29 1018 66 10000 3.6 20 07:25 14.10.2019
223 Clouds 29 1018 66 10000 4.1 20 06:59 14.10.2019
224 Clouds 28 1019 69 10000 3.6 360 06:28 14.10.2019
225 Clouds 28 1019 69 10000 3.6 10 05:57 14.10.2019
226 Clouds 28 1019 69 10000 3.6 20 05:26 14.10.2019
227 Clouds 27 1019 69 10000 3.1 20 03:50 14.10.2019
228 Clouds 27 1018 69 10000 3.6 10 03:25 14.10.2019
229 Clouds 25 1017 83 9000 1 320 02:31 14.10.2019
230 Clouds 24 1017 88 9000 1 0 01:21 14.10.2019
231 Clouds 24 1016 88 8000 1 280 00:42 14.10.2019
232 Clouds 24 1016 88 8000 1 280 00:18 14.10.2019
233 Clouds 25 1016 83 10000 2.1 290 23:41 13.10.2019
234 Clouds 25 1016 83 10000 2.1 290 23:19 13.10.2019
235 Clouds 25 1016 83 10000 2.1 290 23:19 13.10.2019
236 Clouds 25 1016 83 10000 1 0 22:57 13.10.2019
237 Clouds 25 1016 83 10000 1 0 22:57 13.10.2019
238 Clouds 25 1016 83 10000 1 0 22:39 13.10.2019
239 Clouds 25 1016 83 10000 1 0 22:20 13.10.2019
240 Clouds 25 1016 83 10000 1 0 21:57 13.10.2019
241 Clear 25 1016 83 10000 1 0 21:36 13.10.2019
242 Clear 25 1016 83 10000 1 0 21:18 13.10.2019
243 Clear 25 1016 83 10000 1 0 21:18 13.10.2019
244 -273 0 0 0 0 0 20:55 13.10.2019
245 Clouds 25 1016 83 10000 2.1 310 20:37 13.10.2019
246 Clouds 25 1016 83 10000 2.1 310 20:18 13.10.2019
247 Clouds 25 1016 88 9000 1.5 290 19:54 13.10.2019
248 Clouds 25 1016 88 10000 1 0 19:36 13.10.2019
249 Clouds 25 1016 88 10000 1 0 19:36 13.10.2019
250 Clouds 25 1016 88 10000 1 0 19:18 13.10.2019
251 Clouds 25 1016 88 9000 1.5 280 18:40 13.10.2019
252 Clouds 25 1016 88 9000 1.5 280 18:21 13.10.2019
253 Clouds 25 1016 83 10000 1.5 320 17:59 13.10.2019
254 Clouds 25 1016 83 10000 1.5 0 17:41 13.10.2019
255 Clouds 25 1016 83 10000 1.5 0 17:23 13.10.2019
256 Clouds 26 1016 78 10000 2.1 0 16:43 13.10.2019
257 Clouds 26 1016 78 9000 2.6 0 16:20 13.10.2019
258 Clouds 26 1015 78 10000 1.5 320 15:58 13.10.2019
259 Clouds 26 1014 74 10000 1 0 15:39 13.10.2019
260 Clouds 26 1014 74 10000 1 0 15:20 13.10.2019
261 Clouds 26 1014 74 10000 1 0 15:20 13.10.2019
262 Clouds 26 1014 78 10000 1.5 350 14:58 13.10.2019
263 Clouds 26 1014 83 10000 2.6 40 14:39 13.10.2019
264 Clouds 26 1014 83 10000 2.6 40 14:20 13.10.2019
265 Clouds 26 1013 83 9000 1.5 300 13:55 13.10.2019
266 Clouds 26 1013 74 10000 1.5 270 13:37 13.10.2019
267 Clouds 26 1013 74 10000 1.5 270 13:37 13.10.2019
268 Clouds 26 1013 74 10000 1.5 270 13:18 13.10.2019
269 Clouds 26 1013 74 10000 1.5 270 13:18 13.10.2019
270 Clouds 26 1012 78 10000 2.1 340 12:55 13.10.2019
271 Clouds 26 1012 78 10000 2.1 340 12:55 13.10.2019
272 Clouds 27 1013 74 8000 2.1 350 12:36 13.10.2019
273 Clouds 27 1013 74 8000 2.1 350 12:36 13.10.2019
274 Clouds 27 1013 74 8000 2.1 350 12:18 13.10.2019
275 Clouds 27 1013 83 9000 3.1 290 11:54 13.10.2019
276 Rain 27 1012 74 10000 4.1 200 11:36 13.10.2019
277 Rain 27 1012 74 10000 4.1 200 11:18 13.10.2019
278 Clouds 31 1012 58 10000 3.6 30 10:41 13.10.2019
279 Clouds 31 1012 58 10000 3.6 30 10:22 13.10.2019
280 Clouds 31 1012 58 10000 3.6 30 10:22 13.10.2019
281 Clouds 31 1012 58 10000 3.6 30 10:22 13.10.2019
282 Clouds 31 1012 58 10000 3.6 30 09:40 13.10.2019
283 Clouds 31 1012 58 10000 3.6 30 09:21 13.10.2019
284 Clouds 31 1012 58 10000 3.6 30 09:21 13.10.2019
285 Clouds 31 1013 58 10000 3.6 50 08:57 13.10.2019
286 Clouds 31 1013 58 10000 4.1 30 08:37 13.10.2019
287 Clouds 31 1013 58 10000 4.1 30 08:18 13.10.2019
288 Clouds 31 1014 58 10000 3.6 40 07:45 13.10.2019
289 Clouds 31 1014 58 10000 3.6 40 07:45 13.10.2019
290 Clouds 30 1014 66 10000 4.6 30 06:55 13.10.2019
291 Clouds 30 1015 66 10000 4.6 40 06:26 13.10.2019
292 Clouds 29 1015 70 10000 5.1 60 05:34 13.10.2019
293 Clouds 28 1015 74 10000 4.6 60 04:38 13.10.2019
294 Clouds 27 1015 78 9000 4.1 50 03:37 13.10.2019
295 Clouds 26 1014 88 9000 3.1 60 02:35 13.10.2019
296 Clouds 26 1014 88 7000 3.1 50 01:51 13.10.2019
297 Clouds 26 1013 88 6000 3.1 50 01:21 13.10.2019
298 Clouds 26 1012 88 6000 3.1 60 00:43 13.10.2019
299 Clouds 26 1012 88 6000 3.1 60 00:20 13.10.2019
300 Clouds 26 1012 88 6000 2.6 50 23:54 12.10.2019
301 Clouds 26 1012 88 6000 2.6 50 23:54 12.10.2019
302 Clouds 26 1012 88 7000 3.1 50 23:36 12.10.2019
303 Clouds 26 1012 88 7000 3.1 50 23:36 12.10.2019
304 Clouds 26 1012 88 7000 3.1 50 23:18 12.10.2019
305 Clouds 26 1012 88 7000 3.1 50 22:54 12.10.2019
306 Clouds 26 1012 88 7000 2.6 50 22:36 12.10.2019
307 Clouds 26 1012 88 7000 2.6 50 22:18 12.10.2019
308 Clouds 26 1012 88 7000 2.6 60 21:41 12.10.2019
309 Clouds 26 1012 88 7000 2.6 60 21:23 12.10.2019
310 Clouds 26 1012 88 6000 2.6 60 20:56 12.10.2019
311 Clouds 26 1012 88 6000 2.1 70 20:37 12.10.2019
312 Clouds 26 1012 88 6000 2.1 70 20:19 12.10.2019
313 Clouds 26 1013 88 8000 3.1 60 19:36 12.10.2019
314 Clouds 26 1013 88 8000 3.1 60 19:18 12.10.2019
315 -273 0 0 0 0 0 18:44 12.10.2019
316 Clouds 26 1013 88 8000 2.6 60 18:26 12.10.2019
317 Clear 26 1013 88 8000 3.6 60 17:56 12.10.2019
318 Clear 26 1013 88 8000 3.6 60 17:56 12.10.2019
319 Clear 26 1013 88 9000 3.1 60 17:37 12.10.2019
320 Clear 26 1013 88 9000 3.1 60 17:18 12.10.2019
321 Clouds 26 1012 88 9000 3.1 70 16:40 12.10.2019
322 Clouds 26 1012 88 9000 3.1 70 16:21 12.10.2019
323 Rain 26 1012 88 8000 3.1 60 15:57 12.10.2019
324 Rain 26 1012 88 8000 3.1 60 15:57 12.10.2019
325 Rain 26 1012 88 9000 4.1 50 15:38 12.10.2019
326 Rain 26 1011 88 8000 3.1 50 15:18 12.10.2019
327 Clouds 27 1011 83 8000 3.6 50 14:40 12.10.2019
328 Clouds 27 1011 83 8000 3.6 50 14:20 12.10.2019
329 Clouds 27 1010 83 8000 3.1 60 13:51 12.10.2019
330 Rain 27 1010 88 7000 4.1 50 13:32 12.10.2019
331 Rain 28 1010 78 7000 3.6 40 12:56 12.10.2019
332 Thunderstorm 30 1009 70 10000 5.1 100 12:38 12.10.2019
333 Thunderstorm 30 1009 70 10000 5.1 100 12:38 12.10.2019
334 Thunderstorm 30 1009 70 10000 5.1 100 12:20 12.10.2019
335 Thunderstorm 30 1009 70 10000 5.1 100 12:20 12.10.2019
336 Thunderstorm 30 1009 70 10000 5.7 140 11:45 12.10.2019
337 Clouds 31 1009 66 10000 6.7 140 11:24 12.10.2019
338 Clouds 31 1008 62 10000 3.1 170 10:58 12.10.2019
339 Clouds 33 1009 55 10000 3.1 190 10:39 12.10.2019
340 Clouds 33 1009 55 10000 3.1 190 10:20 12.10.2019
341 -273 0 0 0 0 0 09:57 12.10.2019
342 Clouds 33 1009 52 10000 3.1 190 09:57 12.10.2019
343 Clouds 32 1009 59 10000 3.1 220 09:37 12.10.2019
344 Clouds 32 1009 59 10000 3.1 220 09:19 12.10.2019
345 Clouds 32 1010 55 10000 3.1 0 08:44 12.10.2019
346 Clouds 32 1010 55 10000 3.1 0 08:23 12.10.2019
347 Clouds 32 1011 55 10000 3.1 150 07:49 12.10.2019
348 Clouds 31 1011 58 10000 3.1 170 07:30 12.10.2019
349 Clouds 31 1012 62 10000 4.1 150 05:54 12.10.2019
350 Clouds 30 1013 70 10000 3.6 140 05:26 12.10.2019
351 Clouds 30 1013 70 10000 3.6 140 04:34 12.10.2019
352 Clouds 29 1013 79 8000 3.6 110 03:53 12.10.2019
353 Mist 26 1012 94 3500 2.6 80 02:37 12.10.2019
354 Mist 25 1011 94 2700 3.1 80 01:32 12.10.2019
355 Mist 25 1011 94 4700 2.6 90 00:54 12.10.2019
356 Mist 25 1011 94 5000 3.1 90 00:35 12.10.2019
357 Mist 25 1011 94 5000 2.6 90 23:54 11.10.2019
358 Clouds 25 1011 94 6000 2.6 80 23:36 11.10.2019
359 Clouds 25 1011 94 6000 2.6 80 23:36 11.10.2019
360 Clouds 25 1011 94 6000 2.6 80 23:18 11.10.2019
361 Clouds 25 1011 94 6000 2.6 80 23:18 11.10.2019
362 Clouds 26 1010 88 6000 2.6 80 22:37 11.10.2019
363 Clouds 26 1010 88 6000 2.6 80 22:18 11.10.2019
364 Clouds 26 1011 88 6000 3.1 100 21:42 11.10.2019
365 Clouds 26 1011 88 6000 3.1 100 21:21 11.10.2019
366 Mist 26 1011 88 5000 2.6 80 20:55 11.10.2019
367 Clouds 26 1011 88 7000 2.6 90 20:37 11.10.2019
368 Clouds 26 1011 88 7000 2.6 90 20:18 11.10.2019
369 Clouds 26 1011 88 8000 3.1 110 19:55 11.10.2019
370 Clouds 27 1012 83 9000 3.1 120 19:36 11.10.2019
371 Clouds 27 1012 83 9000 3.1 120 19:18 11.10.2019
372 Clear 27 1012 83 10000 3.1 130 18:39 11.10.2019
373 Clear 27 1012 83 10000 3.1 130 18:19 11.10.2019
374 Clear 27 1011 83 10000 3.6 130 17:59 11.10.2019
375 Clear 27 1011 83 10000 3.6 130 17:38 11.10.2019
376 Clear 27 1011 83 10000 3.6 130 17:20 11.10.2019
377 Clear 28 1011 78 10000 3.6 140 16:59 11.10.2019
378 Clear 28 1011 78 10000 3.6 140 16:39 11.10.2019
379 Clear 28 1011 78 10000 3.6 140 16:19 11.10.2019
380 Clear 28 1011 78 9000 4.1 130 15:57 11.10.2019
381 Clouds 28 1010 78 9000 5.1 120 15:37 11.10.2019
382 Clouds 28 1010 78 9000 5.1 120 15:18 11.10.2019
383 Clouds 29 1010 74 10000 5.1 130 14:43 11.10.2019
384 Clouds 29 1010 74 10000 5.1 130 14:43 11.10.2019
385 Clouds 29 1009 74 9000 4.6 110 14:23 11.10.2019
386 Clouds 29 1009 74 10000 4.6 100 13:47 11.10.2019
387 Clouds 30 1009 70 10000 4.6 110 13:26 11.10.2019
388 Clouds 30 1008 70 10000 5.1 120 12:58 11.10.2019
389 Clouds 32 1008 55 10000 3.6 150 12:40 11.10.2019
390 Clouds 32 1008 55 10000 3.6 150 12:21 11.10.2019
391 Clouds 32 1008 55 10000 4.1 150 11:59 11.10.2019
392 Clouds 33 1008 52 10000 4.1 160 11:39 11.10.2019
393 Clouds 33 1008 52 10000 4.1 160 11:21 11.10.2019
394 Clouds 33 1008 52 10000 3.1 150 10:56 11.10.2019
395 Clouds 33 1008 52 10000 3.1 150 10:56 11.10.2019
396 Clouds 33 1009 52 10000 3.1 160 10:36 11.10.2019
397 Clouds 33 1009 52 10000 3.1 160 10:18 11.10.2019
398 Clouds 33 1009 52 10000 3.1 140 09:42 11.10.2019
399 Clouds 33 1009 52 10000 3.1 160 09:21 11.10.2019
400 Clouds 33 1010 52 10000 2.6 180 08:57 11.10.2019
401 Clouds 32 1010 55 10000 3.1 190 08:38 11.10.2019
402 Clouds 32 1010 55 10000 3.1 190 08:20 11.10.2019
403 Clouds 32 1011 55 10000 3.6 160 07:52 11.10.2019
404 Clouds 32 1011 59 10000 3.6 150 07:33 11.10.2019
405 Clouds 31 1012 62 10000 4.1 160 06:50 11.10.2019
406 Clouds 31 1013 62 10000 4.6 140 06:25 11.10.2019
407 Clouds 31 1013 58 10000 3.6 170 05:47 11.10.2019
408 Clouds 30 1013 70 10000 4.6 130 05:29 11.10.2019
409 Clouds 29 1013 74 10000 3.1 120 04:50 11.10.2019
410 Mist 27 1013 88 3900 3.6 90 03:20 11.10.2019
411 Mist 25 1012 94 3500 2.1 80 00:54 11.10.2019
412 Mist 25 1011 94 4600 2.6 90 00:31 11.10.2019
413 Mist 25 1011 94 5000 3.1 80 23:57 10.10.2019
414 Mist 25 1011 94 4800 2.1 80 23:39 10.10.2019
415 Mist 25 1011 94 4800 2.1 80 23:18 10.10.2019
416 Mist 25 1011 94 5000 2.6 80 22:54 10.10.2019
417 Mist 25 1011 94 4700 2.6 90 22:36 10.10.2019
418 Mist 25 1011 94 4700 2.6 90 22:18 10.10.2019
419 Mist 26 1012 88 5000 3.1 100 21:42 10.10.2019
420 Mist 26 1012 88 5000 3.1 100 21:22 10.10.2019
421 Mist 26 1012 88 5000 3.1 100 21:22 10.10.2019
422 Mist 25 1012 94 5000 2.6 100 20:58 10.10.2019
423 Mist 26 1012 88 5000 3.1 110 20:39 10.10.2019
424 Mist 26 1012 88 5000 3.1 110 20:39 10.10.2019
425 Mist 26 1012 88 5000 3.1 110 20:19 10.10.2019
426 Clear 26 1012 88 6000 2.6 100 19:55 10.10.2019
427 Clear 26 1012 88 6000 2.6 100 19:55 10.10.2019
428 Clear 26 1012 88 7000 3.1 100 19:37 10.10.2019
429 Clear 26 1012 88 7000 3.1 100 19:19 10.10.2019
430 Clear 26 1012 88 9000 2.6 110 18:42 10.10.2019
431 Clear 26 1012 88 9000 2.6 110 18:20 10.10.2019
432 Clear 27 1012 83 9000 3.6 130 17:57 10.10.2019
433 Clear 27 1012 83 9000 2.6 130 17:37 10.10.2019
434 Clear 27 1012 83 9000 2.6 130 17:18 10.10.2019
435 Clear 27 1012 83 9000 2.6 130 17:18 10.10.2019
436 Clear 27 1012 83 9000 3.6 130 16:49 10.10.2019
437 Clear 27 1012 83 9000 3.6 110 16:27 10.10.2019
438 Clear 27 1012 83 9000 4.6 120 15:59 10.10.2019
439 Clear 28 1011 78 10000 3.6 120 15:39 10.10.2019
440 Clear 28 1011 78 10000 3.6 120 15:39 10.10.2019
441 Clear 28 1011 78 10000 3.6 120 15:20 10.10.2019
442 Clear 28 1011 74 10000 4.1 130 14:56 10.10.2019
443 Clear 28 1011 74 10000 4.6 130 14:37 10.10.2019
444 Clear 28 1011 74 10000 4.6 130 14:18 10.10.2019
445 Clouds 29 1010 70 10000 5.1 130 13:47 10.10.2019
446 Clouds 29 1010 74 10000 6.2 130 13:29 10.10.2019
447 Clouds 31 1010 58 10000 3.1 140 12:59 10.10.2019
448 Clouds 31 1010 58 10000 2.6 180 12:40 10.10.2019
449 Clouds 31 1010 58 10000 2.6 180 12:20 10.10.2019
450 Clouds 32 1010 52 10000 2.6 170 11:58 10.10.2019
451 Clouds 32 1010 55 10000 2.6 180 11:38 10.10.2019
452 Clouds 32 1010 55 10000 2.6 180 11:19 10.10.2019
453 Clouds 32 1009 55 10000 2.6 180 10:45 10.10.2019
454 Clouds 32 1010 55 10000 2.6 190 10:26 10.10.2019
455 Clouds 33 1010 52 10000 2.6 200 09:58 10.10.2019
456 Clouds 32 1010 62 10000 2.1 0 09:39 10.10.2019
457 Clouds 32 1010 62 10000 2.1 0 09:21 10.10.2019
458 Clouds 31 1011 62 10000 2.1 210 08:57 10.10.2019
459 Clouds 31 1011 62 10000 2.1 220 08:38 10.10.2019
460 Clouds 31 1011 62 10000 2.1 220 08:19 10.10.2019
461 Clouds 31 1011 62 10000 2.1 220 08:19 10.10.2019
462 Clouds 31 1012 66 9000 1.5 220 07:45 10.10.2019
463 Clouds 30 1013 66 10000 2.1 210 07:22 10.10.2019
464 Clouds 30 1013 66 9000 2.1 200 06:48 10.10.2019
465 Clouds 30 1014 70 8000 1.5 20 06:29 10.10.2019
466 Mist 28 1015 78 5000 2.6 40 05:28 10.10.2019
467 Mist 27 1015 83 4200 3.1 60 04:47 10.10.2019
468 Mist 26 1015 88 4400 3.1 60 04:26 10.10.2019
469 Mist 26 1015 88 4400 3.1 60 04:26 10.10.2019
470 Mist 24 1013 94 3800 2.6 80 01:44 10.10.2019
471 Mist 24 1013 94 3800 2.6 80 01:25 10.10.2019
472 Clouds 24 1013 94 6000 1.5 70 00:54 10.10.2019
473 Thunderstorm 24 1013 100 7000 2.1 30 00:22 10.10.2019
474 Thunderstorm 24 1012 94 2700 3.1 250 23:40 09.10.2019
475 Thunderstorm 24 1012 94 2700 3.1 250 23:20 09.10.2019
476 Thunderstorm 24 1012 94 7000 1.5 50 22:56 09.10.2019
477 Clouds 24 1012 94 7000 1 0 22:37 09.10.2019
478 Clouds 24 1012 94 7000 1 0 22:19 09.10.2019
479 Clouds 24 1012 94 7000 1.5 40 21:40 09.10.2019
480 Clouds 24 1012 94 7000 1.5 40 21:20 09.10.2019
481 Clouds 24 1012 94 7000 2.1 60 20:56 09.10.2019
482 Clouds 24 1013 88 7000 1 0 20:38 09.10.2019
483 Clouds 24 1013 88 7000 1 0 20:38 09.10.2019
484 Clouds 24 1013 88 7000 1 0 20:19 09.10.2019
485 Clouds 24 1013 88 7000 1 0 20:19 09.10.2019
486 Clouds 24 1013 94 7000 1.5 40 19:57 09.10.2019
487 Mist 24 1013 94 5000 1.5 80 19:39 09.10.2019
488 Mist 24 1013 94 5000 1.5 80 19:20 09.10.2019
489 Clouds 24 1013 94 6000 2.1 60 18:38 09.10.2019
490 Clouds 24 1013 94 6000 2.1 60 18:19 09.10.2019
491 Clouds 24 1013 94 7000 1.5 40 17:57 09.10.2019
492 Clouds 24 1013 94 6000 1.5 60 17:37 09.10.2019
493 Clouds 24 1013 94 6000 1.5 60 17:19 09.10.2019
494 Clouds 24 1013 94 6000 1.5 60 17:19 09.10.2019
495 Clouds 25 1013 88 7000 1.5 40 16:55 09.10.2019
496 Clouds 24 1013 94 7000 1 0 16:36 09.10.2019
497 Clouds 24 1013 94 7000 1 0 16:18 09.10.2019
498 Clouds 25 1013 88 8000 1 0 15:54 09.10.2019
499 Clouds 25 1013 88 9000 1 0 15:36 09.10.2019
500 Rain 25 1013 88 9000 1 0 15:18 09.10.2019
501 Rain 25 1013 88 9000 1 0 15:18 09.10.2019
502 Clear 25 1012 88 10000 1.5 30 14:41 09.10.2019
503 Clear 25 1012 88 10000 1.5 30 14:18 09.10.2019
504 Clear 26 1012 88 10000 1 0 13:40 09.10.2019
505 Clear 26 1012 88 10000 1 0 13:22 09.10.2019
506 Clear 26 1012 88 10000 1 0 13:22 09.10.2019
507 Clear 26 1011 88 10000 1.5 300 12:59 09.10.2019
508 Clear 27 1011 78 10000 1.5 310 12:41 09.10.2019
509 Clear 27 1011 78 10000 1.5 310 12:22 09.10.2019
510 Clear 27 1011 78 10000 1.5 310 12:22 09.10.2019
511 Clear 27 1011 78 10000 0.5 0 11:56 09.10.2019
512 Clear 27 1011 83 10000 1.5 300 11:37 09.10.2019
513 Clear 27 1011 83 10000 1.5 300 11:37 09.10.2019
514 Clear 27 1011 83 10000 1.5 300 11:19 09.10.2019
515 Clouds 26 1012 88 10000 2.6 350 10:44 09.10.2019
516 Clouds 26 1012 88 10000 2.6 350 10:22 09.10.2019
517 Rain 25 1013 88 10000 4.1 310 09:59 09.10.2019
518 Rain 24 1013 94 8000 4.1 290 09:41 09.10.2019
519 Rain 24 1013 94 8000 4.1 290 09:19 09.10.2019
520 Rain 25 1014 88 10000 5.1 260 08:41 09.10.2019
521 Rain 25 1014 88 10000 5.1 260 08:23 09.10.2019
522 Clouds 26 1014 83 10000 4.1 270 07:58 09.10.2019
523 Clouds 26 1015 83 9000 4.1 290 07:39 09.10.2019
524 Clouds 26 1015 83 9000 4.1 290 07:20 09.10.2019
525 Clouds 26 1015 83 10000 3.6 300 06:51 09.10.2019
526 Clouds 26 1015 83 10000 3.6 300 06:51 09.10.2019
527 Clouds 27 1016 78 10000 2.6 280 05:56 09.10.2019
528 Clouds 26 1016 83 10000 2.1 290 05:28 09.10.2019
529 Clouds 24 1016 88 10000 2.1 310 04:24 09.10.2019
530 Clouds 23 1016 94 10000 2.1 320 02:50 09.10.2019
531 Clouds 23 1015 94 10000 2.6 320 01:43 09.10.2019
532 Clouds 23 1015 94 10000 2.6 320 01:20 09.10.2019
533 Clouds 23 1015 94 10000 3.1 330 00:56 09.10.2019
534 Clouds 23 1014 94 10000 3.1 260 00:38 09.10.2019
535 Clouds 23 1014 94 10000 3.1 260 00:19 09.10.2019
536 Rain 23 1014 94 10000 2.1 310 23:39 08.10.2019
537 Rain 23 1014 94 10000 2.1 310 23:18 08.10.2019
538 Rain 23 1014 94 10000 2.1 320 22:56 08.10.2019
539 Rain 23 1014 94 10000 1.5 270 22:38 08.10.2019
540 Rain 23 1014 94 10000 1.5 270 22:19 08.10.2019
541 Rain 23 1014 94 10000 1.5 240 21:57 08.10.2019
542 Thunderstorm 23 1014 94 9000 4.6 200 21:38 08.10.2019
543 Thunderstorm 23 1014 94 9000 4.6 200 21:18 08.10.2019
544 Thunderstorm 25 1015 94 10000 1 0 20:55 08.10.2019
545 Clouds 25 1015 94 9000 1 0 20:37 08.10.2019
546 Clouds 25 1015 94 9000 1 0 20:18 08.10.2019
547 Clouds 25 1015 94 8000 1.5 320 19:55 08.10.2019
548 Clouds 25 1015 94 8000 3.1 310 19:36 08.10.2019
549 Clouds 25 1015 94 8000 3.1 310 19:36 08.10.2019
550 Clouds 25 1015 94 8000 3.1 310 19:36 08.10.2019
551 Clouds 25 1015 94 8000 3.1 310 19:18 08.10.2019
552 Clouds 25 1016 94 8000 2.6 310 18:41 08.10.2019
553 Clouds 25 1016 94 8000 2.6 310 18:23 08.10.2019
554 Clouds 25 1016 94 9000 2.6 310 17:57 08.10.2019
555 Rain 25 1016 94 10000 2.1 320 17:39 08.10.2019
556 Rain 25 1016 94 10000 2.1 320 17:18 08.10.2019
557 Rain 26 1016 88 10000 2.6 310 16:55 08.10.2019
558 Clouds 26 1016 88 10000 2.1 280 16:37 08.10.2019
559 Clouds 26 1016 88 10000 2.1 280 16:18 08.10.2019
560 Clouds 26 1016 88 10000 1.5 330 15:38 08.10.2019
561 Clouds 26 1016 88 10000 1.5 330 15:19 08.10.2019
562 Clouds 26 1015 83 10000 1 0 14:42 08.10.2019
563 Clear 26 1015 83 10000 1 0 14:22 08.10.2019
564 Clear 26 1014 83 10000 1 0 13:59 08.10.2019
565 Clear 26 1014 83 10000 1 30 13:39 08.10.2019
566 Clear 26 1014 83 10000 1 30 13:21 08.10.2019
567 Clear 26 1014 83 10000 1 0 12:59 08.10.2019
568 Clear 27 1014 78 10000 1 0 12:40 08.10.2019
569 Clear 27 1014 78 10000 1 0 12:20 08.10.2019
570 Clear 27 1014 78 10000 1 0 11:56 08.10.2019
571 Clouds 27 1014 78 10000 2.1 0 11:37 08.10.2019
572 Clouds 27 1014 78 10000 2.1 0 11:19 08.10.2019
573 Clouds 27 1014 78 10000 2.1 0 10:40 08.10.2019
574 Clouds 27 1014 78 10000 2.1 0 10:21 08.10.2019
575 Clouds 27 1014 78 10000 2.1 10 09:58 08.10.2019
576 Clouds 27 1014 78 10000 2.1 10 09:58 08.10.2019
577 Clouds 27 1014 78 10000 2.6 0 09:39 08.10.2019
578 Clouds 27 1014 78 10000 2.6 0 09:20 08.10.2019
579 Clouds 27 1015 78 10000 3.6 30 08:43 08.10.2019
580 Clouds 27 1015 78 10000 3.6 30 08:25 08.10.2019
581 Clouds 27 1015 83 10000 3.6 0 07:46 08.10.2019
582 Clouds 27 1016 78 10000 4.6 20 07:22 08.10.2019
583 Clouds 27 1016 78 10000 3.6 0 06:56 08.10.2019
584 Clouds 26 1017 83 10000 2.6 0 06:32 08.10.2019
585 Clouds 26 1017 83 10000 2.6 30 05:57 08.10.2019
586 Clouds 25 1017 88 10000 2.1 30 05:36 08.10.2019
587 Mist 25 1017 94 5000 2.1 0 04:33 08.10.2019
588 Rain 25 1016 94 3500 1.5 30 03:29 08.10.2019
589 Rain 25 1016 94 3900 0.5 60 02:39 08.10.2019
590 Rain 25 1015 94 3300 0.5 0 01:49 08.10.2019
591 Rain 25 1014 94 4300 1.5 290 01:31 08.10.2019
592 Rain 25 1014 94 6000 0.5 0 00:48 08.10.2019
593 Rain 24 1014 94 5000 1 0 00:21 08.10.2019
594 Rain 25 1013 88 10000 1 0 23:41 07.10.2019
595 Rain 25 1013 88 10000 1 0 23:20 07.10.2019
596 Rain 25 1013 88 10000 1 0 23:20 07.10.2019
597 Clear 26 1013 78 10000 1.5 300 22:57 07.10.2019
598 Clear 25 1013 88 10000 1 0 22:39 07.10.2019
599 Clear 25 1013 88 10000 1 0 22:20 07.10.2019
600 Clear 26 1013 83 10000 2.6 340 21:57 07.10.2019
601 Clear 26 1013 78 10000 2.1 0 21:38 07.10.2019
602 Clear 26 1013 78 10000 2.1 0 21:20 07.10.2019
603 Clear 26 1013 78 10000 2.1 0 21:20 07.10.2019
604 Clear 25 1013 88 10000 1 0 20:57 07.10.2019
605 Clear 25 1014 88 10000 1 0 20:39 07.10.2019
606 Clear 25 1014 88 10000 1 0 20:20 07.10.2019
607 Clear 25 1014 83 10000 1.5 50 19:58 07.10.2019
608 Clear 25 1014 88 10000 0.5 0 19:39 07.10.2019
609 Clear 25 1014 88 10000 0.5 0 19:18 07.10.2019
610 Clear 25 1014 88 10000 1 0 18:56 07.10.2019
611 Clouds 25 1015 88 10000 1 0 18:38 07.10.2019
612 Clouds 25 1015 88 10000 1 0 18:18 07.10.2019
613 Clouds 25 1014 88 10000 1.5 60 17:42 07.10.2019
614 Clouds 25 1014 88 10000 1.5 60 17:20 07.10.2019
615 Rain 25 1014 88 10000 3.1 0 16:56 07.10.2019
616 Clouds 25 1014 88 10000 8.2 30 16:37 07.10.2019
617 Clouds 25 1014 88 10000 8.2 30 16:19 07.10.2019
618 Clouds 27 1014 83 10000 2.6 80 15:43 07.10.2019
619 -273 0 0 0 0 0 15:24 07.10.2019
620 Clear 27 1012 78 10000 1.5 60 14:42 07.10.2019
621 Clear 27 1012 78 10000 1.5 60 14:24 07.10.2019
622 Clear 26 1012 83 10000 2.1 60 13:59 07.10.2019
623 Clear 26 1012 83 10000 2.1 60 13:59 07.10.2019
624 Clear 27 1012 78 10000 1 0 13:40 07.10.2019
625 Clear 27 1012 78 10000 1 0 13:18 07.10.2019
626 Clear 27 1012 83 10000 1.5 0 12:55 07.10.2019
627 Clear 27 1012 83 10000 1.5 0 12:55 07.10.2019
628 Clear 28 1011 74 10000 1 0 12:36 07.10.2019
629 Clear 28 1011 74 10000 1 0 12:18 07.10.2019
630 Clear 27 1011 83 10000 1 0 11:56 07.10.2019
631 Clouds 26 1011 88 10000 2.6 0 11:36 07.10.2019
632 Clouds 26 1011 88 10000 2.6 0 11:18 07.10.2019
633 Thunderstorm 25 1012 88 6000 7.2 40 10:40 07.10.2019
634 Thunderstorm 25 1012 88 6000 7.2 40 10:20 07.10.2019
635 Clouds 33 1011 49 10000 1.5 30 09:42 07.10.2019
636 Clouds 33 1011 49 10000 1.5 30 09:23 07.10.2019
637 Clouds 32 1012 55 10000 1.5 0 08:56 07.10.2019
638 Clouds 32 1012 55 10000 2.6 0 08:37 07.10.2019
639 Clouds 32 1012 55 10000 2.6 0 08:18 07.10.2019
640 Clouds 32 1013 55 10000 1.5 0 07:40 07.10.2019
641 Clouds 32 1013 55 10000 1.5 0 07:20 07.10.2019
642 Clouds 32 1014 59 10000 2.6 280 06:44 07.10.2019
643 Clear 31 1015 58 10000 3.1 290 06:23 07.10.2019
644 Clear 30 1015 66 9000 1.5 300 05:30 07.10.2019
645 Clear 29 1015 70 8000 1.5 0 04:58 07.10.2019
646 Clear 28 1015 74 7000 1 0 04:20 07.10.2019
647 Clear 26 1015 78 6000 1 0 03:44 07.10.2019
648 Clear 26 1015 78 6000 1 0 03:18 07.10.2019
649 Clear 25 1015 83 6000 1 0 02:20 07.10.2019
650 Mist 23 1014 94 4400 2.1 280 01:42 07.10.2019
651 Mist 23 1014 94 4400 2.1 280 01:18 07.10.2019
652 Clear 24 1013 88 8000 2.32 299.987 00:38 07.10.2019
653 Clear 24 1013 88 8000 1.73 296.12 00:19 07.10.2019
654 Clear 24 1013 88 8000 0.5 0 23:42 06.10.2019
655 Clear 24 1013 88 8000 0.5 0 23:21 06.10.2019
656 Clear 24 1013 88 8000 1 0 22:58 06.10.2019
657 Clear 24 1013 88 8000 1 0 22:39 06.10.2019
658 Clear 24 1013 88 8000 1 0 22:21 06.10.2019
659 Clear 24 1013 88 8000 1.5 70 21:56 06.10.2019
660 Clear 25 1013 83 9000 2.1 340 21:37 06.10.2019
661 Clear 25 1013 83 9000 2.1 340 21:19 06.10.2019
662 Clear 25 1013 83 9000 2.1 340 20:56 06.10.2019
663 Clear 25 1014 83 8000 2.1 330 20:38 06.10.2019
664 Clear 25 1014 83 8000 2.1 330 20:38 06.10.2019
665 Clear 25 1014 83 8000 2.1 330 20:19 06.10.2019
666 Clear 25 1014 83 8000 2.1 330 20:19 06.10.2019
667 Clear 25 1014 83 7000 1.5 310 19:56 06.10.2019
668 Clear 25 1014 88 8000 1.5 330 19:36 06.10.2019
669 Clear 25 1014 88 8000 1.5 330 19:36 06.10.2019
670 Clear 25 1014 88 8000 1.5 330 19:18 06.10.2019
671 Clear 25 1014 88 7000 1.5 310 18:55 06.10.2019
672 Clear 26 1014 78 10000 1 0 18:36 06.10.2019
673 Clear 26 1014 78 10000 1 0 18:18 06.10.2019
674 Clear 26 1014 78 10000 1 0 18:18 06.10.2019
675 Clear 26 1014 78 10000 1 0 18:18 06.10.2019
676 Clear 26 1014 78 10000 1 0 18:18 06.10.2019
677 Clear 28 1014 69 10000 2.1 140 17:42 06.10.2019
678 Clear 28 1014 65 10000 3.6 150 17:20 06.10.2019
679 Clear 28 1014 65 10000 3.6 150 17:20 06.10.2019
680 Clear 28 1014 69 10000 2.1 140 17:20 06.10.2019
681 Clear 28 1014 65 10000 3.6 150 16:55 06.10.2019
682 Clear 28 1013 69 10000 3.1 150 16:37 06.10.2019
683 Clear 28 1013 69 10000 3.1 150 16:18 06.10.2019
684 Clear 29 1013 66 9000 3.6 140 15:42 06.10.2019
685 Clouds 29 1013 66 9000 3.6 140 15:21 06.10.2019
686 Clouds 30 1012 62 8000 3.1 130 14:44 06.10.2019
687 Clear 29 1012 66 10000 2.6 100 14:26 06.10.2019
688 Clear 29 1011 62 10000 2.6 90 13:59 06.10.2019
689 Clear 29 1011 66 10000 2.6 100 13:40 06.10.2019
690 Clear 29 1011 66 10000 2.6 100 13:21 06.10.2019
691 Clear 31 1011 58 10000 2.6 80 12:58 06.10.2019
692 Clear 32 1011 52 10000 2.1 90 12:39 06.10.2019
693 Clear 32 1011 52 10000 2.1 90 12:21 06.10.2019
694 Clear 32 1011 55 10000 2.1 50 11:58 06.10.2019
695 Clear 33 1011 52 10000 2.1 60 11:39 06.10.2019
696 Clear 33 1011 52 10000 2.1 60 11:20 06.10.2019
697 Clouds 32 1011 49 10000 1 0 10:46 06.10.2019
698 Clouds 32 1011 52 10000 1 0 10:27 06.10.2019
699 Clouds 33 1012 52 10000 2.1 40 09:58 06.10.2019
700 Clouds 32 1012 55 10000 1.5 0 09:40 06.10.2019
701 Clouds 32 1012 55 10000 1.5 0 09:19 06.10.2019
702 Clouds 32 1012 55 10000 1.5 0 09:19 06.10.2019
703 Clouds 32 1013 55 10000 1.5 0 08:45 06.10.2019
704 Clouds 32 1013 55 10000 1.5 0 08:21 06.10.2019
705 Clouds 32 1013 55 10000 2.1 60 07:57 06.10.2019
706 Clouds 31 1014 58 10000 2.1 80 07:35 06.10.2019
707 Clouds 31 1015 62 10000 1.5 40 06:32 06.10.2019
708 Clouds 30 1015 66 10000 1 0 05:35 06.10.2019
709 Clear 29 1016 74 7000 2.1 340 04:26 06.10.2019
710 Mist 27 1015 83 4500 1 0 02:46 06.10.2019
711 Mist 25 1015 88 3500 1.5 20 02:27 06.10.2019
712 Mist 25 1015 88 3600 1 0 01:46 06.10.2019
713 Mist 25 1014 88 2800 1 50 01:27 06.10.2019
714 Mist 24 1014 94 4800 1.5 60 00:57 06.10.2019
715 Mist 25 1014 88 5000 2.1 70 00:28 06.10.2019
716 Clouds 24 1013 94 6000 1 0 23:45 05.10.2019
717 Clouds 24 1013 94 8000 1.5 60 23:22 05.10.2019
718 Clouds 25 1013 88 6000 2.1 0 22:58 05.10.2019
719 Clouds 24 1013 94 6000 1.5 70 22:40 05.10.2019
720 Clouds 24 1013 94 6000 1.5 70 22:20 05.10.2019
721 Clouds 25 1013 88 6000 1.5 60 21:57 05.10.2019
722 Clouds 25 1013 88 6000 2.6 70 21:38 05.10.2019
723 Rain 25 1013 88 6000 2.6 70 21:18 05.10.2019
724 Rain 25 1013 88 6000 2.1 70 20:56 05.10.2019
725 Rain 25 1013 88 7000 1.5 70 20:37 05.10.2019
726 Rain 25 1013 88 7000 1.5 70 20:37 05.10.2019
727 Rain 25 1013 88 7000 1.5 70 20:18 05.10.2019
728 Mist 26 1014 88 5000 2.6 60 19:38 05.10.2019
729 Mist 26 1014 88 5000 2.6 60 19:19 05.10.2019
730 Rain 26 1014 88 6000 2.1 50 18:55 05.10.2019
731 Rain 26 1014 88 6000 2.1 50 18:55 05.10.2019
732 Rain 26 1014 88 6000 2.1 50 18:37 05.10.2019
733 Rain 26 1014 88 6000 2.1 50 18:19 05.10.2019
734 Rain 26 1014 88 6000 1.5 30 17:43 05.10.2019
735 Rain 26 1013 88 7000 1 0 17:24 05.10.2019
736 Rain 27 1013 78 7000 2.1 110 16:57 05.10.2019
737 Rain 27 1013 78 8000 2.1 90 16:39 05.10.2019
738 Rain 27 1013 78 8000 2.1 90 16:20 05.10.2019
739 Rain 28 1012 74 9000 2.1 140 15:56 05.10.2019
740 Clear 28 1012 74 10000 2.6 140 15:38 05.10.2019
741 Clear 28 1012 74 10000 2.6 140 15:19 05.10.2019
742 Clear 28 1011 74 10000 3.6 140 14:43 05.10.2019
743 Clear 28 1011 74 10000 3.6 140 14:24 05.10.2019
744 Clouds 29 1010 70 10000 4.6 140 13:58 05.10.2019
745 Clouds 29 1010 70 10000 4.1 130 13:40 05.10.2019
746 Clouds 29 1010 70 10000 4.1 130 13:19 05.10.2019
747 Clouds 31 1010 58 10000 4.1 130 12:43 05.10.2019
748 Clouds 31 1010 66 10000 2.6 90 12:19 05.10.2019
749 Clouds 31 1010 62 10000 2.6 180 11:43 05.10.2019
750 Clouds 31 1010 62 10000 2.6 180 11:21 05.10.2019
751 Clouds 31 1010 62 10000 1 0 10:57 05.10.2019
752 Clouds 30 1010 58 10000 2.1 230 10:39 05.10.2019
753 Clouds 30 1010 58 10000 2.1 230 10:21 05.10.2019
754 Thunderstorm 29 1011 70 8000 4.6 190 09:45 05.10.2019
755 Thunderstorm 29 1011 70 8000 4.6 190 09:23 05.10.2019
756 Clouds 31 1011 62 10000 1.5 70 08:56 05.10.2019
757 Clouds 32 1012 59 10000 2.1 330 08:38 05.10.2019
758 Clouds 32 1012 59 10000 2.1 330 08:18 05.10.2019
759 Clouds 32 1012 59 10000 1.5 0 07:46 05.10.2019
760 Clouds 31 1013 62 10000 1 0 07:28 05.10.2019
761 Clouds 31 1013 62 10000 1.5 0 06:56 05.10.2019
762 Clouds 30 1014 70 9000 1.5 0 06:22 05.10.2019
763 Clouds 29 1014 74 8000 2.1 80 05:20 05.10.2019
764 Mist 26 1014 83 4600 2.1 310 03:32 05.10.2019
765 Mist 25 1013 88 3300 2.1 310 02:29 05.10.2019
766 Mist 24 1012 94 4300 1 0 01:27 05.10.2019
767 Clouds 24 1012 88 6000 1 0 00:49 05.10.2019
768 Mist 24 1011 94 5000 1.5 290 00:27 05.10.2019
769 Clouds 24 1011 88 6000 0.3 138.302 23:57 04.10.2019
770 Clouds 24 1011 88 6000 0.3 138.302 23:39 04.10.2019
771 Clouds 24 1011 88 6000 0.3 138.302 23:21 04.10.2019
772 Mist 23 1011 94 5000 1 0 22:42 04.10.2019
773 Mist 23 1011 94 5000 1 0 22:24 04.10.2019
774 Mist 23 1011 94 5000 1 90 21:59 04.10.2019
775 Mist 23 1011 94 5000 2.1 80 21:40 04.10.2019
776 Mist 23 1011 94 5000 2.1 80 21:22 04.10.2019
777 Clouds 24 1011 88 6000 1.5 70 20:58 04.10.2019
778 Clouds 24 1011 88 6000 2.1 80 20:39 04.10.2019
779 Clouds 24 1011 88 6000 2.1 80 20:21 04.10.2019
780 Clouds 24 1011 88 6000 2.6 60 19:55 04.10.2019
781 Clouds 23 1011 94 7000 2.6 70 19:37 04.10.2019
782 Clouds 23 1011 94 7000 2.6 70 19:18 04.10.2019
783 Clouds 24 1012 88 7000 1 80 18:40 04.10.2019
784 Rain 24 1012 88 7000 1 80 18:20 04.10.2019
785 Rain 24 1012 88 7000 1 80 18:20 04.10.2019
786 Rain 24 1012 88 7000 1.5 60 17:58 04.10.2019
787 Rain 24 1012 88 6000 2.6 80 17:39 04.10.2019
788 Rain 24 1012 88 6000 2.6 80 17:20 04.10.2019
789 Rain 23 1011 94 7000 2.1 100 16:55 04.10.2019
790 Rain 23 1011 94 7000 2.1 100 16:55 04.10.2019
791 Rain 23 1011 94 7000 2.1 100 16:55 04.10.2019
792 Rain 24 1011 88 9000 2.1 60 16:37 04.10.2019
793 Rain 24 1011 88 9000 2.1 60 16:18 04.10.2019
794 Clear 24 1011 88 10000 2.1 60 15:55 04.10.2019
795 Clear 24 1011 88 10000 2.1 60 15:55 04.10.2019
796 Clear 24 1010 88 10000 1 90 15:37 04.10.2019
797 Clear 24 1010 88 10000 1 90 15:37 04.10.2019
798 Clear 24 1010 88 10000 1 90 15:37 04.10.2019
799 Clear 24 1010 88 10000 1 90 15:18 04.10.2019
800 Clear 24 1010 88 10000 1.5 50 14:42 04.10.2019
801 Clear 25 1009 78 10000 2.6 130 14:22 04.10.2019
802 Clear 25 1009 78 10000 2.6 130 13:59 04.10.2019
803 Clear 25 1009 83 10000 2.1 140 13:41 04.10.2019
804 Clear 25 1009 83 10000 2.1 140 13:19 04.10.2019
805 Clear 25 1009 83 10000 2.1 140 13:19 04.10.2019
806 Clouds 26 1009 83 10000 3.6 230 12:46 04.10.2019
807 Clouds 26 1009 83 10000 3.6 230 12:46 04.10.2019
808 Clouds 26 1009 83 10000 3.6 230 12:27 04.10.2019
809 Clouds 27 1009 83 10000 3.1 230 11:57 04.10.2019
810 Clouds 27 1008 83 10000 2.6 130 11:38 04.10.2019
811 Clouds 27 1008 83 10000 2.6 130 11:19 04.10.2019
812 Rain 28 1008 83 8000 3.6 130 10:39 04.10.2019
813 Rain 28 1008 83 8000 3.6 130 10:20 04.10.2019
814 Clouds 29 1008 79 10000 3.1 60 09:45 04.10.2019
815 Clouds 29 1008 79 10000 3.1 60 09:27 04.10.2019
816 Clouds 29 1009 79 10000 2.1 70 08:56 04.10.2019
817 Clouds 28 1010 83 8000 3.1 70 08:37 04.10.2019
818 Clouds 28 1010 83 8000 3.1 70 08:19 04.10.2019
819 Rain 27 1011 88 4600 2.1 80 07:43 04.10.2019
820 Rain 27 1011 88 4600 2.1 80 07:21 04.10.2019
821 Clouds 26 1012 88 6000 2.1 30 06:41 04.10.2019
822 Clouds 26 1012 88 6000 2.1 30 06:23 04.10.2019
823 Thunderstorm 26 1013 88 5000 2.1 60 05:23 04.10.2019
824 Thunderstorm 26 1013 88 3900 1 0 04:54 04.10.2019
825 Thunderstorm 25 1012 94 3100 1.5 50 03:43 04.10.2019
826 Mist 25 1011 94 2300 1.5 350 02:53 04.10.2019
827 Mist 25 1011 94 2300 1.5 350 02:53 04.10.2019
828 Thunderstorm 25 1011 94 3400 1 50 01:55 04.10.2019
829 Mist 25 1011 94 2800 1 0 01:29 04.10.2019
830 Mist 25 1011 94 4200 1.5 40 00:50 04.10.2019
831 Mist 25 1010 94 3900 1 0 23:54 03.10.2019
832 Mist 25 1010 94 3900 2.1 100 23:36 03.10.2019
833 Mist 25 1010 94 3900 2.1 100 23:18 03.10.2019
834 Rain 25 1010 94 4000 1.5 90 22:54 03.10.2019
835 Mist 25 1011 94 3900 1 0 22:36 03.10.2019
836 Mist 25 1011 94 3900 1 0 22:18 03.10.2019
837 Mist 25 1011 94 3800 1 0 21:41 03.10.2019
838 Mist 25 1011 94 3800 1 0 21:21 03.10.2019
839 Mist 25 1011 94 3800 1 0 20:59 03.10.2019
840 Mist 25 1011 94 4200 1.5 40 20:41 03.10.2019
841 Mist 25 1011 94 4200 1.5 40 20:23 03.10.2019
842 Mist 25 1012 94 4000 1.5 50 19:59 03.10.2019
843 Mist 25 1012 94 4500 2.1 50 19:41 03.10.2019
844 Mist 25 1012 94 4500 2.1 50 19:20 03.10.2019
845 Mist 25 1012 94 4600 1.5 50 18:57 03.10.2019
846 Mist 25 1012 94 5000 1.5 50 18:38 03.10.2019
847 Mist 25 1012 94 5000 1.5 50 18:38 03.10.2019
848 Clouds 25 1012 94 6000 1 0 18:19 03.10.2019
849 Clouds 25 1012 94 6000 1 0 17:43 03.10.2019
850 Mist 26 1012 83 5000 0.5 0 17:23 03.10.2019
851 Clouds 25 1012 94 6000 1 0 16:58 03.10.2019
852 Rain 25 1011 94 6000 1 0 16:40 03.10.2019
853 Rain 25 1011 94 6000 1 0 16:21 03.10.2019
854 -273 0 0 0 0 0 15:54 03.10.2019
855 Rain 25 1011 88 6000 1.5 40 15:36 03.10.2019
856 Rain 25 1011 88 6000 1.5 40 15:18 03.10.2019
857 Clear 26 1010 83 10000 0.5 0 14:39 03.10.2019
858 Clear 26 1010 83 10000 0.5 0 14:20 03.10.2019
859 Clear 26 1010 83 10000 1 0 13:55 03.10.2019
860 Clear 26 1009 83 10000 1 0 13:36 03.10.2019
861 Clear 26 1009 83 10000 1 0 13:18 03.10.2019
862 Clear 27 1009 78 10000 1.5 330 12:40 03.10.2019
863 Clear 27 1009 78 10000 1.5 330 12:20 03.10.2019
864 Clear 27 1009 78 10000 1.5 330 12:20 03.10.2019
865 Clear 27 1009 78 10000 2.1 340 11:59 03.10.2019
866 Clear 27 1009 78 10000 2.1 340 11:59 03.10.2019
867 Rain 27 1009 78 9000 1 0 11:40 03.10.2019
868 Rain 27 1009 78 9000 1 0 11:21 03.10.2019
869 Clouds 26 1009 83 10000 2.6 140 10:58 03.10.2019
870 Clear 26 1009 83 10000 4.1 140 10:39 03.10.2019
871 Clear 26 1009 83 10000 4.1 140 10:18 03.10.2019
872 Clear 26 1009 78 10000 3.1 110 09:56 03.10.2019
873 Clear 27 1009 78 10000 3.6 0 09:38 03.10.2019
874 Clear 27 1009 78 10000 3.6 0 09:19 03.10.2019
875 Clouds 26 1011 78 10000 1.5 0 08:43 03.10.2019
876 Clouds 26 1011 78 10000 1.5 0 08:43 03.10.2019
877 Clouds 26 1011 78 10000 1.5 0 08:25 03.10.2019
878 Clouds 25 1012 83 10000 2.1 30 07:45 03.10.2019
879 Clouds 24 1013 88 10000 2.6 40 07:20 03.10.2019
880 Clouds 24 1013 88 10000 3.6 70 06:56 03.10.2019
881 Clouds 24 1013 88 10000 2.6 80 06:27 03.10.2019
882 Clouds 24 1013 88 10000 2.1 40 05:49 03.10.2019
883 Clouds 23 1012 94 10000 2.1 10 05:29 03.10.2019
884 Rain 23 1012 94 10000 3.6 40 04:45 03.10.2019
885 Thunderstorm 23 1013 94 7000 2.6 120 03:54 03.10.2019
886 Thunderstorm 22 1013 94 1500 5.7 320 03:19 03.10.2019
887 Thunderstorm 22 1013 94 1500 5.7 320 03:19 03.10.2019
888 Clouds 25 1012 78 10000 4.1 10 02:27 03.10.2019
889 Clouds 25 1011 78 10000 2.1 30 01:40 03.10.2019
890 Clouds 27 1010 83 6000 3.1 80 00:53 03.10.2019
891 Mist 27 1010 88 5000 3.1 100 00:31 03.10.2019
892 Mist 27 1010 88 5000 2.6 90 23:55 02.10.2019
893 Clouds 27 1010 88 6000 3.1 110 23:36 02.10.2019
894 Clouds 27 1010 88 6000 3.1 110 23:18 02.10.2019
895 Clouds 27 1010 88 6000 3.6 100 22:41 02.10.2019
896 Clouds 27 1010 88 6000 3.6 100 22:20 02.10.2019
897 Mist 27 1010 88 5000 3.1 100 21:55 02.10.2019
898 Mist 27 1010 88 5000 3.1 100 21:55 02.10.2019
899 Clouds 27 1010 88 6000 3.6 100 21:37 02.10.2019
900 Clouds 27 1010 88 6000 3.6 100 21:18 02.10.2019
901 Clouds 27 1010 88 6000 3.6 100 21:18 02.10.2019
902 Clouds 28 1010 78 8000 2.6 120 20:55 02.10.2019
903 Clouds 28 1010 78 8000 2.6 120 20:55 02.10.2019
904 Clouds 28 1010 78 8000 2.6 120 20:55 02.10.2019
905 Clouds 28 1010 78 8000 2.6 120 20:54 02.10.2019
906 Clouds 28 1011 83 8000 3.1 130 20:36 02.10.2019
907 Clouds 28 1011 83 8000 3.1 130 20:18 02.10.2019
908 Clouds 28 1011 83 8000 3.1 130 20:18 02.10.2019
909 Clouds 28 1011 78 9000 4.1 140 19:42 02.10.2019
910 Clouds 28 1011 78 9000 4.1 140 19:21 02.10.2019
911 Clouds 28 1011 78 9000 3.6 140 18:57 02.10.2019
912 Clouds 28 1011 78 9000 3.1 140 18:38 02.10.2019
913 Clouds 28 1011 78 9000 3.1 140 18:20 02.10.2019
914 Clouds 28 1011 78 7000 3.1 160 17:56 02.10.2019
915 Clouds 28 1011 78 7000 3.1 140 17:37 02.10.2019
916 Clouds 28 1011 78 7000 3.1 140 17:19 02.10.2019
917 Clouds 28 1011 78 8000 4.1 140 16:42 02.10.2019
918 Clouds 29 1010 74 8000 4.6 140 16:22 02.10.2019
919 Clouds 29 1010 74 8000 4.6 140 15:59 02.10.2019
920 Clouds 29 1010 74 6000 4.1 130 15:38 02.10.2019
921 Clouds 29 1010 74 6000 4.1 130 15:20 02.10.2019
922 Clouds 29 1009 74 7000 5.1 120 14:57 02.10.2019
923 Mist 29 1009 74 5000 4.1 130 14:39 02.10.2019
924 Mist 29 1009 74 5000 4.1 130 14:20 02.10.2019
925 Mist 30 1008 70 5000 4.1 120 13:43 02.10.2019
926 Mist 30 1008 70 5000 4.1 120 13:24 02.10.2019
927 Clouds 30 1008 70 6000 4.1 100 12:58 02.10.2019
928 Clouds 31 1008 66 8000 4.6 100 12:37 02.10.2019
929 Clouds 32 1008 62 7000 3.6 90 12:18 02.10.2019
930 Clouds 31 1008 66 7000 3.6 80 11:44 02.10.2019
931 Clouds 31 1008 66 7000 3.6 80 11:23 02.10.2019
932 Clouds 31 1008 66 7000 3.1 80 10:42 02.10.2019
933 Clouds 31 1008 66 7000 3.1 80 10:20 02.10.2019
934 Clouds 32 1008 62 6000 2.6 90 09:57 02.10.2019
935 Clouds 32 1009 62 6000 2.6 90 09:36 02.10.2019
936 Clouds 32 1009 62 6000 2.6 90 09:18 02.10.2019
937 Haze 31 1010 66 5000 2.1 70 08:43 02.10.2019
938 Haze 31 1010 66 5000 2.1 70 08:22 02.10.2019
939 Mist 30 1010 70 5000 2.6 80 07:56 02.10.2019
940 Mist 30 1010 70 5000 2.6 80 07:56 02.10.2019
941 Mist 30 1011 70 4900 2.1 70 07:37 02.10.2019
942 Haze 30 1011 70 5000 2.1 130 07:19 02.10.2019
943 Haze 30 1011 70 5000 2.1 130 07:19 02.10.2019
944 Mist 29 1012 74 4500 2.1 60 06:31 02.10.2019
945 Mist 29 1012 74 5000 3.1 80 05:52 02.10.2019
946 Mist 29 1012 74 5000 3.1 80 05:23 02.10.2019
947 Mist 28 1012 78 4300 2.6 70 04:41 02.10.2019
948 Mist 27 1012 78 3600 3.1 60 03:51 02.10.2019
949 Mist 26 1012 83 2800 2.1 50 02:39 02.10.2019
950 Mist 26 1012 83 2800 2.1 50 02:20 02.10.2019
951 Mist 25 1011 88 2800 2.6 70 01:18 02.10.2019
952 Mist 25 1010 88 3800 3.1 70 00:30 02.10.2019
953 Mist 25 1010 88 4000 2.6 70 23:59 01.10.2019
954 Mist 25 1010 88 4300 2.6 70 23:41 01.10.2019
955 Mist 25 1010 88 4300 2.6 70 23:41 01.10.2019
956 Mist 25 1010 88 4300 2.6 70 23:22 01.10.2019
957 Mist 25 1010 88 4800 2.6 70 22:58 01.10.2019
958 Mist 25 1010 88 4900 3.1 70 22:38 01.10.2019
959 Mist 25 1010 88 4900 3.1 70 22:18 01.10.2019
960 Mist 25 1011 88 4600 2.6 80 21:44 01.10.2019
961 Mist 25 1011 88 4600 2.6 80 21:24 01.10.2019
962 Mist 25 1011 88 4500 3.1 70 20:59 01.10.2019
963 Mist 25 1011 88 4500 2.6 70 20:39 01.10.2019
964 Mist 25 1011 88 4500 2.6 70 20:21 01.10.2019
965 Mist 25 1011 88 4000 3.1 80 19:59 01.10.2019
966 Mist 26 1011 83 4000 2.6 80 19:41 01.10.2019
967 Mist 26 1011 83 4000 2.6 80 19:23 01.10.2019
968 Mist 26 1011 78 4800 3.1 90 18:56 01.10.2019
969 Mist 26 1011 78 4800 3.1 90 18:56 01.10.2019
970 Mist 26 1011 78 5000 2.6 80 18:38 01.10.2019
971 Clear 27 1010 74 6000 3.1 130 18:19 01.10.2019
972 Clear 28 1010 69 8000 3.1 140 17:43 01.10.2019
973 Clear 28 1010 69 8000 3.1 140 17:22 01.10.2019
974 Clear 28 1010 69 8000 3.6 130 16:59 01.10.2019
975 Clear 28 1010 65 9000 3.6 140 16:41 01.10.2019
976 Clear 28 1010 65 9000 3.6 140 16:22 01.10.2019
977 Clear 29 1009 66 8000 4.1 140 15:49 01.10.2019
978 Clouds 29 1009 66 8000 4.1 140 15:25 01.10.2019
979 Clouds 29 1009 66 8000 5.1 150 14:58 01.10.2019
980 Clouds 30 1008 62 9000 5.7 140 14:40 01.10.2019
981 Clouds 30 1008 62 9000 5.7 140 14:19 01.10.2019
982 Clouds 30 1008 62 7000 6.2 130 13:56 01.10.2019
983 Clouds 30 1007 55 6000 3.1 90 13:37 01.10.2019
984 Clear 31 1007 52 6000 3.6 90 13:18 01.10.2019
985 Clear 31 1007 52 6000 3.6 90 12:55 01.10.2019
986 Clear 31 1007 52 6000 3.6 90 12:55 01.10.2019
987 Clear 32 1007 49 7000 3.6 90 12:37 01.10.2019
988 Clear 33 1007 46 7000 3.6 80 12:18 01.10.2019
989 Clear 33 1007 46 7000 3.6 80 11:54 01.10.2019
990 Clear 33 1007 46 9000 3.6 90 11:36 01.10.2019
991 Clear 33 1007 46 8000 3.1 90 11:18 01.10.2019
992 Clear 33 1008 46 8000 3.1 80 10:44 01.10.2019
993 Clear 33 1008 46 8000 3.1 80 10:25 01.10.2019
994 Clear 33 1008 49 7000 2.1 0 09:44 01.10.2019
995 Clear 33 1008 49 7000 2.1 0 09:26 01.10.2019
996 Clear 33 1009 49 6000 0.5 0 08:44 01.10.2019
997 Clear 33 1009 49 6000 0.5 0 08:25 01.10.2019
998 Clear 32 1010 49 6000 1.5 0 07:50 01.10.2019
999 Clear 32 1010 52 6000 2.1 0 07:26 01.10.2019
1000 Clear 31 1011 52 6000 1 0 06:51 01.10.2019
1001 Clear 31 1011 52 6000 1 0 06:25 01.10.2019
1002 Haze 29 1012 66 4700 1.5 0 05:50 01.10.2019
1003 Haze 28 1012 65 4400 1.5 0 05:20 01.10.2019
1004 Haze 28 1012 69 4200 2.1 70 04:35 01.10.2019
1005 Haze 26 1012 74 4000 2.6 60 03:32 01.10.2019
1006 Mist 24 1011 83 2500 1.5 60 02:18 01.10.2019
1007 Mist 24 1010 83 2600 2.1 50 01:41 01.10.2019
1008 Mist 24 1010 88 3500 2.1 60 00:42 01.10.2019
1009 Mist 24 1010 88 3300 2.1 60 00:24 01.10.2019
1010 Mist 24 1010 88 3200 2.1 60 23:41 30.09.2019
1011 Mist 24 1010 88 3200 2.1 60 23:22 30.09.2019
1012 Mist 24 1010 88 2900 2.6 70 22:45 30.09.2019
1013 Mist 24 1010 88 2900 2.6 70 22:26 30.09.2019
1014 Mist 24 1010 88 2900 2.6 60 21:58 30.09.2019
1015 Mist 24 1010 88 3200 2.1 70 21:39 30.09.2019
1016 Mist 24 1010 88 3200 2.1 70 21:20 30.09.2019
1017 Mist 24 1010 88 3200 2.1 70 21:20 30.09.2019
1018 Mist 25 1010 83 3300 2.1 70 20:58 30.09.2019
1019 Haze 25 1010 83 3900 2.1 60 20:39 30.09.2019
1020 Haze 26 1010 78 4100 2.1 50 20:20 30.09.2019
1021 Haze 26 1010 78 4100 2.1 50 19:57 30.09.2019
1022 Haze 26 1010 78 4300 1 20 19:39 30.09.2019
1023 Haze 26 1010 78 5000 1.5 100 19:19 30.09.2019
1024 Haze 26 1010 78 5000 1.5 100 18:58 30.09.2019
1025 Haze 26 1010 78 5000 1.5 100 18:57 30.09.2019
1026 Smoke 28 1010 65 5000 2.6 140 18:39 30.09.2019
1027 Smoke 27 1010 69 5000 3.1 140 18:20 30.09.2019
1028 Smoke 28 1011 65 5000 3.6 130 17:44 30.09.2019
1029 Smoke 28 1011 65 5000 3.6 130 17:24 30.09.2019
1030 Clear 28 1010 65 6000 3.6 140 16:58 30.09.2019
1031 Clear 29 1010 62 6000 3.6 150 16:40 30.09.2019
1032 Clear 29 1010 62 6000 3.6 150 16:19 30.09.2019
1033 Clear 29 1010 66 6000 4.1 150 15:58 30.09.2019
1034 Smoke 29 1009 62 5000 4.1 140 15:38 30.09.2019
1035 Smoke 29 1009 62 5000 4.1 140 15:19 30.09.2019
1036 Smoke 29 1009 54 4700 0.5 0 14:57 30.09.2019
1037 Smoke 30 1009 51 4500 1 0 14:37 30.09.2019
1038 Smoke 30 1009 51 4500 1 0 14:37 30.09.2019
1039 Smoke 30 1009 51 4500 1 0 14:19 30.09.2019
1040 Smoke 30 1008 51 4000 1 0 13:57 30.09.2019
1041 Smoke 30 1008 48 5000 1.5 80 13:38 30.09.2019
1042 Clear 31 1008 45 10000 1 0 13:20 30.09.2019
1043 Clear 32 1008 46 10000 1 0 12:43 30.09.2019
1044 Clear 32 1008 46 10000 1 0 12:22 30.09.2019
1045 Clear 33 1008 41 10000 1.5 50 11:57 30.09.2019
1046 Clear 33 1008 41 10000 1.5 50 11:57 30.09.2019
1047 Clear 33 1008 41 10000 1.5 50 11:57 30.09.2019
1048 Clear 33 1008 38 10000 2.1 70 11:38 30.09.2019
1049 Clear 33 1008 38 10000 2.1 70 11:19 30.09.2019
1050 Clear 33 1008 38 10000 2.1 70 11:19 30.09.2019
1051 Clear 33 1008 38 10000 2.1 220 10:41 30.09.2019
1052 Clear 33 1008 38 10000 2.1 220 10:19 30.09.2019
1053 Clear 33 1008 38 10000 1.5 0 09:59 30.09.2019
1054 Clear 34 1009 38 10000 1 0 09:39 30.09.2019
1055 Clear 34 1009 38 10000 1 0 09:20 30.09.2019
1056 Clear 34 1009 41 10000 1.5 0 08:47 30.09.2019
1057 Clear 34 1009 41 10000 1.5 0 08:47 30.09.2019
1058 Clear 33 1010 46 10000 2.6 190 08:29 30.09.2019
1059 Clear 32 1011 52 6000 1.5 0 07:46 30.09.2019
1060 Smoke 31 1011 55 5000 2.1 290 07:28 30.09.2019
1061 Smoke 31 1011 55 5000 2.1 290 06:56 30.09.2019
1062 Smoke 30 1012 62 5000 2.6 310 06:34 30.09.2019
1063 Smoke 29 1013 62 4700 2.6 330 05:48 30.09.2019
1064 Smoke 29 1013 62 4700 2.6 330 05:48 30.09.2019
1065 Smoke 27 1013 69 4500 2.6 310 04:40 30.09.2019
1066 Mist 24 1013 83 3600 2.1 310 02:48 30.09.2019
1067 Mist 22 1012 94 2100 1.5 290 01:38 30.09.2019
1068 Mist 24 1011 88 3600 0.5 30 00:42 30.09.2019
1069 Mist 24 1011 88 3600 0.5 30 00:22 30.09.2019
1070 Mist 24 1011 88 3800 1.5 40 23:48 29.09.2019
1071 Mist 24 1011 88 3800 1.5 40 23:28 29.09.2019
1072 Mist 24 1011 88 3400 1 70 22:59 29.09.2019
1073 Mist 24 1011 88 3100 1 340 22:41 29.09.2019
1074 Mist 24 1011 88 3100 1 340 22:23 29.09.2019
1075 Mist 25 1011 83 3100 1.5 40 21:58 29.09.2019
1076 Mist 25 1012 83 3200 2.1 50 21:37 29.09.2019
1077 Mist 25 1012 83 3200 2.1 70 21:19 29.09.2019
1078 Mist 25 1012 83 3500 1.5 50 20:45 29.09.2019
1079 Mist 25 1012 83 3500 1.5 50 20:20 29.09.2019
1080 Mist 25 1012 83 3500 1.5 50 20:20 29.09.2019
1081 Mist 25 1012 83 3900 2.1 60 19:59 29.09.2019
1082 Mist 25 1013 78 4200 1.5 50 19:38 29.09.2019
1083 Mist 25 1013 78 4200 1.5 50 19:19 29.09.2019
1084 Mist 26 1013 74 4500 1.5 90 18:56 29.09.2019
1085 Mist 26 1013 74 4700 2.1 70 18:38 29.09.2019
1086 Mist 26 1013 74 4700 2.1 70 18:19 29.09.2019
1087 Mist 26 1013 69 5000 1.5 60 17:58 29.09.2019
1088 Clear 25 1013 78 6000 1.5 300 17:40 29.09.2019
1089 Clear 25 1013 78 6000 1.5 300 17:20 29.09.2019
1090 Clear 26 1013 74 6000 1.5 350 16:58 29.09.2019
1091 Haze 27 1013 69 4200 1 0 16:40 29.09.2019
1092 Haze 27 1013 69 4200 1 0 16:19 29.09.2019
1093 Haze 27 1012 65 4100 0.5 0 15:57 29.09.2019
1094 Haze 27 1012 65 4100 0.5 0 15:57 29.09.2019
1095 Haze 30 1012 51 5000 1.18 177.669 15:36 29.09.2019
1096 Haze 30 1012 51 5000 1.7 211.149 15:18 29.09.2019
1097 Clear 30 1012 48 6000 1.5 190 14:55 29.09.2019
1098 Clear 31 1011 45 8000 1.5 200 14:36 29.09.2019
1099 Clear 31 1011 43 7000 2.1 210 14:18 29.09.2019
1100 Clear 31 1011 43 6000 1.5 250 13:42 29.09.2019
1101 Clear 31 1011 43 6000 1.5 250 13:19 29.09.2019
1102 Clear 31 1011 45 10000 1 0 12:58 29.09.2019
1103 Clear 32 1011 46 10000 1 290 12:40 29.09.2019
1104 Clear 32 1011 46 10000 1 290 12:40 29.09.2019
1105 Clear 32 1011 46 10000 1 290 12:21 29.09.2019
1106 Clear 33 1011 41 10000 2.1 300 11:57 29.09.2019
1107 Clear 33 1011 41 10000 2.1 330 11:39 29.09.2019
1108 Clear 34 1011 38 10000 2.6 0 11:18 29.09.2019
1109 Clear 34 1011 38 10000 2.6 0 10:57 29.09.2019
1110 Clear 33 1011 41 10000 2.1 280 10:36 29.09.2019
1111 Clear 33 1011 41 10000 2.1 280 10:18 29.09.2019
1112 Clear 33 1012 43 10000 2.1 0 09:44 29.09.2019
1113 Clear 33 1012 43 10000 2.1 0 09:21 29.09.2019
1114 Clear 33 1012 43 10000 3.1 290 08:58 29.09.2019
1115 Clear 32 1013 49 10000 2.1 300 08:38 29.09.2019
1116 Clear 32 1013 49 10000 2.1 300 08:18 29.09.2019
1117 Clear 32 1014 52 10000 3.1 290 07:41 29.09.2019
1118 Clear 32 1014 52 10000 3.1 290 07:41 29.09.2019
1119 Clear 32 1014 52 10000 3.1 290 07:23 29.09.2019
1120 Clear 31 1015 52 10000 4.1 290 07:23 29.09.2019
1121 Clear 31 1016 52 8000 3.6 310 06:42 29.09.2019
1122 Mist 28 1017 69 4700 2.6 290 04:59 29.09.2019
1123 Mist 27 1017 69 5000 3.1 300 04:25 29.09.2019
1124 Mist 26 1017 78 3400 1.5 290 03:55 29.09.2019
1125 Mist 23 1016 88 3200 2.1 330 02:40 29.09.2019
1126 Mist 23 1016 88 3200 2.1 330 02:18 29.09.2019
1127 Mist 22 1016 88 5000 1 290 01:30 29.09.2019
1128 Clear 22 1015 88 6000 1 320 00:42 29.09.2019
1129 Clear 22 1015 88 6000 1 320 00:19 29.09.2019
1130 Clear 22 1015 94 6000 1.5 330 23:42 28.09.2019
1131 Clear 22 1015 94 6000 1.5 330 23:22 28.09.2019
1132 Clear 22 1015 94 6000 1.5 290 22:56 28.09.2019
1133 Clear 23 1015 83 7000 1.5 310 22:37 28.09.2019
1134 Clear 23 1015 83 7000 1.5 310 22:37 28.09.2019
1135 Clear 24 1015 78 7000 1.5 300 22:19 28.09.2019
1136 -273 0 0 0 0 0 21:54 28.09.2019
1137 Clear 23 1015 83 7000 1.5 310 21:36 28.09.2019
1138 Clear 24 1015 78 6000 1 0 21:18 28.09.2019
1139 Clear 24 1015 78 6000 1 0 20:54 28.09.2019
1140 Clear 24 1015 78 7000 0.5 0 20:36 28.09.2019
1141 Clear 24 1015 78 7000 0.5 0 20:36 28.09.2019
1142 Clear 25 1015 73 8000 1 0 20:18 28.09.2019
1143 Clear 25 1015 73 8000 1 0 20:18 28.09.2019
1144 Clear 25 1015 73 7000 1 70 19:42 28.09.2019
1145 Clear 25 1015 73 7000 1 70 19:42 28.09.2019
1146 Clear 26 1015 69 7000 1.5 30 19:22 28.09.2019
1147 Clear 26 1015 69 7000 1.5 30 18:58 28.09.2019
1148 Clear 25 1016 78 7000 2.1 80 18:40 28.09.2019
1149 Clear 26 1015 69 9000 1.5 310 18:21 28.09.2019
1150 Clear 26 1015 69 9000 1.5 310 18:21 28.09.2019
1151 Clear 26 1015 69 9000 1.5 310 18:21 28.09.2019
1152 Clear 26 1015 69 9000 1.5 310 17:57 28.09.2019
1153 Clear 26 1015 69 9000 1.5 310 17:57 28.09.2019
1154 Clear 26 1015 74 8000 1.5 310 17:38 28.09.2019
1155 Clear 26 1015 74 8000 1.5 310 17:20 28.09.2019
1156 Clear 26 1015 74 7000 1.5 310 16:45 28.09.2019
1157 Clear 26 1015 74 7000 1.5 310 16:27 28.09.2019
1158 Clear 27 1015 65 6000 1 0 15:42 28.09.2019
1159 Clear 27 1015 65 6000 1 0 15:24 28.09.2019
1160 Clear 27 1015 65 6000 1 0 15:24 28.09.2019
1161 Smoke 27 1014 61 3900 1.5 330 14:58 28.09.2019
1162 Smoke 29 1014 54 5000 1.5 290 14:40 28.09.2019
1163 Smoke 29 1014 54 5000 1.5 290 14:21 28.09.2019
1164 Smoke 29 1014 51 5000 1 0 13:58 28.09.2019
1165 Clear 30 1013 45 10000 1.5 300 13:40 28.09.2019
1166 Clear 30 1013 45 10000 1.5 300 13:20 28.09.2019
1167 Clear 32 1013 38 10000 1 0 12:46 28.09.2019
1168 Clear 32 1013 38 10000 1 0 12:21 28.09.2019
1169 Clear 33 1013 36 10000 1 0 11:59 28.09.2019
1170 Clear 33 1013 33 10000 1 0 11:40 28.09.2019
1171 Clear 33 1013 33 10000 1 0 11:40 28.09.2019
1172 Clear 33 1013 33 10000 1 0 11:19 28.09.2019
1173 Clear 33 1014 38 10000 1.5 0 10:44 28.09.2019
1174 Clear 33 1014 38 10000 1.5 0 10:21 28.09.2019
1175 Clear 33 1014 41 10000 1 0 09:58 28.09.2019
1176 Clear 33 1014 38 10000 1.5 40 09:40 28.09.2019
1177 Clear 33 1014 38 10000 1.5 40 09:40 28.09.2019
1178 Clear 32 1015 49 10000 1.5 230 09:18 28.09.2019
1179 Clear 32 1015 49 10000 2.1 0 08:46 28.09.2019
1180 Clear 32 1015 49 10000 2.1 0 08:28 28.09.2019
1181 Clear 31 1016 55 10000 2.6 280 07:46 28.09.2019
1182 Clear 31 1017 55 9000 2.6 310 07:24 28.09.2019
1183 Clear 31 1017 55 9000 2.6 310 06:56 28.09.2019
1184 Clear 30 1017 55 10000 1.5 290 06:32 28.09.2019
1185 Clear 29 1018 62 9000 2.1 0 05:57 28.09.2019
1186 Clear 29 1018 62 8000 2.6 300 05:24 28.09.2019
1187 Clear 26 1018 69 6000 2.1 320 04:41 28.09.2019
1188 Mist 25 1018 73 5000 2.6 300 03:59 28.09.2019
1189 Mist 25 1018 78 4800 3.1 310 03:24 28.09.2019
1190 Mist 23 1018 88 3700 2.1 310 02:57 28.09.2019
1191 Mist 23 1017 88 4100 2.1 330 02:34 28.09.2019
1192 Mist 22 1017 88 4600 1 320 01:50 28.09.2019
1193 Mist 22 1017 88 4100 1.5 330 01:27 28.09.2019
1194 Clear 22 1016 88 6000 2.1 330 00:58 28.09.2019
1195 Clear 22 1016 88 7000 1.5 310 00:38 28.09.2019
1196 Clear 22 1016 88 8000 2.1 290 00:18 28.09.2019
1197 Clear 22 1016 88 8000 1 300 23:37 27.09.2019
1198 Clear 22 1016 88 8000 1 300 23:19 27.09.2019
1199 Clear 22 1016 88 7000 1.5 300 22:45 27.09.2019
1200 Clear 22 1016 88 7000 1.5 300 22:45 27.09.2019
1201 Clear 24 1016 83 7000 1.5 300 22:19 27.09.2019
1202 Clear 24 1016 83 7000 0.5 0 21:57 27.09.2019
1203 Clear 24 1016 83 6000 1 0 21:37 27.09.2019
1204 Clear 24 1016 83 6000 1 0 21:19 27.09.2019
1205 Clear 24 1016 83 6000 1.5 10 20:56 27.09.2019
1206 Clear 24 1016 83 6000 1.5 10 20:56 27.09.2019
1207 Clear 25 1016 73 6000 1 0 20:38 27.09.2019
1208 Clear 25 1016 73 6000 1 0 20:19 27.09.2019
1209 Clear 25 1017 73 7000 1.5 50 19:44 27.09.2019
1210 Clear 25 1017 73 7000 1.5 50 19:24 27.09.2019
1211 Clear 25 1017 73 7000 1.5 50 19:24 27.09.2019
1212 Clear 25 1017 73 8000 2.6 70 18:59 27.09.2019
1213 Clear 25 1017 73 8000 2.1 60 18:40 27.09.2019
1214 Clear 25 1017 73 8000 2.1 60 18:21 27.09.2019
1215 Clear 25 1017 78 7000 2.6 60 17:55 27.09.2019
1216 Clear 26 1017 69 8000 1.5 30 17:36 27.09.2019
1217 Clear 26 1017 69 7000 1 0 17:18 27.09.2019
1218 Clear 26 1017 69 7000 1 0 16:54 27.09.2019
1219 Clear 26 1017 69 7000 1 0 16:54 27.09.2019
1220 Clear 26 1016 74 7000 1.5 340 16:36 27.09.2019
1221 Clear 26 1016 74 7000 1.5 340 16:18 27.09.2019
1222 Smoke 27 1016 74 4300 1 0 15:42 27.09.2019
1223 Smoke 27 1016 74 4300 1 0 15:20 27.09.2019
1224 Smoke 28 1016 65 4400 1 320 14:56 27.09.2019
1225 Clear 28 1015 58 6000 1.5 300 14:38 27.09.2019
1226 Clear 28 1015 58 6000 1.5 300 14:38 27.09.2019
1227 Clear 28 1015 54 7000 1.5 300 14:18 27.09.2019
1228 Clear 28 1015 54 7000 1.5 300 13:56 27.09.2019
1229 Clear 29 1015 51 8000 2.1 310 13:38 27.09.2019
1230 Clear 30 1015 48 10000 2.1 310 13:18 27.09.2019
1231 Clear 31 1015 45 10000 2.1 310 12:43 27.09.2019
1232 Clear 31 1015 43 10000 1 0 12:21 27.09.2019
1233 Clear 31 1015 43 10000 1 0 12:21 27.09.2019
1234 Clear 32 1015 40 10000 1.5 310 11:40 27.09.2019
1235 Clear 32 1015 40 10000 1.5 310 11:22 27.09.2019
1236 Clear 32 1015 38 10000 2.6 250 10:58 27.09.2019
1237 Clear 32 1015 38 10000 2.6 250 10:58 27.09.2019
1238 Clear 32 1015 38 10000 2.1 290 10:40 27.09.2019
1239 Clear 32 1015 38 10000 2.1 290 10:20 27.09.2019
1240 Clear 32 1016 38 10000 2.1 340 09:43 27.09.2019
1241 Clear 32 1016 38 10000 2.1 340 09:22 27.09.2019
1242 Clear 32 1016 40 10000 1.5 0 08:58 27.09.2019
1243 Clear 32 1017 38 10000 1.5 0 08:39 27.09.2019
1244 Clear 32 1017 38 10000 1.5 0 08:20 27.09.2019
1245 Clear 31 1018 40 10000 1.5 280 07:46 27.09.2019
1246 Clear 31 1018 40 10000 2.6 40 07:23 27.09.2019
1247 Clear 31 1019 38 10000 3.1 50 06:43 27.09.2019
1248 Clear 31 1019 38 10000 3.1 50 06:24 27.09.2019
1249 Clear 30 1019 42 10000 2.1 0 05:51 27.09.2019
1250 Clear 30 1019 42 10000 2.1 0 05:32 27.09.2019
1251 Mist 26 1020 78 4500 1.5 310 03:56 27.09.2019
1252 Mist 25 1019 83 3800 2.1 310 03:34 27.09.2019
1253 Mist 24 1019 88 3100 1.5 310 01:52 27.09.2019
1254 Mist 24 1018 88 3500 0.5 290 01:28 27.09.2019
1255 Mist 24 1018 88 5000 1.5 340 00:22 27.09.2019
1256 Clear 24 1018 88 6000 1.5 300 23:56 26.09.2019
1257 Clear 24 1017 83 6000 1 290 23:38 26.09.2019
1258 Clear 24 1017 83 6000 1 290 23:18 26.09.2019
1259 Clear 24 1017 83 6000 1 290 23:18 26.09.2019
1260 Clear 24 1017 83 7000 1.5 290 22:56 26.09.2019
1261 Clear 24 1017 83 7000 1.5 290 22:56 26.09.2019
1262 Clear 24 1017 78 8000 1.5 310 22:38 26.09.2019
1263 Clear 25 1017 69 10000 1 0 22:18 26.09.2019
1264 Clear 25 1017 69 10000 1 0 21:55 26.09.2019
1265 Clear 25 1017 78 8000 2.1 340 21:36 26.09.2019
1266 Clouds 25 1017 78 8000 2.1 340 21:18 26.09.2019
1267 Clouds 25 1017 78 7000 0.5 0 20:57 26.09.2019
1268 Clouds 25 1018 78 7000 1.5 320 20:39 26.09.2019
1269 Clouds 25 1018 78 7000 1.5 320 20:20 26.09.2019
1270 Clouds 25 1018 78 8000 0.5 0 19:40 26.09.2019
1271 Clouds 25 1018 83 6000 1.5 330 19:19 26.09.2019
1272 Clouds 25 1018 83 6000 1.5 330 18:59 26.09.2019
1273 Clouds 25 1018 83 6000 1.5 330 18:59 26.09.2019
1274 Clouds 25 1018 83 6000 1.5 330 18:59 26.09.2019
1275 Clouds 25 1018 83 6000 2.1 310 18:39 26.09.2019
1276 Clouds 26 1018 74 6000 1.5 310 18:21 26.09.2019
1277 Clouds 26 1018 74 6000 1.5 310 17:56 26.09.2019
1278 Clouds 26 1018 78 6000 1.5 300 17:37 26.09.2019
1279 Clouds 26 1018 78 6000 1.5 300 17:18 26.09.2019
1280 Clouds 26 1018 78 6000 2.1 310 17:18 26.09.2019
1281 Clouds 26 1017 74 6000 2.1 320 16:40 26.09.2019
1282 Clouds 26 1017 74 6000 2.1 320 16:21 26.09.2019
1283 Clouds 26 1017 74 6000 2.1 320 16:21 26.09.2019
1284 Mist 27 1017 74 5000 1.5 310 15:58 26.09.2019
1285 Mist 27 1017 74 5000 2.6 310 15:38 26.09.2019
1286 Mist 27 1017 74 5000 2.6 310 15:19 26.09.2019
1287 Clouds 27 1017 74 5000 2.1 320 14:57 26.09.2019
1288 Clouds 27 1016 69 6000 3.1 290 14:37 26.09.2019
1289 Clouds 27 1016 69 6000 3.1 290 14:19 26.09.2019
1290 Clouds 28 1016 65 7000 3.6 290 13:41 26.09.2019
1291 Clouds 28 1016 65 7000 3.6 290 13:20 26.09.2019
1292 Clear 29 1016 54 10000 3.6 290 13:20 26.09.2019
1293 Clear 29 1016 54 10000 3.6 290 13:20 26.09.2019
1294 Clear 29 1016 54 10000 3.6 290 12:57 26.09.2019
1295 Clouds 29 1016 58 8000 3.6 280 12:39 26.09.2019
1296 Clouds 29 1016 58 8000 3.6 280 12:20 26.09.2019
1297 Clear 31 1015 43 10000 3.1 300 11:42 26.09.2019
1298 Clear 31 1015 43 10000 3.1 300 11:22 26.09.2019
1299 Clear 31 1015 40 10000 2.1 0 10:56 26.09.2019
1300 Clear 31 1015 40 10000 2.1 0 10:56 26.09.2019
1301 Clear 31 1015 40 10000 2.1 0 10:56 26.09.2019
1302 Clear 31 1016 40 10000 2.6 30 10:38 26.09.2019
1303 Clear 31 1016 40 10000 2.6 30 10:38 26.09.2019
1304 Clear 31 1016 40 10000 2.6 30 10:19 26.09.2019
1305 Clear 32 1016 38 10000 2.6 340 09:43 26.09.2019
1306 Clear 32 1016 38 10000 2.6 340 09:25 26.09.2019
1307 Clear 32 1016 38 10000 3.1 0 08:56 26.09.2019
1308 Clear 32 1017 38 10000 2.6 20 08:38 26.09.2019
1309 Clear 32 1017 38 10000 2.6 20 08:19 26.09.2019
1310 Clear 31 1018 43 10000 2.1 0 07:41 26.09.2019
1311 Clear 30 1018 48 10000 2.1 340 07:20 26.09.2019
1312 Clear 29 1019 58 10000 3.1 300 06:43 26.09.2019
1313 Clear 29 1019 58 10000 3.1 300 06:43 26.09.2019
1314 Clear 29 1019 58 10000 3.1 300 06:24 26.09.2019
1315 Clear 28 1019 65 10000 2.6 290 05:44 26.09.2019
1316 Clear 28 1019 65 10000 2.6 290 05:21 26.09.2019
1317 Mist 24 1019 83 4600 1.5 310 02:47 26.09.2019
1318 Clouds 23 1018 83 6000 1 0 01:53 26.09.2019
1319 Mist 22 1018 94 5000 1 320 01:28 26.09.2019
1320 Clouds 23 1018 83 8000 1.6 292.213 00:55 26.09.2019
1321 Clouds 23 1018 83 9000 1.6 292.213 00:37 26.09.2019
1322 Clouds 23 1017 83 8000 1.5 320 23:47 25.09.2019
1323 Clouds 23 1017 83 8000 1.5 320 23:28 25.09.2019
1324 Clouds 23 1017 88 8000 2.1 310 22:57 25.09.2019
1325 Clouds 24 1017 78 8000 0.5 0 22:39 25.09.2019
1326 Clouds 24 1017 78 8000 0.5 0 22:20 25.09.2019
1327 Clouds 24 1017 83 7000 1 0 21:56 25.09.2019
1328 Clouds 24 1017 78 8000 2.1 330 21:38 25.09.2019
1329 Clouds 24 1017 78 8000 2.1 330 21:19 25.09.2019
1330 Clouds 24 1018 83 7000 1.5 330 20:56 25.09.2019
1331 Clouds 25 1018 78 7000 1 340 20:38 25.09.2019
1332 Clouds 25 1018 78 7000 1 340 20:19 25.09.2019
1333 Clouds 27 1018 61 7000 1.5 170 19:41 25.09.2019
1334 Clouds 27 1018 61 7000 1.5 170 19:41 25.09.2019
1335 Clouds 26 1018 69 7000 2.1 110 19:22 25.09.2019
1336 Clouds 26 1018 69 7000 2.1 110 18:57 25.09.2019
1337 Clouds 26 1018 69 7000 2.1 110 18:57 25.09.2019
1338 Clouds 27 1018 61 7000 2.6 140 18:39 25.09.2019
1339 Clouds 26 1018 69 7000 2.1 100 18:21 25.09.2019
1340 Clouds 26 1018 69 7000 2.1 100 17:58 25.09.2019
1341 Clouds 26 1018 69 7000 2.6 70 17:37 25.09.2019
1342 Clouds 26 1018 69 7000 2.6 70 17:18 25.09.2019
1343 Clouds 25 1018 73 8000 1 0 16:44 25.09.2019
1344 Clouds 25 1018 73 8000 1 0 16:26 25.09.2019
1345 Clouds 25 1018 73 8000 1 0 16:26 25.09.2019
1346 Clouds 26 1018 69 6000 2.1 330 15:58 25.09.2019
1347 Clouds 26 1017 69 7000 2.1 330 15:40 25.09.2019
1348 Clear 26 1017 69 7000 2.1 330 15:21 25.09.2019
1349 Smoke 27 1017 69 5000 1.5 330 14:54 25.09.2019
1350 Smoke 27 1017 69 5000 1.5 330 14:54 25.09.2019
1351 Smoke 28 1017 65 5000 1.5 330 14:36 25.09.2019
1352 Clear 29 1016 58 6000 1.5 330 14:18 25.09.2019
1353 Haze 30 1016 51 3400 1.5 330 13:41 25.09.2019
1354 Clear 31 1016 43 10000 1.5 320 13:20 25.09.2019
1355 Clear 31 1016 43 10000 1.5 320 12:58 25.09.2019
1356 Clear 31 1015 43 10000 2.1 310 12:39 25.09.2019
1357 Clear 31 1015 43 10000 2.1 310 12:39 25.09.2019
1358 Clear 32 1015 40 10000 2.1 330 12:20 25.09.2019
1359 Clear 32 1016 38 10000 2.1 50 11:41 25.09.2019
1360 Clear 32 1016 38 10000 2.1 50 11:21 25.09.2019
1361 Clear 33 1016 36 10000 2.1 0 10:56 25.09.2019
1362 Clear 32 1016 38 10000 3.1 40 10:38 25.09.2019
1363 Clear 32 1016 38 10000 3.1 40 10:19 25.09.2019
1364 Clear 33 1016 38 10000 2.6 340 09:43 25.09.2019
1365 Clear 33 1016 38 10000 2.6 340 09:23 25.09.2019
1366 Clear 32 1017 40 10000 2.6 330 08:59 25.09.2019
1367 Clear 32 1017 46 10000 3.1 350 08:41 25.09.2019
1368 Clear 32 1017 46 10000 3.1 350 08:20 25.09.2019
1369 Clear 30 1018 48 0 2.43 7.596 07:42 25.09.2019
1370 Clear 30 1018 48 0 2.43 7.596 07:23 25.09.2019
1371 Clear 29 1020 58 7000 2.1 340 06:58 25.09.2019
1372 Clear 29 1020 58 7000 2.1 340 06:37 25.09.2019
1373 Clear 29 1020 58 7000 2.1 340 06:37 25.09.2019
1374 Clear 28 1020 61 7000 2.1 300 05:47 25.09.2019
1375 Clear 28 1020 61 7000 2.1 300 05:20 25.09.2019
1376 Mist 24 1020 83 4500 2.1 320 03:21 25.09.2019
1377 Mist 22 1018 88 5000 1 310 01:39 25.09.2019
1378 Clear 22 1018 88 7000 1 340 00:41 25.09.2019
1379 Clear 22 1018 88 7000 1 340 00:23 25.09.2019
1380 Clear 22 1017 88 8000 1.5 300 23:44 24.09.2019
1381 Clear 22 1017 88 8000 1.5 300 23:22 24.09.2019
1382 Clear 22 1017 88 8000 1 310 22:58 24.09.2019
1383 Clear 22 1017 88 9000 1.2 278.521 22:38 24.09.2019
1384 Clear 22 1017 88 9000 1.2 278.521 22:19 24.09.2019
1385 Clear 23 1017 83 9000 1.3 299.882 21:55 24.09.2019
1386 Clear 23 1017 83 9000 1.3 299.882 21:55 24.09.2019
1387 Clear 23 1017 88 9000 2.1 350 21:37 24.09.2019
1388 Clear 23 1017 88 9000 2.1 350 21:37 24.09.2019
1389 Clouds 23 1017 88 9000 2.1 350 21:18 24.09.2019
1390 Clouds 23 1017 88 9000 2.1 350 21:18 24.09.2019
1391 Clouds 23 1017 83 9000 1.5 310 20:56 24.09.2019
1392 Clouds 23 1017 83 9000 1.5 310 20:56 24.09.2019
1393 Clouds 24 1018 83 8000 1.5 330 20:38 24.09.2019
1394 Clouds 24 1018 83 8000 1.5 330 20:19 24.09.2019
1395 Clouds 24 1018 83 8000 1 0 19:42 24.09.2019
1396 Clear 27 1018 61 10000 0.5 0 19:20 24.09.2019
1397 Clear 27 1018 61 10000 0.5 0 19:20 24.09.2019
1398 Clear 27 1018 61 10000 0.5 0 19:20 24.09.2019
1399 Clear 27 1018 61 10000 0.5 0 18:57 24.09.2019
1400 Clear 27 1018 57 10000 0.5 0 18:39 24.09.2019
1401 Clouds 27 1018 61 9000 2.1 160 18:20 24.09.2019
1402 Clouds 27 1018 61 9000 2.1 160 17:56 24.09.2019
1403 Clear 27 1018 57 10000 3.1 160 17:37 24.09.2019
1404 Clear 27 1018 57 10000 3.1 160 17:37 24.09.2019
1405 Clear 27 1018 57 10000 3.1 160 17:19 24.09.2019
1406 Clouds 27 1019 61 8000 1.5 120 16:42 24.09.2019
1407 Clouds 27 1019 61 8000 1.5 120 16:21 24.09.2019
1408 Clouds 25 1018 73 7000 2.1 330 15:58 24.09.2019
1409 Clouds 26 1018 69 6000 2.1 330 15:39 24.09.2019
1410 Clouds 26 1018 69 6000 2.1 330 15:21 24.09.2019
1411 Smoke 28 1017 61 4800 1.5 340 14:39 24.09.2019
1412 Smoke 28 1017 61 4800 1.5 340 14:18 24.09.2019
1413 Clear 29 1016 45 10000 1 0 13:45 24.09.2019
1414 Clear 29 1016 45 10000 1 0 13:45 24.09.2019
1415 Clear 29 1016 45 10000 1 0 13:22 24.09.2019
1416 Clear 31 1016 40 10000 1 0 12:56 24.09.2019
1417 Clear 31 1016 40 10000 2.6 90 12:36 24.09.2019
1418 Clear 32 1015 40 10000 2.1 110 12:18 24.09.2019
1419 Clear 32 1016 35 10000 2.1 90 11:41 24.09.2019
1420 Clear 32 1016 35 10000 2.1 90 11:21 24.09.2019
1421 Clear 32 1016 35 10000 2.1 70 10:42 24.09.2019
1422 Clear 32 1016 35 10000 2.1 70 10:22 24.09.2019
1423 Clear 32 1016 38 10000 2.6 60 09:59 24.09.2019
1424 Clear 32 1016 33 10000 1.5 0 09:41 24.09.2019
1425 Clear 32 1016 33 10000 1.5 0 09:20 24.09.2019
1426 Clear 32 1017 35 10000 2.6 10 08:56 24.09.2019
1427 Clear 32 1017 35 10000 3.6 50 08:38 24.09.2019
1428 Clear 32 1017 35 10000 3.6 50 08:38 24.09.2019
1429 Clear 32 1017 35 10000 3.6 50 08:19 24.09.2019
1430 Clear 31 1018 40 10000 2.6 30 07:46 24.09.2019
1431 Clear 31 1018 40 10000 2.6 30 07:24 24.09.2019
1432 Clear 30 1019 48 10000 1.5 350 06:48 24.09.2019
1433 Clear 30 1019 48 10000 1.5 350 06:28 24.09.2019
1434 Clear 29 1019 58 10000 2.1 290 05:51 24.09.2019
1435 Clear 28 1020 54 10000 2.1 320 05:18 24.09.2019
1436 Clear 28 1020 54 10000 2.1 320 05:18 24.09.2019
1437 Clear 24 1020 78 7000 2.1 290 03:43 24.09.2019
1438 Clear 23 1020 78 6000 1.5 300 02:46 24.09.2019
1439 Clear 21 1019 88 6000 1.5 320 01:45 24.09.2019
1440 Clear 21 1018 88 8000 1.5 290 00:43 24.09.2019
1441 Clear 21 1018 88 8000 1.5 290 00:23 24.09.2019
1442 Clear 22 1018 83 8000 2.1 330 23:45 23.09.2019
1443 Clear 22 1018 83 8000 2.1 330 23:24 23.09.2019
1444 Clear 22 1018 83 8000 1.5 300 22:59 23.09.2019
1445 Clear 22 1018 83 8000 2.1 300 22:39 23.09.2019
1446 Clear 22 1018 83 8000 2.1 300 22:20 23.09.2019
1447 Clear 23 1018 78 10000 1 0 21:56 23.09.2019
1448 Clear 23 1018 78 10000 1.5 330 21:37 23.09.2019
1449 Clear 23 1018 78 10000 1.5 330 21:19 23.09.2019
1450 Clear 23 1018 78 10000 1.5 330 21:19 23.09.2019
1451 Clear 23 1018 83 8000 1 320 20:41 23.09.2019
1452 Clear 23 1018 83 8000 1 320 20:20 23.09.2019
1453 Clear 24 1018 73 9000 1 0 19:56 23.09.2019
1454 Clear 24 1018 73 8000 0.5 0 19:38 23.09.2019
1455 Clear 24 1018 73 7000 2.1 90 19:20 23.09.2019
1456 Clear 24 1018 73 7000 1.14 267.324 18:42 23.09.2019
1457 Clear 24 1018 73 7000 1.54 181.75 18:21 23.09.2019
1458 Clear 26 1018 65 8000 1 0 17:59 23.09.2019
1459 Clear 26 1018 65 8000 1 0 17:39 23.09.2019
1460 Clear 26 1018 65 8000 1 0 17:21 23.09.2019
1461 Clear 24 1018 78 8000 1 0 16:58 23.09.2019
1462 Clear 25 1018 73 7000 0.5 330 16:37 23.09.2019
1463 Clear 26 1018 69 6000 1 0 16:19 23.09.2019
1464 Clear 26 1018 69 6000 1 0 15:57 23.09.2019
1465 Clear 26 1017 69 6000 1 0 15:38 23.09.2019
1466 Clear 26 1017 69 6000 1 0 15:19 23.09.2019
1467 Haze 27 1016 65 5000 1.5 340 14:40 23.09.2019
1468 Haze 27 1016 65 5000 1.5 340 14:21 23.09.2019
1469 Haze 27 1016 61 4700 1.5 340 13:59 23.09.2019
1470 Clear 29 1016 51 6000 1.5 330 13:39 23.09.2019
1471 Clear 29 1016 48 8000 2.1 320 13:18 23.09.2019
1472 Clear 29 1016 48 8000 2.1 320 12:55 23.09.2019
1473 Clear 30 1016 42 10000 1.5 0 12:36 23.09.2019
1474 Clear 31 1016 38 10000 2.1 40 12:18 23.09.2019
1475 Clear 31 1016 38 10000 1.5 0 11:43 23.09.2019
1476 Clear 31 1016 38 10000 1.5 0 11:25 23.09.2019
1477 Clear 31 1016 40 10000 2.1 40 10:49 23.09.2019
1478 Clouds 31 1016 38 10000 3.6 60 10:22 23.09.2019
1479 Clear 31 1016 40 10000 3.1 70 09:59 23.09.2019
1480 Clear 31 1016 38 10000 3.6 70 09:38 23.09.2019
1481 Clear 31 1016 38 10000 3.6 70 09:20 23.09.2019
1482 Clear 31 1017 38 10000 3.6 60 08:50 23.09.2019
1483 Clear 31 1017 40 10000 3.6 60 08:30 23.09.2019
1484 Clear 31 1018 40 10000 3.6 30 07:58 23.09.2019
1485 Clear 31 1018 40 10000 3.6 30 07:58 23.09.2019
1486 Clear 30 1018 42 10000 3.6 30 07:31 23.09.2019
1487 Clear 30 1019 42 10000 4.1 40 06:42 23.09.2019
1488 Clear 30 1019 42 10000 4.1 40 05:56 23.09.2019
1489 Clear 29 1019 45 10000 5.7 20 05:21 23.09.2019
1490 Clear 29 1019 45 10000 4.6 20 04:54 23.09.2019
1491 Clear 26 1019 57 10000 1 0 03:34 23.09.2019
1492 Clear 22 1018 88 10000 1.94 300.046 01:19 23.09.2019
1493 Clear 23 1017 73 10000 1.47 298.691 00:23 23.09.2019
1494 Clear 23 1017 73 10000 1.47 298.691 23:56 22.09.2019
1495 Clear 22 1017 78 10000 0.5 0 23:33 22.09.2019
1496 Clear 22 1017 83 10000 1.5 320 22:58 22.09.2019
1497 Clear 22 1016 83 10000 2.1 330 22:40 22.09.2019
1498 Clear 22 1016 83 10000 2.1 330 22:22 22.09.2019
1499 Clear 23 1016 78 10000 2.6 320 21:43 22.09.2019
1500 Clear 23 1016 78 10000 2.6 320 21:43 22.09.2019
1501 Clear 23 1016 78 10000 2.6 320 21:23 22.09.2019
1502 Clear 23 1016 78 10000 1.5 310 20:58 22.09.2019
1503 Clear 23 1016 83 10000 1 310 20:40 22.09.2019
1504 Clear 23 1016 83 10000 1 310 20:40 22.09.2019
1505 Clear 23 1016 83 10000 1 310 20:22 22.09.2019
1506 Clear 24 1017 78 10000 1 330 19:42 22.09.2019
1507 Clear 24 1017 78 10000 1 330 19:42 22.09.2019
1508 Clear 24 1016 78 10000 0.5 0 19:23 22.09.2019
1509 Clear 24 1016 78 10000 0.5 0 18:59 22.09.2019
1510 Clear 24 1016 78 10000 1 0 18:40 22.09.2019
1511 Clear 25 1016 73 9000 1 0 18:20 22.09.2019
1512 Clear 25 1016 73 9000 1 0 17:58 22.09.2019
1513 Clear 25 1016 73 9000 1 0 17:58 22.09.2019
1514 Clear 25 1017 73 10000 1.5 0 17:40 22.09.2019
1515 Clear 25 1017 73 10000 1.5 0 17:19 22.09.2019
1516 Clear 26 1016 69 8000 1 0 16:45 22.09.2019
1517 Clear 26 1016 69 8000 1 0 16:26 22.09.2019
1518 Clear 26 1016 65 6000 1.5 30 15:56 22.09.2019
1519 Smoke 26 1015 78 3900 1 0 15:38 22.09.2019
1520 Smoke 26 1015 78 3900 1 0 15:19 22.09.2019
1521 Smoke 28 1015 61 4300 1 0 14:43 22.09.2019
1522 Smoke 28 1015 61 4300 1 0 14:25 22.09.2019
1523 Smoke 28 1015 61 4300 1 0 14:25 22.09.2019
1524 Clouds 28 1014 54 7000 1.5 330 13:55 22.09.2019
1525 Smoke 30 1014 45 3700 1 0 13:37 22.09.2019
1526 Clouds 30 1013 45 7000 1.5 0 13:19 22.09.2019
1527 Clear 31 1013 40 10000 1.5 330 12:43 22.09.2019
1528 Clear 31 1013 40 10000 1.5 330 12:24 22.09.2019
1529 Clear 31 1013 40 10000 2.1 330 11:56 22.09.2019
1530 Clear 32 1013 33 10000 2.1 340 11:38 22.09.2019
1531 Clear 32 1013 33 10000 2.1 340 11:38 22.09.2019
1532 Clear 32 1013 33 10000 2.1 340 11:38 22.09.2019
1533 Clear 32 1013 33 10000 2.1 340 11:19 22.09.2019
1534 Clear 32 1013 33 10000 2.1 340 11:19 22.09.2019
1535 Clear 32 1013 35 10000 4.6 30 10:44 22.09.2019
1536 Clear 32 1013 35 10000 4.6 30 10:20 22.09.2019
1537 Clear 32 1013 35 10000 5.1 30 09:57 22.09.2019
1538 Clear 32 1014 33 10000 4.1 0 09:38 22.09.2019
1539 Clear 32 1014 33 10000 4.1 0 09:19 22.09.2019
1540 Clear 32 1015 35 10000 5.1 0 08:44 22.09.2019
1541 Clear 32 1015 35 10000 5.1 0 08:24 22.09.2019
1542 Clear 32 1015 35 10000 4.1 10 07:54 22.09.2019
1543 Clear 31 1016 40 10000 3.6 10 07:36 22.09.2019
1544 Clear 31 1016 40 10000 4.6 20 07:18 22.09.2019
1545 Clear 31 1016 40 10000 4.6 20 07:18 22.09.2019
1546 Clear 31 1016 40 10000 4.6 10 06:46 22.09.2019
1547 Clear 30 1017 40 10000 5.1 20 05:23 22.09.2019
1548 Clear 27 1016 51 10000 2.6 350 02:59 22.09.2019
1549 Clear 26 1016 54 10000 2.1 350 02:36 22.09.2019
1550 Clear 25 1016 61 10000 2.1 350 02:18 22.09.2019
1551 Clear 25 1015 57 10000 2.1 360 00:57 22.09.2019
1552 Clear 26 1015 54 10000 2.6 360 00:33 22.09.2019
1553 Clear 26 1014 54 10000 3.1 360 23:57 21.09.2019
1554 Clear 26 1014 54 10000 3.1 340 23:39 21.09.2019
1555 Clear 26 1014 54 10000 2.1 340 22:57 21.09.2019
1556 Clear 26 1014 57 10000 2.6 340 22:38 21.09.2019
1557 Clear 26 1014 57 10000 2.6 340 22:20 21.09.2019
1558 Clear 26 1014 57 10000 2.6 340 22:20 21.09.2019
1559 Clear 26 1014 57 10000 2.6 0 21:41 21.09.2019
1560 Clear 26 1014 57 10000 2.6 0 21:20 21.09.2019
1561 Clear 26 1014 54 10000 3.1 340 20:58 21.09.2019
1562 Clear 26 1014 54 10000 3.1 350 20:38 21.09.2019
1563 Clear 26 1014 54 10000 3.1 350 20:38 21.09.2019
1564 Clear 26 1015 57 10000 3.1 340 20:19 21.09.2019
1565 Clear 26 1015 61 10000 2.1 320 19:46 21.09.2019
1566 Clear 26 1015 61 10000 2.1 320 19:22 21.09.2019
1567 Clear 26 1015 61 10000 2.6 10 18:42 21.09.2019
1568 Clear 26 1015 61 10000 2.6 10 18:22 21.09.2019
1569 Clear 27 1015 61 10000 4.1 0 17:44 21.09.2019
1570 Clear 27 1015 61 10000 4.1 0 17:24 21.09.2019
1571 Clear 27 1014 61 10000 2.1 0 16:58 21.09.2019
1572 Clear 27 1014 65 10000 2.1 330 16:40 21.09.2019
1573 Clear 27 1014 65 10000 2.1 330 16:20 21.09.2019
1574 Clear 27 1013 65 10000 2.6 310 15:45 21.09.2019
1575 Clear 27 1013 65 10000 2.6 310 15:23 21.09.2019
1576 Clear 28 1012 61 10000 2.1 330 14:50 21.09.2019
1577 Clear 28 1012 61 10000 2.1 330 14:31 21.09.2019
1578 Clear 28 1011 58 10000 2.1 10 13:55 21.09.2019
1579 Clear 28 1011 61 10000 2.6 350 13:36 21.09.2019
1580 Clear 29 1010 58 10000 2.1 0 13:18 21.09.2019
1581 Clear 30 1010 51 10000 2.6 340 12:42 21.09.2019
1582 Clear 30 1010 51 10000 2.6 340 12:22 21.09.2019
1583 Clouds 30 1010 51 10000 2.6 0 11:59 21.09.2019
1584 Clouds 31 1010 52 10000 3.6 350 11:41 21.09.2019
1585 Clouds 31 1010 52 10000 3.6 350 11:22 21.09.2019
1586 Clouds 31 1010 52 10000 3.6 330 10:43 21.09.2019
1587 Clouds 31 1010 52 10000 3.6 330 10:24 21.09.2019
1588 Clouds 32 1010 49 10000 4.1 350 09:57 21.09.2019
1589 Clouds 32 1011 46 10000 4.6 360 09:38 21.09.2019
1590 Clouds 32 1011 46 10000 4.6 360 09:20 21.09.2019
1591 Clouds 32 1011 49 10000 3.6 350 08:51 21.09.2019
1592 Clouds 32 1011 49 10000 4.1 340 08:27 21.09.2019
1593 Clouds 31 1012 52 10000 4.1 340 07:41 21.09.2019
1594 Clouds 31 1012 52 10000 4.1 10 07:22 21.09.2019
1595 Clear 31 1013 52 10000 4.1 350 06:49 21.09.2019
1596 Clear 31 1013 52 10000 4.1 350 06:49 21.09.2019
1597 Clear 31 1013 52 10000 4.1 350 06:30 21.09.2019
1598 Clear 30 1013 51 10000 4.6 340 04:50 21.09.2019
1599 Clear 30 1013 51 10000 4.6 340 04:50 21.09.2019
1600 Clear 30 1014 55 10000 3.1 10 04:32 21.09.2019
1601 Clear 27 1013 69 10000 1 0 02:30 21.09.2019
1602 Clear 26 1012 69 10000 2.6 30 01:53 21.09.2019
1603 Clear 26 1012 69 10000 2.6 30 01:34 21.09.2019
1604 Clear 27 1012 69 10000 2.1 350 00:39 21.09.2019
1605 Clear 26 1012 74 10000 2.1 10 00:18 21.09.2019
1606 Clear 26 1012 74 10000 2.1 10 00:18 21.09.2019
1607 Clear 27 1011 69 10000 2.1 360 23:41 20.09.2019
1608 Clear 27 1011 69 10000 2.1 360 23:21 20.09.2019
1609 Clear 27 1011 74 10000 2.6 30 22:41 20.09.2019
1610 Clear 27 1011 74 10000 2.6 30 22:22 20.09.2019
1611 Rain 26 1011 88 9000 1 0 21:56 20.09.2019
1612 Rain 26 1011 88 9000 1 0 21:56 20.09.2019
1613 Rain 26 1011 88 8000 2.1 340 21:37 20.09.2019
1614 Rain 26 1011 88 7000 1 340 21:18 20.09.2019
1615 Rain 26 1011 88 7000 1 340 20:54 20.09.2019
1616 Rain 26 1012 88 7000 1 0 20:36 20.09.2019
1617 Rain 26 1012 88 7000 1 0 20:18 20.09.2019
1618 Rain 26 1012 88 7000 1 0 19:41 20.09.2019
1619 Rain 27 1012 88 7000 1.5 340 19:20 20.09.2019
1620 Rain 27 1012 83 9000 1.5 320 18:40 20.09.2019
1621 Rain 26 1012 88 8000 1.5 340 18:21 20.09.2019
1622 Rain 26 1012 88 8000 1.5 340 17:59 20.09.2019
1623 Rain 27 1012 83 8000 1 0 17:41 20.09.2019
1624 Rain 27 1011 83 8000 1.5 320 17:23 20.09.2019
1625 Rain 27 1011 83 8000 1 0 16:43 20.09.2019
1626 Rain 27 1011 83 8000 1 0 16:21 20.09.2019
1627 Rain 28 1011 78 9000 0.5 0 15:56 20.09.2019
1628 Rain 28 1010 74 9000 1.11 44.597 15:37 20.09.2019
1629 Clouds 28 1010 74 9000 0.88 92.031 15:19 20.09.2019
1630 Clear 28 1009 74 10000 2.6 180 14:42 20.09.2019
1631 Clouds 27 1011 67 0 0.88 92.031 14:19 20.09.2019
1632 Clouds 30 1008 66 10000 1.5 300 13:48 20.09.2019
1633 Clouds 30 1008 66 10000 1.5 300 13:28 20.09.2019
1634 Clouds 30 1008 66 10000 1.5 300 12:57 20.09.2019
1635 Clouds 31 1008 66 10000 4.1 290 12:37 20.09.2019
1636 Clouds 31 1008 66 10000 3.6 300 12:18 20.09.2019
1637 Clouds 32 1008 59 10000 3.1 310 11:49 20.09.2019
1638 Clouds 32 1008 59 10000 2.6 300 11:21 20.09.2019
1639 Clouds 32 1009 62 10000 3.1 300 10:43 20.09.2019
1640 Clouds 32 1009 62 10000 3.1 300 10:24 20.09.2019
1641 Clouds 32 1009 62 10000 2.6 310 09:59 20.09.2019
1642 Clouds 31 1009 70 10000 2.6 260 09:37 20.09.2019
1643 Clouds 31 1009 70 10000 2.6 260 09:37 20.09.2019
1644 Clouds 31 1010 66 10000 1.5 0 09:18 20.09.2019
1645 Clouds 30 1010 74 8000 3.1 290 08:41 20.09.2019
1646 Clouds 30 1010 74 8000 3.1 290 08:23 20.09.2019
1647 Clouds 31 1011 66 10000 2.6 290 07:47 20.09.2019
1648 Clouds 31 1011 66 10000 2.6 290 07:26 20.09.2019
1649 Clouds 30 1012 66 10000 1.5 0 06:44 20.09.2019
1650 Clouds 30 1012 66 10000 1.5 0 06:21 20.09.2019
1651 Clouds 30 1013 74 9000 2.1 30 05:44 20.09.2019
1652 Mist 27 1013 83 5000 1.5 310 03:36 20.09.2019
1653 Mist 27 1013 83 5000 1.5 310 03:18 20.09.2019
1654 Mist 25 1011 94 3300 1 330 01:44 20.09.2019
1655 Mist 25 1011 94 3300 1 330 01:44 20.09.2019
1656 Mist 25 1011 94 4400 1 330 00:52 20.09.2019
1657 Mist 25 1011 94 4500 1 340 00:21 20.09.2019
1658 Mist 25 1011 94 5000 1.5 310 23:42 19.09.2019
1659 Clouds 25 1011 94 6000 1.5 0 23:19 19.09.2019
1660 Clouds 25 1011 94 6000 1.5 0 22:55 19.09.2019
1661 Mist 25 1011 100 4900 1 0 22:36 19.09.2019
1662 Clouds 26 1011 94 6000 1 0 22:18 19.09.2019
1663 Clouds 26 1011 94 6000 1 0 21:55 19.09.2019
1664 Clouds 26 1012 88 7000 2.1 300 21:36 19.09.2019
1665 Clouds 26 1012 88 7000 2.1 300 21:18 19.09.2019
1666 Mist 26 1012 94 5000 1 0 20:43 19.09.2019
1667 Mist 26 1012 94 5000 1 0 20:21 19.09.2019
1668 Mist 26 1012 94 5000 1 0 19:55 19.09.2019
1669 Mist 26 1013 94 4100 1.5 290 19:37 19.09.2019
1670 Mist 26 1013 94 5000 1.5 300 19:19 19.09.2019
1671 Mist 26 1013 94 4600 1.5 280 18:42 19.09.2019
1672 Mist 26 1012 94 5000 1.5 310 18:24 19.09.2019
1673 Rain 26 1012 94 6000 2.1 310 17:44 19.09.2019
1674 Rain 26 1012 94 6000 2.1 310 17:25 19.09.2019
1675 Rain 26 1012 94 6000 1.5 290 16:59 19.09.2019
1676 Rain 26 1012 94 7000 1.5 270 16:40 19.09.2019
1677 Rain 26 1012 88 8000 1 0 16:20 19.09.2019
1678 Rain 26 1011 88 9000 1.5 300 15:41 19.09.2019
1679 Rain 26 1011 88 9000 1.5 300 15:41 19.09.2019
1680 Rain 26 1011 88 9000 1.5 300 15:22 19.09.2019
1681 Rain 26 1011 88 9000 2.1 290 14:58 19.09.2019
1682 Clear 27 1011 83 10000 1 0 14:39 19.09.2019
1683 Clear 27 1011 83 10000 1 0 14:21 19.09.2019
1684 Clear 27 1011 83 10000 1 0 13:57 19.09.2019
1685 Clear 27 1010 83 10000 1.5 250 13:37 19.09.2019
1686 Clear 27 1010 83 10000 1.5 250 13:37 19.09.2019
1687 Clear 28 1010 78 10000 2.1 270 13:18 19.09.2019
1688 Clouds 28 1010 83 10000 2.6 280 12:37 19.09.2019
1689 Clouds 28 1011 83 10000 2.6 280 12:18 19.09.2019
1690 Clouds 28 1011 78 10000 2.6 270 11:41 19.09.2019
1691 Clouds 28 1011 78 10000 2.6 270 11:22 19.09.2019
1692 Clouds 28 1011 78 10000 2.6 270 11:22 19.09.2019
1693 Clouds 28 1011 78 10000 2.6 260 10:59 19.09.2019
1694 Clouds 28 1011 78 8000 2.6 290 10:39 19.09.2019
1695 Clouds 27 1012 83 9000 1.5 280 10:21 19.09.2019
1696 Clouds 28 1011 78 8000 2.6 290 10:21 19.09.2019
1697 Clouds 27 1012 83 9000 1.5 280 09:57 19.09.2019
1698 Clouds 27 1012 83 9000 1.5 280 09:57 19.09.2019
1699 Clouds 27 1012 83 9000 1.5 280 09:39 19.09.2019
1700 Rain 26 1013 88 7000 1 0 09:19 19.09.2019
1701 Rain 26 1013 88 7000 1 0 08:50 19.09.2019
1702 Rain 27 1013 83 9000 2.6 200 08:23 19.09.2019
1703 Clouds 27 1014 83 10000 1 0 07:44 19.09.2019
1704 Clouds 26 1014 83 10000 1 0 07:22 19.09.2019
1705 Clouds 26 1014 83 10000 1 0 06:54 19.09.2019
1706 Rain 26 1015 88 6000 1 0 06:32 19.09.2019
1707 Rain 25 1015 94 3100 1 0 05:53 19.09.2019
1708 Rain 25 1015 94 3100 1 0 05:34 19.09.2019
1709 Rain 24 1015 94 2500 2.97 50.888 04:18 19.09.2019
1710 Rain 25 1015 100 2000 1.7 297.439 03:19 19.09.2019
1711 Rain 25 1013 100 3900 1 0 01:36 19.09.2019
1712 Mist 25 1013 100 5000 1.5 310 00:53 19.09.2019
1713 Mist 25 1012 100 4000 2.6 310 00:26 19.09.2019
1714 Mist 25 1012 100 4000 2.6 310 00:26 19.09.2019
1715 Rain 25 1012 94 5000 3.1 340 23:44 18.09.2019
1716 Rain 25 1012 94 5000 3.1 340 23:44 18.09.2019
1717 Rain 25 1012 94 5000 3.1 340 23:23 18.09.2019
1718 Rain 26 1010 94 3000 1 0 22:57 18.09.2019
1719 Mist 25 1012 100 4600 1.5 350 22:37 18.09.2019
1720 Mist 25 1012 100 4600 1.5 350 22:18 18.09.2019
1721 Rain 24 1013 89 0 1.66 290.835 21:56 18.09.2019
1722 Rain 24 1013 89 0 1.66 290.835 21:37 18.09.2019
1723 Mist 25 1012 100 4900 1.5 300 21:18 18.09.2019
1724 Mist 25 1012 100 4900 1.5 300 20:56 18.09.2019
1725 Mist 25 1012 100 4900 1.5 300 20:37 18.09.2019
1726 Mist 25 1012 100 5000 2.6 300 20:19 18.09.2019
1727 Mist 25 1013 100 5000 2.6 310 19:54 18.09.2019
1728 Mist 25 1013 100 5000 2.6 310 19:36 18.09.2019
1729 Clouds 26 1013 88 7000 1.5 280 19:18 18.09.2019
1730 Clouds 26 1013 94 6000 2.1 250 18:54 18.09.2019
1731 Clouds 26 1013 94 6000 2.1 250 18:36 18.09.2019
1732 Rain 25 1013 100 8000 2.6 270 18:18 18.09.2019
1733 Rain 25 1013 100 5000 3.1 0 17:40 18.09.2019
1734 Rain 25 1013 100 5000 3.1 0 17:19 18.09.2019
1735 Clouds 26 1013 88 6000 1.5 320 16:57 18.09.2019
1736 Clouds 26 1013 88 6000 2.1 310 16:38 18.09.2019
1737 Clouds 26 1013 88 7000 2.6 310 16:20 18.09.2019
1738 Clouds 26 1013 88 7000 2.6 310 15:56 18.09.2019
1739 Clouds 26 1013 88 7000 2.6 310 15:56 18.09.2019
1740 Clouds 26 1013 94 7000 2.6 310 15:38 18.09.2019
1741 Rain 26 1013 94 7000 2.6 310 15:19 18.09.2019
1742 Clouds 26 1012 94 8000 2.6 290 14:57 18.09.2019
1743 Clouds 26 1012 94 8000 3.1 280 14:39 18.09.2019
1744 Clouds 26 1012 94 8000 3.1 280 14:21 18.09.2019
1745 Clouds 27 1011 88 9000 2.1 260 13:54 18.09.2019
1746 Clouds 26 1011 94 8000 2.6 270 13:36 18.09.2019
1747 Rain 27 1011 88 9000 2.6 260 13:18 18.09.2019
1748 Clear 27 1011 88 10000 2.6 320 12:37 18.09.2019
1749 Clear 28 1011 78 10000 0.5 0 12:19 18.09.2019
1750 Clear 27 1010 88 10000 1.5 0 11:40 18.09.2019
1751 Clear 27 1010 88 10000 1.5 0 11:20 18.09.2019
1752 Clouds 27 1011 83 10000 1.5 340 10:55 18.09.2019
1753 Clouds 27 1010 83 10000 3.6 30 10:37 18.09.2019
1754 Clouds 25 1010 94 10000 1.5 50 10:18 18.09.2019
1755 Thunderstorm 25 1011 94 7000 2.1 70 09:41 18.09.2019
1756 Thunderstorm 25 1011 94 7000 2.1 70 09:22 18.09.2019
1757 Rain 27 1010 83 10000 9.3 50 08:57 18.09.2019
1758 Clouds 33 1010 63 9000 2.1 330 08:39 18.09.2019
1759 Clouds 33 1010 63 9000 2.1 330 08:19 18.09.2019
1760 Clouds 33 1011 63 10000 2.6 300 07:43 18.09.2019
1761 Clouds 32 1012 70 10000 2.6 300 07:23 18.09.2019
1762 Clouds 32 1012 66 10000 2.1 0 06:45 18.09.2019
1763 Clouds 32 1012 66 10000 2.1 0 06:21 18.09.2019
1764 Clouds 32 1012 66 10000 2.1 0 06:21 18.09.2019
1765 Clouds 31 1013 70 10000 2.1 0 05:27 18.09.2019
1766 Clouds 29 1012 79 10000 1 0 03:40 18.09.2019
1767 Clouds 28 1012 83 8000 1 110 02:40 18.09.2019
1768 Clouds 27 1011 83 10000 1.75 308.516 01:41 18.09.2019
1769 Clouds 27 1011 83 10000 0.5 0 00:55 18.09.2019
1770 Clouds 27 1010 83 10000 3.6 350 00:31 18.09.2019
1771 Rain 28 1010 78 10000 2.6 20 23:47 17.09.2019
1772 Rain 28 1010 78 10000 2.6 20 23:47 17.09.2019
1773 Rain 28 1010 78 10000 2.6 20 23:24 17.09.2019
1774 Clouds 28 1010 78 10000 0.5 0 22:55 17.09.2019
1775 Clouds 28 1009 78 10000 2.1 50 22:36 17.09.2019
1776 Clear 28 1009 78 10000 2.1 40 22:18 17.09.2019
1777 Clear 28 1009 78 10000 2.1 40 21:54 17.09.2019
1778 Clear 28 1010 78 10000 2.6 20 21:36 17.09.2019
1779 Clear 28 1010 78 10000 2.6 20 21:18 17.09.2019
1780 Clear 28 1010 78 10000 1.5 40 20:54 17.09.2019
1781 Clear 28 1010 78 10000 1 0 20:36 17.09.2019
1782 Clear 28 1010 78 10000 2.1 50 20:18 17.09.2019
1783 Clear 28 1010 78 10000 2.1 50 20:18 17.09.2019
1784 Clear 28 1011 78 10000 1.5 0 19:39 17.09.2019
1785 Clear 29 1010 74 10000 1 0 19:20 17.09.2019
1786 Clear 29 1010 74 10000 1 0 18:59 17.09.2019
1787 Clear 29 1010 74 10000 1.5 20 18:59 17.09.2019
1788 Clear 29 1010 74 10000 1.5 20 18:41 17.09.2019
1789 Clear 29 1010 74 10000 1.5 20 18:22 17.09.2019
1790 Clear 29 1010 74 10000 2.1 50 17:47 17.09.2019
1791 Clear 29 1010 74 10000 2.1 50 17:21 17.09.2019
1792 Clear 29 1010 79 10000 2.6 60 16:59 17.09.2019
1793 Rain 30 1009 74 8000 2.1 50 16:41 17.09.2019
1794 Rain 30 1009 74 8000 2.1 50 16:22 17.09.2019
1795 Rain 30 1009 74 7000 2.6 50 15:54 17.09.2019
1796 Rain 30 1009 79 6000 2.1 40 15:36 17.09.2019
1797 Mist 31 1008 70 4500 2.1 40 15:18 17.09.2019
1798 Mist 31 1008 70 4500 2.1 40 14:54 17.09.2019
1799 Mist 31 1008 70 5000 2.1 70 14:36 17.09.2019
1800 Mist 31 1008 70 5000 2.1 70 14:18 17.09.2019
1801 Clear 32 1007 62 8000 2.1 50 13:41 17.09.2019
1802 Clear 33 1007 59 7000 2.1 50 13:22 17.09.2019
1803 Clouds 34 1007 52 10000 0.5 0 12:43 17.09.2019
1804 Clear 34 1007 52 10000 1 0 12:20 17.09.2019
1805 Clear 34 1007 52 10000 1 0 11:58 17.09.2019
1806 Clear 34 1007 52 10000 1 0 11:58 17.09.2019
1807 Clear 34 1007 52 10000 1 0 11:40 17.09.2019
1808 Clear 34 1007 52 10000 1 0 11:18 17.09.2019
1809 Clouds 33 1007 55 10000 1 0 11:18 17.09.2019
1810 Clouds 33 1007 55 10000 1 0 10:42 17.09.2019
1811 Clouds 33 1007 55 10000 1 0 10:22 17.09.2019
1812 Clouds 33 1007 59 10000 1.5 0 09:58 17.09.2019
1813 Clouds 34 1008 59 10000 2.1 300 09:39 17.09.2019
1814 Clouds 34 1008 59 10000 2.1 300 09:19 17.09.2019
1815 Clouds 33 1009 63 10000 1 0 08:44 17.09.2019
1816 Clouds 33 1009 63 10000 1 0 08:25 17.09.2019
1817 Clouds 33 1010 59 10000 1.5 0 07:46 17.09.2019
1818 Clouds 33 1010 59 10000 1.5 0 07:28 17.09.2019
1819 Clear 32 1010 66 10000 2.1 50 06:59 17.09.2019
1820 Clear 31 1011 70 8000 2.6 80 06:40 17.09.2019
1821 Clouds 30 1011 74 7000 3.6 40 05:58 17.09.2019
1822 Clouds 29 1011 79 6000 4.6 70 05:33 17.09.2019
1823 Mist 30 1011 79 4400 3.6 60 04:19 17.09.2019
1824 Mist 28 1010 83 2800 1.5 20 02:40 17.09.2019
1825 Mist 26 1009 94 2600 1 40 01:52 17.09.2019
1826 Mist 26 1009 94 3500 1.53 310.666 00:58 17.09.2019
1827 Mist 27 1008 83 4700 1.5 40 23:55 16.09.2019
1828 Mist 27 1008 88 4700 1 0 23:36 16.09.2019
1829 Mist 27 1008 88 4700 1 0 23:18 16.09.2019
1830 Mist 27 1008 88 4100 2.1 70 22:41 16.09.2019
1831 Mist 27 1008 88 4100 2.1 70 22:23 16.09.2019
1832 Mist 27 1008 88 4600 2.1 60 21:58 16.09.2019
1833 Mist 27 1008 88 5000 1.5 60 21:38 16.09.2019
1834 Mist 27 1008 88 5000 1.5 60 21:20 16.09.2019
1835 Mist 27 1008 88 5000 2.1 60 20:55 16.09.2019
1836 Mist 27 1008 88 5000 2.1 70 20:37 16.09.2019
1837 Rain 28 1008 83 6000 2.1 70 20:18 16.09.2019
1838 Rain 27 1008 88 6000 1.5 60 19:42 16.09.2019
1839 Rain 28 1008 83 6000 2.1 60 19:20 16.09.2019
1840 Rain 28 1008 83 6000 2.6 80 18:57 16.09.2019
1841 Rain 28 1008 83 6000 2.6 80 18:39 16.09.2019
1842 Clear 28 1008 83 7000 3.1 80 18:20 16.09.2019
1843 Clear 28 1008 78 8000 3.1 80 17:43 16.09.2019
1844 Clear 28 1008 78 8000 3.1 80 17:24 16.09.2019
1845 Clear 28 1007 78 8000 3.1 80 16:58 16.09.2019
1846 Clear 29 1007 74 8000 3.6 100 16:39 16.09.2019
1847 Clear 29 1006 74 8000 3.1 90 16:20 16.09.2019
1848 Clear 29 1006 74 8000 3.1 90 15:56 16.09.2019
1849 Clear 29 1006 74 9000 3.1 100 15:37 16.09.2019
1850 Clouds 29 1006 74 7000 2.1 80 15:18 16.09.2019
1851 Clouds 30 1005 74 7000 2.1 150 14:44 16.09.2019
1852 Clouds 30 1005 74 7000 2.1 150 14:23 16.09.2019
1853 Clouds 30 1005 74 6000 3.6 170 13:59 16.09.2019
1854 Clouds 31 1005 70 8000 4.6 150 13:39 16.09.2019
1855 Clouds 32 1005 66 10000 5.1 150 13:20 16.09.2019
1856 Clouds 34 1004 56 10000 2.1 80 12:43 16.09.2019
1857 Clouds 34 1004 56 10000 2.1 80 12:25 16.09.2019
1858 Clouds 34 1004 56 10000 2.1 80 12:25 16.09.2019
1859 Clouds 34 1004 56 10000 2.1 80 12:25 16.09.2019
1860 Clouds 33 1005 59 10000 2.1 90 11:55 16.09.2019
1861 Clouds 33 1005 59 10000 2.1 90 11:37 16.09.2019
1862 Clouds 33 1005 59 10000 2.1 90 11:19 16.09.2019
1863 Clouds 34 1005 56 10000 1.5 0 10:38 16.09.2019
1864 Clouds 34 1005 56 10000 1.5 0 10:20 16.09.2019
1865 Clouds 34 1005 56 10000 2.1 0 09:58 16.09.2019
1866 Clouds 33 1006 63 10000 1 0 09:38 16.09.2019
1867 Clouds 33 1006 63 10000 1 0 09:19 16.09.2019
1868 Clouds 34 1007 59 10000 2.1 310 08:46 16.09.2019
1869 Clouds 34 1007 59 10000 2.1 0 08:25 16.09.2019
1870 Clouds 34 1007 59 10000 2.1 0 07:56 16.09.2019
1871 Clouds 34 1007 59 10000 2.1 0 07:56 16.09.2019
1872 Clouds 33 1008 63 9000 1 0 07:37 16.09.2019
1873 Clouds 32 1009 66 8000 2.1 350 07:18 16.09.2019
1874 Clouds 32 1009 66 8000 1.5 320 06:44 16.09.2019
1875 Clouds 32 1009 66 8000 1.5 320 06:26 16.09.2019
1876 Clouds 31 1010 74 7000 1 0 05:46 16.09.2019
1877 Clouds 31 1010 74 7000 1 0 05:26 16.09.2019
1878 Clouds 30 1010 74 7000 1.5 50 04:33 16.09.2019
1879 Clouds 27 1009 83 6000 1.5 50 01:57 16.09.2019
1880 Clouds 27 1008 83 8000 2.6 50 00:44 16.09.2019
1881 Clouds 27 1008 83 8000 2.6 50 00:25 16.09.2019
1882 Clouds 27 1008 83 9000 2.1 70 23:41 15.09.2019
1883 Clouds 27 1008 83 9000 2.1 70 23:21 15.09.2019
1884 Clouds 27 1008 83 8000 3.1 60 22:43 15.09.2019
1885 Clouds 27 1008 83 8000 3.1 60 22:23 15.09.2019
1886 Clouds 27 1008 83 8000 3.6 60 21:58 15.09.2019
1887 Clear 27 1008 88 6000 2.6 70 21:40 15.09.2019
1888 Rain 27 1008 88 6000 2.6 70 21:22 15.09.2019
1889 Rain 27 1008 88 7000 2.1 60 20:59 15.09.2019
1890 Rain 27 1008 88 7000 2.1 60 20:59 15.09.2019
1891 Rain 27 1008 88 7000 2.1 60 20:59 15.09.2019
1892 Clouds 27 1008 88 7000 2.1 80 20:41 15.09.2019
1893 Clouds 27 1008 88 7000 2.1 80 20:23 15.09.2019
1894 Clouds 27 1008 88 7000 2.1 80 20:23 15.09.2019
1895 Rain 28 1008 83 7000 2.1 60 19:45 15.09.2019
1896 Rain 28 1008 83 7000 2.1 60 19:23 15.09.2019
1897 -273 0 0 0 0 0 18:55 15.09.2019
1898 Mist 28 1009 83 4800 2.6 80 18:36 15.09.2019
1899 Mist 28 1008 83 5000 2.6 100 18:18 15.09.2019
1900 Rain 28 1008 78 6000 2.6 90 17:40 15.09.2019
1901 Rain 28 1008 78 6000 2.6 90 17:20 15.09.2019
1902 Rain 29 1008 79 7000 2.6 80 16:44 15.09.2019
1903 Rain 29 1008 79 7000 2.6 80 16:26 15.09.2019
1904 Rain 29 1007 74 8000 3.1 100 15:59 15.09.2019
1905 Rain 29 1007 79 6000 3.1 80 15:41 15.09.2019
1906 Clouds 29 1007 79 6000 3.1 80 15:20 15.09.2019
1907 Clouds 29 1006 79 6000 3.6 80 14:58 15.09.2019
1908 Clouds 30 1006 74 7000 4.1 90 14:40 15.09.2019
1909 Clouds 30 1006 74 7000 4.1 90 14:20 15.09.2019
1910 Clouds 31 1005 70 9000 3.6 100 13:46 15.09.2019
1911 Clouds 31 1005 70 9000 3.6 100 13:24 15.09.2019
1912 Clear 34 1005 52 10000 1 0 12:56 15.09.2019
1913 Clear 34 1005 52 10000 1 0 12:38 15.09.2019
1914 Clear 35 1005 50 10000 1.5 280 12:18 15.09.2019
1915 Clear 35 1005 50 10000 1 0 11:42 15.09.2019
1916 Clear 35 1005 50 10000 1 0 11:22 15.09.2019
1917 Clear 35 1005 47 10000 2.1 0 10:56 15.09.2019
1918 Clear 35 1006 47 10000 2.1 310 10:38 15.09.2019
1919 Clouds 35 1006 50 10000 2.1 280 10:20 15.09.2019
1920 Clouds 34 1006 52 10000 2.1 300 09:40 15.09.2019
1921 Clouds 34 1007 52 10000 1.5 0 09:20 15.09.2019
1922 Clouds 33 1008 52 10000 2.6 300 08:48 15.09.2019
1923 Clouds 33 1008 52 10000 2.6 300 08:29 15.09.2019
1924 Clouds 34 1008 56 9000 2.6 310 07:51 15.09.2019
1925 Clouds 33 1008 59 9000 3.1 300 07:33 15.09.2019
1926 Clouds 33 1009 63 6000 2.1 0 06:43 15.09.2019
1927 Mist 29 1010 79 5000 2.1 320 03:54 15.09.2019
1928 Mist 27 1009 83 4800 1 0 02:46 15.09.2019
1929 Mist 26 1009 94 4200 1.5 340 01:49 15.09.2019
1930 Mist 26 1008 94 2800 1.5 340 01:28 15.09.2019
1931 Mist 27 1008 88 5000 1.5 30 00:50 15.09.2019
1932 Mist 27 1008 88 5000 1.5 30 00:24 15.09.2019
1933 Mist 27 1008 88 5000 1.5 70 23:59 14.09.2019
1934 Mist 27 1008 88 4700 2.1 50 23:41 14.09.2019
1935 Mist 27 1008 88 4700 2.1 50 23:22 14.09.2019
1936 Mist 27 1008 88 4900 1.5 70 22:59 14.09.2019
1937 Mist 27 1008 88 4900 1.5 70 22:59 14.09.2019
1938 Mist 27 1008 88 4900 1.5 70 22:59 14.09.2019
1939 Mist 27 1008 88 5000 2.1 60 22:41 14.09.2019
1940 Mist 27 1008 88 5000 2.1 60 22:41 14.09.2019
1941 Mist 27 1008 88 5000 2.1 60 22:21 14.09.2019
1942 Mist 27 1008 88 5000 2.6 50 21:57 14.09.2019
1943 Clear 27 1008 88 9000 2.6 60 21:39 14.09.2019
1944 Clouds 27 1008 88 9000 2.6 60 21:19 14.09.2019
1945 Clouds 27 1008 83 9000 1 0 20:55 14.09.2019
1946 Clouds 27 1008 83 9000 1 0 20:55 14.09.2019
1947 Clouds 27 1008 83 9000 1 0 20:36 14.09.2019
1948 Clouds 27 1008 88 8000 2.1 310 20:18 14.09.2019
1949 Clouds 27 1008 88 8000 1.5 340 19:44 14.09.2019
1950 Clouds 28 1009 83 7000 1.5 300 19:20 14.09.2019
1951 Clouds 29 1009 79 8000 0.5 0 18:54 14.09.2019
1952 Clouds 29 1009 79 8000 0.5 0 18:36 14.09.2019
1953 Clouds 29 1009 79 9000 1.5 30 18:18 14.09.2019
1954 Clouds 30 1009 70 8000 1.5 50 17:41 14.09.2019
1955 Clouds 30 1009 70 8000 1.5 50 17:22 14.09.2019
1956 Clouds 30 1008 74 7000 1.5 40 16:46 14.09.2019
1957 Clouds 30 1008 74 7000 1.5 40 16:24 14.09.2019
1958 Clouds 31 1008 66 8000 1.5 0 15:56 14.09.2019
1959 Clouds 32 1007 59 9000 2.1 160 15:38 14.09.2019
1960 Clouds 31 1007 66 9000 1.5 80 15:18 14.09.2019
1961 Clouds 31 1007 66 8000 1.5 50 14:43 14.09.2019
1962 Clouds 31 1007 66 8000 1.5 50 14:43 14.09.2019
1963 Clear 32 1006 62 10000 1.5 60 14:19 14.09.2019
1964 Clouds 31 1007 66 8000 1.5 50 14:19 14.09.2019
1965 Clouds 33 1006 55 7000 1 0 13:48 14.09.2019
1966 Clouds 33 1006 55 7000 1 0 13:22 14.09.2019
1967 Clouds 34 1006 49 10000 1 0 12:48 14.09.2019
1968 Clouds 34 1006 49 10000 1 0 12:27 14.09.2019
1969 Clouds 35 1006 50 10000 1.5 0 11:44 14.09.2019
1970 Clouds 35 1006 50 10000 1.5 0 11:22 14.09.2019
1971 Clouds 35 1006 47 10000 1.5 0 10:58 14.09.2019
1972 Clouds 35 1006 50 10000 2.1 0 10:37 14.09.2019
1973 Clouds 34 1007 49 10000 1 0 10:18 14.09.2019
1974 Clouds 34 1007 49 10000 1 0 09:56 14.09.2019
1975 Clear 35 1007 56 10000 1.5 0 09:38 14.09.2019
1976 Clear 34 1008 56 10000 1 0 09:18 14.09.2019
1977 Clear 35 1008 47 10000 2.1 0 08:44 14.09.2019
1978 Clear 35 1008 47 10000 2.1 0 08:44 14.09.2019
1979 Clear 35 1008 47 10000 2.1 0 08:23 14.09.2019
1980 Clear 33 1009 52 10000 1.5 0 07:45 14.09.2019
1981 Clear 33 1010 59 10000 2.6 290 07:27 14.09.2019
1982 Clear 32 1010 59 10000 1.5 0 06:39 14.09.2019
1983 Clear 32 1010 62 10000 1 0 05:57 14.09.2019
1984 Clear 31 1010 62 10000 1.5 280 04:44 14.09.2019
1985 Clear 30 1010 74 6000 1.64 338.017 03:33 14.09.2019
1986 Mist 28 1010 83 4800 1 0 02:51 14.09.2019
1987 Mist 26 1009 88 3900 2.1 40 01:46 14.09.2019
1988 Mist 26 1009 88 3900 2.1 40 01:21 14.09.2019
1989 Mist 26 1009 88 5000 1.5 40 00:55 14.09.2019
1990 Clear 26 1009 88 7000 2.6 50 00:36 14.09.2019
1991 Clear 26 1008 88 6000 2.1 50 00:18 14.09.2019
1992 Clear 26 1008 94 6000 2.1 50 23:37 13.09.2019
1993 Clear 26 1008 94 6000 2.1 50 23:18 13.09.2019
1994 Clear 26 1008 94 6000 2.1 50 22:55 13.09.2019
1995 Clear 26 1008 94 6000 2.1 50 22:55 13.09.2019
1996 Clear 26 1008 94 6000 1.5 30 22:37 13.09.2019
1997 Clear 26 1008 94 6000 1.5 30 22:37 13.09.2019
1998 Clear 26 1008 94 6000 1.5 30 22:19 13.09.2019
1999 Clear 27 1008 83 8000 1.5 50 21:40 13.09.2019
2000 Clear 27 1008 88 8000 1.5 350 21:19 13.09.2019
2001 Clear 27 1008 88 8000 1.5 350 21:19 13.09.2019
2002 Clear 27 1008 88 8000 1.5 350 20:58 13.09.2019
2003 Clear 27 1009 88 7000 1 10 20:38 13.09.2019
2004 Clear 27 1009 88 9000 1.5 340 20:20 13.09.2019
2005 Clear 27 1009 88 9000 1.5 340 19:54 13.09.2019
2006 Clear 27 1009 88 9000 1 340 19:36 13.09.2019
2007 Clear 29 1009 74 10000 0.5 0 19:18 13.09.2019
2008 Clear 28 1009 78 10000 1.5 170 18:38 13.09.2019
2009 Clear 29 1009 74 10000 2.6 170 18:19 13.09.2019
2010 Clear 29 1009 74 10000 2.6 170 17:55 13.09.2019
2011 Clear 29 1009 74 10000 2.6 170 17:36 13.09.2019
2012 Clear 29 1009 74 10000 2.6 170 17:18 13.09.2019
2013 Clear 30 1008 70 10000 3.6 140 16:40 13.09.2019
2014 Clear 30 1008 70 10000 3.6 140 16:20 13.09.2019
2015 Clear 30 1007 66 10000 3.1 150 15:43 13.09.2019
2016 Clear 30 1007 66 10000 3.1 150 15:25 13.09.2019
2017 Clear 31 1007 66 9000 2.6 140 14:56 13.09.2019
2018 Clear 31 1007 66 9000 2.1 180 14:37 13.09.2019
2019 Clear 31 1007 66 9000 2.1 180 14:37 13.09.2019
2020 Clear 31 1007 66 9000 2.1 180 14:19 13.09.2019
2021 Clear 32 1006 66 10000 3.1 80 13:44 13.09.2019
2022 Clear 32 1006 66 10000 3.1 80 13:22 13.09.2019
2023 Clear 33 1006 59 10000 2.6 90 12:46 13.09.2019
2024 Clear 33 1006 59 10000 2.6 90 12:25 13.09.2019
2025 Clear 33 1006 59 10000 2.6 90 11:57 13.09.2019
2026 Clear 34 1006 56 10000 3.1 90 11:20 13.09.2019
2027 Clear 34 1006 56 10000 2.6 90 10:59 13.09.2019
2028 Clouds 33 1007 55 10000 2.6 90 10:37 13.09.2019
2029 Clouds 34 1007 56 10000 1.5 100 10:18 13.09.2019
2030 Clouds 33 1007 55 10000 1.5 60 09:43 13.09.2019
2031 Clouds 33 1007 55 10000 1.5 60 09:21 13.09.2019
2032 Clouds 33 1008 59 10000 0.5 0 08:57 13.09.2019
2033 Clouds 33 1008 59 10000 0.5 0 08:39 13.09.2019
2034 Clouds 33 1008 59 10000 0.5 0 08:39 13.09.2019
2035 Clouds 33 1008 59 10000 0.5 0 08:20 13.09.2019
2036 Clouds 32 1009 62 10000 0.5 0 07:41 13.09.2019
2037 Clouds 33 1009 59 10000 0.5 0 07:22 13.09.2019
2038 Clouds 32 1010 62 10000 1 0 06:38 13.09.2019
2039 Clouds 32 1010 62 10000 1.5 310 05:36 13.09.2019
2040 Clouds 29 1010 79 8000 1 0 03:53 13.09.2019
2041 Clear 29 1010 79 6000 1 0 03:25 13.09.2019
2042 Mist 27 1010 94 3100 1.03 328.301 02:20 13.09.2019
2043 Mist 26 1009 94 2100 1 0 01:37 13.09.2019
2044 Mist 26 1009 94 3200 1 50 00:59 13.09.2019
2045 Mist 26 1009 100 3300 1.5 40 00:35 13.09.2019
2046 Mist 26 1008 100 3900 2.1 50 23:53 12.09.2019
2047 Mist 26 1008 100 4700 2.1 50 23:25 12.09.2019
2048 Mist 27 1008 88 5000 2.1 60 22:57 12.09.2019
2049 Mist 26 1009 100 5000 1.5 50 22:39 12.09.2019
2050 Mist 26 1009 100 5000 1.5 50 22:21 12.09.2019
2051 Mist 26 1009 100 4400 1 20 21:55 12.09.2019
2052 Clear 27 1009 94 7000 0.5 0 21:36 12.09.2019
2053 Mist 27 1009 94 5000 1 0 21:18 12.09.2019
2054 Clouds 27 1010 94 6000 1 0 20:44 12.09.2019
2055 Clouds 27 1010 94 6000 1 0 20:22 12.09.2019
2056 Clear 27 1010 88 8000 1 0 19:57 12.09.2019
2057 Clear 28 1010 83 9000 2.6 130 19:38 12.09.2019
2058 Clear 28 1010 83 9000 2.6 130 19:38 12.09.2019
2059 Clear 28 1010 83 9000 2.6 140 19:19 12.09.2019
2060 Clear 28 1010 83 9000 2.6 140 19:19 12.09.2019
2061 Clear 28 1010 88 9000 2.1 130 18:41 12.09.2019
2062 Clear 28 1010 88 9000 2.1 130 18:23 12.09.2019
2063 Clear 29 1010 83 9000 2.6 130 18:00 12.09.2019
2064 Clear 29 1010 83 10000 2.6 150 17:40 12.09.2019
2065 Clear 29 1010 83 10000 2.6 150 17:40 12.09.2019
2066 Clear 29 1010 83 10000 2.6 150 17:20 12.09.2019
2067 Clouds 29 1010 83 10000 3.6 150 16:55 12.09.2019
2068 Clear 29 1010 83 10000 3.6 150 16:36 12.09.2019
2069 Clear 29 1010 83 10000 3.6 150 16:18 12.09.2019
2070 Clear 30 1009 79 10000 3.1 150 15:39 12.09.2019
2071 Clear 30 1009 79 10000 3.1 150 15:21 12.09.2019
2072 Clouds 31 1008 70 10000 4.6 140 14:45 12.09.2019
2073 Clouds 31 1008 70 10000 4.6 140 14:21 12.09.2019
2074 Clouds 31 1008 66 10000 2.6 80 13:54 12.09.2019
2075 Clouds 32 1007 62 10000 2.1 90 13:36 12.09.2019
2076 Clouds 32 1007 62 10000 2.6 90 13:18 12.09.2019
2077 Clouds 32 1007 62 10000 2.6 90 13:18 12.09.2019
2078 Clouds 33 1007 59 10000 2.6 90 12:41 12.09.2019
2079 Clouds 33 1007 63 10000 2.6 100 12:18 12.09.2019
2080 Clouds 33 1007 63 10000 2.6 100 11:55 12.09.2019
2081 Clouds 34 1007 56 10000 2.6 80 11:36 12.09.2019
2082 Clouds 34 1007 52 10000 1.5 0 11:18 12.09.2019
2083 Clouds 34 1008 56 10000 1 0 10:42 12.09.2019
2084 Clouds 34 1008 56 10000 1 0 10:42 12.09.2019
2085 Clouds 34 1008 56 10000 1 0 10:42 12.09.2019
2086 Clouds 34 1008 56 10000 1 0 10:23 12.09.2019
2087 Clouds 33 1009 59 10000 1.5 30 09:44 12.09.2019
2088 Clouds 33 1009 59 10000 1.5 30 09:20 12.09.2019
2089 Clouds 33 1009 63 10000 2.1 0 08:57 12.09.2019
2090 Clouds 32 1010 66 10000 1.5 80 08:38 12.09.2019
2091 Clouds 32 1010 66 10000 1.5 80 08:20 12.09.2019
2092 Clouds 31 1011 70 10000 2.1 50 07:38 12.09.2019
2093 Clouds 32 1011 75 10000 1 0 07:18 12.09.2019
2094 Clouds 30 1012 74 10000 1 0 06:49 12.09.2019
2095 Clouds 30 1012 74 10000 1 0 06:19 12.09.2019
2096 Clouds 30 1012 74 10000 0.5 0 05:47 12.09.2019
2097 Clouds 30 1012 74 10000 0.5 0 05:27 12.09.2019
2098 Clouds 29 1012 79 10000 1 0 03:59 12.09.2019
2099 Clouds 25 1011 100 9000 1.41 348.403 01:45 12.09.2019
2100 Clouds 25 1011 100 9000 1.41 348.403 01:27 12.09.2019
2101 Rain 25 1011 100 6000 1 50 00:50 12.09.2019
2102 Rain 25 1011 100 6000 1 50 00:31 12.09.2019
2103 Rain 25 1010 100 6000 1 350 23:49 11.09.2019
2104 Rain 25 1010 100 6000 1 350 23:27 11.09.2019
2105 Mist 25 1010 100 4800 1 0 22:58 11.09.2019
2106 Mist 25 1011 100 5000 1 0 22:38 11.09.2019
2107 Mist 25 1011 100 5000 1 0 22:20 11.09.2019
2108 Rain 26 1011 94 8000 1.5 300 22:20 11.09.2019
2109 Mist 25 1011 100 5000 1 0 22:20 11.09.2019
2110 Rain 26 1011 94 8000 1.5 300 21:59 11.09.2019
2111 Rain 25 1011 100 7000 2.1 310 21:41 11.09.2019
2112 Rain 25 1011 100 7000 2.1 310 21:22 11.09.2019
2113 Rain 25 1011 100 7000 1 0 20:56 11.09.2019
2114 Rain 25 1011 100 7000 1 0 20:38 11.09.2019
2115 Clouds 25 1012 94 9000 1.5 330 20:19 11.09.2019
2116 Clouds 25 1012 94 9000 1.5 330 19:56 11.09.2019
2117 Clouds 25 1012 100 10000 1.5 310 19:37 11.09.2019
2118 Clouds 25 1012 100 10000 1.5 310 19:37 11.09.2019
2119 Clouds 26 1012 94 10000 1 0 19:19 11.09.2019
2120 Thunderstorm 25 1012 94 10000 1 0 18:43 11.09.2019
2121 Thunderstorm 25 1012 94 10000 1 0 18:24 11.09.2019
2122 Clouds 25 1012 100 8000 1 0 17:59 11.09.2019
2123 Clouds 26 1012 88 9000 1.5 70 17:41 11.09.2019
2124 Clouds 26 1012 94 9000 2.1 80 17:21 11.09.2019
2125 Clouds 26 1012 94 9000 2.1 80 16:56 11.09.2019
2126 Clouds 26 1012 94 9000 2.1 80 16:56 11.09.2019
2127 Rain 25 1012 94 10000 0.5 0 16:37 11.09.2019
2128 Rain 26 1011 88 10000 1.5 0 16:19 11.09.2019
2129 Clouds 26 1011 94 10000 1.5 50 15:46 11.09.2019
2130 Clouds 26 1011 94 10000 1.5 50 15:23 11.09.2019
2131 Clouds 26 1011 94 10000 1 0 14:58 11.09.2019
2132 Clouds 26 1010 94 9000 2.1 80 14:38 11.09.2019
2133 Clouds 26 1010 94 9000 2.1 80 14:20 11.09.2019
2134 Clouds 26 1010 94 8000 1.5 100 13:57 11.09.2019
2135 Clouds 26 1009 94 9000 1 0 13:36 11.09.2019
2136 Clouds 26 1009 94 9000 3.1 30 13:18 11.09.2019
2137 Clouds 26 1009 88 10000 4.1 50 12:41 11.09.2019
2138 Clouds 26 1009 88 10000 4.1 50 12:21 11.09.2019
2139 Rain 26 1008 94 8000 3.1 70 11:56 11.09.2019
2140 Thunderstorm 26 1009 88 10000 3.1 30 11:36 11.09.2019
2141 Thunderstorm 26 1009 94 5000 4.1 100 11:18 11.09.2019
2142 Thunderstorm 26 1009 94 5000 4.1 100 11:18 11.09.2019
2143 Thunderstorm 29 1009 79 10000 2.1 330 10:40 11.09.2019
2144 Thunderstorm 29 1009 79 10000 2.1 330 10:22 11.09.2019
2145 Clouds 27 1008 88 10000 1.5 230 09:41 11.09.2019
2146 Clouds 27 1008 88 10000 1.5 230 09:20 11.09.2019
2147 Clouds 27 1008 88 10000 1.5 230 09:20 11.09.2019
2148 Thunderstorm 26 1009 88 10000 4.6 160 08:59 11.09.2019
2149 Thunderstorm 27 1010 88 10000 2.1 40 08:39 11.09.2019
2150 Thunderstorm 27 1010 88 8000 2.1 60 08:20 11.09.2019
2151 Thunderstorm 30 1011 79 1500 3.6 80 07:45 11.09.2019
2152 Thunderstorm 30 1011 79 1500 3.6 80 07:23 11.09.2019
2153 Clouds 31 1011 74 10000 2.6 70 06:52 11.09.2019
2154 Clouds 31 1011 74 10000 2.6 70 06:33 11.09.2019
2155 Clouds 30 1012 79 10000 3.6 80 05:46 11.09.2019
2156 Clouds 30 1012 79 10000 3.6 80 05:28 11.09.2019
2157 Rain 26 1012 94 9000 3.6 70 04:46 11.09.2019
2158 Thunderstorm 28 1011 83 10000 4.6 60 03:33 11.09.2019
2159 Clouds 27 1011 83 10000 3.6 60 02:49 11.09.2019
2160 Clouds 27 1010 83 10000 2.6 60 02:20 11.09.2019
2161 Clouds 26 1009 88 10000 3.1 60 00:52 11.09.2019
2162 Clouds 26 1009 88 10000 3.1 60 00:26 11.09.2019
2163 Clouds 26 1009 88 10000 3.1 70 23:56 10.09.2019
2164 Clouds 26 1009 88 10000 2.6 70 23:37 10.09.2019
2165 Clouds 26 1009 88 10000 2.6 70 23:19 10.09.2019
2166 Clouds 26 1009 88 10000 2.1 60 22:41 10.09.2019
2167 Clouds 26 1009 88 10000 2.6 70 22:20 10.09.2019
2168 Clouds 26 1009 88 10000 2.6 70 21:56 10.09.2019
2169 Clouds 26 1009 88 10000 2.6 60 21:38 10.09.2019
2170 Clouds 26 1009 88 10000 2.6 60 21:20 10.09.2019
2171 Clouds 26 1009 88 10000 2.1 70 20:58 10.09.2019
2172 Clouds 26 1009 88 10000 2.1 70 20:38 10.09.2019
2173 Clouds 26 1010 88 10000 1.5 50 20:20 10.09.2019
2174 Clouds 26 1010 88 10000 1.5 50 19:56 10.09.2019
2175 Clouds 26 1010 88 10000 1.5 50 19:56 10.09.2019
2176 Clouds 26 1009 88 10000 2.1 60 19:37 10.09.2019
2177 Clouds 26 1010 88 10000 2.6 0 19:19 10.09.2019
2178 Clouds 26 1010 88 10000 2.6 0 18:55 10.09.2019
2179 Clouds 26 1010 88 10000 2.1 60 18:37 10.09.2019
2180 Clouds 26 1010 88 10000 2.1 80 18:18 10.09.2019
2181 Clouds 26 1009 88 10000 2.6 70 17:43 10.09.2019
2182 Clouds 26 1009 88 10000 2.6 70 17:22 10.09.2019
2183 Clouds 26 1009 88 10000 3.1 60 16:58 10.09.2019
2184 Clouds 26 1009 88 10000 3.1 70 16:39 10.09.2019
2185 Clouds 26 1009 88 10000 3.1 70 16:20 10.09.2019
2186 Clouds 26 1008 88 10000 3.1 50 15:57 10.09.2019
2187 Clouds 26 1008 88 10000 3.1 70 15:39 10.09.2019
2188 Clouds 26 1008 88 10000 3.1 70 15:20 10.09.2019
2189 Clouds 26 1007 88 10000 3.1 80 14:41 10.09.2019
2190 Clouds 26 1007 88 10000 3.1 80 14:22 10.09.2019
2191 Clouds 26 1007 88 10000 3.1 70 13:54 10.09.2019
2192 Clouds 26 1007 88 10000 3.6 80 13:36 10.09.2019
2193 Clouds 26 1007 88 10000 3.6 80 13:18 10.09.2019
2194 Clouds 26 1005 88 10000 2.6 50 12:42 10.09.2019
2195 Clouds 26 1005 88 10000 2.6 60 12:24 10.09.2019
2196 Clouds 26 1005 88 10000 2.6 60 11:54 10.09.2019
2197 Clouds 26 1004 88 10000 4.6 60 11:36 10.09.2019
2198 Clouds 26 1004 88 10000 4.1 50 11:18 10.09.2019
2199 Clouds 26 1004 88 10000 3.6 30 10:39 10.09.2019
2200 Clouds 25 1005 94 10000 5.1 60 10:19 10.09.2019
2201 Clouds 25 1005 94 10000 4.6 60 09:50 10.09.2019
2202 Clouds 25 1005 94 10000 4.6 50 09:20 10.09.2019
2203 Clouds 25 1005 94 10000 4.6 50 08:59 10.09.2019
2204 Clouds 25 1005 94 10000 3.6 60 08:41 10.09.2019
2205 Rain 25 1006 94 10000 3.6 60 08:22 10.09.2019
2206 Rain 25 1006 94 8000 3.6 70 07:44 10.09.2019
2207 Rain 25 1006 94 8000 3.6 70 07:26 10.09.2019
2208 Rain 25 1007 94 10000 3.1 60 06:51 10.09.2019
2209 Rain 25 1007 94 10000 3.1 60 06:31 10.09.2019
2210 Thunderstorm 25 1006 94 10000 4.1 80 04:57 10.09.2019
2211 Thunderstorm 25 1004 94 10000 6.7 100 02:46 10.09.2019
2212 Thunderstorm 25 1003 94 7000 5.1 60 02:22 10.09.2019
2213 Thunderstorm 25 1003 94 7000 5.1 60 01:54 10.09.2019
2214 Rain 28 1002 94 5000 3.6 70 01:28 10.09.2019
2215 Rain 27 1002 94 5000 2.6 70 00:44 10.09.2019
2216 Thunderstorm 27 1002 94 8000 3.1 70 00:24 10.09.2019
2217 Clouds 28 1002 88 10000 2.6 80 23:43 09.09.2019
2218 Clouds 27 1002 94 10000 2.6 80 23:20 09.09.2019
2219 Clouds 27 1002 94 10000 2.6 80 22:56 09.09.2019
2220 Rain 27 1002 94 10000 2.1 80 22:37 09.09.2019
2221 Clouds 28 1002 88 10000 3.1 70 22:19 09.09.2019
2222 Clouds 28 1002 88 10000 3.1 70 21:56 09.09.2019
2223 Clouds 28 1002 83 10000 3.6 60 21:37 09.09.2019
2224 Clouds 27 1002 88 10000 4.6 50 21:19 09.09.2019
2225 Clouds 27 1002 88 10000 4.6 50 20:55 09.09.2019
2226 Clouds 27 1002 88 10000 3.1 70 20:37 09.09.2019
2227 Clouds 27 1003 88 10000 2.6 80 20:18 09.09.2019
2228 Clouds 27 1003 88 10000 2.6 80 19:56 09.09.2019
2229 Clouds 27 1003 88 10000 2.6 80 19:38 09.09.2019
2230 Clouds 27 1003 88 10000 2.6 80 19:19 09.09.2019
2231 Thunderstorm 27 1003 88 10000 3.1 90 18:56 09.09.2019
2232 Thunderstorm 27 1003 88 10000 3.1 90 18:37 09.09.2019
2233 Clouds 27 1003 88 10000 4.1 80 18:19 09.09.2019
2234 Clouds 27 1003 83 10000 3.1 90 17:56 09.09.2019
2235 Clouds 27 1003 83 10000 3.1 90 17:38 09.09.2019
2236 Clouds 27 1003 83 10000 4.1 80 17:20 09.09.2019
2237 Clouds 27 1003 83 10000 4.1 80 17:20 09.09.2019
2238 Clouds 27 1003 88 10000 4.1 80 16:41 09.09.2019
2239 Clouds 27 1003 88 10000 4.1 80 16:21 09.09.2019
2240 Clouds 27 1003 88 10000 4.1 80 15:57 09.09.2019
2241 Clouds 27 1003 88 10000 4.1 80 15:57 09.09.2019
2242 Clouds 27 1003 88 10000 4.1 70 15:39 09.09.2019
2243 Clouds 27 1002 88 10000 4.1 70 15:21 09.09.2019
2244 Clouds 27 1002 88 10000 4.1 70 14:57 09.09.2019
2245 Clouds 27 1002 88 10000 4.1 70 14:39 09.09.2019
2246 Clouds 28 1001 83 10000 4.6 90 14:21 09.09.2019
2247 Thunderstorm 28 1001 88 10000 3.1 70 13:54 09.09.2019
2248 Thunderstorm 28 1001 88 10000 3.1 70 13:36 09.09.2019
2249 Thunderstorm 28 1000 88 10000 3.1 60 13:18 09.09.2019
2250 Thunderstorm 28 1000 88 10000 4.1 50 12:41 09.09.2019
2251 Clouds 28 1000 83 10000 3.6 50 12:21 09.09.2019
2252 Clouds 28 1000 83 10000 3.6 50 11:57 09.09.2019
2253 Thunderstorm 28 1000 83 10000 4.6 50 11:39 09.09.2019
2254 Clouds 29 1000 79 10000 3.6 60 11:18 09.09.2019
2255 Thunderstorm 30 999 79 10000 3.6 50 10:42 09.09.2019
2256 Thunderstorm 33 1000 70 10000 2.1 0 10:23 09.09.2019
2257 Thunderstorm 33 1000 70 10000 2.1 0 09:58 09.09.2019
2258 Thunderstorm 34 1000 67 10000 1.5 360 09:39 09.09.2019
2259 Thunderstorm 34 1000 67 10000 2.1 0 09:21 09.09.2019
2260 Clouds 34 1000 63 10000 2.1 130 08:39 09.09.2019
2261 Clouds 34 1000 63 10000 2.1 130 08:39 09.09.2019
2262 Clouds 34 1001 63 10000 2.6 90 08:20 09.09.2019
2263 Clouds 34 1002 67 10000 2.6 130 07:48 09.09.2019
2264 Clouds 34 1002 67 10000 2.6 130 07:28 09.09.2019
2265 Clouds 33 1002 75 10000 3.1 100 06:59 09.09.2019
2266 Clouds 33 1002 75 10000 3.1 90 06:40 09.09.2019
2267 Clouds 32 1003 79 10000 3.1 70 05:34 09.09.2019
2268 Clouds 29 1003 89 10000 4.1 90 02:59 09.09.2019
2269 Clouds 29 1002 89 10000 3.1 100 02:39 09.09.2019
2270 Rain 29 1001 89 10000 4.1 100 00:50 09.09.2019
2271 Clear 28 1001 94 10000 4.1 90 00:22 09.09.2019
2272 Rain 28 1001 94 8000 4.1 100 23:46 08.09.2019
2273 Rain 28 1001 94 8000 4.1 90 23:26 08.09.2019
2274 Rain 28 1001 94 8000 4.1 90 22:57 08.09.2019
2275 Clear 28 1001 88 10000 3.6 90 22:38 08.09.2019
2276 Thunderstorm 28 1002 88 9000 1.5 50 22:20 08.09.2019
2277 Clouds 28 1002 88 9000 3.1 90 21:42 08.09.2019
2278 Clouds 28 1002 83 10000 3.6 80 21:23 08.09.2019
2279 Clouds 28 1002 83 10000 3.6 80 20:59 08.09.2019
2280 Clouds 28 1002 83 10000 3.6 80 20:59 08.09.2019
2281 Clouds 28 1002 83 10000 3.6 100 20:40 08.09.2019
2282 Clouds 28 1003 78 9000 2.6 80 20:21 08.09.2019
2283 Clouds 28 1003 78 9000 2.6 80 19:59 08.09.2019
2284 Clouds 28 1003 78 10000 2.6 80 19:38 08.09.2019
2285 Clouds 28 1003 78 10000 2.1 100 19:19 08.09.2019
2286 Clear 29 1003 74 10000 2.6 130 18:57 08.09.2019
2287 Clear 29 1003 74 10000 2.6 130 18:38 08.09.2019
2288 Clear 29 1003 74 10000 3.6 130 18:18 08.09.2019
2289 Clouds 30 1003 74 10000 3.6 150 17:54 08.09.2019
2290 Clouds 30 1003 74 10000 3.6 150 17:36 08.09.2019
2291 Clouds 30 1003 84 10000 3.6 140 17:18 08.09.2019
2292 Clouds 30 1003 84 10000 3.6 140 17:18 08.09.2019
2293 Clouds 30 1003 84 10000 5.1 130 16:43 08.09.2019
2294 Clouds 30 1002 84 10000 5.7 140 16:22 08.09.2019
2295 Clouds 30 1002 84 10000 5.7 140 15:58 08.09.2019
2296 Clouds 31 1002 84 10000 5.7 130 15:39 08.09.2019
2297 Clouds 31 1002 84 10000 5.1 130 15:21 08.09.2019
2298 Clouds 31 1002 84 10000 5.1 130 14:54 08.09.2019
2299 Clouds 31 1002 79 10000 6.2 140 14:36 08.09.2019
2300 Clear 31 1001 79 10000 4.6 140 14:18 08.09.2019
2301 Clouds 32 1001 75 10000 5.1 140 13:54 08.09.2019
2302 Clouds 32 1001 75 10000 5.1 140 13:36 08.09.2019
2303 Clouds 32 1001 75 10000 5.1 140 13:36 08.09.2019
2304 Clouds 33 1000 66 10000 5.7 130 13:18 08.09.2019
2305 Clouds 33 1000 70 10000 5.7 110 12:41 08.09.2019
2306 Clouds 34 1000 67 10000 5.7 100 12:23 08.09.2019
2307 Clouds 34 1000 67 10000 5.7 100 11:58 08.09.2019
2308 Clouds 35 1000 59 10000 3.6 90 11:38 08.09.2019
2309 Clouds 35 1000 59 10000 3.1 110 11:19 08.09.2019
2310 Clouds 35 1000 59 10000 3.6 100 10:55 08.09.2019
2311 Clouds 35 1000 59 10000 3.6 100 10:36 08.09.2019
2312 Clouds 35 1000 59 10000 1.5 0 10:18 08.09.2019
2313 Clouds 36 1001 56 10000 2.6 130 09:38 08.09.2019
2314 Clouds 36 1001 56 10000 2.6 90 09:19 08.09.2019
2315 Clouds 34 1002 63 10000 3.1 70 08:40 08.09.2019
2316 Clouds 33 1002 70 10000 3.1 70 08:20 08.09.2019
2317 Clouds 33 1002 70 10000 3.1 70 07:59 08.09.2019
2318 Clouds 34 1003 63 10000 2.6 60 07:38 08.09.2019
2319 Clouds 33 1003 66 10000 2.6 80 07:19 08.09.2019
2320 Clouds 33 1004 66 10000 1.5 0 06:44 08.09.2019
2321 Clouds 32 1004 70 10000 3.6 130 05:45 08.09.2019
2322 Clouds 32 1004 70 10000 3.6 130 05:27 08.09.2019
2323 Clouds 30 1004 84 7000 3.6 90 03:30 08.09.2019
2324 Mist 29 1004 89 4800 2.6 80 02:51 08.09.2019
2325 Clouds 28 1004 94 8000 2.6 80 01:57 08.09.2019
2326 Clouds 28 1003 94 6000 3.1 100 01:33 08.09.2019
2327 Clouds 28 1003 94 6000 3.1 100 01:33 08.09.2019
2328 Clouds 28 1003 94 6000 3.6 110 00:49 08.09.2019
2329 Clouds 28 1003 94 6000 3.6 110 00:31 08.09.2019
2330 Clouds 28 1003 94 7000 3.6 100 23:58 07.09.2019
2331 Clouds 28 1003 94 7000 3.6 100 23:37 07.09.2019
2332 Clouds 28 1003 94 6000 3.6 100 23:19 07.09.2019
2333 Clouds 28 1003 94 6000 3.1 90 22:44 07.09.2019
2334 Clouds 28 1003 88 6000 3.1 100 22:25 07.09.2019
2335 Clouds 28 1003 88 6000 3.1 100 21:57 07.09.2019
2336 Clouds 28 1003 94 7000 4.1 90 21:38 07.09.2019
2337 Rain 28 1003 88 9000 3.6 100 21:20 07.09.2019
2338 Clear 29 1003 83 10000 4.1 130 20:40 07.09.2019
2339 Clear 29 1004 83 10000 4.6 120 20:21 07.09.2019
2340 Clear 29 1004 83 10000 4.6 120 19:57 07.09.2019
2341 Clear 29 1004 83 10000 4.6 120 19:38 07.09.2019
2342 Clear 29 1004 83 10000 3.1 100 19:19 07.09.2019
2343 Clear 30 1004 79 10000 4.6 130 18:58 07.09.2019
2344 Clear 30 1004 79 10000 4.6 130 18:39 07.09.2019
2345 Clear 30 1005 79 10000 4.1 130 18:20 07.09.2019
2346 Clear 30 1005 79 10000 4.1 130 17:59 07.09.2019
2347 Clear 30 1005 79 10000 3.6 140 17:39 07.09.2019
2348 Clear 30 1004 79 10000 4.1 140 17:18 07.09.2019
2349 Clear 31 1004 74 10000 4.1 130 16:56 07.09.2019
2350 Clear 31 1004 74 10000 4.1 130 16:37 07.09.2019
2351 Clear 31 1004 74 10000 3.6 130 16:18 07.09.2019
2352 Clear 31 1004 74 10000 4.6 140 15:44 07.09.2019
2353 Clear 31 1004 74 10000 4.6 140 15:25 07.09.2019
2354 Clear 32 1003 66 10000 5.1 140 14:56 07.09.2019
2355 Clear 32 1003 62 10000 4.1 150 14:36 07.09.2019
2356 Clear 33 1002 63 10000 3.6 140 14:18 07.09.2019
2357 Clouds 33 1002 63 10000 4.6 140 13:44 07.09.2019
2358 Clouds 34 1002 59 10000 4.1 150 13:25 07.09.2019
2359 Clouds 34 1002 59 10000 4.1 150 12:55 07.09.2019
2360 Clouds 34 1001 59 10000 5.7 140 12:37 07.09.2019
2361 Clouds 34 1001 59 10000 5.7 140 12:37 07.09.2019
2362 Clouds 35 1001 56 10000 5.1 130 12:19 07.09.2019
2363 Clear 36 1001 53 10000 5.1 130 11:41 07.09.2019
2364 Clear 36 1001 53 10000 5.1 130 11:41 07.09.2019
2365 Clear 36 1001 53 10000 5.1 140 11:22 07.09.2019
2366 Clouds 36 1001 53 10000 4.6 120 10:42 07.09.2019
2367 Clouds 36 1001 53 10000 4.6 120 10:42 07.09.2019
2368 Clouds 36 1001 53 10000 4.6 120 10:23 07.09.2019
2369 Clouds 36 1001 53 10000 3.6 110 09:59 07.09.2019
2370 Clouds 36 1002 53 10000 3.6 100 09:41 07.09.2019
2371 Clouds 36 1002 53 10000 3.6 70 09:21 07.09.2019
2372 Clouds 36 1003 53 10000 2.1 90 08:49 07.09.2019
2373 Clouds 36 1003 53 10000 2.1 90 08:30 07.09.2019
2374 Clouds 35 1003 56 10000 3.1 140 07:49 07.09.2019
2375 Clouds 35 1003 56 10000 3.1 140 07:29 07.09.2019
2376 Clouds 35 1004 59 10000 2.1 80 06:57 07.09.2019
2377 Clouds 34 1004 63 8000 3.6 80 06:39 07.09.2019
2378 Clouds 32 1005 70 8000 2.6 70 05:39 07.09.2019
2379 Clear 31 1005 74 8000 2.6 70 04:26 07.09.2019
2380 Clear 30 1005 79 6000 2.6 70 03:31 07.09.2019
2381 Mist 28 1004 88 3800 2.6 70 02:22 07.09.2019
2382 Mist 27 1004 94 4000 2.6 90 01:27 07.09.2019
2383 Clear 28 1004 83 6000 1.5 60 01:27 07.09.2019
2384 Clear 28 1003 83 6000 3.1 50 00:52 07.09.2019
2385 Clear 28 1003 83 6000 2.6 60 00:23 07.09.2019
2386 Mist 28 1003 83 5000 2.6 50 23:57 06.09.2019
2387 Mist 28 1003 83 5000 2.6 50 23:37 06.09.2019
2388 Mist 28 1003 83 5000 2.1 50 23:18 06.09.2019
2389 Mist 28 1002 83 4800 2.1 50 22:55 06.09.2019
2390 Mist 28 1002 83 4800 2.1 50 22:36 06.09.2019
2391 Mist 28 1002 83 5000 2.6 90 22:18 06.09.2019
2392 Mist 28 1002 83 5000 1.5 100 21:41 06.09.2019
2393 Mist 28 1002 83 5000 1.5 100 21:41 06.09.2019
2394 Mist 28 1003 83 5000 1 0 21:23 06.09.2019
2395 Mist 28 1003 83 5000 1 0 20:59 06.09.2019
2396 Clear 28 1003 83 7000 2.1 70 20:40 06.09.2019
2397 Clear 29 1003 79 9000 2.1 80 20:21 06.09.2019
2398 Clear 29 1003 79 9000 2.1 80 19:58 06.09.2019
2399 Clear 30 1003 74 10000 2.6 130 19:40 06.09.2019
2400 Clear 30 1004 74 10000 2.6 140 19:20 06.09.2019
2401 Clear 30 1004 74 10000 2.6 140 19:20 06.09.2019
2402 Clear 30 1004 74 10000 3.1 140 18:47 06.09.2019
2403 Clear 31 1004 70 10000 3.6 150 18:28 06.09.2019
2404 Clear 31 1004 70 10000 3.6 150 17:59 06.09.2019
2405 Clear 31 1004 74 10000 4.1 150 17:38 06.09.2019
2406 Clouds 31 1004 70 10000 4.1 140 17:19 06.09.2019
2407 Clear 32 1004 62 10000 3.1 150 16:42 06.09.2019
2408 Clear 32 1003 62 10000 1.5 160 16:19 06.09.2019
2409 Clear 32 1003 62 10000 1.5 160 15:56 06.09.2019
2410 Clear 32 1003 62 10000 2.6 180 15:38 06.09.2019
2411 Clouds 33 1002 59 8000 3.1 210 15:20 06.09.2019
2412 Clouds 33 1002 59 9000 2.6 200 14:39 06.09.2019
2413 Clear 34 1001 52 10000 2.6 150 14:18 06.09.2019
2414 Clear 33 1001 59 10000 2.1 120 13:43 06.09.2019
2415 Clear 35 1000 50 10000 2.6 160 13:22 06.09.2019
2416 Clear 35 1000 47 10000 1.5 0 12:39 06.09.2019
2417 Clear 36 1000 47 10000 1.5 150 12:21 06.09.2019
2418 Clear 36 1000 47 10000 1.5 150 11:57 06.09.2019
2419 Clear 35 1000 53 10000 2.1 0 11:39 06.09.2019
2420 Clear 35 1000 53 10000 2.1 0 11:39 06.09.2019
2421 Clear 36 1000 47 10000 2.1 150 11:20 06.09.2019
2422 Clouds 36 1001 47 10000 1.5 0 10:42 06.09.2019
2423 Clear 36 1001 47 10000 2.1 80 10:22 06.09.2019
2424 Clear 36 1001 47 10000 2.1 80 09:58 06.09.2019
2425 Clear 35 1001 50 10000 1.5 90 09:37 06.09.2019
2426 Clear 34 1002 52 10000 3.1 100 09:18 06.09.2019
2427 Clouds 35 1002 50 10000 1 0 08:44 06.09.2019
2428 Clouds 35 1002 50 10000 1 0 08:26 06.09.2019
2429 Clouds 34 1003 56 10000 1 0 07:50 06.09.2019
2430 Clouds 34 1003 56 10000 1 0 07:28 06.09.2019
2431 Clouds 34 1003 59 10000 1.5 60 06:58 06.09.2019
2432 Clouds 33 1004 66 9000 2.1 300 06:31 06.09.2019
2433 Clear 33 1004 63 7000 1 0 05:44 06.09.2019
2434 Mist 30 1004 74 5000 1.5 360 04:54 06.09.2019
2435 Mist 30 1004 79 3500 2.6 320 04:19 06.09.2019
2436 Mist 28 1004 83 2800 1 0 02:27 06.09.2019
2437 Mist 27 1003 88 4100 2.1 60 00:48 06.09.2019
2438 Mist 27 1002 94 3900 2.1 50 23:57 05.09.2019
2439 Mist 27 1002 88 4100 2.1 70 23:57 05.09.2019
2440 Mist 27 1002 88 4100 2.1 70 23:39 05.09.2019
2441 Mist 27 1002 88 4600 1.5 50 23:19 05.09.2019
2442 Mist 27 1002 88 4400 2.1 50 22:44 05.09.2019
2443 Mist 27 1002 88 4400 2.1 50 22:25 05.09.2019
2444 Mist 27 1002 88 4900 2.1 70 21:57 05.09.2019
2445 Mist 27 1002 88 4900 2.1 70 21:38 05.09.2019
2446 Mist 27 1003 88 4700 2.1 60 21:19 05.09.2019
2447 Mist 27 1003 88 4700 2.1 60 20:57 05.09.2019
2448 Mist 27 1003 88 4000 2.6 70 20:38 05.09.2019
2449 Mist 27 1003 88 4000 2.6 70 20:38 05.09.2019
2450 Mist 27 1003 88 4500 3.1 90 20:19 05.09.2019
2451 Mist 27 1003 88 4500 3.1 90 19:55 05.09.2019
2452 Clouds 28 1003 83 6000 1 0 19:37 05.09.2019
2453 Clouds 28 1004 83 7000 2.6 90 19:18 05.09.2019
2454 Clouds 28 1004 83 8000 3.1 90 18:40 05.09.2019
2455 Clouds 29 1004 79 8000 3.1 130 18:21 05.09.2019
2456 Clouds 30 1004 74 8000 3.6 140 17:56 05.09.2019
2457 Clouds 30 1004 74 8000 3.6 140 17:38 05.09.2019
2458 Clouds 30 1003 74 9000 3.1 150 17:20 05.09.2019
2459 Clear 30 1003 74 10000 3.1 130 16:42 05.09.2019
2460 Clear 31 1003 70 10000 3.1 160 16:21 05.09.2019
2461 Clear 31 1003 70 10000 3.1 160 15:58 05.09.2019
2462 Clear 31 1002 66 10000 2.6 150 15:39 05.09.2019
2463 Clear 31 1001 62 10000 3.1 130 15:19 05.09.2019
2464 Clear 31 1001 66 10000 2.1 100 14:44 05.09.2019
2465 Clouds 33 1001 59 10000 1 0 14:23 05.09.2019
2466 Clouds 33 1001 59 10000 1 0 13:59 05.09.2019
2467 Clouds 33 1001 59 10000 1.5 250 13:39 05.09.2019
2468 Clouds 34 1001 56 10000 2.1 260 13:18 05.09.2019
2469 Clouds 34 1000 59 10000 2.6 260 12:41 05.09.2019
2470 Clouds 35 1000 53 10000 3.1 260 12:23 05.09.2019
2471 Clouds 35 1000 50 10000 1.5 0 11:44 05.09.2019
2472 Clouds 36 1000 44 10000 2.1 360 11:20 05.09.2019
2473 Clouds 36 1000 44 10000 2.1 360 10:57 05.09.2019
2474 Clouds 35 1000 50 10000 1.5 320 10:37 05.09.2019
2475 Clouds 35 1000 50 10000 1.5 320 10:37 05.09.2019
2476 Clouds 35 1001 50 10000 2.6 30 10:18 05.09.2019
2477 Clouds 35 1001 50 10000 2.6 0 09:40 05.09.2019
2478 Clouds 35 1002 50 10000 2.6 0 09:21 05.09.2019
2479 Clouds 35 1002 50 10000 2.6 0 08:56 05.09.2019
2480 Clouds 35 1002 50 10000 2.6 0 08:37 05.09.2019
2481 Clouds 35 1002 50 10000 2.6 0 08:37 05.09.2019
2482 Clouds 35 1003 50 10000 2.6 0 08:19 05.09.2019
2483 Clouds 34 1003 52 10000 3.1 350 07:43 05.09.2019
2484 Clouds 34 1003 52 10000 3.1 350 07:24 05.09.2019
2485 Clouds 34 1004 56 10000 4.1 0 06:46 05.09.2019
2486 Clear 33 1004 66 10000 2.6 310 06:26 05.09.2019
2487 Clear 32 1004 70 10000 3.1 290 05:43 05.09.2019
2488 Clear 32 1004 70 10000 3.1 290 05:43 05.09.2019
2489 Clear 32 1004 70 10000 3.1 290 05:25 05.09.2019
2490 Clear 31 1005 74 10000 2.6 300 04:30 05.09.2019
2491 Rain 29 1005 83 7000 1.5 320 03:52 05.09.2019
2492 Clouds 28 1004 88 6000 2.1 310 02:58 05.09.2019
2493 Clouds 27 1004 94 8000 1.5 310 02:29 05.09.2019
2494 Clouds 27 1003 88 8000 2.1 300 01:57 05.09.2019
2495 Clouds 27 1002 88 9000 3.1 300 00:56 05.09.2019
2496 Clouds 27 1002 88 9000 3.1 300 00:37 05.09.2019
2497 Clouds 27 1003 88 9000 2.1 310 00:18 05.09.2019
2498 Clouds 27 1003 88 9000 1.5 300 23:40 04.09.2019
2499 Clear 27 1003 88 10000 1.5 310 23:22 04.09.2019
2500 Clear 27 1003 88 10000 2.1 320 22:47 04.09.2019
2501 Clear 27 1002 88 10000 2.6 280 22:20 04.09.2019
2502 Clear 27 1002 88 10000 2.6 280 21:56 04.09.2019
2503 Clear 28 1003 83 10000 1 0 21:38 04.09.2019
2504 Clear 27 1003 88 10000 1.5 340 21:19 04.09.2019
2505 Clear 27 1003 94 10000 1.5 310 20:55 04.09.2019
2506 Clear 27 1003 94 10000 1.5 310 20:36 04.09.2019
2507 Clear 27 1003 94 10000 1.5 310 20:36 04.09.2019
2508 Clear 27 1003 94 10000 1.5 310 20:18 04.09.2019
2509 Clear 28 1004 83 10000 1.5 300 19:40 04.09.2019
2510 Clear 28 1004 83 10000 1 0 19:21 04.09.2019
2511 Clear 29 1004 74 10000 1 0 18:42 04.09.2019
2512 Clear 29 1004 74 10000 1 0 18:24 04.09.2019
2513 Clear 29 1004 74 10000 1 0 18:24 04.09.2019
2514 Clear 29 1003 74 10000 0.5 0 17:58 04.09.2019
2515 Clear 29 1003 74 10000 0.5 0 17:40 04.09.2019
2516 Clear 29 1003 79 10000 2.1 360 17:21 04.09.2019
2517 Clear 29 1003 79 10000 2.1 360 17:21 04.09.2019
2518 Rain 29 1003 83 9000 1.5 0 16:54 04.09.2019
2519 Rain 29 1003 83 9000 1.5 0 16:36 04.09.2019
2520 Rain 29 1003 79 9000 1 0 16:18 04.09.2019
2521 Rain 29 1003 83 8000 1 0 15:39 04.09.2019
2522 Rain 29 1002 83 8000 1 0 15:21 04.09.2019
2523 Rain 29 1002 83 8000 1 0 14:58 04.09.2019
2524 Clear 29 1002 83 10000 1.5 330 14:38 04.09.2019
2525 Rain 30 1002 79 8000 1.5 330 14:20 04.09.2019
2526 Rain 30 1002 79 8000 1.5 330 13:57 04.09.2019
2527 Rain 31 1001 70 8000 1 0 13:37 04.09.2019
2528 Clear 31 1001 66 10000 1.5 310 13:19 04.09.2019
2529 Clear 31 1001 66 10000 1 320 12:41 04.09.2019
2530 Clear 31 1002 66 10000 1.5 320 12:23 04.09.2019
2531 Clear 31 1002 66 10000 1.5 320 11:56 04.09.2019
2532 Clear 31 1001 66 10000 1.5 310 11:37 04.09.2019
2533 Clear 31 1002 66 10000 2.1 310 11:19 04.09.2019
2534 Clear 32 1002 62 10000 2.1 300 10:44 04.09.2019
2535 Clear 32 1002 62 10000 2.6 310 10:25 04.09.2019
2536 Clear 32 1002 62 10000 2.6 310 09:57 04.09.2019
2537 Clear 31 1003 70 10000 2.6 300 09:39 04.09.2019
2538 Clear 31 1003 66 10000 2.6 300 09:18 04.09.2019
2539 Clear 31 1003 66 10000 2.6 290 08:41 04.09.2019
2540 Clear 31 1003 66 10000 2.6 290 08:23 04.09.2019
2541 Clear 31 1004 62 10000 2.1 320 07:51 04.09.2019
2542 Clear 31 1004 62 10000 2.1 320 07:32 04.09.2019
2543 Clear 31 1005 62 10000 3.1 310 06:42 04.09.2019
2544 Clear 31 1005 62 10000 3.1 330 06:20 04.09.2019
2545 Rain 29 1005 70 10000 2.6 10 04:52 04.09.2019
2546 Clear 29 1005 66 10000 2.6 0 04:18 04.09.2019
2547 Clear 29 1003 66 10000 2.6 360 01:39 04.09.2019
2548 Clear 29 1003 66 10000 2.1 340 00:54 04.09.2019
2549 Clear 29 1003 66 10000 2.1 340 00:32 04.09.2019
2550 Clear 29 1003 66 10000 2.1 350 23:55 03.09.2019
2551 Clear 29 1003 66 10000 2.1 350 23:28 03.09.2019
2552 Clear 29 1003 66 10000 2.6 340 22:59 03.09.2019
2553 Clear 29 1003 66 10000 2.1 310 22:40 03.09.2019
2554 Clear 28 1003 78 10000 2.1 310 22:22 03.09.2019
2555 Clear 28 1003 78 10000 2.1 310 21:56 03.09.2019
2556 Clear 28 1004 83 10000 2.6 320 21:56 03.09.2019
2557 Clear 28 1003 78 10000 2.1 310 21:56 03.09.2019
2558 Clear 28 1003 78 10000 2.1 310 21:56 03.09.2019
2559 Clear 28 1004 83 10000 2.6 320 21:37 03.09.2019
2560 Clear 28 1004 83 10000 3.1 300 21:19 03.09.2019
2561 Clear 28 1004 83 10000 3.6 300 20:42 03.09.2019
2562 Clear 28 1004 83 10000 2.6 300 20:24 03.09.2019
2563 Clear 29 1005 79 10000 2.6 300 19:56 03.09.2019
2564 Clear 29 1005 79 10000 2.6 300 19:38 03.09.2019
2565 Clear 29 1005 79 10000 2.6 300 19:38 03.09.2019
2566 Clear 29 1005 79 10000 2.6 300 19:19 03.09.2019
2567 Clear 28 1005 83 10000 2.6 300 18:47 03.09.2019
2568 Clear 29 1005 79 10000 3.1 300 18:27 03.09.2019
2569 Clear 29 1005 79 10000 4.1 300 17:59 03.09.2019
2570 Clear 29 1005 79 10000 4.1 300 17:41 03.09.2019
2571 Clear 28 1005 83 10000 2.6 290 17:20 03.09.2019
2572 Clear 28 1005 83 10000 2.6 290 16:58 03.09.2019
2573 Clear 29 1004 74 10000 2.1 300 16:38 03.09.2019
2574 Clear 29 1004 74 10000 3.1 310 16:20 03.09.2019
2575 Clear 29 1004 74 10000 3.1 310 16:20 03.09.2019
2576 Clear 29 1004 70 10000 2.6 330 15:41 03.09.2019
2577 Clear 29 1003 70 10000 2.1 340 15:21 03.09.2019
2578 Clear 29 1003 70 10000 2.1 340 14:58 03.09.2019
2579 Clear 30 1003 70 10000 2.1 340 14:40 03.09.2019
2580 Clear 30 1003 70 10000 1.5 0 14:20 03.09.2019
2581 Clear 31 1003 66 10000 2.1 340 13:57 03.09.2019
2582 Clear 30 1003 70 10000 1.5 0 13:57 03.09.2019
2583 Clear 31 1003 66 10000 2.1 340 13:37 03.09.2019
2584 Clear 31 1002 66 10000 3.6 340 13:19 03.09.2019
2585 Clear 32 1003 62 10000 3.6 340 12:50 03.09.2019
2586 Clear 32 1003 62 10000 3.6 340 12:31 03.09.2019
2587 Clouds 32 1003 59 10000 3.6 350 11:59 03.09.2019
2588 Clouds 33 1003 55 10000 4.1 350 11:39 03.09.2019
2589 Clear 33 1003 55 10000 4.1 360 11:19 03.09.2019
2590 Clouds 33 1003 55 10000 5.7 10 10:55 03.09.2019
2591 Clouds 33 1003 55 10000 5.7 10 10:36 03.09.2019
2592 Clouds 33 1004 55 10000 5.1 10 10:18 03.09.2019
2593 Clouds 33 1004 55 10000 5.1 10 09:42 03.09.2019
2594 Clouds 33 1004 55 10000 5.7 0 09:24 03.09.2019
2595 Clouds 32 1005 59 10000 4.1 0 08:41 03.09.2019
2596 Clouds 32 1006 59 10000 5.1 30 08:22 03.09.2019
2597 Clouds 32 1006 59 10000 5.1 30 07:57 03.09.2019
2598 Clouds 32 1006 59 10000 5.1 30 07:37 03.09.2019
2599 Clouds 32 1006 59 10000 5.1 30 07:37 03.09.2019
2600 Clouds 32 1006 59 10000 5.1 30 07:37 03.09.2019
2601 Clouds 31 1006 62 10000 5.1 20 07:18 03.09.2019
2602 Clouds 31 1007 62 10000 5.7 10 06:41 03.09.2019
2603 Clear 29 1007 70 10000 3.1 10 03:57 03.09.2019
2604 Clear 28 1007 69 10000 2.6 360 03:33 03.09.2019
2605 Clear 27 1007 78 10000 1.5 340 02:40 03.09.2019
2606 Clear 27 1006 74 10000 2.1 350 02:21 03.09.2019
2607 Clear 27 1006 74 10000 2.1 10 01:45 03.09.2019
2608 Clear 27 1006 74 10000 2.1 10 01:45 03.09.2019
2609 Clouds 27 1006 74 10000 2.1 310 01:25 03.09.2019
2610 Clouds 27 1006 78 10000 1.5 290 00:33 03.09.2019
2611 Clear 27 1005 74 10000 1 310 23:58 02.09.2019
2612 Clear 27 1006 78 10000 1.5 350 23:37 02.09.2019
2613 Clear 27 1006 78 10000 1.5 350 23:37 02.09.2019
2614 Clouds 27 1006 74 10000 1 0 23:19 02.09.2019
2615 Clouds 27 1006 74 10000 1 0 22:55 02.09.2019
2616 Clouds 28 1006 69 10000 2.6 10 22:36 02.09.2019
2617 Clouds 28 1006 69 10000 1 0 22:18 02.09.2019
2618 Clouds 28 1006 69 10000 1 0 21:55 02.09.2019
2619 Clouds 28 1005 69 10000 2.6 340 21:37 02.09.2019
2620 Clouds 27 1006 74 10000 1 0 21:18 02.09.2019
2621 Clear 28 1006 69 10000 3.1 10 20:41 02.09.2019
2622 Clear 28 1006 69 10000 3.1 20 20:23 02.09.2019
2623 Clear 28 1006 69 10000 3.1 20 20:23 02.09.2019
2624 Clear 28 1006 69 10000 3.1 20 19:58 02.09.2019
2625 Clear 28 1006 69 10000 3.1 10 19:40 02.09.2019
2626 Clear 28 1006 69 10000 3.1 360 19:21 02.09.2019
2627 Clear 28 1007 69 10000 3.1 0 18:56 02.09.2019
2628 Clear 28 1007 69 10000 3.1 0 18:36 02.09.2019
2629 Clear 28 1007 74 10000 3.1 20 18:18 02.09.2019
2630 Clear 28 1007 74 10000 3.1 20 17:40 02.09.2019
2631 Clear 28 1007 74 10000 3.6 0 17:21 02.09.2019
2632 Clear 28 1007 74 10000 3.6 0 16:59 02.09.2019
2633 Clear 28 1007 74 10000 2.1 0 16:39 02.09.2019
2634 Clear 28 1006 74 10000 3.1 10 16:20 02.09.2019
2635 Clear 28 1006 74 10000 3.1 10 16:20 02.09.2019
2636 Clear 28 1006 78 10000 2.1 0 15:46 02.09.2019
2637 Clear 28 1006 78 10000 2.1 0 15:27 02.09.2019
2638 Clear 29 1005 70 10000 2.6 0 15:27 02.09.2019
2639 Clear 29 1005 70 10000 2.6 0 14:58 02.09.2019
2640 Clear 29 1005 70 10000 3.6 40 14:39 02.09.2019
2641 Clear 29 1005 74 10000 3.6 50 14:21 02.09.2019
2642 Clear 29 1005 74 10000 3.6 50 13:56 02.09.2019
2643 Clouds 29 1005 74 10000 2.1 40 13:37 02.09.2019
2644 Clouds 29 1005 70 10000 5.1 20 13:18 02.09.2019
2645 Clouds 30 1004 66 10000 5.1 50 12:45 02.09.2019
2646 Clouds 31 1004 62 10000 4.6 10 12:25 02.09.2019
2647 Clouds 32 1004 59 10000 3.6 40 11:58 02.09.2019
2648 Clouds 32 1004 59 10000 3.6 40 11:38 02.09.2019
2649 Clouds 33 1004 55 10000 4.6 40 11:20 02.09.2019
2650 Clouds 33 1004 55 10000 4.6 40 10:56 02.09.2019
2651 Clouds 33 1004 59 10000 4.6 0 10:37 02.09.2019
2652 Clouds 32 1004 59 10000 4.6 20 10:19 02.09.2019
2653 Clouds 32 1005 59 10000 4.6 10 09:43 02.09.2019
2654 Clouds 33 1005 55 10000 4.6 360 09:22 02.09.2019
2655 Clouds 32 1006 59 10000 4.1 10 08:45 02.09.2019
2656 Clouds 32 1006 59 10000 4.1 10 08:23 02.09.2019
2657 Clouds 31 1006 62 10000 3.6 0 07:58 02.09.2019
2658 Clear 31 1006 62 10000 4.1 10 07:39 02.09.2019
2659 Clouds 31 1007 62 10000 5.7 20 07:21 02.09.2019
2660 Clouds 31 1007 62 10000 4.6 360 06:43 02.09.2019
2661 Clear 30 1008 62 10000 4.6 360 05:54 02.09.2019
2662 Clear 30 1008 62 10000 4.6 360 05:54 02.09.2019
2663 Clear 30 1008 62 10000 4.6 360 05:54 02.09.2019
2664 Clear 30 1008 62 10000 4.6 360 05:27 02.09.2019
2665 Clear 29 1008 66 10000 3.1 350 04:53 02.09.2019
2666 Clear 27 1007 78 10000 1 0 02:42 02.09.2019
2667 Clear 26 1007 88 10000 1.5 320 01:43 02.09.2019
2668 Clouds 26 1006 94 7000 1.5 320 00:46 02.09.2019
2669 Clouds 26 1006 94 6000 2.1 320 00:26 02.09.2019
2670 Rain 26 1006 94 6000 1.5 310 23:39 01.09.2019
2671 Rain 26 1006 94 7000 2.6 300 23:20 01.09.2019
2672 Rain 26 1006 94 7000 2.6 300 22:57 01.09.2019
2673 Rain 26 1006 94 7000 2.6 300 22:57 01.09.2019
2674 Rain 26 1006 94 6000 3.1 310 22:39 01.09.2019
2675 Rain 26 1006 94 6000 3.1 300 22:18 01.09.2019
2676 Rain 26 1006 94 7000 2.6 280 21:54 01.09.2019
2677 Rain 26 1006 94 7000 2.6 280 21:36 01.09.2019
2678 Clouds 26 1007 94 7000 2.1 310 21:18 01.09.2019
2679 Clouds 26 1007 94 7000 2.1 310 20:55 01.09.2019
2680 Clouds 26 1007 94 8000 2.1 310 20:36 01.09.2019
2681 Clear 26 1007 94 10000 3.1 310 20:18 01.09.2019
2682 Clouds 26 1007 94 9000 3.1 300 19:41 01.09.2019
2683 Clouds 26 1007 94 9000 3.1 300 19:21 01.09.2019
2684 Rain 26 1008 94 6000 3.6 310 18:55 01.09.2019
2685 Rain 26 1008 94 6000 3.6 310 18:37 01.09.2019
2686 Clouds 27 1008 83 10000 2.1 300 18:18 01.09.2019
2687 Clouds 26 1008 94 10000 2.1 290 17:40 01.09.2019
2688 Rain 26 1008 94 10000 2.1 290 17:22 01.09.2019
2689 Rain 26 1008 94 10000 2.1 290 16:56 01.09.2019
2690 Rain 27 1008 83 7000 0.5 0 16:37 01.09.2019
2691 Clouds 27 1007 78 10000 1.5 330 16:18 01.09.2019
2692 Clouds 27 1007 78 10000 1.5 330 15:42 01.09.2019
2693 Clouds 27 1007 78 10000 1.5 330 15:42 01.09.2019
2694 Clouds 27 1007 78 10000 1.5 330 15:23 01.09.2019
2695 Clear 27 1006 78 10000 1.5 330 14:44 01.09.2019
2696 Clear 27 1006 78 10000 1.5 330 14:26 01.09.2019
2697 Clear 27 1006 78 10000 2.6 320 13:59 01.09.2019
2698 Clear 27 1006 78 10000 1.5 0 13:41 01.09.2019
2699 Clear 28 1006 78 10000 2.6 0 13:23 01.09.2019
2700 Clouds 28 1006 74 10000 2.6 360 12:44 01.09.2019
2701 Clouds 28 1005 78 10000 3.1 350 12:26 01.09.2019
2702 Clouds 28 1005 78 10000 3.1 350 11:58 01.09.2019
2703 Clouds 28 1005 78 10000 3.6 360 11:38 01.09.2019
2704 Clouds 28 1006 78 10000 5.1 10 11:19 01.09.2019
2705 Clouds 28 1006 78 10000 4.6 10 10:45 01.09.2019
2706 Clouds 28 1006 78 10000 4.6 10 10:23 01.09.2019
2707 Clouds 29 1006 74 10000 4.6 10 09:48 01.09.2019
2708 Clouds 29 1006 74 10000 4.6 10 09:26 01.09.2019
2709 Clouds 29 1006 74 10000 5.7 10 08:56 01.09.2019
2710 Clouds 29 1006 74 10000 5.1 360 08:38 01.09.2019
2711 Clouds 29 1007 74 10000 5.1 10 08:20 01.09.2019
2712 Clouds 29 1007 74 10000 5.1 20 07:41 01.09.2019
2713 Clouds 28 1008 78 10000 4.6 0 07:20 01.09.2019
2714 Clouds 28 1008 78 10000 4.6 10 06:38 01.09.2019
2715 Clouds 28 1008 78 10000 4.1 0 05:59 01.09.2019
2716 Clouds 28 1008 78 10000 4.1 20 05:59 01.09.2019
2717 Clouds 28 1008 78 10000 4.1 20 04:41 01.09.2019
2718 Clouds 27 1008 83 10000 2.1 350 03:48 01.09.2019
2719 Clouds 27 1008 83 10000 2.1 350 03:29 01.09.2019
2720 Clouds 26 1007 88 10000 1 0 02:37 01.09.2019
2721 Clouds 26 1007 88 10000 1 0 02:37 01.09.2019
2722 Rain 25 1007 100 10000 2.1 310 02:18 01.09.2019
2723 Rain 25 1006 94 5000 1.5 80 01:27 01.09.2019
2724 Clouds 26 1006 94 10000 1 0 00:47 01.09.2019
2725 Clouds 26 1006 94 10000 0.5 0 00:23 01.09.2019
2726 Clouds 26 1006 94 10000 0.5 0 23:56 31.08.2019
2727 Rain 26 1006 94 7000 1.5 340 23:38 31.08.2019
2728 Clouds 26 1006 94 9000 1.5 320 23:19 31.08.2019
2729 Clouds 26 1006 94 9000 1.5 320 23:19 31.08.2019
2730 Rain 26 1006 94 7000 1.5 320 22:54 31.08.2019
2731 Rain 26 1006 94 7000 1.5 320 22:36 31.08.2019
2732 Rain 26 1006 94 7000 1.5 320 22:36 31.08.2019
2733 Rain 26 1006 94 7000 1.5 320 22:36 31.08.2019
2734 Rain 26 1006 94 6000 2.1 310 22:18 31.08.2019
2735 Rain 26 1006 94 6000 2.1 310 22:18 31.08.2019
2736 Clouds 26 1006 94 7000 2.1 310 21:40 31.08.2019
2737 Clouds 26 1006 94 7000 2.1 310 21:40 31.08.2019
2738 Clouds 26 1006 94 7000 2.6 300 21:21 31.08.2019
2739 Clouds 26 1007 94 7000 2.6 310 20:50 31.08.2019
2740 Clouds 26 1007 94 7000 2.6 310 20:31 31.08.2019
2741 Clouds 26 1007 94 9000 1.5 320 19:59 31.08.2019
2742 Clouds 26 1007 94 9000 2.1 310 19:40 31.08.2019
2743 Clouds 26 1007 94 10000 1 0 19:21 31.08.2019
2744 Rain 26 1007 94 10000 1 0 18:40 31.08.2019
2745 Rain 26 1007 94 10000 1.5 290 18:21 31.08.2019
2746 Rain 26 1007 94 7000 1 0 17:58 31.08.2019
2747 Rain 26 1007 94 7000 1 0 17:37 31.08.2019
2748 Rain 26 1007 94 10000 1 0 17:19 31.08.2019
2749 Rain 26 1007 94 10000 1 0 16:59 31.08.2019
2750 Rain 26 1007 94 10000 0.5 0 16:40 31.08.2019
2751 Clouds 27 1007 88 10000 1 0 16:21 31.08.2019
2752 Clouds 27 1007 88 10000 1 0 15:58 31.08.2019
2753 Clouds 27 1006 88 10000 1 0 15:37 31.08.2019
2754 Clouds 27 1006 88 10000 1.5 0 15:18 31.08.2019
2755 Thunderstorm 27 1005 83 10000 2.6 40 14:41 31.08.2019
2756 Rain 27 1004 83 10000 2.6 40 14:22 31.08.2019
2757 Clouds 28 1004 83 10000 3.6 10 13:42 31.08.2019
2758 Thunderstorm 29 1004 79 10000 2.1 20 13:23 31.08.2019
2759 Thunderstorm 29 1004 79 10000 2.1 20 12:59 31.08.2019
2760 Clouds 30 1003 74 10000 1.5 30 12:39 31.08.2019
2761 Rain 30 1003 74 10000 2.1 60 12:20 31.08.2019
2762 Rain 30 1003 74 10000 2.1 60 12:20 31.08.2019
2763 Clouds 31 1003 70 10000 1.5 0 11:55 31.08.2019
2764 Clouds 31 1003 70 10000 1.5 0 11:36 31.08.2019
2765 Clouds 30 1004 74 10000 2.1 60 11:18 31.08.2019
2766 Clouds 30 1004 74 10000 2.1 60 11:18 31.08.2019
2767 Clouds 29 1004 79 10000 2.1 100 10:41 31.08.2019
2768 Rain 29 1004 79 10000 3.1 80 10:19 31.08.2019
2769 Rain 29 1004 79 10000 3.1 80 09:57 31.08.2019
2770 Clouds 29 1005 79 10000 3.1 80 09:37 31.08.2019
2771 Clouds 30 1005 74 10000 4.1 60 09:19 31.08.2019
2772 Clouds 30 1005 74 10000 4.1 60 08:42 31.08.2019
2773 Clouds 30 1005 74 10000 4.1 60 08:42 31.08.2019
2774 Clouds 29 1006 79 10000 4.6 70 08:23 31.08.2019
2775 Clouds 28 1006 83 10000 4.1 50 07:40 31.08.2019
2776 Clouds 28 1006 83 10000 3.1 60 07:22 31.08.2019
2777 Clouds 28 1007 83 10000 3.6 60 06:28 31.08.2019
2778 Clouds 28 1007 83 10000 3.6 60 06:28 31.08.2019
2779 Clouds 27 1007 88 10000 2.6 50 05:58 31.08.2019
2780 Clouds 27 1007 88 10000 2.6 50 05:31 31.08.2019
2781 Clear 26 1007 94 10000 2.6 50 04:32 31.08.2019
2782 Rain 26 1006 94 10000 1.5 50 03:44 31.08.2019
2783 Clouds 25 1006 94 10000 2.1 60 02:30 31.08.2019
2784 Rain 25 1005 94 10000 2.1 60 01:52 31.08.2019
2785 Rain 25 1005 94 10000 2.1 60 01:31 31.08.2019
2786 Rain 25 1005 94 10000 2.1 50 00:49 31.08.2019
2787 Rain 25 1005 94 10000 2.1 40 00:28 31.08.2019
2788 Rain 25 1005 94 10000 2.1 30 23:51 30.08.2019
2789 Rain 25 1005 94 10000 2.6 60 23:21 30.08.2019
2790 Rain 25 1005 94 10000 2.6 60 22:59 30.08.2019
2791 Rain 25 1005 94 10000 2.1 50 22:40 30.08.2019
2792 Rain 25 1005 94 10000 2.1 50 22:40 30.08.2019
2793 Rain 25 1005 100 10000 1.5 50 22:21 30.08.2019
2794 Rain 25 1005 100 10000 1.5 50 21:57 30.08.2019
2795 Rain 25 1005 100 10000 1.5 50 21:57 30.08.2019
2796 Rain 25 1005 100 10000 2.1 70 21:37 30.08.2019
2797 Rain 25 1005 100 10000 3.1 80 21:18 30.08.2019
2798 Rain 25 1005 100 10000 3.1 80 20:57 30.08.2019
2799 Rain 25 1005 100 10000 4.1 70 20:38 30.08.2019
2800 Rain 25 1006 100 10000 3.6 60 20:20 30.08.2019
2801 Rain 25 1006 100 10000 3.6 60 19:56 30.08.2019
2802 Rain 25 1006 100 10000 3.1 60 19:38 30.08.2019
2803 Rain 25 1006 100 10000 3.1 60 19:18 30.08.2019
2804 Rain 25 1006 100 9000 2.6 110 18:45 30.08.2019
2805 Thunderstorm 25 1006 100 4800 4.1 90 18:24 30.08.2019
2806 Thunderstorm 25 1006 100 4800 4.1 90 18:24 30.08.2019
2807 Thunderstorm 25 1006 100 4800 3.6 130 17:57 30.08.2019
2808 Thunderstorm 25 1006 100 4800 3.6 130 17:57 30.08.2019
2809 Thunderstorm 25 1006 100 4800 3.6 130 17:39 30.08.2019
2810 Rain 25 1006 100 8000 3.6 120 17:19 30.08.2019
2811 Rain 25 1006 100 8000 3.6 120 16:56 30.08.2019
2812 Rain 25 1006 94 10000 3.1 110 16:38 30.08.2019
2813 Thunderstorm 25 1005 94 10000 5.1 90 16:19 30.08.2019
2814 Rain 25 1004 94 7000 8.2 110 15:39 30.08.2019
2815 Rain 26 1004 94 10000 5.1 130 15:20 30.08.2019
2816 Rain 26 1003 94 10000 3.6 120 14:45 30.08.2019
2817 Clouds 27 1003 88 10000 4.1 140 14:25 30.08.2019
2818 Clouds 27 1003 88 10000 4.1 140 13:56 30.08.2019
2819 Clouds 28 1002 83 10000 3.6 70 13:37 30.08.2019
2820 Clouds 28 1002 83 10000 3.1 70 13:19 30.08.2019
2821 Clouds 28 1001 83 10000 3.1 70 12:42 30.08.2019
2822 Clouds 28 1001 83 10000 3.1 70 12:42 30.08.2019
2823 Clouds 28 1001 88 10000 3.6 40 12:23 30.08.2019
2824 Clouds 27 1001 88 10000 3.1 80 11:43 30.08.2019
2825 Clouds 27 1001 88 10000 3.1 80 11:25 30.08.2019
2826 Clouds 29 1001 79 10000 6.2 70 10:59 30.08.2019
2827 Clouds 30 1001 79 10000 5.1 50 10:37 30.08.2019
2828 Clouds 29 1001 83 10000 3.6 60 10:18 30.08.2019
2829 Clouds 29 1002 79 10000 5.1 40 09:42 30.08.2019
2830 Rain 29 1002 79 10000 5.1 50 09:20 30.08.2019
2831 Rain 29 1002 79 10000 5.1 50 08:59 30.08.2019
2832 Clouds 31 1002 74 10000 3.6 40 08:40 30.08.2019
2833 Clouds 30 1003 79 10000 3.6 60 08:21 30.08.2019
2834 Rain 29 1003 83 10000 2.6 40 07:44 30.08.2019
2835 Rain 29 1003 83 7000 3.6 30 07:23 30.08.2019
2836 Clouds 29 1003 79 10000 4.1 0 06:49 30.08.2019
2837 Clouds 29 1003 79 10000 4.1 0 06:30 30.08.2019
2838 Clouds 30 1004 70 10000 3.6 50 05:55 30.08.2019
2839 Clouds 29 1004 79 10000 4.1 40 04:53 30.08.2019
2840 Clear 30 1004 70 10000 3.6 0 03:55 30.08.2019
2841 Clear 29 1004 74 10000 3.1 0 03:33 30.08.2019
2842 Clear 28 1003 78 10000 2.1 40 02:34 30.08.2019
2843 Clear 27 1003 83 10000 2.6 30 01:38 30.08.2019
2844 Clear 27 1003 83 10000 3.1 40 00:46 30.08.2019
2845 Clear 27 1003 83 10000 3.6 30 00:18 30.08.2019
2846 Clear 27 1003 83 10000 3.6 30 23:41 29.08.2019
2847 Clear 27 1003 83 10000 3.6 40 23:21 29.08.2019
2848 Clear 27 1002 83 10000 4.6 20 22:44 29.08.2019
2849 Clear 27 1003 83 10000 4.1 30 22:26 29.08.2019
2850 Clear 27 1003 83 10000 4.1 30 21:58 29.08.2019
2851 Clear 27 1003 83 10000 4.6 20 21:39 29.08.2019
2852 Rain 27 1003 83 10000 4.1 30 21:21 29.08.2019
2853 Rain 27 1003 83 10000 4.1 30 20:56 29.08.2019
2854 Clouds 27 1004 88 10000 5.7 40 20:37 29.08.2019
2855 Clouds 27 1004 88 10000 5.7 40 20:37 29.08.2019
2856 Rain 28 1004 88 8000 3.1 50 20:18 29.08.2019
2857 Clouds 28 1004 88 10000 2.1 50 19:46 29.08.2019
2858 Clouds 28 1004 88 10000 2.1 50 19:25 29.08.2019
2859 Clouds 28 1004 83 10000 2.1 80 18:45 29.08.2019
2860 Clouds 28 1004 83 10000 2.1 80 18:22 29.08.2019
2861 Clear 28 1003 88 10000 1.5 270 17:58 29.08.2019
2862 Clear 28 1003 88 10000 1.5 270 17:39 29.08.2019
2863 Clouds 28 1003 88 10000 1.5 0 17:20 29.08.2019
2864 Clouds 28 1003 88 10000 1.5 0 16:59 29.08.2019
2865 Clouds 29 1002 83 10000 2.1 270 16:41 29.08.2019
2866 Clouds 29 1002 83 10000 2.1 270 16:22 29.08.2019
2867 Clear 29 1002 83 10000 2.6 120 15:40 29.08.2019
2868 Thunderstorm 29 1001 83 10000 2.6 100 15:21 29.08.2019
2869 Thunderstorm 29 1001 83 10000 2.6 100 14:57 29.08.2019
2870 Thunderstorm 29 1000 83 10000 5.7 120 14:37 29.08.2019
2871 Thunderstorm 29 1000 83 10000 5.7 120 14:37 29.08.2019
2872 Thunderstorm 28 1000 83 10000 5.1 140 14:19 29.08.2019
2873 Thunderstorm 33 998 66 10000 3.6 90 13:55 29.08.2019
2874 Thunderstorm 33 998 66 10000 3.6 90 13:37 29.08.2019
2875 Thunderstorm 36 998 47 10000 4.1 40 13:18 29.08.2019
2876 Clouds 37 998 47 10000 3.6 10 12:55 29.08.2019
2877 Clouds 37 998 47 10000 3.6 10 12:36 29.08.2019
2878 Clouds 36 998 60 10000 3.6 340 12:18 29.08.2019
2879 Clouds 37 998 53 10000 4.1 10 11:41 29.08.2019
2880 Clouds 37 998 53 10000 4.1 350 11:20 29.08.2019
2881 Clouds 37 999 53 10000 4.6 340 10:57 29.08.2019
2882 Clouds 37 999 53 10000 4.6 340 10:38 29.08.2019
2883 Clouds 37 1000 53 10000 4.6 0 10:19 29.08.2019
2884 Clouds 37 1000 53 10000 4.6 350 09:41 29.08.2019
2885 Clouds 36 1001 56 10000 3.6 360 09:19 29.08.2019
2886 Clouds 36 1002 53 10000 4.6 360 08:45 29.08.2019
2887 Clouds 36 1002 53 10000 4.6 360 08:25 29.08.2019
2888 Clear 36 1003 53 10000 4.1 360 07:54 29.08.2019
2889 Clear 36 1003 53 10000 4.1 360 07:34 29.08.2019
2890 Clear 36 1003 53 10000 4.1 360 07:34 29.08.2019
2891 Clouds 35 1004 56 10000 4.1 10 06:59 29.08.2019
2892 Clouds 35 1004 56 10000 2.6 0 06:38 29.08.2019
2893 Clear 33 1004 70 10000 3.1 290 05:52 29.08.2019
2894 Clear 33 1004 70 10000 3.1 290 05:29 29.08.2019
2895 Clear 31 1004 74 10000 4.1 300 04:48 29.08.2019
2896 Clear 31 1004 74 10000 4.1 300 04:28 29.08.2019
2897 Mist 27 1004 94 5000 2.6 300 01:55 29.08.2019
2898 Mist 27 1004 94 5000 2.6 300 01:35 29.08.2019
2899 Clouds 27 1004 94 8000 2.1 320 00:47 29.08.2019
2900 Clouds 27 1005 94 7000 1.5 300 00:23 29.08.2019
2901 Clouds 27 1005 94 7000 1.5 300 23:58 28.08.2019
2902 Clouds 27 1005 94 8000 1 290 23:38 28.08.2019
2903 Clouds 27 1005 94 8000 2.32 294.458 23:20 28.08.2019
2904 Clouds 27 1005 94 8000 1.5 310 22:56 28.08.2019
2905 Clouds 27 1005 94 8000 1.5 310 22:37 28.08.2019
2906 Clouds 27 1004 94 7000 2.6 310 22:18 28.08.2019
2907 Clouds 27 1005 94 7000 2.1 330 21:41 28.08.2019
2908 Rain 27 1005 94 7000 2.1 320 21:22 28.08.2019
2909 Rain 27 1005 94 7000 2.1 320 20:56 28.08.2019
2910 Rain 27 1005 94 7000 1.5 310 20:38 28.08.2019
2911 Rain 27 1006 94 7000 1.5 320 20:19 28.08.2019
2912 Rain 27 1006 94 6000 2.1 310 19:42 28.08.2019
2913 Rain 28 1006 88 8000 2.1 310 19:21 28.08.2019
2914 Rain 28 1006 88 7000 2.6 310 18:57 28.08.2019
2915 Rain 28 1006 88 7000 2.6 310 18:37 28.08.2019
2916 Clouds 28 1006 88 9000 3.1 300 18:18 28.08.2019
2917 Clear 28 1007 88 10000 3.6 310 17:38 28.08.2019
2918 Clouds 28 1007 88 9000 2.6 310 17:19 28.08.2019
2919 Clouds 28 1006 88 9000 2.6 310 16:43 28.08.2019
2920 Clear 28 1006 88 10000 2.6 310 16:21 28.08.2019
2921 Clear 29 1006 83 10000 2.1 290 15:59 28.08.2019
2922 Clear 29 1006 83 10000 2.1 290 15:37 28.08.2019
2923 Clear 29 1006 83 10000 1.5 280 15:19 28.08.2019
2924 Clear 29 1006 83 10000 1.5 280 14:56 28.08.2019
2925 Clear 29 1006 83 10000 2.1 290 14:38 28.08.2019
2926 Clear 29 1006 83 10000 2.1 290 14:19 28.08.2019
2927 Clear 29 1006 83 10000 2.1 290 13:57 28.08.2019
2928 Clear 30 1006 79 10000 2.1 300 13:37 28.08.2019
2929 Clouds 30 1005 79 10000 1.5 290 13:18 28.08.2019
2930 Clouds 31 1005 74 10000 3.1 270 12:41 28.08.2019
2931 Clouds 32 1005 70 10000 1.5 330 12:23 28.08.2019
2932 Clouds 32 1005 70 10000 1.5 330 12:23 28.08.2019
2933 Clouds 32 1005 70 10000 1.5 0 11:54 28.08.2019
2934 Clouds 32 1005 70 10000 1.5 0 11:36 28.08.2019
2935 Clouds 32 1005 66 10000 2.6 80 11:18 28.08.2019
2936 Clouds 32 1005 66 10000 2.6 90 10:41 28.08.2019
2937 Clouds 32 1005 70 10000 2.1 110 10:21 28.08.2019
2938 Clouds 32 1005 70 10000 2.1 110 09:58 28.08.2019
2939 Clouds 33 1006 63 10000 2.1 0 09:39 28.08.2019
2940 Clouds 32 1006 66 10000 3.1 30 09:18 28.08.2019
2941 Clouds 32 1006 66 10000 2.6 0 08:39 28.08.2019
2942 Clouds 33 1007 59 10000 3.1 0 08:20 28.08.2019
2943 Clouds 33 1007 59 10000 3.1 0 08:20 28.08.2019
2944 Clouds 33 1007 63 10000 2.6 30 07:40 28.08.2019
2945 Clouds 31 1008 70 10000 3.1 40 07:22 28.08.2019
2946 Clouds 31 1008 74 10000 3.6 60 06:51 28.08.2019
2947 Clouds 31 1008 74 10000 3.6 60 06:32 28.08.2019
2948 Clouds 30 1009 74 10000 3.6 70 05:32 28.08.2019
2949 Clouds 28 1008 83 10000 1 0 02:46 28.08.2019
2950 Clouds 27 1007 88 10000 1 0 01:32 28.08.2019
2951 Clouds 27 1007 88 10000 1 0 00:55 28.08.2019
2952 Clouds 27 1007 88 10000 1 0 00:35 28.08.2019
2953 Rain 26 1007 94 10000 2.1 50 23:58 27.08.2019
2954 Clouds 27 1007 88 10000 2.1 50 23:38 27.08.2019
2955 Rain 26 1007 94 10000 2.1 0 23:20 27.08.2019
2956 Clouds 26 1007 94 10000 0.5 0 22:42 27.08.2019
2957 Clouds 27 1006 88 10000 2.1 30 22:23 27.08.2019
2958 Clouds 27 1006 88 10000 2.1 30 22:23 27.08.2019
2959 Clouds 27 1006 88 10000 2.1 30 21:57 27.08.2019
2960 Rain 27 1007 88 9000 3.1 50 21:38 27.08.2019
2961 Rain 27 1007 88 9000 3.1 50 21:38 27.08.2019
2962 Rain 27 1007 88 6000 2.6 50 21:20 27.08.2019
2963 Rain 27 1007 88 6000 2.6 50 20:59 27.08.2019
2964 Clouds 27 1007 88 10000 2.1 30 20:40 27.08.2019
2965 Clouds 27 1007 88 10000 3.1 50 20:19 27.08.2019
2966 Thunderstorm 27 1007 88 10000 3.6 60 19:45 27.08.2019
2967 Thunderstorm 27 1007 88 10000 3.6 60 19:27 27.08.2019
2968 Clouds 27 1007 88 10000 2.6 50 18:58 27.08.2019
2969 Clouds 27 1007 88 10000 2.6 50 18:39 27.08.2019
2970 Clouds 27 1007 88 10000 2.6 50 18:18 27.08.2019
2971 Clouds 27 1007 88 10000 2.1 60 17:55 27.08.2019
2972 Clouds 27 1007 88 10000 2.1 60 17:37 27.08.2019
2973 Clear 28 1007 83 10000 3.1 60 17:18 27.08.2019
2974 Clouds 28 1006 83 10000 2.1 60 16:42 27.08.2019
2975 Clouds 28 1006 83 10000 2.6 50 16:23 27.08.2019
2976 Clouds 28 1006 83 10000 2.6 50 15:55 27.08.2019
2977 Clouds 28 1005 83 10000 3.1 70 15:37 27.08.2019
2978 Clouds 28 1005 78 10000 1 0 15:19 27.08.2019
2979 Clear 28 1005 83 10000 2.1 70 14:42 27.08.2019
2980 Clear 28 1004 83 10000 1.5 50 14:23 27.08.2019
2981 Clear 28 1004 83 10000 2.1 30 13:43 27.08.2019
2982 Clouds 28 1004 83 10000 3.1 40 13:25 27.08.2019
2983 Clouds 28 1004 83 10000 3.1 40 12:58 27.08.2019
2984 Clouds 28 1003 83 10000 5.7 60 12:39 27.08.2019
2985 Clouds 29 1003 83 10000 6.2 80 12:19 27.08.2019
2986 Thunderstorm 33 1002 63 10000 2.6 0 11:46 27.08.2019
2987 Thunderstorm 33 1002 63 10000 2.6 0 11:26 27.08.2019
2988 Clouds 33 1003 63 10000 1.5 0 10:46 27.08.2019
2989 Clouds 33 1003 63 10000 1.5 0 10:27 27.08.2019
2990 Clouds 32 1003 66 10000 2.6 30 09:59 27.08.2019
2991 Clouds 32 1003 66 10000 2.6 10 09:39 27.08.2019
2992 Clouds 32 1004 66 10000 2.6 30 09:21 27.08.2019
2993 Clouds 32 1004 66 10000 2.6 30 08:56 27.08.2019
2994 Clouds 31 1004 70 10000 2.6 0 08:38 27.08.2019
2995 Clear 31 1005 70 10000 2.6 40 08:18 27.08.2019
2996 Clear 31 1005 70 10000 3.1 70 07:41 27.08.2019
2997 Clear 31 1005 70 10000 3.1 70 07:41 27.08.2019
2998 Clear 30 1005 74 10000 2.6 40 07:20 27.08.2019
2999 Clear 30 1006 70 10000 2.6 30 06:54 27.08.2019
3000 Clear 30 1006 70 10000 2.6 30 06:26 27.08.2019
3001 Clouds 29 1006 74 10000 2.6 60 05:47 27.08.2019
3002 Clouds 29 1006 74 10000 2.6 40 04:44 27.08.2019
3003 Clouds 27 1005 83 10000 2.1 50 03:39 27.08.2019
3004 Clouds 26 1005 88 8000 1.5 50 02:23 27.08.2019
3005 Clouds 26 1004 94 6000 2.6 50 01:40 27.08.2019
3006 Clouds 26 1004 88 6000 3.1 60 01:21 27.08.2019
3007 Clouds 26 1004 94 8000 2.6 60 00:43 27.08.2019
3008 Rain 26 1003 94 7000 3.6 60 00:23 27.08.2019
3009 Rain 26 1003 94 8000 3.1 70 23:39 26.08.2019
3010 Clouds 26 1003 94 8000 1.5 70 23:20 26.08.2019
3011 Clouds 26 1003 94 8000 2.1 50 22:40 26.08.2019
3012 Clouds 26 1003 94 8000 2.1 50 22:20 26.08.2019
3013 Clouds 27 1003 88 7000 3.1 50 21:58 26.08.2019
3014 Rain 27 1004 94 4600 3.1 70 21:38 26.08.2019
3015 Mist 28 1004 94 4900 3.1 80 21:19 26.08.2019
3016 Mist 28 1004 94 4900 3.1 80 20:56 26.08.2019
3017 Mist 28 1004 88 6000 3.6 100 20:37 26.08.2019
3018 Mist 28 1004 94 4100 2.1 80 20:18 26.08.2019
3019 Rain 28 1005 94 4500 2.6 70 19:43 26.08.2019
3020 Rain 28 1005 94 4500 2.6 70 19:19 26.08.2019
3021 Rain 28 1005 94 4800 2.6 120 18:58 26.08.2019
3022 Rain 29 1004 89 6000 3.1 130 18:38 26.08.2019
3023 Rain 29 1005 83 7000 3.1 130 18:19 26.08.2019
3024 Clouds 29 1005 83 7000 2.6 110 17:44 26.08.2019
3025 Clouds 29 1005 83 7000 2.6 110 17:20 26.08.2019
3026 Clouds 29 1004 83 7000 3.6 120 16:57 26.08.2019
3027 Clouds 29 1004 83 7000 3.6 90 16:39 26.08.2019
3028 Clouds 29 1004 89 8000 3.1 90 16:18 26.08.2019
3029 Clouds 29 1004 89 8000 3.1 90 15:54 26.08.2019
3030 Clouds 29 1003 83 7000 3.6 90 15:36 26.08.2019
3031 Clouds 29 1003 89 7000 3.1 90 15:18 26.08.2019
3032 Clouds 30 1002 84 7000 4.1 90 14:42 26.08.2019
3033 Mist 30 1002 84 5000 4.1 90 14:22 26.08.2019
3034 Mist 30 1001 84 4200 4.1 90 13:44 26.08.2019
3035 Mist 30 1001 84 5000 3.1 90 13:23 26.08.2019
3036 Mist 30 1001 84 5000 3.1 90 12:57 26.08.2019
3037 Rain 31 1001 79 7000 3.6 110 12:39 26.08.2019
3038 Rain 31 1001 79 7000 3.6 110 12:20 26.08.2019
3039 Clouds 31 1001 79 6000 4.6 110 11:39 26.08.2019
3040 Clouds 31 1001 79 6000 4.6 110 11:21 26.08.2019
3041 Mist 32 1001 75 5000 4.1 110 10:58 26.08.2019
3042 Mist 32 1001 75 4700 3.6 110 10:39 26.08.2019
3043 Mist 32 1001 75 4700 3.6 110 10:19 26.08.2019
3044 Mist 32 1001 75 2800 2.1 100 09:43 26.08.2019
3045 Mist 32 1001 75 2800 2.1 100 09:24 26.08.2019
3046 Mist 32 1001 75 3300 2.1 180 08:58 26.08.2019
3047 Mist 31 1002 79 3200 2.1 100 08:39 26.08.2019
3048 Mist 31 1002 79 3200 2.1 100 08:21 26.08.2019
3049 Mist 31 1003 79 3200 0.5 0 07:45 26.08.2019
3050 Mist 31 1003 79 3200 0.5 0 07:25 26.08.2019
3051 Mist 31 1003 79 3100 2.1 180 06:58 26.08.2019
3052 Mist 31 1003 79 3200 2.1 0 06:39 26.08.2019
3053 Mist 30 1004 84 3300 1 0 06:18 26.08.2019
3054 Mist 30 1004 84 3300 1 0 05:33 26.08.2019
3055 Mist 29 1004 89 2800 2.1 40 04:22 26.08.2019
3056 Mist 28 1003 94 1800 2.1 90 02:39 26.08.2019
3057 Mist 28 1003 94 2000 2.6 70 01:23 26.08.2019
3058 Mist 28 1002 94 2700 1.5 80 00:45 26.08.2019
3059 Mist 28 1002 94 2700 1.5 80 00:26 26.08.2019
3060 Mist 28 1002 94 2600 2.1 60 23:45 25.08.2019
3061 Mist 28 1002 94 2500 2.1 60 23:20 25.08.2019
3062 Mist 28 1002 94 2500 2.1 60 22:59 25.08.2019
3063 Mist 28 1002 94 2800 1.5 60 22:40 25.08.2019
3064 Mist 28 1002 94 2800 1.5 60 22:20 25.08.2019
3065 Mist 28 1002 94 2800 1.5 60 21:58 25.08.2019
3066 Mist 28 1002 94 2800 1.5 60 21:58 25.08.2019
3067 Mist 28 1002 94 2500 2.1 70 21:39 25.08.2019
3068 Mist 28 1002 94 2500 2.1 70 21:19 25.08.2019
3069 Mist 29 1002 89 4300 2.1 110 20:42 25.08.2019
3070 Mist 29 1002 89 4300 2.1 110 20:42 25.08.2019
3071 Mist 29 1002 89 4300 2.1 110 20:20 25.08.2019
3072 Mist 29 1002 89 4800 1.5 80 19:59 25.08.2019
3073 Mist 29 1003 89 5000 2.1 90 19:39 25.08.2019
3074 Mist 29 1003 89 5000 2.1 90 19:20 25.08.2019
3075 Clouds 31 1003 74 7000 1 0 18:58 25.08.2019
3076 Clouds 31 1003 74 7000 1 0 18:58 25.08.2019
3077 Clouds 31 1003 74 7000 1 0 18:40 25.08.2019
3078 Clouds 31 1003 79 8000 1 0 18:21 25.08.2019
3079 Clouds 31 1003 79 8000 1 0 17:55 25.08.2019
3080 Clouds 32 1003 70 8000 1 0 17:36 25.08.2019
3081 Clouds 32 1003 70 8000 1 0 17:18 25.08.2019
3082 Clouds 32 1003 70 8000 2.1 160 16:39 25.08.2019
3083 Clouds 32 1002 70 9000 1 0 16:21 25.08.2019
3084 Clouds 32 1002 79 8000 1 0 15:44 25.08.2019
3085 Clouds 32 1002 79 8000 1 0 15:26 25.08.2019
3086 Clear 34 1001 59 10000 1.5 190 14:54 25.08.2019
3087 Clear 34 1001 59 10000 1.5 200 14:36 25.08.2019
3088 Clear 34 1001 59 10000 1.5 200 14:18 25.08.2019
3089 Clear 34 1001 59 10000 1.5 230 13:42 25.08.2019
3090 Clear 34 1001 59 10000 1.5 230 13:20 25.08.2019
3091 Clear 34 1001 59 10000 1 310 12:48 25.08.2019
3092 Clear 34 1001 59 10000 1 310 12:26 25.08.2019
3093 Clear 35 1000 56 10000 1 0 11:59 25.08.2019
3094 Clear 35 1000 56 10000 1 0 11:40 25.08.2019
3095 Clear 35 1000 56 10000 1 0 11:21 25.08.2019
3096 Clear 35 1001 59 10000 2.1 320 10:57 25.08.2019
3097 Clouds 35 1001 56 10000 2.1 330 10:39 25.08.2019
3098 Clouds 35 1001 56 10000 2.1 330 10:19 25.08.2019
3099 Clear 35 1002 59 10000 2.1 0 09:44 25.08.2019
3100 Clear 35 1002 59 10000 2.1 0 09:25 25.08.2019
3101 Clear 34 1003 63 10000 2.1 330 08:48 25.08.2019
3102 Clear 34 1003 63 10000 2.1 330 08:30 25.08.2019
3103 Clear 34 1003 59 10000 2.1 290 07:55 25.08.2019
3104 Clear 33 1004 66 10000 1.5 0 07:34 25.08.2019
3105 Clear 32 1005 66 10000 2.1 0 06:40 25.08.2019
3106 Clear 30 1005 74 10000 2.1 310 05:42 25.08.2019
3107 Clear 29 1006 79 10000 2.6 290 04:23 25.08.2019
3108 Rain 26 1005 94 7000 2.1 330 02:55 25.08.2019
3109 Mist 26 1005 94 6000 1 310 02:36 25.08.2019
3110 Rain 25 1005 94 6000 1.5 290 00:58 25.08.2019
3111 Clouds 25 1004 94 8000 1.5 320 00:24 25.08.2019
3112 Clouds 25 1004 94 6000 1 310 23:59 24.08.2019
3113 Clouds 25 1004 100 7000 1 0 23:40 24.08.2019
3114 Clouds 25 1004 100 7000 1 0 23:22 24.08.2019
3115 Clouds 25 1004 94 6000 1.5 290 22:54 24.08.2019
3116 Clouds 26 1004 94 6000 1.5 250 22:36 24.08.2019
3117 Clouds 26 1004 94 6000 1.5 250 22:18 24.08.2019
3118 Clouds 26 1004 94 6000 1.5 330 21:42 24.08.2019
3119 Clouds 26 1004 94 6000 1.5 330 21:42 24.08.2019
3120 Clouds 26 1004 94 6000 1.5 330 21:42 24.08.2019
3121 Clouds 26 1004 94 6000 1.5 330 21:23 24.08.2019
3122 Mist 26 1004 94 5000 0.5 0 20:58 24.08.2019
3123 Mist 26 1004 94 5000 0.5 0 20:58 24.08.2019
3124 Mist 26 1004 94 5000 0.5 0 20:39 24.08.2019
3125 Mist 26 1004 94 5000 1 0 20:20 24.08.2019
3126 Mist 26 1004 94 5000 1 0 19:58 24.08.2019
3127 Mist 26 1005 94 5000 0.5 0 19:39 24.08.2019
3128 Mist 26 1005 94 4800 1.5 280 19:20 24.08.2019
3129 Mist 25 1005 100 5000 2.1 300 18:46 24.08.2019
3130 Mist 25 1005 100 5000 2.1 300 18:25 24.08.2019
3131 Clouds 26 1005 88 10000 1.5 310 17:46 24.08.2019
3132 Clouds 26 1005 88 10000 1.5 310 17:46 24.08.2019
3133 Clouds 26 1005 88 10000 1.5 310 17:28 24.08.2019
3134 Clouds 26 1005 88 10000 1.5 310 16:57 24.08.2019
3135 Clouds 26 1005 88 9000 2.6 50 16:38 24.08.2019
3136 Clouds 26 1005 88 8000 2.1 80 16:19 24.08.2019
3137 Clouds 26 1005 94 8000 3.1 50 15:44 24.08.2019
3138 Clouds 26 1005 94 8000 3.1 50 15:26 24.08.2019
3139 Clouds 26 1005 94 7000 2.6 60 14:57 24.08.2019
3140 Clouds 26 1005 94 8000 3.1 80 14:39 24.08.2019
3141 Clouds 26 1005 94 10000 4.6 0 14:18 24.08.2019
3142 Rain 26 1004 88 10000 2.1 180 13:43 24.08.2019
3143 Rain 26 1004 94 6000 3.1 180 13:23 24.08.2019
3144 Rain 26 1004 94 6000 3.1 180 13:23 24.08.2019
3145 Rain 26 1004 94 6000 3.1 180 12:59 24.08.2019
3146 Rain 26 1004 88 9000 4.1 130 12:40 24.08.2019
3147 Rain 26 1004 88 9000 4.1 130 12:22 24.08.2019
3148 Rain 26 1004 88 9000 4.1 130 12:22 24.08.2019
3149 Rain 27 1003 88 8000 6.2 100 11:49 24.08.2019
3150 Thunderstorm 27 1005 88 4000 8.7 80 11:31 24.08.2019
3151 Clouds 33 1004 63 10000 1 0 10:59 24.08.2019
3152 Clouds 34 1002 59 10000 3.1 290 10:38 24.08.2019
3153 Clouds 34 1003 63 10000 3.6 260 10:20 24.08.2019
3154 Clouds 34 1003 63 10000 4.1 260 09:42 24.08.2019
3155 Clear 34 1004 67 10000 2.1 0 09:18 24.08.2019
3156 Clear 33 1005 66 10000 3.1 290 08:43 24.08.2019
3157 Clear 33 1005 66 10000 3.1 290 08:24 24.08.2019
3158 Clear 33 1005 66 10000 2.6 290 07:51 24.08.2019
3159 Clear 32 1006 70 10000 2.6 300 07:29 24.08.2019
3160 Clear 31 1007 74 10000 2.6 290 06:31 24.08.2019
3161 Clear 30 1007 79 10000 3.1 290 05:59 24.08.2019
3162 Clear 30 1007 74 10000 3.1 290 05:35 24.08.2019
3163 Mist 26 1007 88 4700 1.5 320 03:40 24.08.2019
3164 Mist 25 1007 94 3300 2.6 300 02:41 24.08.2019
3165 Mist 25 1007 94 3800 1.5 300 01:53 24.08.2019
3166 Mist 25 1007 94 3300 2.1 330 01:22 24.08.2019
3167 Mist 24 1007 100 5000 2.1 330 00:45 24.08.2019
3168 Mist 24 1007 100 5000 2.1 330 00:21 24.08.2019
3169 Clouds 24 1006 100 6000 1.5 300 23:44 23.08.2019
3170 Clouds 25 1006 94 7000 1 0 23:19 23.08.2019
3171 Clouds 25 1006 94 8000 1 0 22:44 23.08.2019
3172 Clouds 25 1006 94 8000 1 0 22:24 23.08.2019
3173 Clouds 25 1007 94 8000 1 330 21:54 23.08.2019
3174 Clouds 25 1007 94 9000 1 340 21:36 23.08.2019
3175 Clouds 25 1007 94 9000 1 340 21:36 23.08.2019
3176 Clouds 25 1007 94 9000 1 340 21:36 23.08.2019
3177 Clear 25 1007 94 10000 1.5 290 21:18 23.08.2019
3178 Rain 25 1007 94 9000 2.1 310 20:45 23.08.2019
3179 Rain 25 1007 94 9000 2.1 310 20:27 23.08.2019
3180 Rain 25 1008 94 8000 2.1 320 19:45 23.08.2019
3181 Rain 25 1008 94 9000 2.6 310 19:19 23.08.2019
3182 Rain 25 1008 94 8000 2.1 320 19:19 23.08.2019
3183 Rain 25 1008 94 9000 2.6 310 18:54 23.08.2019
3184 Rain 25 1008 94 8000 2.6 290 18:36 23.08.2019
3185 Rain 25 1008 94 9000 2.6 300 18:18 23.08.2019
3186 Clear 25 1008 94 10000 2.6 300 17:41 23.08.2019
3187 Clear 25 1008 94 10000 2.6 300 17:22 23.08.2019
3188 Clear 25 1008 94 10000 2.1 310 16:49 23.08.2019
3189 Clouds 25 1008 94 10000 1.5 290 16:30 23.08.2019
3190 Clouds 25 1008 100 10000 2.6 310 15:59 23.08.2019
3191 Rain 25 1008 94 10000 2.6 290 15:39 23.08.2019
3192 Rain 25 1008 94 10000 2.6 290 15:21 23.08.2019
3193 Rain 25 1007 94 10000 1 0 14:44 23.08.2019
3194 Rain 25 1007 94 10000 1 0 14:21 23.08.2019
3195 Rain 25 1007 94 10000 1 0 13:59 23.08.2019
3196 Rain 25 1006 94 4600 3.1 20 13:41 23.08.2019
3197 Rain 25 1006 94 4600 3.1 20 13:22 23.08.2019
3198 Clouds 26 1007 94 10000 4.6 30 12:58 23.08.2019
3199 Clouds 26 1007 94 10000 4.6 30 12:58 23.08.2019
3200 Clouds 26 1006 88 10000 1.5 30 12:40 23.08.2019
3201 Clouds 26 1006 88 10000 1.5 30 12:21 23.08.2019
3202 Rain 26 1005 88 10000 1 0 11:57 23.08.2019
3203 Rain 26 1005 88 10000 2.1 130 11:38 23.08.2019
3204 Rain 26 1005 88 10000 2.1 130 11:38 23.08.2019
3205 Thunderstorm 25 1006 94 3000 5.7 90 11:18 23.08.2019
3206 Thunderstorm 28 1006 78 10000 5.1 70 10:45 23.08.2019
3207 Thunderstorm 28 1006 78 10000 5.1 70 10:23 23.08.2019
3208 Thunderstorm 32 1005 62 10000 2.1 310 09:58 23.08.2019
3209 Clouds 32 1006 66 10000 3.1 310 09:39 23.08.2019
3210 Clouds 32 1006 66 10000 3.1 310 09:20 23.08.2019
3211 Clouds 31 1007 62 10000 3.1 0 08:44 23.08.2019
3212 Clouds 31 1007 62 10000 3.1 340 08:20 23.08.2019
3213 Clouds 31 1008 66 10000 3.1 330 07:43 23.08.2019
3214 Clouds 31 1008 66 10000 3.1 330 07:24 23.08.2019
3215 Clouds 31 1008 66 10000 3.1 330 07:24 23.08.2019
3216 Clouds 31 1008 66 10000 2.6 310 06:58 23.08.2019
3217 Clouds 30 1008 70 10000 2.1 350 06:39 23.08.2019
3218 Clouds 30 1009 74 10000 2.1 320 06:20 23.08.2019
3219 Clouds 29 1009 74 10000 2.1 300 05:42 23.08.2019
3220 Clouds 29 1009 74 10000 2.1 300 05:21 23.08.2019
3221 Clouds 27 1009 88 10000 3.1 320 03:22 23.08.2019
3222 Clouds 27 1008 88 10000 2.1 310 02:23 23.08.2019
3223 Clouds 26 1008 88 10000 1.5 330 01:40 23.08.2019
3224 Clouds 26 1007 88 10000 1 0 00:45 23.08.2019
3225 Clouds 26 1007 88 10000 1 0 00:20 23.08.2019
3226 Clouds 26 1007 88 10000 1.5 20 23:49 22.08.2019
3227 Clouds 26 1007 88 10000 1.5 20 23:31 22.08.2019
3228 Clouds 26 1007 94 9000 1 0 22:58 22.08.2019
3229 Clouds 26 1007 94 6000 1.5 320 22:40 22.08.2019
3230 Clouds 26 1007 94 6000 1.5 320 22:21 22.08.2019
3231 Clouds 26 1007 94 6000 1.5 30 21:55 22.08.2019
3232 Clouds 26 1007 94 6000 1.5 30 21:55 22.08.2019
3233 Mist 26 1007 94 5000 1 0 21:37 22.08.2019
3234 Mist 26 1007 94 5000 1 0 21:19 22.08.2019
3235 Clouds 26 1007 94 6000 1.5 0 20:56 22.08.2019
3236 Mist 26 1008 94 5000 1 360 20:38 22.08.2019
3237 Mist 26 1008 94 5000 1 0 20:18 22.08.2019
3238 Clouds 26 1008 94 6000 1 0 19:40 22.08.2019
3239 Clouds 26 1008 94 8000 1 40 19:22 22.08.2019
3240 Clouds 26 1008 94 8000 1 40 18:59 22.08.2019
3241 Clouds 26 1008 94 9000 1 0 18:41 22.08.2019
3242 Clouds 26 1008 94 6000 1 0 18:20 22.08.2019
3243 Clouds 26 1008 94 6000 1 0 18:20 22.08.2019
3244 Clouds 26 1008 94 6000 1 0 17:59 22.08.2019
3245 Clouds 26 1008 94 6000 1 0 17:41 22.08.2019
3246 Clouds 27 1007 88 6000 2.1 40 17:20 22.08.2019
3247 Rain 27 1007 88 6000 2.1 60 16:57 22.08.2019
3248 Rain 27 1007 88 6000 2.1 60 16:38 22.08.2019
3249 Clouds 27 1007 88 7000 1.5 60 16:20 22.08.2019
3250 Rain 27 1007 88 6000 2.1 60 16:20 22.08.2019
3251 Rain 27 1007 88 6000 2.1 60 16:20 22.08.2019
3252 Rain 27 1007 88 6000 2.1 60 16:19 22.08.2019
3253 Clouds 27 1007 88 7000 1.5 60 15:55 22.08.2019
3254 Clouds 27 1007 88 7000 1.5 60 15:55 22.08.2019
3255 Clouds 27 1006 94 6000 2.1 40 15:36 22.08.2019
3256 Clouds 27 1006 88 6000 2.1 60 15:18 22.08.2019
3257 Clouds 27 1005 88 8000 3.1 90 14:41 22.08.2019
3258 Clouds 27 1005 88 10000 2.6 50 14:22 22.08.2019
3259 Clouds 27 1005 88 10000 2.6 50 13:59 22.08.2019
3260 Rain 27 1005 88 9000 2.1 60 13:40 22.08.2019
3261 Rain 27 1005 88 9000 2.1 60 13:20 22.08.2019
3262 Rain 27 1005 88 8000 2.1 90 12:56 22.08.2019
3263 Clouds 27 1005 88 8000 2.6 100 12:38 22.08.2019
3264 Clouds 28 1005 78 10000 1.5 60 12:19 22.08.2019
3265 Clouds 28 1004 83 10000 2.1 70 11:42 22.08.2019
3266 Clouds 28 1004 83 10000 2.1 70 11:21 22.08.2019
3267 Clouds 27 1004 88 10000 2.1 210 10:58 22.08.2019
3268 Clouds 27 1004 88 10000 2.1 210 10:40 22.08.2019
3269 Clouds 27 1004 88 10000 2.1 210 10:22 22.08.2019
3270 Rain 27 1005 88 9000 3.6 180 09:57 22.08.2019
3271 Rain 27 1005 88 5000 3.6 210 09:39 22.08.2019
3272 Rain 27 1005 88 5000 3.6 210 09:39 22.08.2019
3273 Rain 27 1005 88 5000 3.6 210 09:20 22.08.2019
3274 Thunderstorm 28 1005 83 10000 3.1 0 08:54 22.08.2019
3275 Thunderstorm 29 1005 83 9000 4.6 260 08:36 22.08.2019
3276 Clouds 31 1005 66 10000 3.1 20 08:18 22.08.2019
3277 Clouds 31 1005 66 10000 3.1 20 07:39 22.08.2019
3278 Clouds 31 1006 70 10000 2.6 20 07:19 22.08.2019
3279 Clouds 31 1006 70 10000 3.1 50 06:47 22.08.2019
3280 Clouds 30 1006 74 10000 2.6 10 06:22 22.08.2019
3281 Clouds 30 1006 70 10000 3.6 20 05:30 22.08.2019
3282 Clouds 29 1006 83 10000 1.5 30 04:19 22.08.2019
3283 Clouds 28 1006 88 10000 2.6 50 02:38 22.08.2019
3284 Mist 27 1005 94 1800 1 0 01:40 22.08.2019
3285 Mist 27 1005 94 3200 2.1 80 01:20 22.08.2019
3286 Mist 27 1005 94 3300 1.5 70 00:41 22.08.2019
3287 Mist 27 1005 94 3800 1.5 50 00:22 22.08.2019
3288 Mist 27 1005 94 3700 2.1 90 23:44 21.08.2019
3289 Mist 27 1005 94 3700 2.1 90 23:25 21.08.2019
3290 Mist 27 1005 94 3900 2.1 80 22:58 21.08.2019
3291 Mist 27 1005 94 4300 1.5 100 22:40 21.08.2019
3292 Mist 27 1005 94 4300 1.5 100 22:21 21.08.2019
3293 Mist 27 1005 94 3900 1.5 50 21:56 21.08.2019
3294 Mist 28 1005 88 4800 2.1 60 21:38 21.08.2019
3295 Mist 28 1005 88 4800 2.1 60 21:38 21.08.2019
3296 Mist 28 1005 88 4800 2.1 60 21:19 21.08.2019
3297 Mist 27 1005 94 4500 1.5 80 20:56 21.08.2019
3298 Mist 28 1005 88 5000 0.5 0 20:38 21.08.2019
3299 Mist 28 1006 88 5000 1 0 20:20 21.08.2019
3300 Mist 28 1006 88 5000 1 0 19:43 21.08.2019
3301 Mist 28 1006 88 5000 2.1 150 19:24 21.08.2019
3302 Mist 28 1006 88 5000 2.1 150 18:58 21.08.2019
3303 Mist 28 1006 88 5000 2.1 140 18:39 21.08.2019
3304 Clouds 28 1006 88 5000 2.6 130 18:20 21.08.2019
3305 Mist 28 1006 88 5000 2.1 120 17:45 21.08.2019
3306 Mist 28 1006 88 5000 2.1 120 17:23 21.08.2019
3307 Clouds 28 1006 88 6000 2.1 110 16:58 21.08.2019
3308 Clouds 28 1005 88 7000 1 310 16:39 21.08.2019
3309 Clouds 28 1005 88 7000 1 310 16:20 21.08.2019
3310 Clouds 28 1005 88 8000 1 0 15:57 21.08.2019
3311 Clouds 28 1005 88 8000 1 0 15:57 21.08.2019
3312 Clouds 28 1005 88 9000 1.5 180 15:38 21.08.2019
3313 Rain 28 1005 88 9000 1.5 180 15:19 21.08.2019
3314 Rain 28 1004 88 9000 2.1 90 15:19 21.08.2019
3315 Rain 28 1005 88 9000 1.5 180 15:19 21.08.2019
3316 -273 0 0 0 0 0 14:55 21.08.2019
3317 Rain 29 1004 83 9000 2.6 90 14:37 21.08.2019
3318 Rain 29 1004 83 9000 2.6 90 14:18 21.08.2019
3319 Clouds 29 1003 83 9000 2.1 110 13:43 21.08.2019
3320 Clouds 29 1003 83 9000 2.1 110 13:20 21.08.2019
3321 Rain 29 1003 89 5000 2.1 40 12:58 21.08.2019
3322 Clouds 30 1003 79 8000 1.5 330 12:40 21.08.2019
3323 Clouds 30 1003 79 9000 1 0 12:19 21.08.2019
3324 Clouds 30 1003 79 9000 1.5 300 11:44 21.08.2019
3325 Clouds 30 1003 79 9000 1.5 300 11:24 21.08.2019
3326 Clouds 30 1003 79 9000 1.5 230 10:59 21.08.2019
3327 Clouds 30 1003 79 9000 2.1 140 10:40 21.08.2019
3328 Clouds 30 1003 79 9000 2.1 140 10:21 21.08.2019
3329 Clouds 30 1004 79 9000 1.5 190 09:58 21.08.2019
3330 Clouds 30 1004 79 10000 2.1 190 09:40 21.08.2019
3331 Clouds 30 1004 79 10000 2.1 190 09:21 21.08.2019
3332 Thunderstorm 29 1005 89 9000 2.1 280 08:49 21.08.2019
3333 Thunderstorm 29 1005 89 9000 2.1 280 08:25 21.08.2019
3334 Mist 28 1005 88 5000 2.1 250 07:45 21.08.2019
3335 Mist 28 1005 88 5000 2.1 250 07:26 21.08.2019
3336 Clouds 28 1005 88 7000 2.1 230 06:51 21.08.2019
3337 Clouds 28 1005 88 7000 2.1 230 06:33 21.08.2019
3338 Clouds 27 1006 94 6000 2.1 230 05:57 21.08.2019
3339 Clouds 27 1006 94 6000 2.1 230 05:28 21.08.2019
3340 Rain 26 1006 100 5000 1 0 04:42 21.08.2019
3341 Rain 26 1006 100 5000 1 0 04:42 21.08.2019
3342 Rain 26 1005 94 3400 2.1 310 02:40 21.08.2019
3343 Mist 26 1004 94 2500 2.1 300 01:30 21.08.2019
3344 Mist 26 1004 94 4600 1.5 330 00:41 21.08.2019
3345 Mist 26 1004 94 4600 1.5 330 00:20 21.08.2019
3346 Clouds 26 1004 94 6000 1.5 310 23:45 20.08.2019
3347 Clouds 26 1004 94 6000 1.5 310 23:20 20.08.2019
3348 Clouds 26 1003 94 6000 0.5 0 22:59 20.08.2019
3349 Clouds 26 1004 94 6000 1.5 360 22:40 20.08.2019
3350 Clouds 26 1004 94 6000 1.5 360 22:21 20.08.2019
3351 Clouds 26 1003 94 6000 2.1 310 21:58 20.08.2019
3352 Clouds 26 1003 94 7000 1.5 310 21:39 20.08.2019
3353 Rain 26 1003 94 7000 1.5 310 21:19 20.08.2019
3354 Rain 26 1004 94 6000 1.5 300 20:58 20.08.2019
3355 Rain 26 1004 94 7000 2.1 280 20:39 20.08.2019
3356 Rain 26 1004 94 7000 2.1 280 20:21 20.08.2019
3357 Rain 26 1005 94 6000 2.1 310 19:39 20.08.2019
3358 Rain 26 1005 94 6000 2.1 310 19:21 20.08.2019
3359 Rain 26 1005 94 7000 2.1 290 18:56 20.08.2019
3360 Rain 26 1005 94 8000 1.5 290 18:38 20.08.2019
3361 Clouds 26 1005 94 8000 1.5 290 18:19 20.08.2019
3362 Clouds 26 1005 94 8000 1.5 290 18:19 20.08.2019
3363 Clear 26 1005 94 10000 1 0 17:55 20.08.2019
3364 Clear 26 1005 94 10000 1 0 17:37 20.08.2019
3365 Clear 26 1005 94 10000 1 0 17:19 20.08.2019
3366 Clear 26 1005 94 10000 1 0 17:19 20.08.2019
3367 Clear 26 1004 88 10000 2.6 110 16:43 20.08.2019
3368 Clear 26 1004 88 10000 2.6 110 16:24 20.08.2019
3369 Clouds 27 1003 88 7000 2.6 40 15:43 20.08.2019
3370 Clear 27 1002 88 10000 1 0 15:19 20.08.2019
3371 Clear 27 1002 88 10000 1 0 14:59 20.08.2019
3372 Clear 27 1002 88 10000 1.5 350 14:40 20.08.2019
3373 Clear 26 1002 94 10000 2.1 360 14:21 20.08.2019
3374 Clear 26 1002 94 10000 2.1 360 14:21 20.08.2019
3375 Clear 26 1002 94 10000 2.1 360 13:56 20.08.2019
3376 Clear 26 1002 94 10000 1 0 13:37 20.08.2019
3377 Clear 26 1003 88 10000 1.5 280 13:19 20.08.2019
3378 Clear 26 1003 88 10000 2.1 320 12:50 20.08.2019
3379 Clear 26 1003 88 10000 2.1 320 12:25 20.08.2019
3380 Clear 26 1003 88 10000 2.1 320 12:25 20.08.2019
3381 Clear 26 1003 83 10000 2.1 320 11:58 20.08.2019
3382 Clouds 27 1003 88 10000 3.6 0 11:38 20.08.2019
3383 Clouds 27 1003 88 10000 3.6 0 11:18 20.08.2019
3384 Clouds 27 1003 88 10000 3.6 0 10:56 20.08.2019
3385 Thunderstorm 27 1003 83 10000 4.6 130 10:37 20.08.2019
3386 Thunderstorm 27 1003 94 8000 4.1 70 10:19 20.08.2019
3387 Thunderstorm 30 1002 70 10000 8.2 20 09:42 20.08.2019
3388 Clouds 34 1002 63 10000 2.1 140 09:24 20.08.2019
3389 Clouds 34 1002 63 10000 1.5 0 08:43 20.08.2019
3390 Clouds 34 1002 63 10000 1.5 0 08:25 20.08.2019
3391 Clouds 33 1002 66 10000 1.5 30 07:59 20.08.2019
3392 Clouds 34 1003 63 10000 1.5 0 07:41 20.08.2019
3393 Clouds 33 1003 66 10000 1.5 0 07:22 20.08.2019
3394 Clouds 33 1003 66 10000 1.5 0 06:55 20.08.2019
3395 Clear 32 1003 70 10000 2.1 0 06:22 20.08.2019
3396 Clouds 31 1004 74 8000 1.5 250 05:48 20.08.2019
3397 Rain 30 1004 79 6000 1.5 350 04:56 20.08.2019
3398 Clouds 29 1004 83 6000 2.1 330 03:28 20.08.2019
3399 Mist 27 1003 94 4300 1 0 02:32 20.08.2019
3400 Clouds 26 1003 94 7000 1.5 270 01:22 20.08.2019
3401 Clouds 26 1003 94 8000 0.5 270 00:48 20.08.2019
3402 Clouds 26 1003 94 8000 0.5 270 00:30 20.08.2019
3403 Clouds 27 1002 88 6000 1 340 23:52 19.08.2019
3404 Mist 27 1002 88 5000 1.5 350 23:19 19.08.2019
3405 Mist 27 1002 88 5000 1.5 350 22:59 19.08.2019
3406 Mist 27 1003 88 5000 1.5 70 22:41 19.08.2019
3407 Clouds 27 1003 88 7000 1 0 22:21 19.08.2019
3408 Clouds 27 1003 88 7000 1 0 22:21 19.08.2019
3409 Clouds 27 1003 88 7000 1 0 21:58 19.08.2019
3410 Clear 27 1003 88 10000 0.5 0 21:39 19.08.2019
3411 Clear 27 1003 88 10000 1 0 21:20 19.08.2019
3412 Clear 27 1003 88 10000 1 0 20:57 19.08.2019
3413 Rain 27 1003 83 9000 1 0 20:38 19.08.2019
3414 Clouds 27 1004 88 8000 1.5 30 20:19 19.08.2019
3415 Clouds 27 1004 88 8000 1.5 30 19:55 19.08.2019
3416 Clouds 27 1004 83 10000 1.5 60 19:36 19.08.2019
3417 Clouds 27 1004 83 10000 1.5 60 19:18 19.08.2019
3418 Clouds 27 1004 83 10000 1 0 18:41 19.08.2019
3419 Clear 27 1004 83 10000 2.1 120 18:23 19.08.2019
3420 Clear 27 1004 83 10000 2.1 100 17:57 19.08.2019
3421 Clear 27 1004 83 10000 2.1 100 17:38 19.08.2019
3422 Clear 27 1004 88 10000 2.1 100 17:19 19.08.2019
3423 Clear 27 1004 88 10000 2.1 100 16:54 19.08.2019
3424 Clear 27 1004 88 10000 2.1 100 16:36 19.08.2019
3425 Clear 27 1003 83 10000 4.1 90 16:18 19.08.2019
3426 Clear 28 1004 78 10000 3.1 90 15:45 19.08.2019
3427 Clear 29 1003 74 10000 3.6 130 15:20 19.08.2019
3428 Clear 28 1004 78 10000 3.1 90 15:20 19.08.2019
3429 Clear 29 1003 74 10000 3.6 130 14:55 19.08.2019
3430 Clear 29 1003 74 10000 3.6 100 14:36 19.08.2019
3431 Clear 29 1003 74 10000 3.6 100 14:18 19.08.2019
3432 Clear 29 1002 74 10000 4.1 90 13:54 19.08.2019
3433 Clear 29 1001 74 10000 3.6 90 13:36 19.08.2019
3434 Clear 31 1001 74 10000 2.6 110 13:18 19.08.2019
3435 Clear 31 1000 74 10000 2.6 170 12:41 19.08.2019
3436 Clear 32 1000 66 10000 1 0 12:22 19.08.2019
3437 Clear 31 1000 74 10000 3.1 170 11:43 19.08.2019
3438 Clear 31 1000 74 10000 3.1 170 11:25 19.08.2019
3439 Clouds 30 1000 79 10000 1.5 100 10:59 19.08.2019
3440 Clouds 30 1001 89 10000 3.6 110 10:39 19.08.2019
3441 Clouds 29 1001 100 10000 4.6 140 10:19 19.08.2019
3442 Clouds 29 1001 100 10000 4.6 140 09:54 19.08.2019
3443 Thunderstorm 27 1002 100 1000 4.6 100 09:36 19.08.2019
3444 Thunderstorm 27 1002 100 1000 4.6 100 09:18 19.08.2019
3445 Clouds 34 1001 63 10000 2.1 200 08:41 19.08.2019
3446 Clouds 34 1001 63 10000 2.1 200 08:21 19.08.2019
3447 Clouds 35 1002 59 10000 0.5 0 07:52 19.08.2019
3448 Clouds 34 1002 63 10000 1.5 0 07:32 19.08.2019
3449 Clouds 34 1002 63 10000 2.1 60 06:58 19.08.2019
3450 Clouds 33 1003 66 10000 1 0 06:36 19.08.2019
3451 Clouds 33 1003 66 10000 1.5 0 05:25 19.08.2019
3452 Clear 32 1003 70 10000 2.6 330 04:32 19.08.2019
3453 Clear 31 1003 70 10000 2.1 310 03:24 19.08.2019
3454 Clouds 29 1002 94 6000 1 0 02:29 19.08.2019
3455 Mist 28 1002 100 3800 0.5 0 01:36 19.08.2019
3456 Clouds 29 1002 94 7000 1.5 40 00:44 19.08.2019
3457 Clouds 29 1002 94 7000 1.5 40 00:23 19.08.2019
3458 Clouds 29 1002 94 7000 2.6 50 23:43 18.08.2019
3459 Clouds 29 1002 94 7000 2.6 50 23:22 18.08.2019
3460 Clouds 29 1002 94 6000 2.6 50 22:57 18.08.2019
3461 Clouds 29 1001 94 6000 2.6 50 22:38 18.08.2019
3462 Clouds 29 1002 94 6000 2.6 50 22:20 18.08.2019
3463 Clouds 29 1002 94 6000 2.6 50 21:56 18.08.2019
3464 Clouds 29 1002 94 6000 3.1 60 21:37 18.08.2019
3465 Clouds 29 1002 94 6000 3.1 60 21:19 18.08.2019
3466 Clouds 29 1002 94 6000 2.6 50 20:44 18.08.2019
3467 Clouds 29 1002 94 6000 2.6 50 20:25 18.08.2019
3468 Clouds 29 1002 94 7000 2.6 60 19:56 18.08.2019
3469 Clouds 29 1002 94 7000 2.6 60 19:56 18.08.2019
3470 Clouds 30 1003 84 9000 2.6 60 19:38 18.08.2019
3471 Clear 30 1003 84 10000 2.6 60 19:19 18.08.2019
3472 Clear 30 1003 89 10000 2.1 60 18:41 18.08.2019
3473 Clear 30 1003 89 10000 2.1 60 18:23 18.08.2019
3474 Clear 30 1003 84 10000 2.6 70 17:59 18.08.2019
3475 Clear 30 1003 79 10000 2.6 60 17:41 18.08.2019
3476 Clear 30 1003 79 10000 2.6 60 17:19 18.08.2019
3477 Clear 31 1002 74 10000 2.6 90 16:57 18.08.2019
3478 Clear 31 1002 70 10000 2.6 80 16:38 18.08.2019
3479 Clear 31 1002 70 10000 2.6 80 16:20 18.08.2019
3480 Clear 31 1002 70 10000 3.1 100 15:56 18.08.2019
3481 Clear 31 1002 70 10000 3.6 90 15:56 18.08.2019
3482 Clear 31 1002 70 10000 3.6 90 15:38 18.08.2019
3483 Clear 32 1001 66 10000 3.1 90 15:20 18.08.2019
3484 Clear 32 1001 66 10000 2.6 80 14:40 18.08.2019
3485 Clear 32 1001 66 10000 2.6 80 14:20 18.08.2019
3486 Clear 33 1001 63 10000 0.5 0 13:59 18.08.2019
3487 Clear 33 1000 63 10000 1 0 13:41 18.08.2019
3488 Clear 33 1000 63 10000 1 0 13:22 18.08.2019
3489 Clear 34 1000 59 10000 0.5 0 12:57 18.08.2019
3490 Clear 34 1000 59 10000 1.5 30 12:38 18.08.2019
3491 Clear 34 1000 59 10000 1.5 30 12:38 18.08.2019
3492 Clear 34 1000 59 10000 1.5 30 12:20 18.08.2019
3493 Clouds 34 1000 56 10000 1 0 12:20 18.08.2019
3494 Clear 34 1001 59 10000 1 0 11:42 18.08.2019
3495 Clear 34 1001 59 10000 1 0 11:23 18.08.2019
3496 Clear 34 1001 59 10000 2.1 20 10:56 18.08.2019
3497 Clear 34 1001 59 10000 2.1 20 10:38 18.08.2019
3498 Clear 34 1001 56 10000 1.5 0 10:18 18.08.2019
3499 Clear 34 1001 56 10000 1.5 0 10:18 18.08.2019
3500 Clear 34 1002 59 10000 1.5 0 09:42 18.08.2019
3501 Clear 34 1002 59 10000 1.5 0 09:19 18.08.2019
3502 Clouds 33 1003 63 10000 1.5 280 08:43 18.08.2019
3503 Clouds 33 1003 63 10000 1.5 280 08:25 18.08.2019
3504 Clouds 32 1003 62 10000 1.5 330 07:54 18.08.2019
3505 Clouds 32 1003 62 10000 1 0 07:29 18.08.2019
3506 Clouds 32 1004 66 10000 2.6 300 06:32 18.08.2019
3507 Clouds 31 1005 70 6000 2.6 280 05:41 18.08.2019
3508 Clouds 29 1005 89 10000 2.1 310 03:51 18.08.2019
3509 Clouds 28 1004 94 8000 2.6 300 02:52 18.08.2019
3510 Mist 28 1004 94 5000 2.1 300 02:32 18.08.2019
3511 Mist 27 1004 94 3800 2.1 290 01:53 18.08.2019
3512 Mist 27 1003 94 4500 1 0 01:26 18.08.2019
3513 Mist 27 1003 94 4500 1 0 01:26 18.08.2019
3514 Clouds 27 1003 94 6000 1.15 317.957 00:41 18.08.2019
3515 Clouds 27 1003 94 6000 0.5 0 00:19 18.08.2019
3516 Clouds 27 1003 94 6000 0.5 0 23:57 17.08.2019
3517 Clouds 27 1003 94 8000 1 0 23:37 17.08.2019
3518 Clouds 27 1003 94 9000 1.5 50 23:19 17.08.2019
3519 Clouds 27 1003 94 9000 1.5 50 22:56 17.08.2019
3520 Clouds 27 1003 94 9000 1.5 50 22:56 17.08.2019
3521 Clouds 27 1003 94 7000 1 0 22:38 17.08.2019
3522 Clouds 27 1003 94 7000 1.37 315.118 22:20 17.08.2019
3523 Clouds 28 1003 94 7000 1 360 21:43 17.08.2019
3524 Clouds 28 1003 94 7000 1 360 21:24 17.08.2019
3525 Clouds 28 1004 88 7000 1 0 20:58 17.08.2019
3526 Rain 28 1004 94 9000 1.5 70 20:37 17.08.2019
3527 Clear 27 1004 94 10000 2.1 100 20:18 17.08.2019
3528 Clear 27 1004 100 10000 2.1 90 19:43 17.08.2019
3529 Clear 27 1004 100 10000 2.1 90 19:24 17.08.2019
3530 Clear 27 1004 100 10000 2.1 90 19:24 17.08.2019
3531 Clear 27 1005 94 10000 2.6 70 18:55 17.08.2019
3532 Clear 28 1005 94 10000 1.5 70 18:37 17.08.2019
3533 Clear 28 1005 83 10000 1 0 18:18 17.08.2019
3534 Clear 28 1005 83 10000 2.6 160 17:42 17.08.2019
3535 Clear 28 1005 83 10000 2.6 160 17:22 17.08.2019
3536 Clear 28 1004 83 10000 2.1 160 16:56 17.08.2019
3537 Clear 28 1004 83 10000 2.6 190 16:38 17.08.2019
3538 Clear 28 1004 83 10000 2.6 190 16:19 17.08.2019
3539 Clouds 29 1003 79 10000 1 0 15:42 17.08.2019
3540 Clouds 29 1003 79 10000 1 0 15:22 17.08.2019
3541 Clouds 28 1003 94 10000 1 0 14:58 17.08.2019
3542 Clear 28 1003 88 10000 1.8 128.615 14:39 17.08.2019
3543 Clear 28 1003 88 10000 1.8 128.615 14:21 17.08.2019
3544 Clouds 28 1002 88 10000 1 340 13:45 17.08.2019
3545 Clouds 28 1002 88 10000 1 340 13:45 17.08.2019
3546 Clouds 28 1002 88 10000 1 340 13:20 17.08.2019
3547 Clear 29 1002 83 10000 2.1 270 12:45 17.08.2019
3548 Clear 29 1002 83 10000 2.1 270 12:20 17.08.2019
3549 Clear 29 1002 89 10000 1.5 290 11:58 17.08.2019
3550 Clear 29 1001 100 10000 1.5 250 11:39 17.08.2019
3551 Clouds 28 1001 100 10000 2.1 230 11:20 17.08.2019
3552 Rain 27 1001 100 10000 1 0 10:42 17.08.2019
3553 Rain 26 1002 100 10000 3.6 360 10:21 17.08.2019
3554 Rain 26 1002 100 10000 3.6 360 09:57 17.08.2019
3555 Thunderstorm 26 1003 100 6000 6.2 320 09:38 17.08.2019
3556 Thunderstorm 30 1002 70 10000 4.1 280 09:20 17.08.2019
3557 Clouds 32 1003 66 10000 2.1 80 08:50 17.08.2019
3558 Clouds 31 1003 70 10000 2.6 60 08:21 17.08.2019
3559 Clouds 32 1004 66 10000 2.1 20 07:42 17.08.2019
3560 Clouds 32 1004 66 10000 2.1 20 07:20 17.08.2019
3561 Clouds 32 1004 66 10000 1.5 0 06:25 17.08.2019
3562 Clouds 29 1004 70 10000 1.5 0 04:36 17.08.2019
3563 Clouds 29 1004 70 10000 1.5 0 04:18 17.08.2019
3564 Clouds 28 1003 83 8000 1 0 02:38 17.08.2019
3565 Clouds 27 1003 94 7000 1.5 50 01:38 17.08.2019
3566 Clouds 27 1003 94 8000 2.1 60 01:19 17.08.2019
3567 Clouds 27 1003 94 7000 1.5 50 01:19 17.08.2019
3568 Clouds 27 1002 88 9000 2.1 30 00:45 17.08.2019
3569 Clouds 27 1003 83 10000 2.6 50 00:18 17.08.2019
3570 Clouds 27 1002 88 10000 2.6 50 23:39 16.08.2019
3571 Clouds 27 1002 88 10000 2.6 50 23:21 16.08.2019
3572 Clouds 27 1002 88 10000 2.6 60 22:42 16.08.2019
3573 Clouds 27 1002 88 10000 2.6 60 22:20 16.08.2019
3574 Clear 27 1002 83 10000 3.1 60 21:56 16.08.2019
3575 Clear 27 1002 83 10000 3.1 70 21:38 16.08.2019
3576 Clear 27 1003 83 10000 2.6 60 21:18 16.08.2019
3577 Clear 27 1003 83 10000 3.1 60 20:42 16.08.2019
3578 Clear 27 1003 83 10000 3.1 60 20:20 16.08.2019
3579 Clear 27 1003 83 10000 3.1 60 19:56 16.08.2019
3580 Clouds 27 1003 88 10000 3.1 50 19:38 16.08.2019
3581 Clouds 27 1003 88 10000 3.1 60 19:19 16.08.2019
3582 Clouds 27 1004 88 10000 3.1 60 18:41 16.08.2019
3583 Clouds 27 1004 88 10000 3.1 60 18:22 16.08.2019
3584 Clouds 28 1003 83 10000 3.6 60 17:46 16.08.2019
3585 Clouds 28 1003 83 10000 3.6 60 17:27 16.08.2019
3586 Clouds 28 1003 83 10000 3.1 60 16:56 16.08.2019
3587 Clouds 28 1003 83 10000 3.1 50 16:38 16.08.2019
3588 Clouds 28 1002 78 10000 4.1 60 16:18 16.08.2019
3589 Clouds 28 1002 78 10000 4.1 60 15:55 16.08.2019
3590 Clouds 28 1002 78 10000 3.1 50 15:37 16.08.2019
3591 Clouds 28 1002 78 10000 3.1 50 15:19 16.08.2019
3592 Clouds 29 1001 74 10000 4.1 100 14:42 16.08.2019
3593 Clouds 29 1001 74 10000 3.6 80 14:19 16.08.2019
3594 Clouds 29 1001 74 10000 3.6 80 14:19 16.08.2019
3595 Clouds 29 1001 74 10000 3.6 80 13:59 16.08.2019
3596 Clouds 29 1000 74 10000 3.1 60 13:38 16.08.2019
3597 Clouds 30 1000 70 10000 3.6 80 13:20 16.08.2019
3598 Clouds 30 1000 66 10000 3.6 100 12:40 16.08.2019
3599 Clouds 30 1000 70 10000 4.1 80 12:20 16.08.2019
3600 Clouds 31 1000 66 10000 4.1 80 11:43 16.08.2019
3601 Clouds 31 1000 66 10000 4.1 80 11:24 16.08.2019
3602 Clouds 30 1000 70 10000 5.1 80 10:59 16.08.2019
3603 Clouds 30 1000 70 10000 4.1 80 10:41 16.08.2019
3604 Clouds 31 1000 66 10000 3.1 110 10:18 16.08.2019
3605 Clouds 31 1001 66 10000 3.1 110 09:38 16.08.2019
3606 Clouds 31 1001 66 10000 3.1 150 09:19 16.08.2019
3607 Clouds 31 1001 66 10000 3.1 150 08:56 16.08.2019
3608 Clouds 31 1001 66 10000 2.6 180 08:38 16.08.2019
3609 Clouds 30 1002 70 10000 2.6 0 08:19 16.08.2019
3610 Clouds 31 1002 66 10000 2.1 200 07:44 16.08.2019
3611 Clouds 31 1002 66 10000 2.1 200 07:25 16.08.2019
3612 Clouds 30 1002 70 10000 2.1 270 06:38 16.08.2019
3613 Clouds 30 1003 66 10000 1.5 260 05:58 16.08.2019
3614 Clouds 30 1003 66 10000 2.1 260 05:33 16.08.2019
3615 Clouds 28 1002 83 10000 1.5 300 03:19 16.08.2019
3616 Clouds 26 1001 100 10000 1.5 320 01:45 16.08.2019
3617 Clouds 26 1001 100 10000 1.5 320 01:25 16.08.2019
3618 Clouds 26 1001 100 10000 2.1 300 00:48 16.08.2019
3619 Clouds 26 1001 100 10000 2.1 300 00:22 16.08.2019
3620 Clear 26 1001 100 10000 2.6 310 23:46 15.08.2019
3621 Clear 26 1001 100 10000 2.6 310 23:25 15.08.2019
3622 Clear 26 1001 100 10000 2.6 310 22:59 15.08.2019
3623 Clouds 26 1001 100 10000 3.1 300 22:41 15.08.2019
3624 Clouds 26 1001 100 10000 3.1 300 22:21 15.08.2019
3625 Clear 26 1001 88 10000 3.1 280 21:56 15.08.2019
3626 Clear 27 1001 74 10000 1.5 40 21:38 15.08.2019
3627 Rain 27 1002 78 10000 1.51 166.736 21:19 15.08.2019
3628 Rain 27 1002 78 10000 1.5 10 20:45 15.08.2019
3629 Rain 27 1002 78 10000 1.5 10 20:22 15.08.2019
3630 Clouds 27 1002 69 10000 2.6 350 19:59 15.08.2019
3631 Clouds 27 1003 69 10000 2.1 330 19:39 15.08.2019
3632 Thunderstorm 27 1003 69 10000 2.6 40 19:21 15.08.2019
3633 Thunderstorm 27 1002 65 10000 5.7 140 18:48 15.08.2019
3634 Thunderstorm 27 1002 65 10000 5.7 140 18:24 15.08.2019
3635 Thunderstorm 27 1003 69 10000 6.2 130 17:58 15.08.2019
3636 Thunderstorm 27 1002 69 10000 5.1 130 17:38 15.08.2019
3637 Thunderstorm 27 1002 69 10000 5.1 130 17:20 15.08.2019
3638 Thunderstorm 28 1002 65 10000 5.1 100 16:58 15.08.2019
3639 Thunderstorm 29 1002 66 10000 8.2 100 16:40 15.08.2019
3640 Thunderstorm 29 1002 66 10000 8.2 100 16:21 15.08.2019
3641 Clouds 32 1000 59 10000 2.1 200 15:39 15.08.2019
3642 Clouds 32 1000 59 10000 2.1 200 15:20 15.08.2019
3643 Clouds 32 999 59 10000 3.6 140 14:57 15.08.2019
3644 Clouds 32 999 52 10000 5.7 160 14:38 15.08.2019
3645 Clouds 36 999 53 10000 2.1 200 14:19 15.08.2019
3646 Clouds 36 999 53 10000 2.1 200 13:55 15.08.2019
3647 Clear 36 997 56 10000 1 0 13:37 15.08.2019
3648 Clear 36 997 56 10000 1 0 13:19 15.08.2019
3649 Clear 36 998 53 10000 2.1 260 12:40 15.08.2019
3650 Clear 36 998 53 10000 1 0 12:20 15.08.2019
3651 Clear 36 998 53 10000 1 0 11:58 15.08.2019
3652 Clear 36 998 56 10000 2.1 190 11:38 15.08.2019
3653 Clear 36 998 56 10000 2.1 190 11:38 15.08.2019
3654 Clear 36 998 56 10000 2.1 190 11:20 15.08.2019
3655 Clear 36 998 60 10000 2.1 0 10:58 15.08.2019
3656 Clear 36 999 56 10000 1 0 10:37 15.08.2019
3657 Clear 36 999 60 10000 2.1 260 10:18 15.08.2019
3658 Clear 36 1000 56 10000 1 0 09:43 15.08.2019
3659 Clear 36 1000 56 10000 1 0 09:22 15.08.2019
3660 Clear 35 1001 59 10000 2.1 330 08:39 15.08.2019
3661 Clear 35 1001 59 10000 2.1 330 08:21 15.08.2019
3662 Clear 34 1001 63 10000 2.1 290 07:58 15.08.2019
3663 Clouds 34 1002 63 10000 2.1 310 07:39 15.08.2019
3664 Clear 34 1003 63 10000 2.1 300 07:20 15.08.2019
3665 Clear 34 1003 63 10000 2.1 300 06:48 15.08.2019
3666 Clear 34 1003 63 10000 2.1 300 06:25 15.08.2019
3667 Clouds 33 1003 63 9000 3.1 280 05:30 15.08.2019
3668 Clear 32 1003 66 10000 3.1 310 04:57 15.08.2019
3669 Clouds 31 1003 70 9000 3.1 310 03:57 15.08.2019
3670 Clear 31 1003 66 10000 2.6 310 03:19 15.08.2019
3671 Clear 29 1003 83 10000 1 0 02:26 15.08.2019
3672 Clouds 28 1002 94 7000 1 20 01:41 15.08.2019
3673 Clouds 27 1002 100 8000 1.5 40 00:56 15.08.2019
3674 Clouds 28 1002 100 7000 1.5 30 00:36 15.08.2019
3675 Rain 28 1002 83 8000 1 50 00:18 15.08.2019
3676 Rain 28 1002 83 8000 1 50 23:55 14.08.2019
3677 Clouds 28 1002 78 8000 1.5 70 23:36 14.08.2019
3678 Clouds 28 1002 83 7000 1 0 23:18 14.08.2019
3679 Clouds 28 1002 78 8000 1.5 80 22:41 14.08.2019
3680 Clouds 28 1002 78 8000 1.5 80 22:22 14.08.2019
3681 Clouds 28 1002 74 8000 1.5 70 21:57 14.08.2019
3682 Clouds 28 1002 78 8000 2.6 60 21:38 14.08.2019
3683 Rain 28 1002 78 8000 2.6 60 21:20 14.08.2019
3684 Rain 28 1003 74 9000 1.5 40 20:56 14.08.2019
3685 Rain 28 1003 78 9000 2.1 10 20:37 14.08.2019
3686 Clear 29 1003 70 10000 1.5 50 20:18 14.08.2019
3687 Clear 28 1003 74 10000 1.5 100 19:40 14.08.2019
3688 Clear 28 1003 74 10000 2.6 100 19:22 14.08.2019
3689 Clear 28 1003 74 10000 2.6 100 18:57 14.08.2019
3690 Clear 29 1003 70 10000 3.6 80 18:39 14.08.2019
3691 Clear 29 1003 70 10000 2.6 80 18:21 14.08.2019
3692 Clear 29 1003 70 10000 2.6 80 17:59 14.08.2019
3693 Clear 29 1003 70 10000 3.6 60 17:38 14.08.2019
3694 Clear 29 1003 70 10000 3.6 60 17:38 14.08.2019
3695 Clear 29 1003 70 10000 3.1 60 17:20 14.08.2019
3696 Clear 29 1003 70 10000 3.1 60 16:55 14.08.2019
3697 Clear 29 1002 70 10000 2.1 60 16:37 14.08.2019
3698 Clear 29 1002 70 10000 3.1 60 16:18 14.08.2019
3699 Clear 30 1002 66 10000 5.1 90 15:42 14.08.2019
3700 Clouds 31 1002 66 9000 6.7 80 15:18 14.08.2019
3701 Clouds 31 1002 66 9000 6.7 80 14:55 14.08.2019
3702 Clouds 31 1001 66 9000 4.1 60 14:36 14.08.2019
3703 Clouds 31 1001 66 9000 4.1 60 14:18 14.08.2019
3704 Clouds 33 999 63 10000 3.1 40 13:43 14.08.2019
3705 Clouds 33 999 63 10000 3.1 40 13:24 14.08.2019
3706 Clouds 33 999 63 10000 3.1 40 13:24 14.08.2019
3707 Clouds 34 999 67 10000 3.1 10 12:57 14.08.2019
3708 Clouds 37 999 50 10000 1.5 290 12:38 14.08.2019
3709 Clouds 37 999 50 10000 1.5 290 12:20 14.08.2019
3710 Clouds 37 998 53 10000 2.6 260 11:48 14.08.2019
3711 Clouds 37 998 53 10000 2.6 260 11:23 14.08.2019
3712 Clouds 37 998 53 10000 2.6 260 11:23 14.08.2019
3713 Clouds 38 998 50 10000 2.1 280 10:59 14.08.2019
3714 Clouds 37 999 53 10000 2.1 320 10:40 14.08.2019
3715 Clouds 37 999 53 10000 2.1 0 10:22 14.08.2019
3716 Clouds 37 1000 56 10000 1.5 0 09:45 14.08.2019
3717 Clouds 37 1000 56 10000 1.5 0 09:22 14.08.2019
3718 Clouds 37 1001 53 10000 2.1 280 08:52 14.08.2019
3719 Clouds 37 1001 56 10000 2.1 300 08:34 14.08.2019
3720 Clouds 35 1001 59 10000 2.6 250 07:58 14.08.2019
3721 Clouds 36 1002 56 10000 1.5 250 07:39 14.08.2019
3722 Clouds 36 1002 56 10000 1.5 250 07:21 14.08.2019
3723 Clouds 35 1003 63 10000 3.1 310 06:43 14.08.2019
3724 Clear 34 1003 63 10000 3.1 300 05:47 14.08.2019
3725 Clear 33 1002 66 10000 1.5 330 04:45 14.08.2019
3726 Clouds 31 1002 84 8000 1.5 30 02:52 14.08.2019
3727 Clouds 31 1002 94 6000 1 0 02:25 14.08.2019
3728 Clouds 30 1001 89 7000 0.5 0 01:34 14.08.2019
3729 Clouds 30 1001 94 8000 1.5 50 00:48 14.08.2019
3730 Clouds 30 1000 94 8000 2.1 50 23:47 13.08.2019
3731 Clouds 30 1000 94 8000 2.1 50 23:21 13.08.2019
3732 Clouds 30 1000 94 9000 1.5 40 22:57 13.08.2019
3733 Clouds 30 1000 94 8000 0.5 0 22:39 13.08.2019
3734 Clouds 30 1000 94 8000 0.5 0 22:39 13.08.2019
3735 Clouds 30 1000 94 8000 0.5 0 22:20 13.08.2019
3736 Clouds 30 1000 94 8000 1 0 21:56 13.08.2019
3737 Clouds 31 1000 94 8000 2.1 30 21:37 13.08.2019
3738 Clouds 31 1000 89 8000 2.1 50 21:18 13.08.2019
3739 Clouds 31 1000 84 9000 2.1 50 20:44 13.08.2019
3740 Clouds 31 1001 74 9000 1 0 20:20 13.08.2019
3741 Clouds 31 1001 74 9000 1 0 19:58 13.08.2019
3742 Clouds 32 1001 70 9000 1 0 19:40 13.08.2019
3743 Clouds 32 1001 70 9000 1 0 19:21 13.08.2019
3744 Clear 32 1001 70 10000 1 0 18:42 13.08.2019
3745 Clear 32 1001 70 10000 1 0 18:23 13.08.2019
3746 Clear 32 1001 70 10000 1 0 17:58 13.08.2019
3747 Clear 34 1001 63 10000 1 0 17:39 13.08.2019
3748 Clear 34 1000 63 10000 1.5 0 17:19 13.08.2019
3749 Clear 34 1000 63 10000 1.5 0 16:56 13.08.2019
3750 Clear 34 1000 63 10000 2.6 150 16:37 13.08.2019
3751 Clear 34 1000 63 10000 2.1 120 16:19 13.08.2019
3752 Clear 33 1000 63 10000 2.1 80 15:39 13.08.2019
3753 Clouds 34 1000 59 10000 1.5 80 15:20 13.08.2019
3754 Clouds 34 1000 59 10000 1.5 80 15:20 13.08.2019
3755 Clouds 34 1000 59 10000 1.5 80 14:55 13.08.2019
3756 Clear 35 999 59 10000 2.1 50 14:37 13.08.2019
3757 Clear 35 999 59 10000 2.1 50 14:18 13.08.2019
3758 Clear 37 998 53 10000 1.5 290 13:41 13.08.2019
3759 Clear 37 998 53 10000 1.5 290 13:21 13.08.2019
3760 Clear 37 998 50 10000 1.5 260 12:58 13.08.2019
3761 Clear 37 998 50 10000 1.5 290 12:39 13.08.2019
3762 Clear 37 998 50 10000 1.5 290 12:21 13.08.2019
3763 Clear 37 998 53 10000 2.1 270 11:56 13.08.2019
3764 Clear 37 998 50 10000 2.6 250 11:37 13.08.2019
3765 Clear 38 998 47 10000 3.1 250 11:18 13.08.2019
3766 Clear 38 998 47 10000 3.1 250 11:18 13.08.2019
3767 Clear 38 998 47 10000 3.1 250 10:55 13.08.2019
3768 Clear 37 999 53 10000 2.1 270 10:36 13.08.2019
3769 Clear 37 999 53 10000 3.6 250 10:18 13.08.2019
3770 Clear 37 999 50 10000 3.1 230 09:41 13.08.2019
3771 Clear 37 999 50 10000 3.1 230 09:22 13.08.2019
3772 Clear 36 1000 60 10000 3.6 260 08:42 13.08.2019
3773 Clear 36 1000 60 10000 3.6 260 08:22 13.08.2019
3774 Clear 36 1000 56 10000 2.6 280 07:56 13.08.2019
3775 Clear 36 1001 56 10000 2.6 280 07:32 13.08.2019
3776 Clear 35 1002 56 10000 4.1 280 06:46 13.08.2019
3777 Clear 35 1002 56 10000 4.1 280 06:23 13.08.2019
3778 Clear 34 1002 59 10000 2.6 330 05:33 13.08.2019
3779 Rain 30 1001 79 7000 1 0 02:37 13.08.2019
3780 Rain 29 1000 89 7000 1 310 01:55 13.08.2019
3781 Clear 28 1000 94 10000 0.5 0 00:54 13.08.2019
3782 Clear 28 1000 88 10000 1.5 320 00:35 13.08.2019
3783 Clear 29 999 89 10000 0.5 10 23:47 12.08.2019
3784 Clear 29 999 89 10000 0.5 10 23:24 12.08.2019
3785 Clear 29 999 79 10000 1 20 22:57 12.08.2019
3786 Clear 29 999 79 10000 1.5 50 22:38 12.08.2019
3787 Clear 29 999 74 10000 2.1 100 22:19 12.08.2019
3788 Clear 29 999 74 10000 2.1 100 21:54 12.08.2019
3789 Clear 29 1000 74 10000 2.1 90 21:36 12.08.2019
3790 Clear 29 1000 74 10000 2.1 70 21:18 12.08.2019
3791 Clear 29 1000 74 10000 2.1 80 20:41 12.08.2019
3792 Clear 29 1000 74 10000 2.1 80 20:21 12.08.2019
3793 Clear 29 1001 79 10000 2.1 40 19:58 12.08.2019
3794 Clear 29 1001 74 10000 3.1 80 19:39 12.08.2019
3795 Clear 29 1001 74 10000 3.1 80 19:21 12.08.2019
3796 Clear 30 1001 70 10000 2.1 100 18:59 12.08.2019
3797 Clear 31 1001 66 10000 1.5 170 18:39 12.08.2019
3798 Clear 32 1001 66 10000 2.1 170 18:21 12.08.2019
3799 Clear 32 1001 66 10000 2.1 170 17:56 12.08.2019
3800 Clear 31 1001 70 10000 1 0 17:38 12.08.2019
3801 Clear 32 1001 66 10000 2.1 150 17:20 12.08.2019
3802 Clear 32 1001 66 10000 2.1 0 16:42 12.08.2019
3803 Clear 32 1001 66 10000 2.1 0 16:21 12.08.2019
3804 Clear 32 1000 66 10000 1.5 0 15:59 12.08.2019
3805 -273 0 0 0 0 0 15:41 12.08.2019
3806 Clear 32 1000 66 10000 1 0 15:22 12.08.2019
3807 Clouds 32 1000 62 10000 3.6 240 14:58 12.08.2019
3808 Clouds 32 999 59 10000 3.1 160 14:39 12.08.2019
3809 Clouds 32 999 59 10000 3.1 160 14:39 12.08.2019
3810 Clouds 32 999 59 10000 3.1 160 14:39 12.08.2019
3811 Clouds 32 999 59 10000 3.1 160 14:39 12.08.2019
3812 Clouds 32 999 59 10000 3.1 160 14:20 12.08.2019
3813 Clouds 33 999 59 10000 3.6 170 13:55 12.08.2019
3814 Clouds 33 999 59 10000 3.6 170 13:55 12.08.2019
3815 Clouds 33 999 59 10000 3.6 170 13:55 12.08.2019
3816 Thunderstorm 35 999 59 10000 1.5 250 13:37 12.08.2019
3817 Thunderstorm 35 999 59 10000 1.5 250 13:19 12.08.2019
3818 Clouds 37 998 56 10000 1.5 300 12:43 12.08.2019
3819 Clouds 37 998 56 10000 1.5 300 12:19 12.08.2019
3820 Clouds 37 998 56 10000 1.5 300 12:19 12.08.2019
3821 Clouds 36 998 56 10000 1 0 11:44 12.08.2019
3822 Clouds 36 998 56 10000 1 0 11:26 12.08.2019
3823 Clouds 36 998 56 10000 1 0 11:26 12.08.2019
3824 -273 0 0 0 0 0 10:57 12.08.2019
3825 Clouds 36 999 60 10000 1 0 10:38 12.08.2019
3826 Clouds 36 999 60 10000 1 0 10:20 12.08.2019
3827 Clouds 35 1000 59 10000 1.5 220 09:43 12.08.2019
3828 Clouds 35 1000 59 10000 1.5 220 09:23 12.08.2019
3829 Clouds 35 1000 59 10000 1.5 220 08:59 12.08.2019
3830 Clouds 35 1000 59 10000 1.5 220 08:59 12.08.2019
3831 Clouds 35 1000 59 10000 1.5 220 08:59 12.08.2019
3832 Clouds 34 1000 63 10000 1.5 20 08:39 12.08.2019
3833 Clouds 35 1001 63 10000 1.5 0 08:21 12.08.2019
3834 Clouds 34 1000 63 10000 1.5 20 08:21 12.08.2019
3835 Clouds 35 1001 63 10000 1.5 0 07:55 12.08.2019
3836 Clouds 34 1001 63 10000 1.5 210 07:33 12.08.2019
3837 Clouds 34 1002 63 10000 1 0 06:53 12.08.2019
3838 Clouds 33 1002 66 10000 1 0 05:41 12.08.2019
3839 Clouds 31 1002 94 10000 1 0 03:25 12.08.2019
3840 Clouds 30 1001 100 8000 1.5 40 02:41 12.08.2019
3841 Clouds 29 1001 100 9000 1 40 01:22 12.08.2019
3842 Clouds 29 1001 100 9000 1 40 00:58 12.08.2019
3843 Clear 29 1000 100 10000 1.5 30 00:39 12.08.2019
3844 Clear 29 1000 100 10000 2.1 60 00:20 12.08.2019
3845 -273 0 0 0 0 0 23:56 11.08.2019
3846 Clear 29 1000 100 10000 2.1 60 23:37 11.08.2019
3847 Clear 29 1000 100 10000 2.1 60 23:18 11.08.2019
3848 Clear 29 1000 100 10000 2.1 50 22:40 11.08.2019
3849 Clear 29 1000 100 10000 3.1 80 22:20 11.08.2019
3850 Clear 29 1000 100 10000 3.1 80 22:20 11.08.2019
3851 Clear 29 1000 100 10000 3.1 80 21:59 11.08.2019
3852 Clouds 30 1000 84 8000 3.1 100 21:41 11.08.2019
3853 Clouds 30 1000 84 8000 3.1 100 21:22 11.08.2019
3854 Clouds 30 1000 84 7000 3.1 100 20:57 11.08.2019
3855 Clear 30 1000 84 10000 3.6 100 20:39 11.08.2019
3856 Clear 30 1000 84 10000 2.6 110 20:20 11.08.2019
3857 Clear 30 1000 84 10000 3.1 130 19:44 11.08.2019
3858 Clear 31 1001 79 10000 3.6 130 19:20 11.08.2019
3859 Clear 31 1001 74 10000 3.6 130 18:42 11.08.2019
3860 Clear 31 1001 74 10000 3.6 130 18:23 11.08.2019
3861 Clear 31 1001 74 10000 3.1 130 17:59 11.08.2019
3862 Clear 32 1001 70 10000 3.6 130 17:41 11.08.2019
3863 Clear 32 1001 70 10000 3.6 140 17:20 11.08.2019
3864 Clear 32 1001 70 10000 3.6 140 16:56 11.08.2019
3865 Clear 32 1000 70 10000 4.1 130 16:38 11.08.2019
3866 Clear 33 1000 63 10000 4.1 140 16:19 11.08.2019
3867 Clear 34 1000 63 10000 3.1 140 15:44 11.08.2019
3868 Clear 34 1000 63 10000 3.1 140 15:25 11.08.2019
3869 Clear 34 999 59 10000 2.6 140 14:59 11.08.2019
3870 Clear 34 999 63 10000 3.1 140 14:39 11.08.2019
3871 Clear 34 999 63 10000 3.1 140 14:20 11.08.2019
3872 Clear 34 998 63 10000 3.6 140 13:44 11.08.2019
3873 Clear 34 998 63 10000 3.6 140 13:25 11.08.2019
3874 Clear 34 998 63 10000 3.6 140 13:25 11.08.2019
3875 Clear 35 998 59 10000 3.6 150 12:56 11.08.2019
3876 Clouds 35 998 59 10000 3.6 140 12:36 11.08.2019
3877 Clear 36 998 53 10000 2.6 130 12:18 11.08.2019
3878 Clouds 36 998 56 10000 1.5 0 11:39 11.08.2019
3879 Clouds 36 998 60 10000 2.1 90 11:20 11.08.2019
3880 Clouds 36 998 60 10000 2.1 90 10:55 11.08.2019
3881 Clouds 36 998 60 10000 2.1 90 10:55 11.08.2019
3882 Clouds 36 998 60 10000 1 0 10:37 11.08.2019
3883 Clouds 36 998 60 10000 1 0 10:18 11.08.2019
3884 Clouds 36 998 56 10000 1 0 10:18 11.08.2019
3885 Clouds 35 999 59 9000 1 0 09:40 11.08.2019
3886 Clouds 35 999 59 9000 1 0 09:22 11.08.2019
3887 Clouds 35 999 59 9000 1.5 360 08:48 11.08.2019
3888 Clouds 35 1000 63 9000 1 0 08:29 11.08.2019
3889 Clouds 34 1000 63 8000 1 0 07:56 11.08.2019
3890 Clouds 34 1001 63 8000 1.5 0 07:27 11.08.2019
3891 Clouds 33 1001 66 10000 1.5 0 06:45 11.08.2019
3892 Clouds 33 1001 66 10000 1.5 0 06:26 11.08.2019
3893 Clouds 31 1002 84 7000 3.6 340 04:38 11.08.2019
3894 Mist 29 1001 100 4000 1.5 50 02:50 11.08.2019
3895 Mist 29 1001 100 3300 1.5 40 01:53 11.08.2019
3896 Mist 28 1001 100 3200 2.6 80 01:28 11.08.2019
3897 Mist 28 1001 100 4700 2.1 80 00:54 11.08.2019
3898 Mist 29 1001 100 4900 2.1 40 00:34 11.08.2019
3899 Clouds 29 1001 100 6000 2.1 30 23:49 10.08.2019
3900 Mist 29 1001 100 5000 2.1 40 23:29 10.08.2019
3901 Mist 29 1000 100 5000 1.5 60 22:45 10.08.2019
3902 Mist 29 1000 100 5000 1.5 60 22:26 10.08.2019
3903 Clouds 29 1000 100 6000 1.5 50 21:59 10.08.2019
3904 Clear 29 1000 100 10000 2.6 70 21:39 10.08.2019
3905 Clear 29 1000 100 10000 2.6 70 21:21 10.08.2019
3906 Clear 29 1000 100 10000 2.6 70 21:21 10.08.2019
3907 Clear 29 1001 100 10000 1.5 80 20:57 10.08.2019
3908 Clear 30 1001 84 10000 1.5 110 20:39 10.08.2019
3909 Clear 30 1001 74 10000 2.6 140 20:18 10.08.2019
3910 Clear 31 1001 70 10000 3.1 150 19:41 10.08.2019
3911 Clear 31 1001 70 10000 3.1 150 19:22 10.08.2019
3912 Clear 31 1002 70 10000 3.1 150 18:42 10.08.2019
3913 Clear 31 1002 70 10000 3.1 150 18:23 10.08.2019
3914 Clear 31 1002 70 10000 3.6 150 17:56 10.08.2019
3915 Clear 31 1002 70 10000 3.6 150 17:56 10.08.2019
3916 Clear 31 1002 70 10000 4.1 140 17:37 10.08.2019
3917 Clouds 31 1002 70 10000 4.6 140 17:18 10.08.2019
3918 Clouds 32 1001 66 9000 4.6 140 16:42 10.08.2019
3919 Clouds 32 1001 66 9000 4.6 140 16:20 10.08.2019
3920 Clouds 33 1000 63 8000 2.6 160 15:44 10.08.2019
3921 Clouds 33 1000 63 8000 2.6 160 15:21 10.08.2019
3922 Clear 33 998 63 8000 3.1 140 14:44 10.08.2019
3923 Clear 33 998 63 8000 3.1 140 14:19 10.08.2019
3924 Clear 33 998 63 8000 3.1 140 14:19 10.08.2019
3925 Clear 34 997 59 9000 3.1 150 13:40 10.08.2019
3926 Clouds 35 997 56 10000 2.6 150 13:19 10.08.2019
3927 Clouds 35 996 59 10000 1 0 12:44 10.08.2019
3928 Clouds 35 996 59 10000 1 0 12:23 10.08.2019
3929 Clouds 36 997 56 10000 1.5 290 11:59 10.08.2019
3930 Clouds 35 997 59 10000 1.5 320 11:40 10.08.2019
3931 Clouds 35 997 59 10000 1.5 320 11:21 10.08.2019
3932 Clouds 36 997 56 10000 2.1 300 10:55 10.08.2019
3933 Clouds 35 998 59 10000 1.5 320 10:36 10.08.2019
3934 Clouds 35 998 59 10000 1.5 330 10:18 10.08.2019
3935 Clouds 35 998 59 10000 1.5 330 10:18 10.08.2019
3936 Clouds 35 998 59 10000 1.5 0 09:40 10.08.2019
3937 Clouds 35 998 59 10000 1.5 0 09:21 10.08.2019
3938 Clouds 35 999 59 10000 2.1 0 08:39 10.08.2019
3939 Clouds 35 999 59 10000 2.1 0 08:20 10.08.2019
3940 Clouds 34 1000 59 10000 2.1 0 07:54 10.08.2019
3941 Clouds 34 1000 59 10000 1.5 350 07:28 10.08.2019
3942 Clouds 33 1001 63 8000 1 0 06:49 10.08.2019
3943 Clouds 33 1001 63 8000 1 0 06:25 10.08.2019
3944 Clouds 32 1001 66 6000 1.5 330 05:25 10.08.2019
3945 Clouds 31 1001 70 7000 1 0 04:31 10.08.2019
3946 Clouds 29 1001 94 6000 1.5 30 02:54 10.08.2019
3947 Clouds 28 1000 94 6000 1 30 02:24 10.08.2019
3948 Clouds 27 1000 94 7000 0.5 0 01:41 10.08.2019
3949 Clouds 27 1000 94 7000 0.5 0 01:21 10.08.2019
3950 Clouds 27 1000 94 8000 0.5 0 00:46 10.08.2019
3951 Clouds 27 1000 94 8000 0.5 0 00:22 10.08.2019
3952 Clouds 28 1000 94 9000 0.5 0 23:44 09.08.2019
3953 Clouds 28 1000 94 9000 0.5 0 23:24 09.08.2019
3954 Clouds 28 999 88 9000 1.03 272.676 22:57 09.08.2019
3955 Clouds 28 999 94 8000 2.1 50 22:38 09.08.2019
3956 Clouds 28 999 94 8000 2.1 50 22:38 09.08.2019
3957 Clouds 28 999 94 8000 2.1 50 22:20 09.08.2019
3958 Clouds 28 1000 94 7000 2.6 50 21:43 09.08.2019
3959 Clouds 28 1000 94 7000 2.6 50 21:23 09.08.2019
3960 Clouds 29 1000 89 7000 2.6 50 20:59 09.08.2019
3961 Clouds 29 1000 100 8000 2.1 60 20:40 09.08.2019
3962 Clouds 29 1000 100 8000 2.1 60 20:21 09.08.2019
3963 Clouds 29 1000 89 8000 2.6 60 19:56 09.08.2019
3964 Clouds 29 1000 89 9000 2.1 60 19:38 09.08.2019
3965 Clouds 29 1001 89 9000 1.5 70 19:18 09.08.2019
3966 Clear 29 1001 83 10000 2.1 90 18:40 09.08.2019
3967 Clear 29 1001 83 10000 2.1 90 18:22 09.08.2019
3968 Clear 30 1001 79 10000 2.6 70 17:56 09.08.2019
3969 Clear 30 1001 79 10000 2.6 70 17:56 09.08.2019
3970 Clear 30 1001 79 10000 2.6 70 17:38 09.08.2019
3971 Clear 30 1001 79 10000 2.6 80 17:19 09.08.2019
3972 Clear 30 1000 79 10000 2.6 50 16:40 09.08.2019
3973 Clear 30 1000 79 10000 2.6 50 16:22 09.08.2019
3974 Clear 31 1000 70 10000 3.1 60 15:56 09.08.2019
3975 Clear 31 1000 70 10000 3.1 60 15:56 09.08.2019
3976 Clear 31 999 74 10000 3.1 70 15:37 09.08.2019
3977 Clear 31 999 74 10000 3.1 70 15:18 09.08.2019
3978 Clear 32 998 66 10000 1 0 14:44 09.08.2019
3979 Clear 32 998 66 10000 1 0 14:22 09.08.2019
3980 Clear 32 998 66 10000 1.5 280 13:56 09.08.2019
3981 Clear 33 997 63 10000 1.5 300 13:38 09.08.2019
3982 Clear 34 997 56 10000 1.5 330 13:19 09.08.2019
3983 Clear 34 997 56 10000 1.5 320 12:44 09.08.2019
3984 Clear 34 997 56 10000 1.5 320 12:23 09.08.2019
3985 Clear 35 997 53 10000 1 0 11:42 09.08.2019
3986 Clear 35 997 53 10000 1 0 11:22 09.08.2019
3987 Clear 35 997 53 10000 2.1 290 10:59 09.08.2019
3988 Clouds 34 998 56 10000 1.5 290 10:39 09.08.2019
3989 Clouds 34 998 59 10000 1.5 0 10:21 09.08.2019
3990 Clear 34 999 59 10000 2.6 230 09:42 09.08.2019
3991 Clear 34 999 59 10000 2.6 230 09:19 09.08.2019
3992 Clear 34 999 59 10000 2.6 300 08:54 09.08.2019
3993 Clear 34 1000 56 10000 2.1 290 08:36 09.08.2019
3994 Clear 33 1000 63 10000 2.1 280 08:18 09.08.2019
3995 Clear 33 1001 63 10000 2.1 300 07:42 09.08.2019
3996 Clear 33 1001 63 10000 2.1 300 07:21 09.08.2019
3997 Clear 31 1001 66 10000 3.6 320 06:50 09.08.2019
3998 Clear 31 1001 66 10000 3.6 320 06:22 09.08.2019
3999 Clouds 30 1001 70 10000 2.6 310 05:45 09.08.2019
4000 Clouds 26 1001 100 10000 1.5 240 02:30 09.08.2019
4001 Clear 25 1000 100 10000 1 0 01:30 09.08.2019
4002 Rain 25 1000 100 10000 1.5 330 00:43 09.08.2019
4003 Rain 25 1000 100 10000 2.6 320 00:24 09.08.2019
4004 Rain 25 1000 100 10000 2.6 320 23:57 08.08.2019
4005 Rain 25 1001 100 10000 3.1 300 23:37 08.08.2019
4006 Thunderstorm 24 1001 100 10000 2.6 300 23:19 08.08.2019
4007 Thunderstorm 24 1001 100 10000 2.6 300 22:56 08.08.2019
4008 Thunderstorm 24 1001 100 6000 4.6 240 22:36 08.08.2019
4009 Thunderstorm 25 1001 100 2000 7.7 210 22:18 08.08.2019
4010 Thunderstorm 26 1001 100 4000 4.6 190 21:42 08.08.2019
4011 Thunderstorm 26 1001 100 4000 4.6 190 21:42 08.08.2019
4012 Thunderstorm 26 1001 100 4000 4.6 190 21:23 08.08.2019
4013 Thunderstorm 29 1000 89 9000 2.1 360 20:57 08.08.2019
4014 Thunderstorm 29 1000 89 9000 2.1 360 20:57 08.08.2019
4015 Clouds 29 999 89 8000 1 30 20:39 08.08.2019
4016 Clouds 29 999 89 8000 1 30 20:19 08.08.2019
4017 Rain 29 1001 94 9000 2.1 0 19:48 08.08.2019
4018 Rain 29 1001 94 9000 2.1 0 19:29 08.08.2019
4019 Rain 30 1001 84 9000 1 0 18:59 08.08.2019
4020 Clear 30 1001 84 10000 1.5 50 18:40 08.08.2019
4021 Clear 30 1001 79 10000 1.5 60 18:18 08.08.2019
4022 Clear 30 1001 84 10000 2.6 60 17:42 08.08.2019
4023 Clear 30 1001 84 10000 2.6 60 17:24 08.08.2019
4024 Clear 30 1001 79 10000 2.1 80 16:57 08.08.2019
4025 Clear 30 1000 74 10000 2.6 80 16:39 08.08.2019
4026 Clear 30 1000 74 10000 2.6 80 16:20 08.08.2019
4027 Clear 30 1000 79 10000 1.5 60 15:56 08.08.2019
4028 Clear 30 999 74 10000 1.5 60 15:37 08.08.2019
4029 Clear 30 998 70 10000 1 0 15:19 08.08.2019
4030 Clear 31 998 70 10000 2.1 30 14:37 08.08.2019
4031 Clear 31 998 70 10000 2.1 30 14:18 08.08.2019
4032 Clear 31 998 70 10000 2.1 30 14:18 08.08.2019
4033 Clear 32 998 66 10000 1.5 0 13:42 08.08.2019
4034 Clear 32 998 66 10000 1.5 0 13:23 08.08.2019
4035 Clear 32 998 66 10000 1.5 320 12:57 08.08.2019
4036 Clear 32 997 62 10000 1 0 12:37 08.08.2019
4037 Clear 33 997 63 10000 1.5 330 12:18 08.08.2019
4038 Clear 33 998 59 10000 2.6 320 11:42 08.08.2019
4039 Clear 33 998 59 10000 2.6 320 11:23 08.08.2019
4040 Clear 33 998 59 10000 2.6 0 10:41 08.08.2019
4041 Clear 33 998 59 10000 2.6 0 10:41 08.08.2019
4042 Clear 33 998 59 10000 2.6 0 10:22 08.08.2019
4043 Clear 33 998 59 10000 3.1 310 09:54 08.08.2019
4044 Clear 33 998 63 10000 3.1 300 09:33 08.08.2019
4045 Clear 32 999 62 10000 3.1 280 09:00 08.08.2019
4046 Clear 32 999 70 10000 3.6 270 08:40 08.08.2019
4047 Clear 32 999 70 10000 3.6 270 08:20 08.08.2019
4048 Clouds 30 1000 74 10000 2.6 250 07:41 08.08.2019
4049 Clouds 29 1000 83 10000 2.6 300 07:20 08.08.2019
4050 -273 0 0 0 0 0 06:56 08.08.2019
4051 Rain 28 1002 100 10000 1.5 50 06:37 08.08.2019
4052 Rain 28 1002 100 10000 1.5 50 05:53 08.08.2019
4053 Thunderstorm 29 1001 74 10000 2.6 350 05:19 08.08.2019
4054 Clouds 27 1001 83 10000 7.2 310 03:54 08.08.2019
4055 Mist 30 1000 100 4300 2.1 40 02:51 08.08.2019
4056 Mist 29 999 100 2700 2.6 60 01:38 08.08.2019
4057 Mist 29 998 100 4200 2.1 80 00:27 08.08.2019
4058 Mist 29 998 100 4700 2.6 70 23:59 07.08.2019
4059 Mist 29 998 100 5000 2.6 80 23:22 07.08.2019
4060 Mist 29 998 100 4400 3.1 80 22:59 07.08.2019
4061 Mist 29 998 100 4900 3.1 80 22:40 07.08.2019
4062 Mist 29 998 100 4100 3.1 90 22:20 07.08.2019
4063 Mist 29 998 100 4100 3.1 90 21:56 07.08.2019
4064 Mist 29 999 100 4300 3.1 90 21:37 07.08.2019
4065 Mist 29 999 100 3900 3.1 100 21:19 07.08.2019
4066 Mist 30 999 89 4600 3.1 100 20:43 07.08.2019
4067 Mist 30 999 89 4600 3.1 100 20:24 07.08.2019
4068 Mist 30 999 89 5000 3.1 110 19:59 07.08.2019
4069 Rain 30 999 84 6000 3.6 130 19:39 07.08.2019
4070 Rain 30 999 84 6000 3.6 130 19:21 07.08.2019
4071 Rain 31 1000 74 6000 3.6 140 18:44 07.08.2019
4072 Clear 32 1000 66 8000 3.6 140 18:22 07.08.2019
4073 Clear 32 1000 66 8000 3.6 140 17:59 07.08.2019
4074 Clear 33 1000 63 8000 3.6 150 17:41 07.08.2019
4075 Clear 33 1000 63 8000 3.6 150 17:22 07.08.2019
4076 Clear 33 1000 63 7000 3.1 130 16:57 07.08.2019
4077 Clear 33 1000 66 7000 3.1 140 16:39 07.08.2019
4078 Clear 33 1000 66 7000 3.1 140 16:21 07.08.2019
4079 Clear 33 999 66 7000 3.1 130 15:57 07.08.2019
4080 Clear 33 999 66 8000 3.1 130 15:38 07.08.2019
4081 Clear 33 999 66 8000 3.1 130 15:19 07.08.2019
4082 Clear 34 998 59 10000 1 0 14:49 07.08.2019
4083 Clear 34 998 59 10000 1 0 14:28 07.08.2019
4084 Clear 34 997 59 10000 1 0 13:55 07.08.2019
4085 Clear 35 997 56 10000 1 0 13:36 07.08.2019
4086 Clear 35 997 56 10000 2.1 320 13:18 07.08.2019
4087 Clear 35 997 56 10000 2.1 320 12:55 07.08.2019
4088 Clear 36 997 53 10000 1.5 300 12:36 07.08.2019
4089 Clear 36 997 56 10000 1.5 320 12:18 07.08.2019
4090 Clouds 36 997 53 10000 2.1 320 11:42 07.08.2019
4091 Clouds 35 998 59 10000 2.1 270 11:20 07.08.2019
4092 Clouds 35 998 59 10000 2.1 270 10:56 07.08.2019
4093 Clouds 35 998 59 10000 1.5 0 10:38 07.08.2019
4094 Clouds 35 998 59 10000 1.5 0 10:18 07.08.2019
4095 Clouds 35 998 59 10000 1.5 0 10:18 07.08.2019
4096 Clouds 35 999 56 10000 2.1 290 09:44 07.08.2019
4097 Clouds 35 999 56 10000 2.1 290 09:22 07.08.2019
4098 Clouds 35 1000 59 10000 2.1 0 08:56 07.08.2019
4099 Clouds 35 1000 56 10000 2.1 360 08:38 07.08.2019
4100 Clouds 35 1000 56 10000 2.1 360 08:20 07.08.2019
4101 Clouds 34 1001 59 10000 2.1 0 07:39 07.08.2019
4102 Clouds 34 1001 59 10000 2.1 0 07:20 07.08.2019
4103 Clouds 33 1002 66 9000 1 0 06:29 07.08.2019
4104 Clouds 33 1002 63 8000 2.1 350 05:50 07.08.2019
4105 Clouds 31 1002 70 7000 1.5 350 04:53 07.08.2019
4106 Clear 30 1002 94 6000 1.5 20 03:21 07.08.2019
4107 Mist 28 1002 100 5000 3.1 60 02:46 07.08.2019
4108 Mist 28 1002 100 4200 2.1 70 01:58 07.08.2019
4109 Mist 28 1002 100 3000 2.1 40 01:38 07.08.2019
4110 Mist 28 1001 100 4400 2.1 50 00:39 07.08.2019
4111 Clear 28 1002 100 5000 2.6 50 00:20 07.08.2019
4112 Clear 28 1002 100 6000 2.6 50 23:41 06.08.2019
4113 Clear 28 1002 100 6000 2.6 50 23:21 06.08.2019
4114 Clear 28 1002 100 6000 2.6 50 22:56 06.08.2019
4115 Clear 28 1002 100 8000 1.5 50 22:37 06.08.2019
4116 Clear 28 1002 100 8000 0.5 0 22:18 06.08.2019
4117 Clear 28 1002 100 8000 1.5 50 21:41 06.08.2019
4118 Clouds 28 1002 100 8000 1.5 50 21:21 06.08.2019
4119 Clear 28 1003 100 10000 1.5 60 20:54 06.08.2019
4120 Clear 29 1003 100 10000 1.5 100 20:36 06.08.2019
4121 Clear 29 1003 89 10000 1 0 20:18 06.08.2019
4122 Clear 29 1003 83 10000 1.5 180 19:42 06.08.2019
4123 Clear 29 1003 83 10000 1.5 180 19:23 06.08.2019
4124 Clear 29 1004 83 10000 2.6 150 18:45 06.08.2019
4125 Clear 29 1004 83 10000 2.6 150 18:26 06.08.2019
4126 Clear 30 1003 74 10000 3.1 160 17:58 06.08.2019
4127 Clear 30 1003 74 10000 3.6 150 17:38 06.08.2019
4128 Clear 30 1003 74 10000 3.6 150 17:38 06.08.2019
4129 Clouds 30 1003 74 10000 4.1 150 17:20 06.08.2019
4130 Clouds 30 1003 74 10000 4.1 150 16:54 06.08.2019
4131 Clouds 31 1003 70 10000 3.1 140 16:36 06.08.2019
4132 Clouds 31 1002 70 10000 3.6 150 16:18 06.08.2019
4133 Clouds 31 1002 70 10000 3.6 150 15:56 06.08.2019
4134 Clouds 31 1002 70 10000 3.6 150 15:56 06.08.2019
4135 Clouds 32 1002 62 10000 3.1 140 15:37 06.08.2019
4136 Clouds 32 1002 62 10000 3.1 140 15:18 06.08.2019
4137 Clear 32 1001 62 10000 1.5 60 14:40 06.08.2019
4138 Clouds 33 1001 59 10000 1.5 80 14:22 06.08.2019
4139 Clouds 33 1001 59 10000 1.5 80 13:57 06.08.2019
4140 Clouds 33 1000 59 10000 2.1 110 13:38 06.08.2019
4141 Clouds 33 1000 59 10000 2.1 110 13:19 06.08.2019
4142 Clouds 34 1000 59 10000 1.5 40 12:42 06.08.2019
4143 Clouds 34 1000 59 10000 1.5 40 12:24 06.08.2019
4144 Clouds 35 1000 59 10000 0.5 0 11:59 06.08.2019
4145 Clouds 35 1000 59 10000 0.5 0 11:59 06.08.2019
4146 Clouds 35 1000 56 10000 1.5 0 11:40 06.08.2019
4147 Clouds 33 1001 59 10000 2.1 0 11:18 06.08.2019
4148 Clouds 35 1001 53 10000 1.5 350 10:41 06.08.2019
4149 Clouds 35 1001 53 10000 1.5 350 10:22 06.08.2019
4150 Clouds 34 1002 59 10000 1 0 09:47 06.08.2019
4151 Clouds 34 1002 59 10000 1 0 09:23 06.08.2019
4152 Clouds 34 1002 59 10000 1 0 08:56 06.08.2019
4153 Clouds 34 1003 59 10000 1.5 80 08:37 06.08.2019
4154 Clouds 33 1003 63 10000 1 0 08:19 06.08.2019
4155 Clouds 32 1003 62 10000 1.5 0 07:31 06.08.2019
4156 Clouds 31 1004 66 10000 2.1 0 06:45 06.08.2019
4157 Clouds 31 1004 66 10000 2.1 0 06:26 06.08.2019
4158 Clouds 30 1005 70 10000 1.5 60 05:46 06.08.2019
4159 Clear 28 1005 94 10000 1 0 02:59 06.08.2019
4160 Clouds 26 1004 100 7000 2.1 50 01:36 06.08.2019
4161 Clouds 26 1004 100 9000 1.5 60 00:59 06.08.2019
4162 Clouds 26 1004 100 7000 1.2 288.541 00:23 06.08.2019
4163 Clouds 26 1004 100 6000 0.5 0 23:21 05.08.2019
4164 Clouds 27 1004 100 7000 1.2 288.541 22:59 05.08.2019
4165 Clouds 27 1004 100 7000 0.5 0 22:39 05.08.2019
4166 Clouds 27 1004 100 7000 0.5 0 22:21 05.08.2019
4167 Clouds 27 1004 100 6000 1 330 21:42 05.08.2019
4168 Clouds 27 1004 100 8000 1 0 21:21 05.08.2019
4169 Clouds 27 1004 100 8000 1 0 20:58 05.08.2019
4170 Clouds 27 1004 100 7000 1 0 20:39 05.08.2019
4171 Clouds 27 1004 100 7000 1 0 20:21 05.08.2019
4172 Clouds 27 1004 100 6000 1.5 310 19:57 05.08.2019
4173 Clouds 27 1004 100 6000 1 0 19:38 05.08.2019
4174 Clouds 27 1004 100 7000 1 0 19:19 05.08.2019
4175 Clouds 27 1004 100 8000 2.6 300 18:41 05.08.2019
4176 Clouds 27 1004 100 8000 1.5 320 18:20 05.08.2019
4177 Clouds 27 1004 100 9000 1.5 0 17:48 05.08.2019
4178 Clouds 27 1004 100 9000 1.5 0 17:29 05.08.2019
4179 Clouds 26 1004 100 7000 1.5 320 16:59 05.08.2019
4180 Clouds 26 1004 100 10000 1 0 16:40 05.08.2019
4181 Clouds 26 1004 100 10000 1 0 16:22 05.08.2019
4182 Rain 26 1003 100 10000 1 0 15:40 05.08.2019
4183 Rain 26 1003 100 10000 1 0 15:20 05.08.2019
4184 Thunderstorm 25 1003 100 4100 4.1 110 14:42 05.08.2019
4185 Thunderstorm 25 1003 100 4100 4.1 110 14:21 05.08.2019
4186 Thunderstorm 27 1002 100 10000 1 0 13:48 05.08.2019
4187 Thunderstorm 27 1002 100 10000 1 0 13:24 05.08.2019
4188 Clouds 27 1001 100 10000 2.6 150 12:51 05.08.2019
4189 Clouds 27 1001 100 10000 2.6 150 12:22 05.08.2019
4190 Thunderstorm 28 1001 94 1500 5.7 120 11:55 05.08.2019
4191 Clouds 31 1001 70 10000 2.1 30 11:37 05.08.2019
4192 Clouds 31 1001 66 10000 2.1 50 11:18 05.08.2019
4193 Clouds 31 1001 66 10000 2.6 40 10:43 05.08.2019
4194 Clouds 31 1001 66 10000 2.6 40 10:25 05.08.2019
4195 Clouds 31 1002 66 10000 2.6 70 09:54 05.08.2019
4196 Clouds 33 1002 63 10000 3.6 90 09:36 05.08.2019
4197 Clouds 33 1002 63 10000 3.6 80 09:18 05.08.2019
4198 Clouds 32 1003 66 10000 3.1 100 08:41 05.08.2019
4199 Clouds 32 1003 66 10000 3.1 100 08:41 05.08.2019
4200 Clouds 31 1003 66 10000 2.6 100 08:20 05.08.2019
4201 Clouds 31 1003 66 10000 2.6 50 07:45 05.08.2019
4202 Clouds 31 1003 66 10000 2.6 50 07:26 05.08.2019
4203 Clouds 30 1004 66 10000 3.6 30 06:35 05.08.2019
4204 Clouds 29 1004 70 10000 4.1 0 05:52 05.08.2019
4205 Clouds 30 1004 70 10000 3.6 40 05:20 05.08.2019
4206 Clouds 29 1004 83 10000 2.6 50 04:27 05.08.2019
4207 Clouds 28 1004 94 10000 3.1 60 03:38 05.08.2019
4208 Clear 27 1003 100 10000 2.6 50 02:37 05.08.2019
4209 Clouds 26 1002 100 10000 1 0 01:35 05.08.2019
4210 Clouds 26 1002 100 10000 1 0 01:35 05.08.2019
4211 Clouds 26 1002 100 10000 1 0 00:43 05.08.2019
4212 Clouds 26 1002 100 10000 1 0 00:23 05.08.2019
4213 Clouds 26 1002 100 10000 1.5 20 23:58 04.08.2019
4214 Clouds 26 1002 100 10000 1 360 23:40 04.08.2019
4215 Clouds 26 1002 100 10000 1 360 23:19 04.08.2019
4216 Clouds 26 1002 100 10000 0.5 10 22:55 04.08.2019
4217 Clouds 26 1001 100 10000 1 20 22:37 04.08.2019
4218 Clouds 26 1002 100 10000 1 0 22:18 04.08.2019
4219 Clouds 26 1002 100 10000 1 0 21:43 04.08.2019
4220 Clouds 26 1002 100 10000 1 0 21:20 04.08.2019
4221 Clouds 26 1002 100 10000 1.5 350 20:46 04.08.2019
4222 Clouds 26 1002 100 10000 1.5 350 20:21 04.08.2019
4223 Clouds 26 1002 100 10000 1.5 360 19:58 04.08.2019
4224 Clouds 26 1002 100 10000 1 0 19:38 04.08.2019
4225 Clouds 26 1002 100 10000 1 0 19:20 04.08.2019
4226 Clouds 26 1003 100 10000 1 0 18:42 04.08.2019
4227 Clouds 26 1003 100 10000 2.1 40 18:20 04.08.2019
4228 Clouds 26 1002 100 10000 2.1 30 17:45 04.08.2019
4229 Clouds 26 1002 100 10000 2.1 30 17:25 04.08.2019
4230 Clouds 26 1002 100 8000 2.1 0 16:59 04.08.2019
4231 Rain 26 1002 100 6000 2.6 50 16:38 04.08.2019
4232 Clouds 27 1002 100 10000 2.6 30 16:19 04.08.2019
4233 Clouds 27 1001 100 10000 2.1 50 15:42 04.08.2019
4234 Clouds 27 1001 100 10000 2.1 50 15:21 04.08.2019
4235 Clouds 27 1001 100 10000 1.5 0 14:45 04.08.2019
4236 Clouds 27 1001 100 10000 1.5 0 14:45 04.08.2019
4237 Clouds 27 1001 100 10000 1.5 0 14:26 04.08.2019
4238 Clouds 27 1000 100 10000 2.6 70 13:47 04.08.2019
4239 Clouds 27 1000 100 10000 2.6 70 13:28 04.08.2019
4240 Rain 28 1000 100 7000 2.6 100 12:59 04.08.2019
4241 Rain 29 999 79 10000 3.6 100 12:40 04.08.2019
4242 Thunderstorm 30 999 70 10000 3.1 60 12:22 04.08.2019
4243 Thunderstorm 30 999 70 10000 4.6 50 11:50 04.08.2019
4244 Thunderstorm 30 999 70 10000 4.6 50 11:23 04.08.2019
4245 Clouds 30 999 70 10000 4.1 30 10:54 04.08.2019
4246 Clouds 30 1000 70 10000 3.1 50 10:36 04.08.2019
4247 Clouds 30 1000 70 10000 4.1 50 10:18 04.08.2019
4248 Clouds 30 1000 70 10000 4.6 70 09:41 04.08.2019
4249 Clouds 30 1001 70 10000 4.6 60 09:20 04.08.2019
4250 Clouds 29 1001 70 10000 5.7 60 08:41 04.08.2019
4251 Clouds 29 1001 70 10000 5.7 60 08:20 04.08.2019
4252 Clouds 30 1001 84 10000 4.1 90 07:45 04.08.2019
4253 Rain 28 1001 94 10000 3.6 70 06:47 04.08.2019
4254 Rain 28 1001 94 10000 3.6 70 06:24 04.08.2019
4255 Rain 28 1001 94 10000 3.6 70 06:24 04.08.2019
4256 Clouds 27 1000 100 10000 6.2 40 03:44 04.08.2019
4257 Clouds 26 999 100 10000 5.1 40 02:20 04.08.2019
4258 Clouds 26 999 100 10000 5.1 40 01:33 04.08.2019
4259 Clouds 26 998 100 10000 4.6 40 00:44 04.08.2019
4260 Clouds 26 998 100 10000 4.6 40 00:26 04.08.2019
4261 Clouds 26 999 100 10000 3.1 40 23:56 03.08.2019
4262 Clouds 26 998 100 10000 3.1 50 23:38 03.08.2019
4263 Rain 26 998 100 6000 3.6 50 23:18 03.08.2019
4264 Clouds 26 999 100 10000 3.6 60 22:42 03.08.2019
4265 Clouds 26 999 100 10000 3.6 60 22:20 03.08.2019
4266 Clouds 26 998 100 10000 4.1 40 21:40 03.08.2019
4267 Clouds 26 998 100 10000 4.1 40 21:40 03.08.2019
4268 Clouds 26 998 100 10000 4.1 40 21:22 03.08.2019
4269 Rain 26 999 100 10000 4.1 60 20:46 03.08.2019
4270 Rain 26 999 100 10000 4.1 60 20:25 03.08.2019
4271 Clouds 26 999 100 10000 4.1 60 19:56 03.08.2019
4272 Clouds 26 999 100 10000 5.1 50 19:38 03.08.2019
4273 Rain 26 999 100 9000 4.6 40 19:20 03.08.2019
4274 Clouds 26 999 100 10000 4.6 40 18:45 03.08.2019
4275 Clouds 26 999 100 10000 4.6 40 18:24 03.08.2019
4276 Rain 26 999 100 7000 5.1 40 17:43 03.08.2019
4277 Rain 26 999 100 7000 5.1 40 17:20 03.08.2019
4278 Rain 26 998 100 10000 5.1 40 16:39 03.08.2019
4279 Rain 26 997 100 9000 4.6 30 16:21 03.08.2019
4280 Clouds 26 997 100 10000 3.6 30 15:46 03.08.2019
4281 Clouds 26 997 100 10000 3.6 30 15:26 03.08.2019
4282 Rain 26 996 100 5000 4.1 40 14:50 03.08.2019
4283 Rain 26 996 100 10000 4.6 30 14:50 03.08.2019
4284 Rain 26 996 100 5000 4.1 40 14:24 03.08.2019
4285 Rain 26 996 100 4000 4.1 40 13:59 03.08.2019
4286 Rain 26 995 100 5000 5.1 40 13:41 03.08.2019
4287 Rain 26 995 100 5000 5.1 40 13:23 03.08.2019
4288 Rain 26 995 100 6000 4.6 40 12:42 03.08.2019
4289 Rain 26 995 100 6000 4.6 40 12:23 03.08.2019
4290 Rain 26 994 100 4400 4.6 60 11:55 03.08.2019
4291 Rain 26 994 100 3500 5.1 30 11:35 03.08.2019
4292 Rain 26 994 100 3800 5.1 30 10:47 03.08.2019
4293 Rain 26 994 100 3800 5.1 30 10:25 03.08.2019
4294 Rain 26 993 100 5000 6.2 360 09:46 03.08.2019
4295 Rain 26 993 100 5000 6.2 360 09:24 03.08.2019
4296 Rain 27 994 100 7000 7.2 350 08:57 03.08.2019
4297 Rain 27 994 94 8000 6.7 340 08:25 03.08.2019
4298 Rain 26 994 100 10000 7.7 320 07:38 03.08.2019
4299 Rain 26 995 100 10000 6.7 310 06:47 03.08.2019
4300 Rain 26 995 100 7000 7.7 300 05:59 03.08.2019
4301 Clouds 25 994 100 1700 7.7 300 02:50 03.08.2019
4302 Rain 26 994 100 7000 9.3 290 01:56 03.08.2019
4303 Rain 26 994 100 3400 8.2 290 00:57 03.08.2019
4304 Rain 26 994 100 7000 6.7 290 00:31 03.08.2019
4305 Rain 26 995 100 10000 5.7 290 23:42 02.08.2019
4306 Rain 26 995 100 10000 5.7 290 23:20 02.08.2019
4307 Rain 26 995 100 7000 6.7 280 22:57 02.08.2019
4308 Rain 26 995 100 8000 5.1 280 22:39 02.08.2019
4309 Rain 26 996 100 6000 3.1 300 22:20 02.08.2019
4310 Rain 26 996 100 6000 3.1 300 21:55 02.08.2019
4311 Rain 27 996 100 10000 3.6 320 21:36 02.08.2019
4312 Clouds 27 996 100 8000 2.6 310 21:18 02.08.2019
4313 Rain 27 996 100 8000 3.1 290 20:41 02.08.2019
4314 Rain 27 997 100 5000 2.1 320 20:21 02.08.2019
4315 Rain 27 997 100 5000 2.1 320 19:49 02.08.2019
4316 Clouds 27 997 100 8000 3.6 310 19:29 02.08.2019
4317 Rain 27 997 100 7000 3.1 290 18:45 02.08.2019
4318 Rain 27 997 100 7000 3.1 290 18:27 02.08.2019
4319 Clear 27 998 100 10000 3.1 300 17:48 02.08.2019
4320 Clear 27 998 100 10000 3.1 300 17:26 02.08.2019
4321 Clear 27 997 100 10000 3.1 310 16:59 02.08.2019
4322 Clouds 27 997 100 10000 2.1 310 16:39 02.08.2019
4323 Rain 27 997 100 9000 2.6 320 16:19 02.08.2019
4324 Clear 27 997 100 10000 2.1 290 15:44 02.08.2019
4325 Clear 27 997 100 10000 2.1 290 15:20 02.08.2019
4326 Clear 27 996 100 10000 2.6 240 14:47 02.08.2019
4327 Clear 27 996 100 10000 2.6 240 14:19 02.08.2019
4328 Clear 27 996 94 10000 1.5 320 13:50 02.08.2019
4329 Clear 27 996 100 10000 2.1 330 13:28 02.08.2019
4330 Rain 27 996 100 10000 1 0 12:47 02.08.2019
4331 Rain 27 996 100 10000 1 0 12:23 02.08.2019
4332 Thunderstorm 27 997 100 3400 3.1 30 11:56 02.08.2019
4333 Rain 28 996 100 5000 3.1 60 11:37 02.08.2019
4334 Rain 28 996 100 10000 2.1 90 11:18 02.08.2019
4335 Rain 28 997 100 9000 1.5 60 10:42 02.08.2019
4336 Rain 28 997 100 9000 1.5 60 10:23 02.08.2019
4337 Rain 29 997 83 10000 1 0 09:52 02.08.2019
4338 Rain 29 997 83 10000 1 0 09:28 02.08.2019
4339 Rain 28 997 88 10000 1.5 300 08:52 02.08.2019
4340 Rain 29 997 74 10000 3.6 340 08:23 02.08.2019
4341 Clouds 30 997 79 10000 5.7 300 07:52 02.08.2019
4342 Clear 29 997 89 10000 5.1 290 07:32 02.08.2019
4343 Clouds 29 998 89 10000 5.7 290 06:54 02.08.2019
4344 Clouds 29 998 94 10000 6.7 280 06:24 02.08.2019
4345 Clouds 28 998 94 10000 5.1 280 05:26 02.08.2019
4346 Clouds 26 998 100 10000 5.1 270 03:29 02.08.2019
4347 Rain 26 998 100 10000 5.1 280 02:33 02.08.2019
4348 Rain 26 997 100 10000 2.6 0 00:41 02.08.2019
4349 Clouds 26 998 100 10000 2.6 0 23:56 01.08.2019
4350 Clouds 26 998 100 10000 2.1 300 23:38 01.08.2019
4351 Clouds 26 998 100 10000 2.1 300 23:18 01.08.2019
4352 Clear 26 997 100 10000 3.1 300 22:40 01.08.2019
4353 Clear 26 997 100 10000 3.1 300 22:21 01.08.2019
4354 Clouds 26 998 100 10000 4.1 290 21:44 01.08.2019
4355 Clouds 26 998 100 10000 4.1 290 21:24 01.08.2019
4356 Clouds 26 998 100 10000 5.1 290 20:55 01.08.2019
4357 Clouds 26 998 100 8000 4.1 290 20:37 01.08.2019
4358 Clouds 26 998 100 8000 4.1 290 20:19 01.08.2019
4359 Clouds 26 999 100 10000 3.1 280 19:41 01.08.2019
4360 Rain 26 1000 100 10000 3.6 270 19:19 01.08.2019
4361 Rain 26 1000 100 10000 2.6 280 18:44 01.08.2019
4362 Rain 26 1000 100 10000 2.6 280 18:24 01.08.2019
4363 Rain 26 1001 100 10000 3.6 290 17:51 01.08.2019
4364 Rain 26 1001 100 5000 3.1 310 17:32 01.08.2019
4365 Rain 26 1000 100 10000 2.6 320 16:57 01.08.2019
4366 Rain 26 999 100 10000 1.5 330 16:39 01.08.2019
4367 Rain 26 999 100 10000 2.6 320 16:19 01.08.2019
4368 Clouds 26 998 100 10000 1 0 15:41 01.08.2019
4369 Clouds 26 998 100 10000 1 0 15:19 01.08.2019
4370 Clear 26 998 100 10000 1.5 240 14:43 01.08.2019
4371 Clear 26 998 100 10000 2.1 310 14:19 01.08.2019
4372 Clear 26 998 100 10000 2.1 310 13:58 01.08.2019
4373 Clear 26 997 100 10000 1.5 320 13:39 01.08.2019
4374 Clear 26 997 100 10000 2.6 280 13:20 01.08.2019
4375 Rain 25 998 100 10000 4.1 270 12:45 01.08.2019
4376 Rain 25 998 100 10000 4.1 270 12:26 01.08.2019
4377 Thunderstorm 25 999 100 4900 3.6 350 11:43 01.08.2019
4378 Thunderstorm 25 999 100 4900 3.6 350 11:24 01.08.2019
4379 Rain 26 999 100 7000 5.1 100 10:56 01.08.2019
4380 Rain 26 999 100 7000 5.1 100 10:56 01.08.2019
4381 Rain 26 999 100 5000 5.1 60 10:38 01.08.2019
4382 Rain 27 998 100 4400 3.6 90 10:20 01.08.2019
4383 Rain 28 998 100 4400 3.1 130 09:44 01.08.2019
4384 Rain 28 998 100 4400 3.1 130 09:23 01.08.2019
4385 Rain 28 1000 100 7000 3.6 80 08:47 01.08.2019
4386 Rain 29 1000 83 8000 2.1 60 08:21 01.08.2019
4387 Rain 29 1000 79 8000 1.5 330 07:51 01.08.2019
4388 Rain 29 1000 79 8000 1.5 330 07:28 01.08.2019
4389 Clouds 28 1001 78 10000 2.1 220 06:49 01.08.2019
4390 Clouds 28 1001 78 10000 2.1 220 06:29 01.08.2019
4391 Rain 28 1002 78 10000 1 0 04:53 01.08.2019
4392 Rain 27 1001 78 10000 2.1 0 02:35 01.08.2019
4393 Clouds 27 1001 88 10000 3.6 20 00:51 01.08.2019
4394 Rain 27 1000 78 10000 3.6 30 00:25 01.08.2019
4395 Rain 28 1000 94 10000 4.6 360 23:44 31.07.2019
4396 Rain 28 1000 94 10000 4.6 360 23:21 31.07.2019
4397 Clouds 27 999 100 10000 3.6 320 22:58 31.07.2019
4398 Clear 27 1000 100 10000 1.5 330 22:40 31.07.2019
4399 Clear 27 1000 100 10000 1.5 330 22:21 31.07.2019
4400 Clear 28 1000 94 10000 2.6 280 21:39 31.07.2019
4401 Clear 28 1000 94 10000 2.6 280 21:39 31.07.2019
4402 Clear 28 1000 94 10000 2.6 280 21:20 31.07.2019
4403 Clear 28 1001 83 10000 3.1 310 20:48 31.07.2019
4404 Clear 28 1001 83 10000 3.1 310 20:22 31.07.2019
4405 Clear 29 1002 70 10000 3.1 290 19:43 31.07.2019
4406 Clear 28 1002 78 10000 2.1 270 19:24 31.07.2019
4407 Clear 28 1002 78 10000 2.1 270 18:53 31.07.2019
4408 Clear 28 1002 74 10000 1 0 18:29 31.07.2019
4409 Clear 29 1002 70 10000 1.5 0 17:59 31.07.2019
4410 Clear 29 1002 70 10000 2.1 320 17:40 31.07.2019
4411 Clear 29 1002 70 10000 2.1 320 17:19 31.07.2019
4412 Clear 29 1001 70 10000 3.1 310 16:46 31.07.2019
4413 Clear 29 1001 70 10000 3.1 310 16:20 31.07.2019
4414 Clear 29 1001 70 10000 1.5 310 15:45 31.07.2019
4415 Clear 29 1001 70 10000 1.5 310 15:26 31.07.2019
4416 Clear 29 1001 70 10000 1.5 310 15:26 31.07.2019
4417 Clear 30 1001 66 10000 2.1 310 14:54 31.07.2019
4418 Clouds 30 1001 66 10000 2.6 300 14:36 31.07.2019
4419 Clouds 31 1000 62 10000 3.6 300 14:18 31.07.2019
4420 Clouds 32 1000 62 10000 3.6 310 13:42 31.07.2019
4421 Clouds 32 1000 62 10000 3.6 310 13:23 31.07.2019
4422 Clouds 33 999 59 10000 3.6 300 12:45 31.07.2019
4423 Clouds 33 999 59 10000 3.6 300 12:27 31.07.2019
4424 Clouds 34 999 59 10000 3.6 300 11:59 31.07.2019
4425 Clouds 34 999 59 10000 4.1 290 11:38 31.07.2019
4426 Clouds 34 999 59 10000 4.1 290 11:19 31.07.2019
4427 Clouds 34 1000 56 10000 3.1 300 10:41 31.07.2019
4428 Clouds 34 1000 56 10000 3.1 300 10:20 31.07.2019
4429 Clouds 34 1001 56 10000 2.1 0 09:44 31.07.2019
4430 Clouds 34 1001 56 10000 2.1 0 09:24 31.07.2019
4431 Clouds 33 1002 59 10000 3.6 340 08:56 31.07.2019
4432 Clouds 32 1002 62 10000 3.6 300 08:37 31.07.2019
4433 Clouds 32 1002 62 10000 3.6 300 08:19 31.07.2019
4434 Clouds 32 1003 66 10000 4.1 300 07:34 31.07.2019
4435 Clouds 32 1003 66 10000 4.1 300 07:34 31.07.2019
4436 Clouds 32 1004 66 10000 3.1 310 06:31 31.07.2019
4437 Clouds 30 1004 70 10000 2.1 320 04:49 31.07.2019
4438 Clear 27 1003 83 10000 1.5 280 01:21 31.07.2019
4439 Clouds 27 1002 83 10000 2.1 0 23:57 30.07.2019
4440 Clear 27 1003 88 10000 3.1 30 23:39 30.07.2019
4441 Clear 27 1003 88 10000 2.6 20 23:18 30.07.2019
4442 Clear 27 1003 88 10000 3.6 40 22:42 30.07.2019
4443 Clear 27 1003 88 10000 3.6 40 22:24 30.07.2019
4444 Clouds 27 1003 78 10000 2.1 30 21:38 30.07.2019
4445 Clouds 27 1003 78 10000 2.1 30 21:20 30.07.2019
4446 Clouds 27 1003 78 10000 1.5 0 21:20 30.07.2019
4447 Clouds 27 1003 78 10000 1.5 0 20:58 30.07.2019
4448 Clouds 27 1003 74 10000 2.6 30 20:39 30.07.2019
4449 Clouds 27 1003 74 10000 2.6 30 20:39 30.07.2019
4450 Clouds 27 1004 78 10000 2.1 50 20:20 30.07.2019
4451 Clear 28 1005 69 10000 1.5 60 19:49 30.07.2019
4452 Clear 28 1005 69 10000 1.5 60 19:30 30.07.2019
4453 Clear 27 1005 74 10000 1.5 0 18:48 30.07.2019
4454 Clear 27 1005 74 10000 1.5 0 18:27 30.07.2019
4455 Clear 27 1005 83 10000 2.1 60 17:59 30.07.2019
4456 Clear 27 1005 78 10000 2.1 80 17:41 30.07.2019
4457 Clouds 27 1005 74 10000 1.5 60 17:19 30.07.2019
4458 Clear 27 1004 74 10000 2.6 50 16:46 30.07.2019
4459 Clear 27 1004 74 10000 2.6 50 16:19 30.07.2019
4460 Clear 27 1003 74 10000 2.6 50 15:44 30.07.2019
4461 Clear 27 1003 74 10000 2.6 50 15:22 30.07.2019
4462 Clear 28 1002 74 10000 2.6 70 14:46 30.07.2019
4463 Clear 28 1002 74 10000 2.6 70 14:27 30.07.2019
4464 Rain 28 1001 74 10000 2.6 60 13:59 30.07.2019
4465 Clouds 28 1001 74 10000 2.6 80 13:39 30.07.2019
4466 Clouds 28 1001 74 10000 2.6 80 13:20 30.07.2019
4467 Clouds 28 1001 69 10000 6.7 110 12:46 30.07.2019
4468 Clouds 28 1001 69 10000 6.7 110 12:28 30.07.2019
4469 Clouds 31 1001 70 10000 3.6 80 11:49 30.07.2019
4470 Clouds 31 1001 70 10000 3.6 80 11:30 30.07.2019
4471 Thunderstorm 32 1001 66 10000 2.1 80 10:59 30.07.2019
4472 Clouds 32 1001 66 10000 1.5 80 10:39 30.07.2019
4473 Clouds 32 1001 66 10000 1.5 80 10:20 30.07.2019
4474 Clouds 32 1001 66 10000 2.6 110 09:48 30.07.2019
4475 Clouds 32 1001 66 10000 2.6 110 09:28 30.07.2019
4476 Clouds 33 1003 59 10000 2.1 0 08:42 30.07.2019
4477 Clouds 33 1003 59 10000 2.1 320 08:19 30.07.2019
4478 Clouds 33 1004 63 10000 2.1 310 07:44 30.07.2019
4479 Clouds 33 1004 63 10000 2.1 310 07:23 30.07.2019
4480 Clouds 32 1004 62 10000 1.5 0 06:45 30.07.2019
4481 Clouds 30 1004 70 10000 1 0 05:36 30.07.2019
4482 Clouds 30 1004 70 10000 2.1 30 04:59 30.07.2019
4483 Rain 27 1003 100 9000 1 0 01:30 30.07.2019
4484 Clouds 27 1003 100 6000 2.1 50 00:28 30.07.2019
4485 Clouds 27 1003 100 10000 1.5 60 23:59 29.07.2019
4486 Thunderstorm 27 1004 100 10000 1.5 20 23:41 29.07.2019
4487 Thunderstorm 27 1004 100 10000 1.5 20 23:22 29.07.2019
4488 Thunderstorm 27 1003 100 10000 1.5 40 22:56 29.07.2019
4489 Thunderstorm 27 1004 100 10000 1.5 20 22:38 29.07.2019
4490 Thunderstorm 28 1004 78 10000 0.63 233.075 22:18 29.07.2019
4491 Thunderstorm 29 1003 74 10000 1 0 21:42 29.07.2019
4492 Thunderstorm 29 1003 74 10000 1 0 21:23 29.07.2019
4493 Thunderstorm 29 1004 83 10000 2.1 180 20:58 29.07.2019
4494 Clouds 29 1004 83 10000 2.1 160 20:39 29.07.2019
4495 Clouds 29 1004 83 10000 2.1 160 20:19 29.07.2019
4496 Clouds 29 1005 79 9000 2.6 150 19:47 29.07.2019
4497 Clouds 29 1005 79 9000 2.6 150 19:23 29.07.2019
4498 Clouds 29 1005 79 10000 2.6 100 18:58 29.07.2019
4499 Clouds 29 1005 74 10000 3.1 130 18:38 29.07.2019
4500 Clouds 29 1005 70 10000 1.5 260 18:19 29.07.2019
4501 Clear 30 1006 74 10000 2.6 180 17:47 29.07.2019
4502 Clear 30 1006 74 10000 2.6 180 17:28 29.07.2019
4503 Clouds 30 1005 70 10000 2.6 140 16:55 29.07.2019
4504 Clouds 30 1005 70 10000 3.6 130 16:36 29.07.2019
4505 Clouds 30 1005 70 10000 3.6 130 16:36 29.07.2019
4506 Clouds 30 1005 70 10000 3.6 130 16:18 29.07.2019
4507 Clouds 31 1003 70 10000 4.6 140 15:43 29.07.2019
4508 Clouds 31 1003 70 10000 4.6 140 15:24 29.07.2019
4509 Clouds 32 1002 66 10000 3.1 140 14:42 29.07.2019
4510 Clouds 32 1002 66 10000 3.1 140 14:21 29.07.2019
4511 Clouds 32 1001 66 10000 3.6 130 13:46 29.07.2019
4512 Clouds 32 1001 66 10000 3.6 130 13:24 29.07.2019
4513 Clouds 32 1001 66 10000 5.7 110 12:57 29.07.2019
4514 Clouds 32 1000 66 10000 5.1 90 12:38 29.07.2019
4515 Clouds 33 1001 63 10000 4.6 90 12:19 29.07.2019
4516 Clouds 33 1001 66 10000 4.1 80 11:40 29.07.2019
4517 Clouds 35 1001 59 10000 4.1 90 11:19 29.07.2019
4518 Clouds 34 1002 63 10000 3.6 110 10:42 29.07.2019
4519 Clouds 34 1002 63 10000 3.6 110 10:21 29.07.2019
4520 Clouds 34 1002 63 10000 4.1 100 09:44 29.07.2019
4521 Clouds 34 1002 63 10000 4.1 100 09:21 29.07.2019
4522 Clouds 34 1002 63 10000 4.1 100 09:21 29.07.2019
4523 Clouds 34 1004 63 10000 3.1 170 08:43 29.07.2019
4524 Clouds 34 1004 63 10000 3.1 170 08:24 29.07.2019
4525 Clouds 34 1004 59 10000 4.6 150 07:46 29.07.2019
4526 Clouds 34 1004 59 10000 4.6 150 07:26 29.07.2019
4527 Clouds 32 1005 70 10000 4.6 80 05:57 29.07.2019
4528 Clouds 32 1005 70 10000 4.6 80 05:31 29.07.2019
4529 Clouds 29 1005 100 10000 2.1 50 02:43 29.07.2019
4530 Clouds 28 1004 100 6000 1 50 01:47 29.07.2019
4531 Clouds 28 1004 100 6000 1 50 01:26 29.07.2019
4532 Clouds 28 1005 84 0 0.65 301.596 00:52 29.07.2019
4533 Clouds 26 1004 88 0 0.86 171.71 00:23 29.07.2019
4534 Clouds 28 1004 100 8000 2.1 80 23:41 28.07.2019
4535 Clouds 28 1004 100 8000 2.1 80 23:19 28.07.2019
4536 Clouds 28 1004 100 8000 2.6 90 22:42 28.07.2019
4537 Clouds 28 1004 100 8000 2.6 90 22:42 28.07.2019
4538 Clouds 28 1004 100 8000 2.6 90 22:23 28.07.2019
4539 Clouds 28 1004 100 6000 2.6 70 21:50 28.07.2019
4540 Clear 28 1004 100 10000 3.1 80 21:20 28.07.2019
4541 Clouds 27 1005 87 0 1.83 166.449 20:49 28.07.2019
4542 Clouds 27 1005 87 0 1.83 166.449 20:30 28.07.2019
4543 Clear 29 1005 83 10000 2.1 120 19:57 28.07.2019
4544 Clear 29 1005 83 10000 2.1 120 19:38 28.07.2019
4545 Clear 29 1005 83 10000 2.1 120 19:38 28.07.2019
4546 Clear 29 1005 83 10000 2.1 120 19:19 28.07.2019
4547 Clear 30 1005 74 10000 2.6 120 18:43 28.07.2019
4548 Clear 30 1005 74 10000 3.1 140 18:24 28.07.2019
4549 Clear 30 1005 74 10000 3.1 110 17:43 28.07.2019
4550 Clear 30 1004 74 10000 4.6 110 17:22 28.07.2019
4551 Clear 30 1004 74 10000 4.6 110 16:58 28.07.2019
4552 Clear 30 1004 74 10000 4.6 110 16:58 28.07.2019
4553 Clear 31 1004 70 10000 4.1 130 16:39 28.07.2019
4554 Clear 31 1004 70 10000 4.1 130 16:21 28.07.2019
4555 Clear 31 1003 70 10000 4.6 130 15:43 28.07.2019
4556 Clear 31 1003 70 10000 4.6 130 15:21 28.07.2019
4557 Clear 31 1003 70 10000 2.6 140 14:38 28.07.2019
4558 Clear 31 1002 70 10000 2.1 110 14:19 28.07.2019
4559 Clear 31 1001 66 10000 3.6 140 13:45 28.07.2019
4560 Clear 31 1001 66 10000 3.6 140 13:25 28.07.2019
4561 Clouds 31 1001 70 10000 3.1 140 12:59 28.07.2019
4562 Clouds 31 1001 66 10000 2.6 200 12:40 28.07.2019
4563 Rain 29 1002 74 10000 4.6 110 12:22 28.07.2019
4564 Rain 30 1002 74 10000 3.6 90 11:47 28.07.2019
4565 Rain 30 1002 74 10000 3.6 90 11:27 28.07.2019
4566 Clouds 32 1002 70 10000 2.6 70 10:41 28.07.2019
4567 Clouds 32 1002 70 10000 2.6 70 10:22 28.07.2019
4568 Rain 30 1003 70 10000 5.7 110 09:47 28.07.2019
4569 Rain 30 1003 70 10000 5.7 110 09:29 28.07.2019
4570 Clouds 34 1003 63 10000 2.6 30 08:52 28.07.2019
4571 Clouds 33 1004 66 10000 3.6 20 08:30 28.07.2019
4572 Clouds 31 1004 66 10000 4.6 320 07:59 28.07.2019
4573 Clouds 34 1004 59 10000 2.6 90 07:37 28.07.2019
4574 Clouds 34 1005 63 10000 3.1 0 06:45 28.07.2019
4575 Clouds 33 1005 66 10000 3.6 100 05:44 28.07.2019
4576 Clouds 31 1005 89 10000 3.6 80 03:31 28.07.2019
4577 Clear 29 1004 94 10000 3.1 70 02:24 28.07.2019
4578 Clear 28 1004 94 10000 3.1 70 01:19 28.07.2019
4579 Clouds 28 1003 100 6000 2.6 70 00:45 28.07.2019
4580 Clouds 28 1003 94 9000 3.6 80 00:18 28.07.2019
4581 Clouds 28 1003 100 7000 2.6 80 23:46 27.07.2019
4582 Mist 28 1003 100 5000 2.6 90 23:19 27.07.2019
4583 Mist 28 1003 100 5000 2.6 90 23:19 27.07.2019
4584 Clouds 29 1003 94 9000 2.6 80 22:40 27.07.2019
4585 Clouds 29 1003 94 9000 2.6 80 22:19 27.07.2019
4586 Clouds 29 1004 94 8000 3.1 80 21:39 27.07.2019
4587 Clouds 29 1004 94 8000 3.1 80 21:20 27.07.2019
4588 Clouds 29 1004 94 8000 3.1 80 21:20 27.07.2019
4589 Clouds 29 1004 94 8000 2.6 90 20:50 27.07.2019
4590 Clouds 30 1004 79 8000 3.6 110 20:25 27.07.2019
4591 Clear 30 1005 79 10000 3.6 130 19:46 27.07.2019
4592 Clear 30 1005 79 10000 3.6 130 19:26 27.07.2019
4593 Clear 30 1005 79 10000 3.6 130 19:26 27.07.2019
4594 Clear 30 1005 79 10000 3.6 130 18:52 27.07.2019
4595 Clear 30 1005 79 10000 3.6 130 18:34 27.07.2019
4596 Clear 30 1005 79 10000 3.6 130 18:34 27.07.2019
4597 Clear 30 1005 74 10000 4.1 130 17:52 27.07.2019
4598 Clear 30 1004 74 10000 4.6 130 17:33 27.07.2019
4599 Clear 30 1004 74 10000 3.6 140 16:59 27.07.2019
4600 Clear 30 1004 74 10000 3.6 140 16:59 27.07.2019
4601 Clear 31 1003 70 10000 3.6 130 16:40 27.07.2019
4602 Clear 31 1003 70 10000 3.6 130 16:21 27.07.2019
4603 Clear 31 1003 70 10000 4.1 140 15:48 27.07.2019
4604 Clear 32 1003 66 10000 3.6 140 15:20 27.07.2019
4605 Clear 32 1002 66 10000 4.1 140 14:50 27.07.2019
4606 Clear 32 1002 66 10000 4.1 140 14:31 27.07.2019
4607 Clear 33 1001 59 10000 4.6 130 13:55 27.07.2019
4608 Clear 33 1001 63 10000 4.1 130 13:25 27.07.2019
4609 Clear 33 1001 66 10000 4.6 140 12:59 27.07.2019
4610 Clear 34 1001 59 10000 5.1 140 12:41 27.07.2019
4611 Clouds 35 1001 56 10000 3.1 130 12:21 27.07.2019
4612 Clouds 35 1001 56 10000 2.6 110 11:41 27.07.2019
4613 Clouds 35 1001 56 10000 2.6 110 11:23 27.07.2019
4614 Clouds 34 1002 59 10000 2.1 50 10:42 27.07.2019
4615 Clouds 34 1002 59 10000 2.1 50 10:23 27.07.2019
4616 Clouds 34 1003 59 10000 1 0 09:43 27.07.2019
4617 Clouds 34 1003 59 10000 1 0 09:23 27.07.2019
4618 Clouds 33 1003 63 10000 1.5 30 08:52 27.07.2019
4619 Clouds 33 1003 66 10000 2.1 20 08:33 27.07.2019
4620 Clouds 33 1004 66 10000 2.6 50 07:57 27.07.2019
4621 Clouds 33 1004 66 10000 2.6 50 07:57 27.07.2019
4622 Clouds 30 1004 79 10000 3.6 50 07:38 27.07.2019
4623 Rain 29 1004 94 10000 2.6 30 07:18 27.07.2019
4624 Rain 30 1005 66 7000 1.5 0 06:49 27.07.2019
4625 Clouds 32 1005 66 10000 2.6 120 06:20 27.07.2019
4626 Clouds 33 1005 63 10000 3.1 120 05:34 27.07.2019
4627 Clouds 32 1005 66 10000 2.6 100 04:38 27.07.2019
4628 Clouds 30 1005 89 10000 1.5 70 03:39 27.07.2019
4629 Clouds 28 1004 100 8000 2.1 70 02:42 27.07.2019
4630 Clouds 28 1004 100 8000 2.1 60 01:54 27.07.2019
4631 Clouds 28 1004 100 8000 2.6 80 01:31 27.07.2019
4632 Clouds 28 1003 100 8000 1.5 90 00:33 27.07.2019
4633 Clouds 28 1003 100 10000 2.6 80 23:59 26.07.2019
4634 Clouds 28 1003 100 10000 2.6 100 23:40 26.07.2019
4635 Clouds 28 1003 100 10000 2.6 100 23:22 26.07.2019
4636 Clouds 29 1004 94 9000 3.1 100 22:42 26.07.2019
4637 Clouds 29 1004 94 9000 3.1 100 22:24 26.07.2019
4638 Clouds 29 1004 89 10000 3.1 110 21:49 26.07.2019
4639 Clouds 29 1004 83 10000 3.1 120 21:20 26.07.2019
4640 Clouds 29 1004 83 10000 3.6 130 20:48 26.07.2019
4641 Clouds 29 1004 83 10000 4.1 120 20:30 26.07.2019
4642 Clouds 29 1004 83 10000 3.6 130 19:45 26.07.2019
4643 Clouds 29 1004 83 10000 3.6 130 19:26 26.07.2019
4644 Clouds 29 1005 83 10000 3.1 140 18:59 26.07.2019
4645 Clear 29 1005 83 10000 3.1 130 18:40 26.07.2019
4646 Clear 30 1005 79 10000 4.1 130 18:20 26.07.2019
4647 Clouds 30 1005 79 10000 4.1 130 17:48 26.07.2019
4648 Clouds 30 1004 79 10000 4.1 130 17:20 26.07.2019
4649 Clouds 30 1004 79 10000 4.1 130 16:59 26.07.2019
4650 Clouds 31 1004 70 10000 4.1 140 16:41 26.07.2019
4651 Clouds 31 1004 70 10000 4.1 140 16:21 26.07.2019
4652 Clouds 31 1004 70 10000 4.6 120 15:57 26.07.2019
4653 Clouds 32 1004 66 10000 2.1 140 15:38 26.07.2019
4654 Clouds 32 1004 66 10000 2.1 140 15:19 26.07.2019
4655 Clouds 32 1003 66 10000 2.6 130 14:43 26.07.2019
4656 Clouds 32 1003 66 10000 2.6 130 14:23 26.07.2019
4657 Clouds 33 1002 59 10000 4.1 130 13:46 26.07.2019
4658 Clouds 33 1002 59 10000 4.1 130 13:27 26.07.2019
4659 Clouds 34 1002 56 10000 3.1 100 12:49 26.07.2019
4660 Clouds 34 1002 56 10000 3.1 100 12:23 26.07.2019
4661 Clouds 34 1002 59 10000 3.6 100 11:48 26.07.2019
4662 Clouds 34 1002 59 10000 3.6 100 11:23 26.07.2019
4663 Clouds 34 1002 59 10000 2.6 90 10:59 26.07.2019
4664 Clouds 33 1003 59 10000 2.6 90 10:39 26.07.2019
4665 Clouds 31 1003 70 10000 2.6 100 10:19 26.07.2019
4666 Clouds 30 1003 70 10000 3.1 100 09:47 26.07.2019
4667 Clouds 30 1003 70 10000 3.1 100 09:26 26.07.2019
4668 Clouds 30 1004 70 10000 3.1 100 08:41 26.07.2019
4669 Rain 33 1004 66 10000 3.1 120 08:21 26.07.2019
4670 Thunderstorm 32 1005 66 10000 2.6 0 07:39 26.07.2019
4671 Clouds 31 1005 70 9000 2.1 120 07:21 26.07.2019
4672 Clouds 30 1006 89 6000 2.1 70 06:21 26.07.2019
4673 Clouds 30 1006 94 7000 2.6 70 04:30 26.07.2019
4674 Clouds 28 1006 100 6000 2.1 50 03:50 26.07.2019
4675 Mist 27 1005 100 3300 1.5 90 01:45 26.07.2019
4676 Mist 27 1005 100 4700 1.5 80 01:18 26.07.2019
4677 Clouds 27 1005 100 5000 1 0 00:27 26.07.2019
4678 Mist 27 1005 100 4800 1.5 60 23:40 25.07.2019
4679 Mist 27 1005 100 5000 2.6 70 23:19 25.07.2019
4680 Mist 27 1005 100 5000 1.5 70 22:41 25.07.2019
4681 Mist 27 1005 100 5000 1.5 70 22:21 25.07.2019
4682 Mist 27 1005 100 5000 1.5 70 22:21 25.07.2019
4683 Rain 27 1005 100 7000 2.1 70 21:47 25.07.2019
4684 Rain 27 1005 100 7000 2.1 70 21:23 25.07.2019
4685 Rain 27 1005 100 7000 1.5 60 20:49 25.07.2019
4686 Clouds 27 1005 100 10000 1.5 60 20:31 25.07.2019
4687 Clouds 27 1006 100 8000 1.5 60 19:55 25.07.2019
4688 Clouds 27 1006 100 10000 1.5 60 19:37 25.07.2019
4689 Clouds 27 1006 100 10000 1.5 60 19:19 25.07.2019
4690 Clouds 27 1006 100 10000 1.5 60 18:40 25.07.2019
4691 Clouds 27 1006 100 10000 1.5 60 18:22 25.07.2019
4692 Clouds 27 1006 100 10000 1.5 0 17:48 25.07.2019
4693 Clouds 27 1006 100 10000 1.5 20 17:30 25.07.2019
4694 Clouds 27 1006 100 10000 1 0 16:47 25.07.2019
4695 Clouds 27 1006 100 10000 1 0 16:29 25.07.2019
4696 Clear 27 1005 100 10000 1.5 50 15:58 25.07.2019
4697 Clear 27 1005 100 10000 1.5 30 15:38 25.07.2019
4698 Clear 27 1005 100 10000 2.1 150 15:18 25.07.2019
4699 Clear 28 1004 94 10000 2.6 160 14:41 25.07.2019
4700 Clear 28 1004 94 10000 2.6 160 14:22 25.07.2019
4701 Clouds 28 1004 100 10000 1.5 120 13:44 25.07.2019
4702 Clouds 28 1004 100 10000 1.5 120 13:25 25.07.2019
4703 Rain 28 1004 100 10000 1.5 190 12:55 25.07.2019
4704 Rain 28 1004 100 10000 3.1 180 12:28 25.07.2019
4705 Rain 27 1004 100 10000 3.6 130 11:43 25.07.2019
4706 Rain 27 1004 100 10000 3.6 130 11:23 25.07.2019
4707 Thunderstorm 27 1004 100 8000 5.7 90 10:46 25.07.2019
4708 Thunderstorm 27 1004 100 8000 5.7 90 10:26 25.07.2019
4709 Thunderstorm 27 1004 100 7000 6.2 120 09:57 25.07.2019
4710 Thunderstorm 32 1004 66 10000 2.1 40 09:39 25.07.2019
4711 Clouds 32 1004 66 10000 3.1 0 08:54 25.07.2019
4712 Clouds 32 1004 66 10000 3.1 0 08:36 25.07.2019
4713 Clouds 30 1006 70 10000 4.6 70 07:49 25.07.2019
4714 Clouds 30 1006 70 10000 4.6 70 07:26 25.07.2019
4715 Clouds 31 1006 66 10000 5.1 80 06:40 25.07.2019
4716 Clouds 31 1006 66 10000 3.1 60 05:37 25.07.2019
4717 Clouds 31 1006 70 10000 4.1 80 04:55 25.07.2019
4718 Clouds 29 1006 94 10000 3.1 60 03:32 25.07.2019
4719 Clouds 27 1004 100 10000 2.1 50 01:26 25.07.2019
4720 Rain 27 1005 100 6000 1.5 200 00:37 25.07.2019
4721 Clouds 27 1004 100 9000 1 0 00:18 25.07.2019
4722 Clouds 27 1004 100 10000 2.1 30 23:43 24.07.2019
4723 Clouds 27 1004 100 10000 2.1 30 23:24 24.07.2019
4724 Clouds 27 1004 100 10000 0.5 0 22:45 24.07.2019
4725 Clouds 27 1004 100 10000 0.5 0 22:23 24.07.2019
4726 Clouds 27 1004 100 10000 2.1 50 21:56 24.07.2019
4727 Clouds 27 1004 100 9000 2.6 50 21:38 24.07.2019
4728 Clouds 27 1004 100 9000 2.6 50 21:38 24.07.2019
4729 Clouds 27 1004 100 9000 2.6 50 21:38 24.07.2019
4730 Clouds 27 1004 100 10000 2.6 60 21:19 24.07.2019
4731 Clouds 27 1004 100 8000 2.6 50 20:46 24.07.2019
4732 Clouds 27 1004 100 8000 2.6 50 20:28 24.07.2019
4733 Clouds 27 1004 100 6000 3.1 70 19:58 24.07.2019
4734 Clouds 26 1005 100 6000 2.6 80 19:40 24.07.2019
4735 Clouds 26 1005 100 6000 2.6 80 19:40 24.07.2019
4736 Clouds 27 1005 100 7000 1.5 60 19:20 24.07.2019
4737 Clouds 27 1005 100 9000 1.5 70 18:43 24.07.2019
4738 Clouds 27 1005 100 8000 1.5 60 18:24 24.07.2019
4739 Clouds 27 1005 100 8000 1.5 50 17:47 24.07.2019
4740 Rain 27 1004 100 7000 1.5 20 17:22 24.07.2019
4741 Thunderstorm 26 1004 100 3500 1.5 0 16:44 24.07.2019
4742 Thunderstorm 26 1004 100 3500 1.5 0 16:23 24.07.2019
4743 Thunderstorm 27 1004 94 9000 2.6 70 15:59 24.07.2019
4744 Thunderstorm 27 1004 78 10000 1.5 0 15:37 24.07.2019
4745 Clouds 27 1003 78 10000 2.1 330 15:19 24.07.2019
4746 Rain 27 1003 74 10000 1.5 240 14:44 24.07.2019
4747 Clouds 27 1002 74 10000 3.1 210 14:20 24.07.2019
4748 Clouds 29 1002 74 10000 2.1 120 13:40 24.07.2019
4749 Clouds 29 1001 74 10000 2.6 60 13:19 24.07.2019
4750 Clouds 29 1001 74 10000 2.6 60 12:52 24.07.2019
4751 Clouds 29 1001 74 10000 2.6 50 12:34 24.07.2019
4752 Clouds 29 1001 74 10000 3.1 50 11:41 24.07.2019
4753 Clouds 29 1001 74 10000 3.1 50 11:21 24.07.2019
4754 Clouds 30 1001 70 10000 2.1 40 10:49 24.07.2019
4755 Clouds 30 1001 66 10000 2.6 40 10:27 24.07.2019
4756 Clouds 29 1001 70 10000 3.1 50 09:59 24.07.2019
4757 Thunderstorm 30 1001 70 10000 4.1 60 09:41 24.07.2019
4758 Thunderstorm 30 1001 70 10000 4.1 60 09:21 24.07.2019
4759 Thunderstorm 33 1002 59 10000 1.5 50 08:42 24.07.2019
4760 Clouds 33 1002 63 10000 3.1 80 07:52 24.07.2019
4761 Clouds 33 1002 63 10000 3.1 80 07:31 24.07.2019
4762 Clouds 33 1002 63 10000 3.1 80 06:51 24.07.2019
4763 Clouds 33 1003 66 10000 3.1 60 06:27 24.07.2019
4764 Clouds 30 1003 79 10000 2.6 60 04:45 24.07.2019
4765 Clouds 28 1001 94 9000 1.5 40 01:47 24.07.2019
4766 Clear 28 1001 94 10000 1.5 60 00:57 24.07.2019
4767 Clear 28 1001 94 10000 2.1 40 00:30 24.07.2019
4768 Clear 28 1000 94 10000 1.5 60 23:47 23.07.2019
4769 Clear 28 1000 94 10000 1.5 60 23:25 23.07.2019
4770 Clear 28 1001 94 10000 1.5 40 22:56 23.07.2019
4771 Clear 27 1000 94 10000 2.6 60 22:36 23.07.2019
4772 Clear 28 1000 94 10000 1.5 30 22:18 23.07.2019
4773 Clear 28 1000 94 10000 1.5 30 22:18 23.07.2019
4774 Clear 28 1000 94 10000 2.1 40 21:43 23.07.2019
4775 Clear 28 1000 94 10000 2.1 40 21:25 23.07.2019
4776 Clear 27 1001 100 10000 1.5 40 20:48 23.07.2019
4777 Clear 27 1001 100 10000 1.5 40 20:29 23.07.2019
4778 Clouds 28 1001 100 7000 3.1 60 19:43 23.07.2019
4779 Clouds 28 1001 100 7000 3.1 60 19:24 23.07.2019
4780 Clouds 28 1002 100 7000 2.6 60 18:55 23.07.2019
4781 Clouds 28 1002 100 7000 3.1 60 18:37 23.07.2019
4782 Clear 28 1002 88 10000 2.6 70 18:19 23.07.2019
4783 Clear 28 1002 83 10000 3.6 80 17:41 23.07.2019
4784 Clear 28 1002 94 10000 3.6 70 17:20 23.07.2019
4785 Clear 28 1001 94 10000 3.1 60 16:42 23.07.2019
4786 Clear 28 1001 94 10000 3.1 60 16:24 23.07.2019
4787 Clear 28 1001 88 10000 2.6 60 15:48 23.07.2019
4788 Clear 28 1001 88 10000 2.6 60 15:29 23.07.2019
4789 Clouds 28 1000 94 10000 2.6 80 14:41 23.07.2019
4790 Clouds 28 1000 83 10000 2.6 80 14:23 23.07.2019
4791 Clouds 28 1000 83 10000 2.6 80 14:00 23.07.2019
4792 Clouds 28 999 88 10000 2.6 90 13:41 23.07.2019
4793 Clouds 28 999 88 10000 2.6 90 13:23 23.07.2019
4794 Clouds 29 999 83 10000 2.1 60 12:49 23.07.2019
4795 Clouds 29 999 83 10000 2.1 60 12:28 23.07.2019
4796 Rain 29 999 79 10000 2.6 330 11:59 23.07.2019
4797 Rain 29 999 70 10000 2.6 0 11:40 23.07.2019
4798 Rain 29 999 70 10000 2.6 0 11:20 23.07.2019
4799 Clouds 33 999 59 10000 2.6 0 10:42 23.07.2019
4800 Clouds 33 999 59 10000 2.6 0 10:22 23.07.2019
4801 Clouds 34 1000 56 10000 1.5 0 09:41 23.07.2019
4802 Clouds 34 1000 56 10000 1.5 0 09:20 23.07.2019
4803 Clouds 33 1000 55 10000 1 0 08:43 23.07.2019
4804 Clouds 33 1000 55 10000 1 0 08:20 23.07.2019
4805 Clouds 33 1000 55 10000 1 0 08:20 23.07.2019
4806 Clouds 33 1000 55 10000 1 0 08:20 23.07.2019
4807 Clouds 33 1001 59 10000 1 0 07:55 23.07.2019
4808 Clear 32 1001 62 10000 1.5 70 07:36 23.07.2019
4809 Clear 31 1002 66 10000 2.6 70 06:50 23.07.2019
4810 Clear 31 1002 66 10000 2.6 80 06:30 23.07.2019
4811 Clouds 29 1002 74 10000 3.1 80 03:39 23.07.2019
4812 Clouds 27 1001 94 10000 3.1 70 01:34 23.07.2019
4813 Clouds 28 1000 100 8000 2.6 70 00:31 23.07.2019
4814 Clouds 28 1000 100 7000 1.5 50 23:56 22.07.2019
4815 Clear 28 1000 94 10000 2.1 80 23:36 22.07.2019
4816 Clouds 28 1000 100 6000 2.6 90 23:18 22.07.2019
4817 Mist 28 1000 100 5000 2.6 80 22:42 22.07.2019
4818 Clouds 29 1000 100 7000 2.1 60 22:21 22.07.2019
4819 Clouds 29 1000 100 10000 3.1 70 21:43 22.07.2019
4820 Clouds 29 1000 100 10000 3.1 70 21:43 22.07.2019
4821 Clouds 29 1000 100 10000 3.1 70 21:23 22.07.2019
4822 Clouds 29 1001 100 10000 3.1 80 20:50 22.07.2019
4823 Clouds 29 1001 100 10000 3.1 80 20:32 22.07.2019
4824 Clear 29 1001 100 10000 3.1 80 19:57 22.07.2019
4825 Clouds 29 1001 94 10000 3.1 80 19:37 22.07.2019
4826 Clear 29 1001 94 10000 3.1 80 19:19 22.07.2019
4827 Clear 30 1002 84 10000 3.6 110 18:46 22.07.2019
4828 Clear 30 1002 84 10000 3.6 110 18:27 22.07.2019
4829 Clear 30 1003 84 10000 4.1 110 17:44 22.07.2019
4830 Clear 30 1003 84 10000 4.1 110 17:26 22.07.2019
4831 Clear 30 1002 84 10000 3.6 90 16:58 22.07.2019
4832 Clear 30 1002 84 10000 4.6 90 16:38 22.07.2019
4833 Clear 30 1002 84 10000 4.6 90 16:18 22.07.2019
4834 Clouds 30 1001 79 10000 4.1 90 15:43 22.07.2019
4835 Clouds 30 1001 79 10000 3.1 80 15:19 22.07.2019
4836 Clouds 30 1000 74 10000 4.6 100 14:44 22.07.2019
4837 Clouds 30 1000 74 10000 4.6 100 14:22 22.07.2019
4838 Clouds 32 999 66 10000 6.2 110 13:50 22.07.2019
4839 Clouds 32 999 66 10000 6.2 110 13:30 22.07.2019
4840 Clear 32 999 66 10000 5.7 100 12:47 22.07.2019
4841 Clear 32 999 66 10000 5.7 100 12:29 22.07.2019
4842 Clear 33 999 63 10000 5.1 110 11:46 22.07.2019
4843 Clear 33 999 63 10000 5.1 110 11:26 22.07.2019
4844 Clear 34 999 59 10000 5.1 120 10:59 22.07.2019
4845 Clouds 34 1000 59 10000 4.1 100 10:33 22.07.2019
4846 Clouds 34 1000 59 10000 4.1 100 10:33 22.07.2019
4847 Clouds 34 1001 59 10000 4.1 110 09:45 22.07.2019
4848 Clouds 34 1001 59 10000 4.1 110 09:26 22.07.2019
4849 Clouds 35 1002 59 10000 4.1 120 08:57 22.07.2019
4850 Clouds 33 1002 66 9000 4.6 110 08:36 22.07.2019
4851 Clouds 33 1002 66 9000 3.6 90 08:18 22.07.2019
4852 Clouds 33 1002 66 8000 2.6 80 07:43 22.07.2019
4853 Clouds 33 1002 66 8000 2.6 80 07:24 22.07.2019
4854 Clear 32 1003 62 10000 2.6 140 04:53 22.07.2019
4855 Clouds 28 1003 94 8000 2.6 80 02:57 22.07.2019
4856 Clouds 26 1002 100 7000 2.1 60 00:58 22.07.2019
4857 Clouds 26 1002 100 9000 2.1 80 00:38 22.07.2019
4858 Clouds 26 1002 100 9000 2.1 80 00:38 22.07.2019
4859 Clouds 26 1002 100 9000 2.1 80 00:38 22.07.2019
4860 Clouds 26 1002 100 8000 3.1 70 00:18 22.07.2019
4861 Clouds 27 1002 100 6000 2.1 90 23:42 21.07.2019
4862 Clouds 27 1002 100 7000 1 0 22:56 21.07.2019
4863 Clouds 27 1002 100 8000 2.6 60 22:37 21.07.2019
4864 Clouds 27 1003 100 9000 3.6 80 22:19 21.07.2019
4865 Clouds 27 1003 100 7000 3.1 100 21:47 21.07.2019
4866 Clouds 27 1003 100 7000 3.1 100 21:25 21.07.2019
4867 Mist 27 1003 100 5000 3.6 90 20:55 21.07.2019
4868 Clouds 27 1003 100 8000 4.1 90 20:37 21.07.2019
4869 Clouds 27 1003 100 8000 4.1 90 20:37 21.07.2019
4870 Clouds 27 1003 100 8000 4.1 90 20:19 21.07.2019
4871 Clouds 27 1005 100 9000 2.1 320 19:47 21.07.2019
4872 Clouds 27 1005 100 9000 2.1 320 19:24 21.07.2019
4873 Clouds 27 1005 100 8000 2.6 90 18:48 21.07.2019
4874 Clouds 27 1005 100 8000 2.6 90 18:48 21.07.2019
4875 Clouds 27 1005 100 8000 2.6 90 18:26 21.07.2019
4876 Rain 28 1004 100 9000 3.1 80 17:44 21.07.2019
4877 Rain 28 1004 100 9000 3.1 80 17:20 21.07.2019
4878 Rain 28 1004 88 10000 2.1 50 16:58 21.07.2019
4879 Clouds 28 1004 78 10000 2.1 60 16:39 21.07.2019
4880 Clouds 28 1004 78 10000 2.1 60 16:20 21.07.2019
4881 Clouds 27 1003 94 10000 3.1 110 15:37 21.07.2019
4882 Clouds 27 1002 100 10000 2.6 50 15:19 21.07.2019
4883 Clouds 27 1002 100 10000 2.6 0 14:42 21.07.2019
4884 Clouds 27 1002 100 10000 2.6 0 14:23 21.07.2019
4885 Rain 27 1002 100 10000 2.6 350 13:52 21.07.2019
4886 Rain 27 1002 94 4000 4.6 230 13:32 21.07.2019
4887 Clouds 35 1000 59 10000 5.1 130 12:45 21.07.2019
4888 Clouds 35 1000 59 10000 5.1 130 12:26 21.07.2019
4889 Clouds 35 1000 59 10000 4.6 130 11:52 21.07.2019
4890 Clouds 35 1000 59 10000 4.1 130 11:31 21.07.2019
4891 Clouds 36 1001 56 10000 2.6 120 10:58 21.07.2019
4892 Clouds 36 1001 56 10000 2.6 90 10:40 21.07.2019
4893 Clouds 36 1001 56 10000 2.6 90 10:40 21.07.2019
4894 Clouds 36 1001 56 10000 2.6 90 10:22 21.07.2019
4895 Clouds 36 1002 56 10000 2.6 0 09:38 21.07.2019
4896 Clouds 36 1002 56 10000 2.6 0 09:20 21.07.2019
4897 Clouds 35 1003 59 10000 2.6 90 08:43 21.07.2019
4898 Clouds 35 1003 59 10000 2.6 90 08:25 21.07.2019
4899 Clouds 35 1004 59 10000 2.1 110 07:37 21.07.2019
4900 Clear 34 1004 59 10000 2.1 140 06:45 21.07.2019
4901 Clear 32 1004 62 10000 2.6 70 05:28 21.07.2019
4902 Mist 28 1004 88 4700 3.6 90 02:27 21.07.2019
4903 Rain 27 1003 100 6000 2.1 100 00:57 21.07.2019
4904 Rain 27 1003 100 8000 1 0 00:24 21.07.2019
4905 Rain 27 1003 94 8000 1 0 23:59 20.07.2019
4906 Rain 27 1003 100 7000 1 0 23:37 20.07.2019
4907 Rain 27 1003 100 7000 1 0 23:18 20.07.2019
4908 Mist 27 1003 100 5000 2.6 90 22:42 20.07.2019
4909 Mist 27 1003 100 5000 2.6 90 22:21 20.07.2019
4910 Clear 27 1003 100 10000 2.6 80 21:45 20.07.2019
4911 Clear 27 1003 100 10000 2.6 80 21:25 20.07.2019
4912 Rain 27 1004 100 10000 1.5 40 20:45 20.07.2019
4913 Rain 27 1004 100 10000 1.5 40 20:23 20.07.2019
4914 Rain 27 1004 94 10000 1 30 19:59 20.07.2019
4915 Clouds 27 1005 83 10000 2.6 150 19:38 20.07.2019
4916 Rain 27 1005 83 10000 3.1 210 19:19 20.07.2019
4917 Rain 27 1005 78 10000 5.1 160 18:40 20.07.2019
4918 Thunderstorm 28 1005 69 10000 5.7 150 18:19 20.07.2019
4919 Clouds 31 1004 62 10000 3.1 140 17:48 20.07.2019
4920 Clouds 32 1004 62 10000 4.1 150 17:20 20.07.2019
4921 Clouds 32 1004 62 10000 4.1 150 17:20 20.07.2019
4922 Clouds 32 1003 66 9000 3.1 140 16:43 20.07.2019
4923 Clouds 32 1003 66 9000 3.1 140 16:24 20.07.2019
4924 Clear 32 1003 66 10000 3.6 130 15:56 20.07.2019
4925 Clouds 33 1003 63 10000 3.1 160 15:37 20.07.2019
4926 Clear 33 1002 63 10000 4.1 150 15:18 20.07.2019
4927 Clear 33 1002 59 10000 4.1 140 14:43 20.07.2019
4928 Clear 33 1002 59 10000 4.1 140 14:20 20.07.2019
4929 Clouds 34 1001 59 10000 1 0 13:38 20.07.2019
4930 Clouds 34 1001 59 10000 1 0 13:19 20.07.2019
4931 Clouds 34 1000 59 10000 1.5 270 12:52 20.07.2019
4932 Clouds 36 1000 53 10000 2.6 290 12:20 20.07.2019
4933 Clouds 36 1000 53 10000 2.1 310 11:52 20.07.2019
4934 Clouds 36 1000 53 10000 2.1 310 11:23 20.07.2019
4935 Clouds 36 1001 53 10000 1.5 0 10:52 20.07.2019
4936 Clouds 36 1001 53 10000 1.5 0 10:26 20.07.2019
4937 Clouds 35 1002 56 10000 2.1 0 09:55 20.07.2019
4938 Clouds 35 1002 59 10000 1.5 340 09:37 20.07.2019
4939 Clouds 35 1002 56 10000 1.5 330 09:18 20.07.2019
4940 Clouds 34 1003 59 10000 1.5 0 08:38 20.07.2019
4941 Clouds 34 1003 59 10000 1.5 0 08:19 20.07.2019
4942 Clear 33 1004 59 10000 2.1 0 07:18 20.07.2019
4943 Clear 32 1004 62 10000 2.6 280 06:31 20.07.2019
4944 Clear 30 1004 70 10000 2.6 280 04:31 20.07.2019
4945 Clouds 28 1003 78 10000 1 0 02:36 20.07.2019
4946 Clouds 28 1003 74 10000 2.6 310 01:21 20.07.2019
4947 Clouds 28 1003 74 10000 5.1 310 00:45 20.07.2019
4948 Clouds 27 1001 88 10000 5.1 60 00:18 20.07.2019
4949 Clouds 27 1001 88 10000 5.1 60 00:18 20.07.2019
4950 Clouds 27 1001 88 10000 5.1 60 23:43 19.07.2019
4951 Clouds 27 1001 88 10000 5.1 60 23:22 19.07.2019
4952 Clouds 29 1001 83 10000 4.1 50 22:43 19.07.2019
4953 Clouds 29 1001 83 10000 4.1 50 22:24 19.07.2019
4954 Clouds 30 1001 84 10000 4.1 70 21:46 19.07.2019
4955 Clouds 30 1001 84 10000 4.1 70 21:27 19.07.2019
4956 Clear 31 1001 84 10000 3.1 70 20:50 19.07.2019
4957 Clear 31 1001 84 10000 3.1 70 20:31 19.07.2019
4958 Clouds 32 1001 75 10000 2.6 60 19:55 19.07.2019
4959 Clouds 32 1001 75 10000 3.6 90 19:34 19.07.2019
4960 Clouds 32 1001 75 10000 4.1 110 18:42 19.07.2019
4961 Clouds 32 1001 75 10000 4.6 110 18:22 19.07.2019
4962 Clouds 32 1001 75 10000 4.6 110 17:55 19.07.2019
4963 Clouds 32 1001 75 10000 5.1 90 17:29 19.07.2019
4964 Clouds 33 1001 70 10000 5.1 100 16:49 19.07.2019
4965 Clouds 33 1001 70 10000 5.1 100 16:29 19.07.2019
4966 Clear 33 1000 70 10000 5.1 100 15:55 19.07.2019
4967 Clear 34 1000 71 10000 6.2 100 15:36 19.07.2019
4968 Clouds 34 999 67 9000 3.6 80 15:18 19.07.2019
4969 Clouds 35 999 63 9000 4.1 100 14:43 19.07.2019
4970 Clouds 35 999 63 9000 4.1 100 14:23 19.07.2019
4971 Clouds 35 997 63 9000 3.6 90 13:46 19.07.2019
4972 Clouds 35 997 63 9000 3.6 90 13:26 19.07.2019
4973 Clear 36 997 60 10000 3.1 80 12:56 19.07.2019
4974 Clear 36 997 60 10000 3.1 80 12:36 19.07.2019
4975 Clear 36 998 60 10000 3.1 70 12:18 19.07.2019
4976 Clear 36 998 63 10000 2.6 40 11:43 19.07.2019
4977 Clear 36 998 60 10000 2.1 0 11:18 19.07.2019
4978 Clear 37 998 60 10000 2.1 40 10:47 19.07.2019
4979 Clear 37 998 60 10000 2.1 40 10:22 19.07.2019
4980 Clear 37 998 60 10000 1.5 0 09:58 19.07.2019
4981 Clear 37 999 60 10000 2.6 0 09:40 19.07.2019
4982 Clear 37 999 60 10000 2.6 0 09:21 19.07.2019
4983 Clear 36 999 60 10000 2.1 0 08:48 19.07.2019
4984 Clear 36 1000 63 10000 3.1 30 07:55 19.07.2019
4985 Clear 36 1000 63 10000 1.5 0 07:29 19.07.2019
4986 Clouds 34 1001 71 6000 2.1 0 05:56 19.07.2019
4987 Mist 31 999 94 5000 2.1 80 02:23 19.07.2019
4988 Mist 29 999 100 5000 2.1 50 01:18 19.07.2019
4989 Clouds 29 999 100 7000 2.6 50 00:38 19.07.2019
4990 Clouds 29 998 100 7000 2.6 70 23:45 18.07.2019
4991 Clouds 29 998 100 7000 2.6 70 23:24 18.07.2019
4992 Clouds 29 998 100 6000 2.6 80 22:59 18.07.2019
4993 Clouds 29 998 100 6000 3.1 90 22:40 18.07.2019
4994 Clouds 30 998 100 7000 3.1 80 22:19 18.07.2019
4995 Clouds 30 999 94 6000 3.6 80 21:44 18.07.2019
4996 Clouds 30 999 94 6000 3.6 80 21:26 18.07.2019
4997 Rain 30 999 100 7000 3.1 90 20:51 18.07.2019
4998 Rain 30 999 100 7000 3.1 90 20:29 18.07.2019
4999 Rain 30 999 89 8000 3.6 80 19:54 18.07.2019
5000 Rain 30 999 94 7000 3.1 80 19:32 18.07.2019
5001 Rain 30 1000 89 8000 3.1 80 18:58 18.07.2019
5002 Rain 31 1000 79 9000 3.1 100 18:40 18.07.2019
5003 Clear 31 1000 74 10000 3.6 130 18:20 18.07.2019
5004 Clear 31 1000 79 10000 3.6 140 17:42 18.07.2019
5005 Clear 31 1000 79 10000 3.6 140 17:24 18.07.2019
5006 Clear 32 1000 70 10000 4.6 130 16:55 18.07.2019
5007 Clouds 33 1000 66 8000 3.6 120 16:29 18.07.2019
5008 Clouds 33 1000 66 8000 3.6 120 15:58 18.07.2019
5009 Clouds 33 999 66 9000 3.6 100 15:39 18.07.2019
5010 Clouds 33 999 66 8000 3.1 110 15:21 18.07.2019
5011 Clouds 33 999 66 6000 3.6 90 14:43 18.07.2019
5012 Clouds 33 998 66 7000 3.1 80 14:25 18.07.2019
5013 Clouds 34 998 63 9000 2.1 70 13:46 18.07.2019
5014 Clear 34 998 63 10000 3.1 80 13:22 18.07.2019
5015 Clear 35 998 59 10000 3.1 90 12:49 18.07.2019
5016 Clear 35 998 63 10000 3.6 90 12:21 18.07.2019
5017 Clear 35 998 63 10000 3.6 90 12:21 18.07.2019
5018 Clear 35 998 63 10000 3.6 90 12:21 18.07.2019
5019 Clear 35 998 63 10000 3.6 90 11:56 18.07.2019
5020 Clear 35 998 63 10000 2.6 60 11:38 18.07.2019
5021 Clouds 35 998 63 10000 2.1 50 11:19 18.07.2019
5022 Clouds 35 998 63 10000 2.1 60 10:40 18.07.2019
5023 Clouds 35 998 63 10000 2.1 340 09:49 18.07.2019
5024 Clouds 35 998 63 10000 2.1 340 09:26 18.07.2019
5025 Clouds 35 999 63 9000 2.1 0 08:50 18.07.2019
5026 Clouds 34 999 63 8000 1.5 0 08:21 18.07.2019
5027 Clouds 33 1000 66 8000 1.5 20 07:48 18.07.2019
5028 Clouds 34 999 63 0 0.91 353.514 07:27 18.07.2019
5029 Clouds 32 1001 70 6000 2.6 50 06:40 18.07.2019
5030 Clouds 32 1001 70 6000 2.1 90 05:36 18.07.2019
5031 Mist 30 1001 100 4500 2.6 90 03:23 18.07.2019
5032 Mist 29 1001 100 3600 2.6 60 01:52 18.07.2019
5033 Mist 29 1000 100 4500 2.6 70 01:18 18.07.2019
5034 Mist 29 1000 100 5000 3.1 80 23:54 17.07.2019
5035 Clouds 29 1001 100 8000 2.6 70 23:20 17.07.2019
5036 Clouds 29 1001 100 8000 2.6 70 22:56 17.07.2019
5037 Clear 29 1001 100 10000 2.6 120 22:38 17.07.2019
5038 Clear 29 1001 100 10000 2.6 130 22:19 17.07.2019
5039 Clear 30 1002 89 10000 4.6 130 21:43 17.07.2019
5040 Clear 30 1002 89 10000 4.6 130 21:25 17.07.2019
5041 Clear 30 1002 89 10000 4.1 130 20:58 17.07.2019
5042 Clear 30 1002 84 10000 4.1 130 20:39 17.07.2019
5043 Clear 30 1002 84 10000 4.1 130 20:20 17.07.2019
5044 Clear 30 1002 84 10000 4.1 130 19:44 17.07.2019
5045 Clear 30 1002 79 10000 4.1 130 19:22 17.07.2019
5046 Clear 30 1002 79 10000 4.6 130 18:59 17.07.2019
5047 Clear 30 1002 79 10000 4.6 130 18:40 17.07.2019
5048 Clear 30 1002 79 10000 4.6 130 18:40 17.07.2019
5049 Clear 31 1001 74 10000 3.6 140 18:20 17.07.2019
5050 Clear 31 1001 74 10000 3.6 140 17:49 17.07.2019
5051 Clear 31 1001 74 10000 3.6 140 17:25 17.07.2019
5052 Clear 31 1001 74 10000 4.6 140 16:45 17.07.2019
5053 Clear 32 1000 70 10000 4.6 150 16:23 17.07.2019
5054 Clear 32 1000 70 10000 5.1 140 15:52 17.07.2019
5055 Clear 32 1000 70 10000 5.1 140 15:32 17.07.2019
5056 Clear 32 1000 70 10000 5.1 140 15:32 17.07.2019
5057 Clear 32 1000 70 10000 5.1 140 14:58 17.07.2019
5058 Clear 33 999 66 10000 5.7 130 14:40 17.07.2019
5059 Clear 34 999 63 10000 4.6 130 14:21 17.07.2019
5060 Clear 34 999 63 10000 4.6 130 13:57 17.07.2019
5061 Clear 34 999 63 10000 4.1 140 13:37 17.07.2019
5062 Clear 35 999 59 10000 4.6 130 13:18 17.07.2019
5063 Clouds 35 999 59 10000 4.1 110 12:39 17.07.2019
5064 Clouds 36 999 56 10000 3.6 110 12:20 17.07.2019
5065 Clouds 36 999 56 10000 3.6 90 11:44 17.07.2019
5066 Clouds 36 1000 56 10000 3.6 80 11:20 17.07.2019
5067 Clouds 35 1000 56 10000 3.1 90 10:50 17.07.2019
5068 Clouds 35 1000 56 10000 3.1 90 10:25 17.07.2019
5069 Clouds 35 1001 59 10000 4.1 80 09:46 17.07.2019
5070 Clouds 35 1001 59 10000 4.1 80 09:28 17.07.2019
5071 Clouds 35 1001 56 10000 1.5 0 08:58 17.07.2019
5072 Clouds 36 1001 53 10000 2.1 130 08:39 17.07.2019
5073 Clouds 35 1002 59 10000 2.6 150 08:21 17.07.2019
5074 Clouds 35 1002 59 10000 2.1 0 07:41 17.07.2019
5075 Clouds 35 1003 59 10000 3.1 120 07:22 17.07.2019
5076 Clouds 35 1003 59 10000 3.1 120 07:22 17.07.2019
5077 Clouds 35 1003 59 10000 3.6 120 06:46 17.07.2019
5078 Clouds 35 1003 59 10000 3.6 120 06:46 17.07.2019
5079 Clouds 34 1003 63 10000 3.1 130 06:28 17.07.2019
5080 Clouds 34 1004 59 10000 2.1 0 05:42 17.07.2019
5081 Clouds 33 1004 66 10000 2.6 120 05:20 17.07.2019
5082 Clouds 32 1004 79 10000 4.6 120 04:22 17.07.2019
5083 Mist 30 1003 100 5000 3.1 90 02:45 17.07.2019
5084 Mist 28 1003 100 2500 3.1 80 01:43 17.07.2019
5085 Mist 28 1002 100 2600 2.6 80 01:23 17.07.2019
5086 Mist 28 1002 100 5000 3.1 80 00:43 17.07.2019
5087 Mist 28 1002 100 5000 3.1 80 00:23 17.07.2019
5088 Clouds 28 1002 100 6000 2.1 70 23:47 16.07.2019
5089 Clouds 28 1002 100 6000 2.1 70 23:28 16.07.2019
5090 Clouds 28 1002 100 7000 2.1 80 22:57 16.07.2019
5091 Mist 28 1002 100 5000 2.1 80 22:39 16.07.2019
5092 Clouds 29 1002 100 6000 2.6 90 22:19 16.07.2019
5093 Clouds 29 1002 94 7000 2.6 100 21:43 16.07.2019
5094 Clouds 29 1003 100 7000 2.6 120 21:20 16.07.2019
5095 Rain 29 1003 89 7000 3.1 120 20:41 16.07.2019
5096 Rain 29 1003 89 7000 3.1 120 20:41 16.07.2019
5097 Clear 30 1003 84 10000 3.1 110 20:23 16.07.2019
5098 Clear 30 1003 84 10000 3.1 110 19:56 16.07.2019
5099 Clear 30 1004 74 10000 4.1 130 19:37 16.07.2019
5100 Clouds 30 1004 79 10000 4.1 140 19:19 16.07.2019
5101 Clouds 30 1004 79 10000 5.1 130 18:45 16.07.2019
5102 Clouds 31 1004 74 10000 5.1 120 18:21 16.07.2019
5103 Clouds 31 1003 74 10000 3.6 130 17:55 16.07.2019
5104 Clouds 31 1004 74 10000 5.1 120 17:55 16.07.2019
5105 Clouds 31 1003 74 10000 3.6 130 17:36 16.07.2019
5106 Clouds 31 1003 74 10000 3.6 130 16:56 16.07.2019
5107 Rain 27 1004 88 0 2.75 132.049 16:38 16.07.2019
5108 Rain 27 1004 88 0 2.75 132.049 16:18 16.07.2019
5109 Clear 32 1001 62 10000 3.1 130 15:39 16.07.2019
5110 Rain 30 1001 71 0 1.36 154.998 15:20 16.07.2019
5111 -273 0 0 0 0 0 14:56 16.07.2019
5112 Clear 32 1000 66 10000 3.6 100 14:38 16.07.2019
5113 Clouds 32 1000 66 10000 3.1 120 14:19 16.07.2019
5114 Clouds 33 1000 63 10000 2.6 110 13:44 16.07.2019
5115 Clouds 33 1000 63 10000 2.6 110 13:19 16.07.2019
5116 Clouds 33 1000 66 10000 3.1 100 12:44 16.07.2019
5117 Clouds 34 1000 63 10000 1.5 160 12:20 16.07.2019
5118 Clouds 34 1000 63 10000 1.5 160 11:55 16.07.2019
5119 Clouds 34 1000 63 10000 2.1 150 11:37 16.07.2019
5120 Clouds 34 1001 63 10000 2.6 150 11:19 16.07.2019
5121 Clouds 33 1001 63 10000 2.6 160 10:44 16.07.2019
5122 Clouds 33 1002 63 10000 2.1 0 10:20 16.07.2019
5123 Clouds 33 1002 66 10000 1 0 09:44 16.07.2019
5124 Clouds 33 1002 66 10000 1 0 09:21 16.07.2019
5125 Clouds 33 1002 66 10000 1 0 08:58 16.07.2019
5126 Clouds 33 1003 63 10000 1.5 0 08:40 16.07.2019
5127 Clouds 32 1003 66 10000 2.1 150 08:18 16.07.2019
5128 Clouds 32 1003 66 9000 2.1 80 07:41 16.07.2019
5129 Clouds 32 1004 70 8000 2.6 70 07:18 16.07.2019
5130 Mist 30 1004 74 5000 2.1 50 06:43 16.07.2019
5131 Mist 30 1004 74 5000 2.1 50 05:57 16.07.2019
5132 Clouds 30 1004 74 6000 2.1 70 05:31 16.07.2019
5133 Clouds 31 1004 70 6000 2.1 40 04:52 16.07.2019
5134 Clouds 28 1004 94 10000 2.1 50 03:44 16.07.2019
5135 Clouds 27 1003 100 8000 1 290 02:46 16.07.2019
5136 Clouds 27 1003 100 8000 1 290 02:28 16.07.2019
5137 Clouds 27 1003 100 6000 1 0 01:36 16.07.2019
5138 Clouds 26 1003 100 6000 1 0 00:27 16.07.2019
5139 Clouds 26 1003 100 7000 2.1 90 23:59 15.07.2019
5140 Clouds 26 1002 100 7000 2.6 80 23:39 15.07.2019
5141 Clouds 26 1002 100 7000 2.6 80 23:39 15.07.2019
5142 Clouds 26 1002 100 7000 2.1 60 23:21 15.07.2019
5143 Clouds 26 1002 100 8000 1.5 60 22:46 15.07.2019
5144 Clouds 26 1002 100 8000 1 0 22:21 15.07.2019
5145 Clouds 26 1002 100 8000 1 0 21:57 15.07.2019
5146 Clouds 26 1003 100 8000 1 0 21:39 15.07.2019
5147 Clouds 26 1003 100 10000 1.5 60 21:19 15.07.2019
5148 Clouds 26 1003 100 10000 1.5 60 20:45 15.07.2019
5149 Clouds 26 1003 100 10000 1.5 60 20:24 15.07.2019
5150 Clouds 26 1003 100 10000 2.1 80 19:58 15.07.2019
5151 Clouds 26 1004 100 10000 2.6 70 19:38 15.07.2019
5152 Clouds 26 1004 100 10000 2.6 70 19:38 15.07.2019
5153 Clear 26 1003 100 10000 2.6 90 19:18 15.07.2019
5154 Clear 26 1004 100 10000 3.1 80 18:45 15.07.2019
5155 Clouds 26 1004 100 10000 1.5 60 18:21 15.07.2019
5156 Clouds 26 1003 100 10000 1.5 100 17:57 15.07.2019
5157 Clouds 26 1003 100 10000 1.5 100 17:38 15.07.2019
5158 Clouds 26 1003 100 10000 1.5 0 17:20 15.07.2019
5159 Clouds 26 1003 100 10000 1.5 0 16:57 15.07.2019
5160 Clouds 26 1003 100 10000 1 0 16:36 15.07.2019
5161 Clouds 26 1003 100 10000 2.1 340 16:18 15.07.2019
5162 Rain 26 1002 100 10000 1.5 60 15:39 15.07.2019
5163 Rain 26 1002 100 10000 1.5 60 15:39 15.07.2019
5164 Rain 26 1002 100 10000 1.5 60 15:21 15.07.2019
5165 Rain 26 1002 100 10000 2.1 60 14:57 15.07.2019
5166 Rain 26 1001 100 10000 3.1 120 14:37 15.07.2019
5167 Rain 27 1002 78 10000 3.6 140 14:19 15.07.2019
5168 Thunderstorm 27 1001 78 10000 4.1 80 13:45 15.07.2019
5169 Rain 26 1000 78 10000 2.1 180 13:18 15.07.2019
5170 Rain 27 1001 88 6000 7.7 170 12:43 15.07.2019
5171 Clouds 34 999 59 10000 2.6 80 12:23 15.07.2019
5172 Clouds 35 999 59 10000 3.1 70 11:44 15.07.2019
5173 Clouds 35 999 59 10000 3.1 70 11:26 15.07.2019
5174 Clouds 35 999 56 10000 2.6 40 10:49 15.07.2019
5175 Clouds 35 999 56 10000 2.6 40 10:30 15.07.2019
5176 Clouds 34 1000 59 10000 1.5 0 09:58 15.07.2019
5177 Clouds 35 1000 56 10000 1.5 0 09:39 15.07.2019
5178 Clouds 34 1000 59 10000 1 0 09:18 15.07.2019
5179 Clear 35 1001 56 10000 2.1 40 08:41 15.07.2019
5180 Clear 34 1001 59 10000 2.1 50 08:23 15.07.2019
5181 Clear 34 1001 59 10000 2.1 0 07:41 15.07.2019
5182 Clear 34 1001 59 10000 3.1 40 07:20 15.07.2019
5183 Clear 33 1001 63 10000 2.1 30 06:39 15.07.2019
5184 Clouds 32 1002 66 10000 2.1 110 05:49 15.07.2019
5185 Clouds 32 1002 66 10000 2.1 110 05:29 15.07.2019
5186 Clouds 30 1001 70 10000 2.1 80 04:43 15.07.2019
5187 Clouds 30 1001 89 6000 2.1 80 03:48 15.07.2019
5188 Mist 28 1001 100 4700 2.6 70 02:45 15.07.2019
5189 Mist 28 1001 100 5000 2.6 90 01:44 15.07.2019
5190 Mist 28 1000 100 4000 2.1 60 01:26 15.07.2019
5191 Mist 28 1000 100 5000 1.5 40 00:51 15.07.2019
5192 Clouds 27 1000 100 7000 2.1 30 00:20 15.07.2019
5193 Clouds 27 1000 100 7000 2.1 30 23:55 14.07.2019
5194 Clouds 27 1000 100 9000 2.6 50 23:36 14.07.2019
5195 Clouds 27 1000 100 10000 2.6 60 23:18 14.07.2019
5196 Rain 27 1001 100 8000 3.1 90 22:41 14.07.2019
5197 Rain 27 1001 100 8000 2.1 60 22:22 14.07.2019
5198 Rain 27 1001 100 8000 2.1 60 22:22 14.07.2019
5199 Rain 27 1001 100 8000 2.1 60 21:59 14.07.2019
5200 Clouds 27 1001 100 8000 2.1 80 21:41 14.07.2019
5201 Clouds 28 1001 100 8000 0.86 256.901 21:18 14.07.2019
5202 Clouds 28 1001 100 8000 0.86 256.901 20:55 14.07.2019
5203 Clouds 28 1001 100 8000 2.1 70 20:36 14.07.2019
5204 Rain 27 1001 100 8000 2.6 80 20:18 14.07.2019
5205 Rain 28 1002 100 10000 2.6 90 19:42 14.07.2019
5206 Rain 28 1002 100 10000 2.6 90 19:24 14.07.2019
5207 Rain 28 1002 94 10000 2.1 90 18:56 14.07.2019
5208 Clouds 28 1002 88 10000 1.5 80 18:37 14.07.2019
5209 Clear 28 1002 88 10000 1 0 18:18 14.07.2019
5210 Clear 28 1002 83 10000 1.5 0 17:42 14.07.2019
5211 Clear 27 1001 88 10000 1.5 70 17:19 14.07.2019
5212 Clear 28 1001 83 10000 0.5 0 16:46 14.07.2019
5213 Clear 28 1001 83 10000 0.5 0 16:24 14.07.2019
5214 Clear 28 1001 88 10000 1.5 0 15:50 14.07.2019
5215 Clear 28 1001 88 10000 1.5 0 15:27 14.07.2019
5216 Clear 28 1001 88 10000 2.1 50 14:48 14.07.2019
5217 Clear 29 1001 79 10000 1.5 0 14:21 14.07.2019
5218 Clear 29 1000 79 10000 3.1 50 13:49 14.07.2019
5219 Clear 29 1000 83 10000 2.6 50 13:25 14.07.2019
5220 Clear 29 1000 83 10000 2.6 50 12:58 14.07.2019
5221 Clear 30 1000 79 10000 3.1 60 12:40 14.07.2019
5222 Clear 30 999 84 10000 2.1 0 12:19 14.07.2019
5223 Clear 30 1000 84 10000 2.6 350 11:51 14.07.2019
5224 Clouds 31 1000 79 10000 2.1 330 11:22 14.07.2019
5225 Clouds 30 1000 84 10000 1 0 10:49 14.07.2019
5226 Clouds 30 1001 84 10000 1.5 330 10:22 14.07.2019
5227 Clouds 30 1001 84 10000 0.5 0 09:50 14.07.2019
5228 Clouds 30 1001 84 10000 0.5 0 09:30 14.07.2019
5229 Clouds 30 1001 84 10000 1.5 0 08:57 14.07.2019
5230 Clouds 30 1001 84 10000 2.6 30 08:39 14.07.2019
5231 Clouds 30 1001 84 9000 2.6 0 07:46 14.07.2019
5232 Clouds 31 1002 84 7000 2.6 0 07:21 14.07.2019
5233 Clouds 30 1002 94 6000 2.6 30 05:47 14.07.2019
5234 Clouds 30 1001 100 6000 2.6 50 03:59 14.07.2019
5235 Rain 30 1001 100 6000 2.6 50 03:41 14.07.2019
5236 Mist 30 1001 100 5000 2.1 20 03:23 14.07.2019
5237 Clouds 30 1000 100 6000 2.1 60 02:24 14.07.2019
5238 Clouds 30 1000 100 6000 2.1 60 02:24 14.07.2019
5239 Clouds 30 1000 100 6000 2.1 60 01:54 14.07.2019
5240 Clouds 30 1000 100 6000 2.1 50 01:30 14.07.2019
5241 Clouds 30 999 100 7000 2.1 50 00:41 14.07.2019
5242 Clouds 30 999 94 7000 2.1 70 00:20 14.07.2019
5243 Clouds 30 999 94 7000 2.1 70 23:58 13.07.2019
5244 Clouds 30 999 94 7000 2.1 80 23:40 13.07.2019
5245 Clouds 30 999 89 7000 1.5 80 23:20 13.07.2019
5246 Clouds 30 999 89 8000 1.5 80 22:42 13.07.2019
5247 Clouds 30 999 84 8000 2.1 60 22:22 13.07.2019
5248 Clouds 31 1000 74 7000 2.1 60 21:48 13.07.2019
5249 Clouds 30 1000 79 7000 2.6 70 21:21 13.07.2019
5250 Clouds 30 1000 79 7000 2.6 70 20:52 13.07.2019
5251 Clouds 31 1000 74 7000 2.6 80 20:33 13.07.2019
5252 Clouds 32 1000 70 8000 2.6 110 19:51 13.07.2019
5253 Clouds 32 1000 70 8000 2.6 110 19:30 13.07.2019
5254 Clear 31 1001 70 10000 3.1 90 18:48 13.07.2019
5255 Clear 31 1001 70 10000 3.1 90 18:28 13.07.2019
5256 Clear 32 1001 70 10000 2.6 60 17:58 13.07.2019
5257 Clear 32 1001 66 10000 1.5 0 17:37 13.07.2019
5258 Clear 33 1000 63 10000 3.1 130 17:18 13.07.2019
5259 Clear 34 1000 59 10000 2.6 130 16:42 13.07.2019
5260 Clear 34 1000 59 10000 2.6 130 16:24 13.07.2019
5261 Clouds 33 1000 66 9000 2.1 60 15:46 13.07.2019
5262 Clouds 33 1000 66 9000 2.1 60 15:24 13.07.2019
5263 Clear 34 1000 63 10000 2.1 50 14:47 13.07.2019
5264 Clear 34 1000 63 10000 2.1 50 14:27 13.07.2019
5265 -273 0 0 0 0 0 13:58 13.07.2019
5266 Clear 35 999 59 10000 2.1 0 13:39 13.07.2019
5267 Clear 35 998 59 10000 1 0 13:18 13.07.2019
5268 Clouds 36 998 53 10000 2.1 0 12:40 13.07.2019
5269 Clouds 36 998 53 10000 2.6 240 12:22 13.07.2019
5270 Clear 36 998 53 10000 2.6 250 11:52 13.07.2019
5271 Clear 37 999 53 10000 2.1 0 11:20 13.07.2019
5272 Clear 36 999 53 10000 2.1 260 10:46 13.07.2019
5273 Clear 36 999 53 10000 3.1 260 10:25 13.07.2019
5274 Clear 36 999 53 10000 3.1 260 09:59 13.07.2019
5275 Clear 36 1000 53 10000 3.1 290 09:40 13.07.2019
5276 Clear 36 1000 53 10000 3.1 250 09:18 13.07.2019
5277 Clear 35 1000 56 10000 3.1 250 08:36 13.07.2019
5278 Clear 35 1001 53 10000 2.6 250 08:18 13.07.2019
5279 Clear 35 1001 53 10000 2.1 260 07:30 13.07.2019
5280 Clear 35 1002 53 10000 2.1 280 06:41 13.07.2019
5281 Clear 35 1002 53 10000 2.6 240 05:58 13.07.2019
5282 Clear 34 1003 56 10000 3.1 210 05:28 13.07.2019
5283 Clear 34 1003 56 10000 3.1 190 04:23 13.07.2019
5284 Clear 33 1003 63 10000 2.6 190 03:56 13.07.2019
5285 Clear 32 1003 66 10000 1.5 170 03:37 13.07.2019
5286 Clear 30 1001 70 10000 2.6 120 01:55 13.07.2019
5287 Clear 29 1001 74 10000 2.6 130 01:37 13.07.2019
5288 Clear 29 1001 70 10000 2.1 130 01:18 13.07.2019
5289 Clear 28 1001 78 10000 2.1 80 00:51 13.07.2019
5290 Clouds 29 1001 70 0 2.6 140 00:19 13.07.2019
5291 Clear 29 1001 70 10000 2.1 120 23:44 12.07.2019
5292 Clear 29 1001 70 10000 2.1 120 23:25 12.07.2019
5293 Clear 29 1001 70 10000 2.6 90 22:46 12.07.2019
5294 Clear 29 1001 70 10000 2.6 90 22:24 12.07.2019
5295 Clear 30 1002 70 10000 2.6 130 21:43 12.07.2019
5296 Clear 30 1002 70 10000 3.1 130 21:22 12.07.2019
5297 Clear 31 1002 66 10000 2.6 110 20:54 12.07.2019
5298 -273 0 0 0 0 0 20:24 12.07.2019
5299 Clear 31 1002 70 10000 4.1 130 19:45 12.07.2019
5300 Clear 31 1002 70 10000 4.1 130 19:45 12.07.2019
5301 Clear 31 1002 70 10000 4.1 130 19:27 12.07.2019
5302 Clear 32 1002 66 10000 3.1 130 18:59 12.07.2019
5303 Clear 32 1003 66 10000 3.1 150 18:39 12.07.2019
5304 Clear 32 1002 66 10000 3.1 150 18:20 12.07.2019
5305 Clear 32 1002 66 10000 4.1 130 17:48 12.07.2019
5306 Clear 32 1002 66 10000 4.1 130 17:28 12.07.2019
5307 Clear 33 1002 66 10000 3.6 150 16:44 12.07.2019
5308 Clear 33 1002 63 10000 2.6 160 16:21 12.07.2019
5309 Clear 33 1002 63 10000 1.5 180 15:41 12.07.2019
5310 Clear 33 1002 66 10000 1 0 15:21 12.07.2019
5311 Clear 33 1002 66 10000 1 0 14:56 12.07.2019
5312 Clear 34 1001 59 10000 1.5 320 14:38 12.07.2019
5313 Clear 35 1001 53 10000 1 310 14:20 12.07.2019
5314 Clear 35 1001 53 10000 1.5 260 13:39 12.07.2019
5315 Clear 35 1001 53 10000 1.5 0 12:59 12.07.2019
5316 Clear 36 1001 50 10000 1.5 0 12:40 12.07.2019
5317 Clear 36 1001 50 10000 1.5 310 12:20 12.07.2019
5318 Clear 36 1001 53 10000 3.1 230 11:44 12.07.2019
5319 Clear 36 1001 53 10000 2.6 240 11:22 12.07.2019
5320 Clear 37 1001 53 10000 2.1 0 10:44 12.07.2019
5321 Clear 37 1001 53 10000 2.1 0 10:24 12.07.2019
5322 Clear 36 1002 56 10000 2.1 300 09:54 12.07.2019
5323 Clear 36 1002 53 10000 2.6 300 09:31 12.07.2019
5324 Clear 35 1002 56 10000 2.6 0 08:59 12.07.2019
5325 Clear 35 1003 56 10000 2.1 0 08:41 12.07.2019
5326 Clear 35 1003 56 10000 2.1 290 08:19 12.07.2019
5327 Clear 35 1003 53 10000 2.1 310 07:44 12.07.2019
5328 Clear 35 1003 53 10000 2.1 310 07:26 12.07.2019
5329 Clear 34 1004 56 10000 1.5 250 06:29 12.07.2019
5330 Clear 33 1004 59 10000 1.5 200 05:47 12.07.2019
5331 Clear 30 1004 74 10000 2.1 90 03:22 12.07.2019
5332 Clear 29 1003 94 10000 2.1 70 01:43 12.07.2019
5333 Clear 28 1003 94 10000 1.5 70 00:58 12.07.2019
5334 Clouds 28 1003 94 9000 2.6 90 00:27 12.07.2019
5335 Clear 29 1002 89 10000 1.5 60 23:49 11.07.2019
5336 Clear 29 1002 89 10000 1.5 60 23:26 11.07.2019
5337 Clear 29 1002 83 10000 1 0 22:58 11.07.2019
5338 Clouds 29 1002 83 8000 1 0 22:39 11.07.2019
5339 Clear 30 1003 70 10000 1 0 22:20 11.07.2019
5340 Clear 30 1003 70 10000 1 0 21:41 11.07.2019
5341 Clear 30 1003 70 10000 2.1 150 21:19 11.07.2019
5342 Clear 30 1004 70 10000 2.6 130 20:54 11.07.2019
5343 Clear 30 1004 70 10000 2.6 130 20:36 11.07.2019
5344 Clear 30 1004 74 10000 3.1 140 20:18 11.07.2019
5345 Clear 30 1004 74 10000 3.6 130 19:43 11.07.2019
5346 Clear 30 1004 74 10000 2.6 100 19:22 11.07.2019
5347 Clear 30 1005 74 10000 1.5 100 18:43 11.07.2019
5348 Clear 30 1005 74 10000 1.5 100 18:25 11.07.2019
5349 Clear 31 1005 66 10000 1.5 140 17:53 11.07.2019
5350 Clear 31 1005 66 10000 1.5 140 17:31 11.07.2019
5351 Clear 31 1004 66 10000 2.6 150 16:58 11.07.2019
5352 Clear 31 1004 70 10000 1 0 16:40 11.07.2019
5353 Clouds 31 1004 74 9000 2.6 70 16:19 11.07.2019
5354 Clear 31 1004 70 10000 2.1 50 15:43 11.07.2019
5355 Clouds 31 1003 70 9000 1.5 50 15:24 11.07.2019
5356 Clouds 32 1003 66 9000 1.5 50 14:46 11.07.2019
5357 Clouds 32 1003 66 9000 1.5 50 14:25 11.07.2019
5358 Clear 32 1003 70 10000 2.1 30 13:59 11.07.2019
5359 Clouds 32 1003 70 9000 1.5 0 13:41 11.07.2019
5360 Clear 33 1003 63 10000 1.5 30 13:23 11.07.2019
5361 Clouds 34 1003 56 10000 1 0 12:38 11.07.2019
5362 Clouds 34 1003 56 10000 1 0 12:19 11.07.2019
5363 Clouds 34 1003 56 10000 1 0 11:45 11.07.2019
5364 Clouds 34 1003 56 10000 1 0 11:27 11.07.2019
5365 Clouds 34 1003 59 10000 1.5 0 10:52 11.07.2019
5366 Clouds 34 1003 63 10000 2.6 50 10:20 11.07.2019
5367 Clouds 34 1003 63 10000 2.6 50 09:53 11.07.2019
5368 Clouds 33 1003 63 10000 3.1 40 09:32 11.07.2019
5369 Clouds 33 1003 63 10000 2.6 0 08:59 11.07.2019
5370 Clouds 33 1004 63 10000 3.6 40 08:39 11.07.2019
5371 Clouds 33 1004 63 10000 2.6 70 08:19 11.07.2019
5372 Clouds 33 1004 66 10000 3.1 60 07:43 11.07.2019
5373 Clouds 32 1005 66 10000 2.1 40 06:55 11.07.2019
5374 Clouds 31 1005 66 10000 3.1 70 06:18 11.07.2019
5375 Clouds 31 1005 70 10000 2.6 80 05:32 11.07.2019
5376 Clouds 30 1006 84 10000 3.1 80 04:56 11.07.2019
5377 Clouds 29 1005 89 8000 3.1 80 03:43 11.07.2019
5378 Mist 27 1004 100 5000 3.6 90 02:20 11.07.2019
5379 Clouds 26 1003 94 6000 3.1 80 00:33 11.07.2019
5380 Clouds 26 1003 94 9000 2.6 80 23:50 10.07.2019
5381 Clouds 26 1003 94 9000 2.6 80 23:24 10.07.2019
5382 Clouds 26 1003 94 8000 2.6 90 22:56 10.07.2019
5383 Clouds 26 1003 94 9000 3.6 100 22:25 10.07.2019
5384 Clouds 26 1003 94 9000 3.1 100 21:56 10.07.2019
5385 Clouds 26 1003 94 6000 3.6 100 21:37 10.07.2019
5386 Clouds 27 1003 94 10000 3.6 110 21:19 10.07.2019
5387 Clouds 27 1004 94 10000 3.1 100 20:41 10.07.2019
5388 Rain 27 1004 94 9000 3.1 90 20:21 10.07.2019
5389 Rain 27 1004 94 9000 3.1 90 19:55 10.07.2019
5390 Clouds 28 1004 88 10000 4.1 110 19:37 10.07.2019
5391 Clouds 28 1005 88 9000 3.6 100 19:18 10.07.2019
5392 Rain 28 1005 88 10000 3.1 90 18:42 10.07.2019
5393 Clouds 28 1005 83 10000 2.6 70 18:22 10.07.2019
5394 Clouds 29 1005 79 10000 2.1 50 17:44 10.07.2019
5395 Clouds 29 1005 79 10000 2.1 50 17:25 10.07.2019
5396 Clouds 29 1004 79 10000 1 290 16:41 10.07.2019
5397 Clouds 29 1004 79 10000 1 0 16:21 10.07.2019
5398 Clouds 29 1004 83 10000 1 0 15:47 10.07.2019
5399 Clouds 29 1004 83 10000 1 0 15:23 10.07.2019
5400 Clouds 29 1003 74 10000 1 0 14:46 10.07.2019
5401 Clouds 29 1003 74 10000 1 0 14:26 10.07.2019
5402 Clouds 29 1003 74 10000 2.1 80 13:53 10.07.2019
5403 Clouds 30 1002 70 10000 2.1 50 13:19 10.07.2019
5404 Clouds 30 1002 70 10000 2.1 50 12:58 10.07.2019
5405 Clouds 30 1002 70 10000 2.6 60 12:39 10.07.2019
5406 Clouds 30 1001 70 10000 2.6 80 12:19 10.07.2019
5407 Clouds 30 1001 70 10000 2.1 60 11:47 10.07.2019
5408 Clouds 30 1002 70 10000 2.6 60 11:21 10.07.2019
5409 Rain 29 1002 74 10000 2.1 50 10:50 10.07.2019
5410 Rain 29 1002 74 10000 2.1 10 10:23 10.07.2019
5411 Rain 29 1002 74 10000 2.1 10 10:23 10.07.2019
5412 Clouds 29 1002 70 10000 2.6 40 09:44 10.07.2019
5413 Clouds 30 1003 66 10000 2.1 40 09:21 10.07.2019
5414 Clouds 30 1003 66 10000 2.1 40 08:55 10.07.2019
5415 Clouds 30 1003 66 10000 1.5 0 08:36 10.07.2019
5416 Clouds 29 1003 70 10000 1.5 30 08:18 10.07.2019
5417 Clouds 29 1003 70 10000 1.5 110 07:42 10.07.2019
5418 Clouds 28 1004 83 10000 1.5 360 07:20 10.07.2019
5419 Clouds 27 1004 88 10000 1.5 0 05:59 10.07.2019
5420 Rain 27 1005 88 10000 1 0 05:39 10.07.2019
5421 Rain 25 1004 100 10000 1 0 04:28 10.07.2019
5422 Clouds 26 1002 78 10000 2.6 60 00:48 10.07.2019
5423 Clouds 26 1002 78 10000 2.6 60 00:29 10.07.2019
5424 Clouds 26 1002 78 10000 2.1 30 23:41 09.07.2019
5425 Clouds 27 1002 74 10000 1 0 23:21 09.07.2019
5426 Rain 27 1002 78 10000 2.1 30 22:42 09.07.2019
5427 Rain 27 1002 78 10000 2.1 30 22:22 09.07.2019
5428 Clouds 27 1002 78 10000 2.6 20 21:56 09.07.2019
5429 Clouds 28 1002 69 10000 2.1 0 21:38 09.07.2019
5430 Clouds 28 1002 69 10000 2.1 0 21:19 09.07.2019
5431 Clouds 28 1002 65 10000 1.5 0 20:43 09.07.2019
5432 Clouds 28 1002 65 10000 1.5 0 20:24 09.07.2019
5433 Clouds 28 1003 69 10000 2.6 20 19:41 09.07.2019
5434 Clouds 28 1003 69 10000 3.1 20 19:21 09.07.2019
5435 Clouds 28 1003 69 10000 3.6 20 18:46 09.07.2019
5436 Clear 28 1003 65 10000 3.1 10 18:23 09.07.2019
5437 Clear 28 1003 65 10000 3.1 30 17:56 09.07.2019
5438 Clear 28 1003 65 10000 3.1 30 17:37 09.07.2019
5439 Clear 28 1003 65 10000 3.1 30 17:37 09.07.2019
5440 Clear 28 1003 69 10000 4.1 30 17:18 09.07.2019
5441 Clear 28 1003 69 10000 4.1 30 17:18 09.07.2019
5442 Clear 28 1003 69 10000 3.6 20 16:46 09.07.2019
5443 Clear 28 1003 69 10000 3.6 20 16:24 09.07.2019
5444 Clear 28 1002 69 10000 3.1 0 15:49 09.07.2019
5445 Clear 28 1002 69 10000 3.1 0 15:29 09.07.2019
5446 Clouds 28 1002 69 10000 2.6 30 14:47 09.07.2019
5447 Clouds 28 1002 69 10000 2.6 30 14:47 09.07.2019
5448 Clouds 28 1002 69 10000 2.6 30 14:25 09.07.2019
5449 Clouds 29 1001 70 10000 4.1 20 13:59 09.07.2019
5450 Clouds 29 1001 70 10000 4.1 70 13:40 09.07.2019
5451 Thunderstorm 29 1000 70 10000 5.7 50 13:20 09.07.2019
5452 Clouds 29 1000 70 10000 4.6 40 12:40 09.07.2019
5453 Clouds 30 1000 70 10000 5.1 30 12:19 09.07.2019
5454 Clouds 31 1000 66 10000 7.2 30 11:57 09.07.2019
5455 Clouds 31 1000 66 10000 7.2 30 11:38 09.07.2019
5456 Clouds 33 999 66 10000 3.6 0 11:20 09.07.2019
5457 Clouds 34 999 63 10000 4.1 30 10:48 09.07.2019
5458 Clouds 34 999 63 10000 4.1 30 10:26 09.07.2019
5459 Clouds 35 1000 63 10000 4.1 20 09:39 09.07.2019
5460 Clouds 35 1000 59 10000 2.6 0 09:20 09.07.2019
5461 Clouds 35 1000 59 10000 2.6 0 09:20 09.07.2019
5462 Clear 35 1000 59 10000 3.1 40 08:45 09.07.2019
5463 Clear 35 1000 63 10000 2.6 0 08:21 09.07.2019
5464 Clouds 30 1002 89 10000 3.1 110 03:53 05.07.2019
5465 Clouds 29 1002 100 10000 3.1 120 03:24 05.07.2019
5466 Clouds 29 1002 100 10000 3.1 120 02:54 05.07.2019
5467 Clouds 29 1002 100 10000 2.6 80 02:36 05.07.2019
5468 Clouds 27 1002 100 7000 2.6 80 01:37 05.07.2019
5469 Clouds 27 1001 100 9000 2.1 70 00:54 05.07.2019
5470 Clouds 27 1001 100 9000 2.1 70 00:33 05.07.2019
5471 Clouds 28 1001 100 10000 2.6 60 23:47 04.07.2019
5472 Clouds 27 1001 100 10000 1.5 50 23:20 04.07.2019
5473 Clouds 27 1001 100 10000 1.5 60 22:43 04.07.2019
5474 Clouds 27 1001 100 10000 1.5 60 22:24 04.07.2019
5475 Clouds 27 1001 100 10000 2.6 70 21:55 04.07.2019
5476 Clouds 27 1001 100 10000 2.6 70 21:36 04.07.2019
5477 Clouds 28 1001 100 10000 2.6 70 21:18 04.07.2019
5478 Clear 28 1002 100 10000 3.1 90 20:38 04.07.2019
5479 Clear 27 1002 100 10000 3.1 70 20:20 04.07.2019
5480 Rain 27 1002 100 9000 2.6 70 19:42 04.07.2019
5481 Clear 27 1002 100 10000 3.1 70 19:22 04.07.2019
5482 Clear 27 1002 100 10000 3.1 70 19:22 04.07.2019
5483 Clear 27 1002 100 10000 3.1 70 18:56 04.07.2019
5484 Clear 27 1002 100 10000 3.1 70 18:37 04.07.2019
5485 Rain 27 1002 100 9000 3.6 70 18:18 04.07.2019
5486 Clear 27 1002 100 10000 3.6 70 17:43 04.07.2019
5487 Clouds 27 1002 100 10000 3.6 70 17:19 04.07.2019
5488 Clouds 27 1001 100 9000 3.1 60 15:57 04.07.2019
5489 Clouds 27 1001 100 10000 3.1 60 15:39 04.07.2019
5490 Clouds 27 1001 100 10000 2.1 60 15:18 04.07.2019
5491 Clouds 27 1000 100 10000 2.1 70 14:41 04.07.2019
5492 Clouds 27 1000 100 10000 2.1 70 14:22 04.07.2019
5493 Clouds 27 1000 100 10000 1.5 30 13:58 04.07.2019
5494 Clouds 27 1000 100 10000 2.6 80 13:39 04.07.2019
5495 Clouds 27 1000 100 10000 2.6 130 13:21 04.07.2019
5496 Rain 27 999 100 8000 2.1 140 12:40 04.07.2019
5497 Rain 27 999 100 2300 3.1 160 12:21 04.07.2019
5498 Rain 27 999 100 2300 3.1 160 11:57 04.07.2019
5499 Rain 27 999 100 10000 3.6 140 11:37 04.07.2019
5500 Rain 27 999 100 2100 4.1 190 11:18 04.07.2019
5501 Rain 27 999 100 10000 2.6 190 10:39 04.07.2019
5502 Rain 28 999 100 2500 3.1 200 10:19 04.07.2019
5503 Clouds 28 999 100 10000 3.6 180 09:39 04.07.2019
5504 Rain 27 999 100 6000 4.6 170 09:20 04.07.2019
5505 Rain 27 999 100 6000 4.6 170 08:55 04.07.2019
5506 Rain 27 998 100 4000 6.2 190 08:19 04.07.2019
5507 Clouds 28 997 100 10000 6.2 130 07:43 04.07.2019
5508 Rain 27 997 100 6000 6.2 100 07:21 04.07.2019
5509 Rain 26 997 100 4000 6.2 60 06:38 04.07.2019
5510 Rain 26 997 100 2100 7.2 40 05:50 04.07.2019
5511 Rain 26 997 100 2100 7.2 40 05:31 04.07.2019
5512 Rain 27 996 100 3200 8.2 20 02:41 04.07.2019
5513 Rain 27 995 94 10000 7.7 10 01:28 04.07.2019
5514 Clouds 26 995 100 10000 6.7 360 00:52 04.07.2019
5515 Clouds 27 995 100 10000 6.7 360 23:55 03.07.2019
5516 Clouds 27 995 100 10000 6.7 360 23:55 03.07.2019
5517 Rain 26 995 100 10000 7.2 360 23:21 03.07.2019
5518 Rain 26 995 100 10000 7.2 360 22:58 03.07.2019
5519 Rain 26 995 100 7000 5.1 360 22:39 03.07.2019
5520 Rain 27 995 100 10000 5.7 360 22:21 03.07.2019
5521 Rain 27 995 100 10000 5.7 360 21:56 03.07.2019
5522 Clouds 29 995 70 10000 6.7 10 21:37 03.07.2019
5523 Clouds 30 995 62 10000 6.2 10 20:57 03.07.2019
5524 Clear 30 995 66 10000 6.2 360 20:37 03.07.2019
5525 Clear 30 996 66 10000 6.2 360 20:19 03.07.2019
5526 Clear 30 996 66 10000 5.7 360 19:45 03.07.2019
5527 Clear 29 997 70 10000 4.6 10 19:25 03.07.2019
5528 Clear 29 997 70 10000 6.2 10 18:45 03.07.2019
5529 Clear 29 997 70 10000 5.7 20 18:23 03.07.2019
5530 Clear 29 997 70 10000 6.2 10 17:51 03.07.2019
5531 Clear 30 997 70 10000 5.1 10 17:20 03.07.2019
5532 Clear 30 997 70 10000 5.1 10 16:58 03.07.2019
5533 Clear 30 996 70 10000 5.7 20 16:39 03.07.2019
5534 Clouds 30 997 70 10000 5.1 360 16:18 03.07.2019
5535 Clouds 30 997 70 10000 5.1 30 15:44 03.07.2019
5536 Clouds 29 996 89 10000 4.1 0 15:26 03.07.2019
5537 Rain 29 996 83 9000 2.6 0 14:44 03.07.2019
5538 Clouds 30 995 70 10000 3.1 10 14:22 03.07.2019
5539 Rain 30 995 74 7000 5.7 30 13:50 03.07.2019
5540 Rain 30 995 74 7000 5.7 30 13:31 03.07.2019
5541 Clouds 34 995 59 10000 4.1 360 12:52 03.07.2019
5542 Clouds 34 994 63 10000 4.6 0 12:19 03.07.2019
5543 Clouds 35 994 56 10000 6.2 0 11:54 03.07.2019
5544 Clouds 35 994 56 10000 6.2 0 11:36 03.07.2019
5545 Clear 36 994 56 10000 5.1 350 11:18 03.07.2019
5546 Clear 35 995 56 10000 5.1 340 10:38 03.07.2019
5547 Clear 35 995 56 10000 5.1 330 10:20 03.07.2019
5548 Clear 36 996 56 10000 6.2 340 09:41 03.07.2019
5549 Clear 35 996 56 10000 5.7 340 09:20 03.07.2019
5550 Clear 35 997 56 10000 4.1 330 08:52 03.07.2019
5551 Clear 35 997 56 10000 4.1 330 08:31 03.07.2019
5552 Clouds 34 998 56 10000 4.6 340 07:47 03.07.2019
5553 Clouds 34 998 56 10000 4.6 340 07:28 03.07.2019
5554 Clear 34 999 59 10000 5.7 20 06:30 03.07.2019
5555 Clear 34 1000 56 10000 5.1 350 05:35 03.07.2019
5556 Clear 34 1000 56 10000 4.6 350 04:44 03.07.2019
5557 Clear 30 999 84 10000 3.1 310 03:25 03.07.2019
5558 Clear 29 999 89 10000 3.1 310 02:23 03.07.2019
5559 Clear 28 999 94 10000 2.6 300 01:21 03.07.2019
5560 Rain 28 999 94 9000 2.1 310 00:47 03.07.2019
5561 Clear 28 999 94 10000 3.1 310 00:24 03.07.2019
5562 Clouds 28 998 100 8000 2.6 310 23:38 02.07.2019
5563 Clouds 28 998 100 8000 2.6 310 23:20 02.07.2019
5564 Clouds 28 998 94 9000 2.6 310 22:57 02.07.2019
5565 Clouds 28 998 94 9000 2.6 310 22:38 02.07.2019
5566 Clear 28 998 94 10000 2.1 310 22:19 02.07.2019
5567 Clear 28 999 94 10000 3.6 310 21:44 02.07.2019
5568 Clear 28 1000 94 10000 2.6 310 21:23 02.07.2019
5569 Clear 28 1000 94 10000 2.6 310 20:58 02.07.2019
5570 Clear 28 1000 94 10000 2.6 310 20:39 02.07.2019
5571 Clear 28 1000 100 10000 2.6 300 20:21 02.07.2019
5572 Clear 28 1001 94 10000 2.1 320 19:43 02.07.2019
5573 Clear 29 1001 94 10000 3.1 310 19:23 02.07.2019
5574 Clear 29 1001 94 10000 3.1 310 18:50 02.07.2019
5575 Clear 28 1001 94 10000 2.1 300 18:19 02.07.2019
5576 Rain 29 1001 94 9000 2.1 310 17:45 02.07.2019
5577 Rain 29 1001 94 9000 2.1 310 17:45 02.07.2019
5578 Rain 29 1001 94 8000 2.1 310 17:24 02.07.2019
5579 Rain 29 1000 89 9000 1.5 320 16:55 02.07.2019
5580 Rain 29 1000 89 9000 1.5 320 16:36 02.07.2019
5581 Clouds 29 1000 79 10000 1.5 280 15:59 02.07.2019
5582 Rain 30 1001 70 10000 1 0 15:38 02.07.2019
5583 Rain 30 1001 70 10000 1.5 130 15:20 02.07.2019
5584 Clouds 30 1001 70 10000 1.5 190 14:41 02.07.2019
5585 Clouds 31 1000 66 10000 2.1 200 14:22 02.07.2019
5586 Clouds 31 1000 66 10000 2.1 200 13:43 02.07.2019
5587 Clouds 31 999 66 10000 1 0 13:19 02.07.2019
5588 Clouds 30 999 70 10000 1 0 12:44 02.07.2019
5589 Clouds 30 999 70 10000 1 0 12:44 02.07.2019
5590 Clouds 31 999 70 10000 3.1 320 12:23 02.07.2019
5591 Clouds 31 999 70 10000 4.6 300 11:44 02.07.2019
5592 Clouds 31 999 70 10000 4.6 300 11:44 02.07.2019
5593 Clouds 34 999 59 10000 5.7 330 11:23 02.07.2019
5594 Clouds 34 999 59 10000 5.7 330 10:58 02.07.2019
5595 Clouds 32 999 66 10000 5.7 0 10:32 02.07.2019
5596 Clouds 35 999 59 10000 2.6 340 09:57 02.07.2019
5597 Clear 34 1000 59 10000 2.1 0 09:22 02.07.2019
5598 Clear 34 1000 59 10000 2.1 0 08:58 02.07.2019
5599 Clear 33 1001 63 10000 1.5 360 08:38 02.07.2019
5600 Clouds 33 1001 66 10000 2.6 310 07:59 02.07.2019
5601 Clouds 33 1002 63 10000 2.6 310 07:38 02.07.2019
5602 Clouds 33 1002 63 10000 2.6 310 07:18 02.07.2019
5603 Clouds 31 1002 70 7000 3.1 310 06:37 02.07.2019
5604 Clouds 31 1003 89 6000 3.1 290 05:27 02.07.2019
5605 Clear 28 1002 100 10000 1.5 270 02:38 02.07.2019
5606 Clear 27 1001 100 10000 1 290 00:28 02.07.2019
5607 Clear 28 1001 88 10000 1.5 330 23:32 01.07.2019
5608 Clouds 27 1001 100 10000 2.6 30 22:54 01.07.2019
5609 Clouds 27 1001 100 10000 2.6 30 22:54 01.07.2019
5610 Clouds 27 1001 100 10000 2.6 30 22:36 01.07.2019
5611 Clouds 27 1001 100 9000 1.5 60 22:18 01.07.2019
5612 Clouds 27 1001 100 9000 1.5 60 21:43 01.07.2019
5613 Clouds 27 1001 100 9000 1.5 60 21:24 01.07.2019
5614 Rain 27 1001 100 9000 2.1 30 20:46 01.07.2019
5615 Clouds 27 1002 100 9000 1 0 20:20 01.07.2019
5616 Clear 27 1002 100 10000 1 0 19:54 01.07.2019
5617 Clear 27 1002 100 10000 1 0 19:36 01.07.2019
5618 Clear 27 1002 100 10000 0.5 0 19:18 01.07.2019
5619 Clear 28 1002 94 10000 1 0 18:42 01.07.2019
5620 Clear 28 1002 94 10000 2.6 140 18:21 01.07.2019
5621 Clear 27 1002 100 10000 2.1 110 17:45 01.07.2019
5622 Clear 27 1002 100 10000 2.1 110 17:25 01.07.2019
5623 Clear 27 1002 100 10000 1.5 80 16:57 01.07.2019
5624 Clear 27 1002 100 10000 1.5 50 16:38 01.07.2019
5625 Clear 27 1002 100 10000 3.6 50 16:19 01.07.2019
5626 Clouds 27 1002 100 10000 4.1 70 15:42 01.07.2019
5627 Clear 28 1002 100 10000 4.1 80 15:22 01.07.2019
5628 Clouds 28 1001 100 7000 3.6 70 14:44 01.07.2019
5629 Clouds 29 1000 89 9000 1.5 40 14:20 01.07.2019
5630 Clear 29 1000 74 10000 1.5 0 13:45 01.07.2019
5631 Clear 29 1000 74 10000 1.5 0 13:45 01.07.2019
5632 Clear 29 999 74 10000 1.5 0 13:23 01.07.2019
5633 Clouds 29 1000 83 10000 2.1 0 12:56 01.07.2019
5634 Clouds 29 1000 83 10000 2.1 0 12:37 01.07.2019
5635 Clouds 29 1000 83 10000 2.1 0 12:37 01.07.2019
5636 Rain 30 1000 74 10000 2.1 310 12:18 01.07.2019
5637 Rain 30 1000 70 10000 2.79 355.252 11:43 01.07.2019
5638 Rain 30 1000 70 10000 2.1 290 11:21 01.07.2019
5639 Rain 30 1000 74 10000 2.6 300 10:47 01.07.2019
5640 Clear 31 1001 66 10000 3.6 300 10:24 01.07.2019
5641 Clear 31 1001 66 10000 3.6 300 09:58 01.07.2019
5642 Clear 31 1001 66 10000 4.6 300 09:39 01.07.2019
5643 Clear 32 1001 62 10000 5.1 310 09:20 01.07.2019
5644 Clear 32 1001 62 10000 5.7 300 08:37 01.07.2019
5645 Clear 32 1002 66 10000 5.1 290 07:41 01.07.2019
5646 Clear 32 1002 62 10000 5.1 310 07:20 01.07.2019
5647 Clouds 31 1003 70 10000 4.6 290 06:20 01.07.2019
5648 Clear 28 1001 94 10000 2.6 290 01:42 01.07.2019
5649 Clear 28 1001 94 10000 1.5 270 00:47 01.07.2019
5650 Clear 28 1001 94 10000 1.5 270 00:28 01.07.2019
5651 Clear 28 1000 94 10000 1.5 310 23:52 30.06.2019
5652 Clear 28 1001 94 10000 1.5 330 23:21 30.06.2019
5653 Clear 28 1001 94 10000 1.5 330 22:44 30.06.2019
5654 Clear 28 1001 94 10000 1 310 22:20 30.06.2019
5655 Clear 28 1002 94 10000 1.5 330 21:42 30.06.2019
5656 Clear 28 1002 94 10000 2.6 300 21:20 30.06.2019
5657 Clear 28 1002 94 10000 2.6 300 20:55 30.06.2019
5658 Clear 29 1002 94 10000 1.5 320 20:37 30.06.2019
5659 Clear 29 1002 94 10000 1 310 20:18 30.06.2019
5660 Clear 29 1003 94 10000 1 0 19:43 30.06.2019
5661 Clear 29 1003 94 10000 1 0 19:24 30.06.2019
5662 Clear 29 1003 79 10000 1.5 290 18:26 30.06.2019
5663 Clear 29 1003 83 10000 1 290 17:59 30.06.2019
5664 Clear 29 1003 89 10000 1 0 17:38 30.06.2019
5665 Clear 29 1003 94 10000 1.5 350 17:18 30.06.2019
5666 Clear 30 1003 79 10000 1.5 310 16:46 30.06.2019
5667 Clear 30 1002 74 10000 1.5 240 16:26 30.06.2019
5668 Clear 30 1001 74 10000 1.5 210 15:38 30.06.2019
5669 Clear 30 1001 84 10000 1.5 230 15:19 30.06.2019
5670 Clear 30 1000 84 10000 1.5 320 14:50 30.06.2019
5671 Clear 30 1000 84 10000 1.5 320 14:50 30.06.2019
5672 Clear 30 1000 84 10000 1.5 320 14:30 30.06.2019
5673 Clear 30 999 74 10000 1 0 13:48 30.06.2019
5674 Clear 30 999 74 10000 1 0 13:29 30.06.2019
5675 Clouds 31 999 70 10000 2.1 30 12:52 30.06.2019
5676 Clouds 31 999 70 10000 2.1 30 12:28 30.06.2019
5677 Clouds 31 999 66 10000 2.6 30 11:58 30.06.2019
5678 Clouds 31 999 70 10000 1.5 0 11:38 30.06.2019
5679 Clouds 31 999 70 10000 1.5 0 11:38 30.06.2019
5680 Clouds 32 1000 66 10000 1.5 330 11:19 30.06.2019
5681 Clouds 31 1000 70 10000 2.6 310 10:44 30.06.2019
5682 Clouds 31 1000 70 10000 1.5 310 10:19 30.06.2019
5683 Clouds 31 1000 70 10000 1.5 310 09:57 30.06.2019
5684 Clouds 31 1001 66 10000 1 0 09:37 30.06.2019
5685 Clouds 31 1001 62 10000 3.1 310 09:18 30.06.2019
5686 Clouds 30 1001 74 10000 3.1 320 08:39 30.06.2019
5687 Clouds 31 1002 70 10000 3.6 290 08:19 30.06.2019
5688 Clouds 30 1002 89 10000 3.1 260 07:40 30.06.2019
5689 Clouds 30 1002 84 10000 2.6 250 07:21 30.06.2019
5690 Clouds 30 1003 84 10000 3.6 300 06:23 30.06.2019
5691 Clouds 27 1002 100 10000 1 0 03:26 30.06.2019
5692 Clear 26 1002 100 10000 2.6 20 01:31 30.06.2019
5693 Clouds 27 1001 100 10000 3.1 340 00:39 30.06.2019
5694 Clouds 26 1001 100 10000 3.6 10 00:18 30.06.2019
5695 Clouds 26 1001 100 10000 4.6 40 23:36 29.06.2019
5696 Rain 26 1000 100 10000 2.6 30 23:18 29.06.2019
5697 Clouds 26 1000 100 10000 5.1 70 22:42 29.06.2019
5698 Rain 26 1000 100 10000 5.1 60 22:21 29.06.2019
5699 Thunderstorm 25 1001 100 10000 2.6 140 21:52 29.06.2019
5700 Thunderstorm 25 1001 100 10000 2.6 140 21:23 29.06.2019
5701 Thunderstorm 30 1001 70 5000 3.6 220 20:45 29.06.2019
5702 Thunderstorm 30 1001 70 5000 3.6 220 20:27 29.06.2019
5703 Clouds 30 1000 66 10000 4.6 60 19:48 29.06.2019
5704 Clouds 30 1000 66 10000 4.6 60 19:26 29.06.2019
5705 Clouds 31 1001 70 10000 4.1 70 18:55 29.06.2019
5706 Clouds 31 1001 70 10000 4.1 70 18:27 29.06.2019
5707 Rain 31 1000 70 10000 6.7 70 17:57 29.06.2019
5708 Clouds 33 1000 63 10000 6.2 90 17:37 29.06.2019
5709 Clear 34 1000 63 10000 5.7 90 17:19 29.06.2019
5710 Clear 34 999 63 10000 5.7 100 16:42 29.06.2019
5711 Clear 34 999 63 10000 4.6 100 15:56 29.06.2019
5712 Rain 34 998 63 8000 2.6 70 15:31 29.06.2019
5713 Clear 35 997 59 10000 3.6 90 14:45 29.06.2019
5714 Clear 35 997 59 10000 3.6 90 14:26 29.06.2019
5715 Clear 36 996 56 10000 2.6 50 13:51 29.06.2019
5716 Clear 36 996 56 10000 2.6 50 13:27 29.06.2019
5717 Clouds 37 996 53 10000 2.1 40 12:59 29.06.2019
5718 Clouds 37 996 53 10000 2.1 40 12:38 29.06.2019
5719 Clear 38 996 50 10000 1.5 340 12:20 29.06.2019
5720 Clear 38 996 50 10000 1.5 350 11:42 29.06.2019
5721 Clear 38 996 47 10000 1.5 330 11:21 29.06.2019
5722 Clear 38 996 50 10000 1.5 320 10:46 29.06.2019
5723 Clear 38 996 50 10000 1.5 320 10:21 29.06.2019
5724 Clear 38 997 50 10000 2.1 0 09:50 29.06.2019
5725 Clear 37 998 53 10000 1.5 0 08:55 29.06.2019
5726 Clear 37 998 53 10000 1.5 0 08:28 29.06.2019
5727 Clear 36 998 56 10000 2.6 310 07:45 29.06.2019
5728 Clear 35 999 59 10000 1.5 50 06:48 29.06.2019
5729 Clear 35 999 59 10000 1.5 50 06:25 29.06.2019
5730 Clear 32 998 70 10000 2.1 60 03:25 29.06.2019
5731 Clear 30 997 89 10000 2.6 60 01:41 29.06.2019
5732 Clear 30 997 89 10000 2.6 60 01:41 29.06.2019
5733 Clear 29 997 94 10000 3.1 70 00:32 29.06.2019
5734 Clear 30 997 84 10000 2.6 50 23:38 28.06.2019
5735 Clear 30 996 89 10000 3.1 60 23:20 28.06.2019
5736 Clear 30 996 89 10000 2.6 60 22:46 28.06.2019
5737 Clear 30 996 89 10000 2.6 70 21:58 28.06.2019
5738 Clear 30 996 84 10000 3.6 70 21:27 28.06.2019
5739 Clear 30 996 84 10000 3.6 70 21:26 28.06.2019
5740 Clear 30 996 84 10000 3.6 80 20:49 28.06.2019
5741 Clear 30 996 84 10000 3.6 80 20:30 28.06.2019
5742 Clear 31 997 74 10000 4.1 90 19:57 28.06.2019
5743 Clear 31 997 74 10000 4.1 90 19:37 28.06.2019
5744 Clear 31 998 74 10000 4.1 80 19:18 28.06.2019
5745 Clear 31 998 74 10000 3.6 80 18:41 28.06.2019
5746 Clear 31 998 70 10000 4.1 80 18:20 28.06.2019
5747 Clear 31 997 70 10000 3.6 100 17:34 28.06.2019
5748 Clear 31 997 66 10000 4.1 90 16:55 28.06.2019
5749 Clear 31 997 66 10000 5.1 100 16:29 28.06.2019
5750 Clouds 32 996 62 10000 5.7 100 15:49 28.06.2019
5751 Clouds 32 996 62 10000 5.7 100 15:29 28.06.2019
5752 Clouds 32 996 66 10000 6.7 100 14:59 28.06.2019
5753 Clouds 34 995 59 10000 4.1 90 14:39 28.06.2019
5754 Clouds 34 995 63 10000 3.6 60 14:20 28.06.2019
5755 Clouds 34 995 59 10000 4.6 60 13:45 28.06.2019
5756 Clouds 34 995 63 10000 4.6 20 13:22 28.06.2019
5757 Clouds 34 995 63 10000 6.2 350 12:50 28.06.2019
5758 Clouds 34 995 63 10000 6.2 350 12:31 28.06.2019
5759 Clear 38 994 50 10000 2.1 60 11:29 28.06.2019
5760 Clear 38 995 50 10000 1.5 50 10:47 28.06.2019
5761 Clear 38 995 50 10000 1.5 50 10:23 28.06.2019
5762 Clouds 38 995 50 10000 1.5 0 09:59 28.06.2019
5763 Clear 38 995 50 10000 2.6 60 09:41 28.06.2019
5764 Clear 37 996 53 10000 2.6 320 09:22 28.06.2019
5765 Clear 37 996 53 10000 2.6 330 08:41 28.06.2019
5766 Clear 38 996 50 10000 2.6 330 08:23 28.06.2019
5767 Clear 37 997 53 10000 1.5 0 07:41 28.06.2019
5768 Clear 37 997 53 10000 2.6 310 06:40 28.06.2019
5769 Clear 31 997 74 10000 3.1 80 02:56 28.06.2019
5770 Clear 30 996 84 10000 2.6 60 00:46 28.06.2019
5771 Clear 30 996 89 10000 2.1 60 23:58 27.06.2019
5772 Clear 30 996 89 10000 2.1 70 23:40 27.06.2019
5773 Clear 30 996 89 10000 2.6 80 23:21 27.06.2019
5774 Clear 30 996 89 10000 2.6 80 22:42 27.06.2019
5775 Clear 30 996 89 10000 2.6 80 22:24 27.06.2019
5776 Clear 30 996 84 10000 2.1 70 21:56 27.06.2019
5777 Clear 30 996 84 10000 2.6 70 21:37 27.06.2019
5778 Clear 30 996 84 10000 2.1 60 21:19 27.06.2019
5779 Clouds 30 996 79 8000 2.1 70 20:45 27.06.2019
5780 Clouds 30 996 79 8000 2.1 70 20:26 27.06.2019
5781 Clear 31 996 74 10000 2.6 120 19:46 27.06.2019
5782 Clear 31 996 74 10000 2.6 120 19:25 27.06.2019
5783 Clear 32 997 70 10000 3.6 130 18:44 27.06.2019
5784 Clear 32 997 66 10000 4.1 140 18:25 27.06.2019
5785 Clear 33 996 66 10000 4.6 140 17:46 27.06.2019
5786 Clear 33 996 66 10000 4.6 140 17:23 27.06.2019
5787 Clear 33 996 63 10000 4.1 140 16:41 27.06.2019
5788 Clear 34 996 63 10000 4.1 140 16:20 27.06.2019
5789 Clear 34 996 63 10000 4.1 140 15:59 27.06.2019
5790 Clear 34 996 59 10000 3.6 150 15:40 27.06.2019
5791 Clear 35 995 56 10000 4.1 150 15:18 27.06.2019
5792 Clear 35 995 56 10000 3.1 130 14:40 27.06.2019
5793 Clear 35 995 56 10000 3.1 130 14:22 27.06.2019
5794 Clear 35 995 59 10000 2.6 100 13:44 27.06.2019
5795 Clear 36 995 56 10000 4.1 90 13:26 27.06.2019
5796 Clear 36 994 56 10000 3.6 90 12:49 27.06.2019
5797 Clear 36 994 56 10000 3.6 90 12:31 27.06.2019
5798 Clear 37 995 56 10000 3.1 110 11:49 27.06.2019
5799 Clear 37 995 56 10000 3.1 110 11:25 27.06.2019
5800 Clear 37 994 53 10000 2.6 0 10:59 27.06.2019
5801 Clear 37 995 50 10000 1.5 0 10:41 27.06.2019
5802 Clear 37 995 53 10000 1 0 10:20 27.06.2019
5803 Clear 36 996 53 10000 1.5 0 09:49 27.06.2019
5804 Clear 37 996 53 10000 1.5 0 09:21 27.06.2019
5805 Clear 36 996 53 10000 1.5 340 08:50 27.06.2019
5806 Clear 36 996 53 10000 1.5 340 08:28 27.06.2019
5807 Clear 35 997 59 10000 2.6 330 07:48 27.06.2019
5808 Clear 35 997 56 10000 2.6 20 06:59 27.06.2019
5809 Clear 35 998 59 10000 2.6 40 06:37 27.06.2019
5810 Clear 30 999 70 10000 2.6 60 03:52 27.06.2019
5811 Clear 29 999 79 10000 2.6 60 02:43 27.06.2019
5812 Clear 28 998 100 10000 3.1 70 01:39 27.06.2019
5813 Clouds 28 998 88 10000 2.6 70 00:52 27.06.2019
5814 Clouds 28 998 88 10000 2.6 70 00:26 27.06.2019
5815 Clear 28 997 83 10000 3.1 80 23:50 26.06.2019
5816 Clear 28 997 83 10000 3.1 80 23:23 26.06.2019
5817 Clear 28 997 83 10000 3.1 80 22:58 26.06.2019
5818 Clear 28 997 88 10000 3.1 80 22:39 26.06.2019
5819 Clear 28 997 88 10000 2.6 80 22:19 26.06.2019
5820 Clouds 28 997 83 10000 2.1 70 21:42 26.06.2019
5821 Clouds 28 997 83 10000 2.1 80 21:20 26.06.2019
5822 Clouds 28 997 83 10000 2.1 80 20:56 26.06.2019
5823 Clouds 28 998 78 10000 2.1 60 20:37 26.06.2019
5824 Clouds 29 998 74 10000 3.1 120 20:18 26.06.2019
5825 Clouds 29 999 74 10000 4.1 90 19:41 26.06.2019
5826 Clouds 29 999 74 10000 3.6 90 19:22 26.06.2019
5827 Clouds 30 999 70 10000 2.1 130 18:45 26.06.2019
5828 Clouds 31 999 66 10000 3.1 140 18:22 26.06.2019
5829 Clouds 31 999 66 10000 3.1 140 17:57 26.06.2019
5830 Thunderstorm 32 1000 62 10000 5.1 160 17:28 26.06.2019
5831 Clouds 33 1000 63 10000 3.6 160 16:53 26.06.2019
5832 Clouds 34 999 59 10000 4.1 140 16:31 26.06.2019
5833 Clouds 33 999 66 8000 1 0 15:58 26.06.2019
5834 Clouds 33 999 66 8000 1.5 340 15:30 26.06.2019
5835 Clouds 35 998 56 10000 1 0 14:58 26.06.2019
5836 Clouds 35 998 56 10000 1 0 14:37 26.06.2019
5837 Clear 35 998 56 10000 1.5 210 14:19 26.06.2019
5838 Clear 36 997 53 10000 1 0 13:39 26.06.2019
5839 Clear 36 997 56 10000 1 0 13:19 26.06.2019
5840 Clear 37 997 50 10000 1.5 250 12:40 26.06.2019
5841 Clear 37 998 50 10000 2.1 0 12:21 26.06.2019
5842 Clear 37 998 50 10000 2.1 230 11:42 26.06.2019
5843 Clear 37 998 50 10000 2.1 230 11:42 26.06.2019
5844 Clear 37 998 53 10000 1.5 0 11:19 26.06.2019
5845 Clear 37 998 53 10000 2.1 320 10:39 26.06.2019
5846 Clear 37 999 53 10000 2.1 0 10:21 26.06.2019
5847 Clear 36 999 56 10000 2.1 340 09:36 26.06.2019
5848 Clear 36 1000 56 10000 2.6 320 09:18 26.06.2019
5849 Clear 35 1000 59 10000 2.6 350 08:38 26.06.2019
5850 Clear 35 1000 59 10000 1.5 0 08:19 26.06.2019
5851 Clear 34 1001 59 10000 2.1 0 07:41 26.06.2019
5852 Clear 33 1002 66 10000 3.1 80 06:33 26.06.2019
5853 Clear 30 1003 70 10000 1.5 50 03:34 26.06.2019
5854 Clouds 27 1002 100 9000 3.1 60 00:42 26.06.2019
5855 Clear 26 1002 100 10000 2.6 90 00:18 26.06.2019
5856 Clear 26 1002 100 10000 2.1 60 23:39 25.06.2019
5857 Clear 26 1002 100 10000 2.6 90 23:20 25.06.2019
5858 Clear 27 1002 88 10000 2.1 90 22:42 25.06.2019
5859 Clear 27 1002 83 10000 2.1 60 22:23 25.06.2019
5860 Clear 27 1002 83 10000 2.1 50 21:47 25.06.2019
5861 Clear 27 1002 83 10000 2.1 50 21:27 25.06.2019
5862 Clear 27 1002 78 10000 3.1 80 20:59 25.06.2019
5863 Clear 27 1003 74 10000 1 0 20:37 25.06.2019
5864 Clear 27 1003 74 10000 1 0 20:18 25.06.2019
5865 Clear 27 1004 78 10000 2.1 290 19:44 25.06.2019
5866 Clear 28 1004 69 10000 1.5 260 19:22 25.06.2019
5867 Clouds 28 1005 69 10000 4.6 180 18:42 25.06.2019
5868 Clouds 28 1005 78 10000 3.6 170 18:24 25.06.2019
5869 -273 0 0 0 0 0 17:46 25.06.2019
5870 -273 0 0 0 0 0 17:27 25.06.2019
5871 -273 0 0 0 0 0 17:27 25.06.2019
5872 -273 0 0 0 0 0 17:27 25.06.2019
5873 Clouds 26 1004 88 10000 1.5 100 16:45 25.06.2019
5874 Thunderstorm 27 1004 78 10000 4.1 110 16:26 25.06.2019
5875 Thunderstorm 27 1004 78 10000 4.1 110 16:26 25.06.2019
5876 Thunderstorm 27 1004 78 10000 4.1 110 15:59 25.06.2019
5877 Thunderstorm 27 1003 78 10000 5.7 130 15:39 25.06.2019
5878 Clouds 30 1003 62 10000 6.7 210 15:20 25.06.2019
5879 Clouds 32 1002 70 6000 1 0 14:45 25.06.2019
5880 Clouds 32 1002 70 6000 1 0 14:26 25.06.2019
5881 Rain 32 1001 70 6000 2.6 50 13:43 25.06.2019
5882 Clouds 33 1001 66 6000 2.6 0 13:23 25.06.2019
5883 Clouds 33 1001 66 6000 3.6 30 12:42 25.06.2019
5884 Clouds 34 1001 63 7000 4.1 30 12:24 25.06.2019
5885 Clouds 33 1002 66 7000 3.6 40 11:45 25.06.2019
5886 Clouds 33 1002 66 7000 3.6 40 11:23 25.06.2019
5887 Clouds 33 1002 63 7000 3.6 30 11:23 25.06.2019
5888 Clouds 33 1002 66 7000 2.6 50 10:57 25.06.2019
5889 Clouds 33 1002 66 7000 2.6 50 10:36 25.06.2019
5890 Clouds 33 1002 66 8000 2.6 40 10:18 25.06.2019
5891 Clouds 33 1003 66 7000 2.1 0 09:39 25.06.2019
5892 Clouds 34 1003 63 6000 1.5 40 09:21 25.06.2019
5893 Clouds 33 1003 63 6000 1 0 08:51 25.06.2019
5894 Clouds 33 1003 63 6000 1 0 08:30 25.06.2019
5895 Clouds 33 1004 63 6000 0.5 0 07:43 25.06.2019
5896 Clouds 32 1004 66 6000 1.5 0 07:23 25.06.2019
5897 Mist 30 1005 89 5000 1 0 06:42 25.06.2019
5898 Clouds 29 1006 94 6000 1 0 04:31 25.06.2019
5899 Clouds 28 1005 94 8000 1 330 02:35 25.06.2019
5900 Clouds 27 1004 94 8000 2.1 70 00:38 25.06.2019
5901 Clouds 27 1004 94 7000 2.1 60 00:18 25.06.2019
5902 Clouds 27 1004 94 7000 2.1 60 00:18 25.06.2019
5903 Clouds 27 1004 94 8000 2.6 60 23:43 24.06.2019
5904 Clouds 27 1004 94 8000 2.6 60 23:25 24.06.2019
5905 Clouds 27 1004 94 8000 1.5 50 22:45 24.06.2019
5906 Clouds 27 1004 94 8000 1.5 50 22:45 24.06.2019
5907 Clouds 27 1004 94 9000 1 0 22:19 24.06.2019
5908 Clouds 27 1005 94 8000 2.1 80 21:42 24.06.2019
5909 Clouds 27 1005 94 6000 1.5 70 21:19 24.06.2019
5910 Clouds 27 1005 94 6000 1.5 70 20:58 24.06.2019
5911 Mist 27 1005 100 5000 1.5 80 20:40 24.06.2019
5912 Mist 27 1005 100 4900 2.6 90 20:21 24.06.2019
5913 Mist 27 1005 100 5000 2.6 100 19:46 24.06.2019
5914 Mist 27 1005 100 5000 2.1 90 19:21 24.06.2019
5915 Clouds 27 1005 94 7000 2.6 100 18:48 24.06.2019
5916 Clouds 27 1005 94 7000 2.6 100 18:29 24.06.2019
5917 Clouds 27 1006 94 7000 1.5 0 17:56 24.06.2019
5918 Clouds 27 1005 94 7000 1.5 50 17:36 24.06.2019
5919 Clouds 27 1005 94 8000 2.6 100 16:48 24.06.2019
5920 Clouds 27 1004 94 9000 2.6 80 16:21 24.06.2019
5921 Clouds 27 1004 94 9000 2.6 80 16:21 24.06.2019
5922 Clouds 27 1004 94 9000 2.6 80 15:59 24.06.2019
5923 Clouds 27 1004 94 10000 2.6 80 15:38 24.06.2019
5924 Clouds 26 1003 94 10000 2.6 90 15:19 24.06.2019
5925 Clear 27 1003 94 10000 2.6 90 14:34 24.06.2019
5926 Clouds 27 1003 94 10000 1.5 0 13:50 24.06.2019
5927 Clouds 27 1003 94 10000 1.5 0 13:24 24.06.2019
5928 Clouds 27 1002 88 10000 2.1 70 12:44 24.06.2019
5929 Clouds 27 1003 94 10000 1 0 12:22 24.06.2019
5930 Clouds 27 1003 88 10000 1.5 60 11:55 24.06.2019
5931 Clouds 27 1003 88 10000 1.5 60 11:37 24.06.2019
5932 Clouds 27 1003 94 10000 1 0 11:18 24.06.2019
5933 Clear 27 1004 94 10000 1.5 0 10:41 24.06.2019
5934 Clouds 26 1004 100 10000 1.5 10 10:20 24.06.2019
5935 Clouds 26 1005 100 10000 2.1 100 09:48 24.06.2019
5936 Clouds 26 1005 100 10000 1 0 09:19 24.06.2019
5937 Rain 26 1006 100 10000 1.5 80 08:51 24.06.2019
5938 Rain 26 1005 100 10000 1.5 80 08:20 24.06.2019
5939 Rain 25 1005 100 10000 1.5 0 07:42 24.06.2019
5940 Rain 25 1005 100 10000 1.5 0 07:23 24.06.2019
5941 Rain 25 1007 100 10000 4.1 70 06:25 24.06.2019
5942 Thunderstorm 25 1007 100 8000 4.6 100 05:52 24.06.2019
5943 Thunderstorm 25 1007 100 10000 2.1 360 04:58 24.06.2019
5944 Rain 26 1005 100 10000 3.6 30 03:54 24.06.2019
5945 Clouds 26 1005 94 10000 6.2 50 02:48 24.06.2019
5946 Clouds 26 1004 94 10000 5.1 40 01:55 24.06.2019
5947 Clouds 26 1004 100 10000 5.7 50 01:34 24.06.2019
5948 Thunderstorm 27 1003 100 10000 5.7 70 00:55 24.06.2019
5949 Thunderstorm 27 1003 100 10000 5.7 70 00:23 24.06.2019
5950 Thunderstorm 27 1003 100 10000 4.6 50 23:58 23.06.2019
5951 Rain 27 1003 100 10000 4.6 60 23:40 23.06.2019
5952 Clouds 28 1003 88 10000 4.6 70 23:20 23.06.2019
5953 Clouds 28 1003 83 10000 3.1 40 22:41 23.06.2019
5954 Clouds 28 1003 83 10000 4.1 70 22:20 23.06.2019
5955 Clouds 28 1003 78 10000 5.1 50 21:42 23.06.2019
5956 Clouds 28 1003 78 10000 3.6 70 21:23 23.06.2019
5957 Clouds 29 1004 74 10000 4.6 50 20:52 23.06.2019
5958 Clouds 29 1004 74 10000 4.6 50 20:52 23.06.2019
5959 Clouds 29 1004 74 10000 4.6 50 20:32 23.06.2019
5960 Clouds 29 1004 70 10000 4.1 50 19:56 23.06.2019
5961 Clouds 29 1004 74 10000 3.6 60 19:38 23.06.2019
5962 Rain 30 1004 70 10000 3.1 80 19:19 23.06.2019
5963 Clouds 30 1004 70 10000 3.6 60 18:44 23.06.2019
5964 Clouds 31 1004 70 10000 3.6 60 18:20 23.06.2019
5965 Clouds 31 1003 70 10000 3.6 70 17:42 23.06.2019
5966 Clouds 31 1003 70 10000 3.6 80 17:22 23.06.2019
5967 Clouds 31 1002 70 10000 3.6 70 16:45 23.06.2019
5968 Clear 32 1002 66 10000 3.6 70 16:25 23.06.2019
5969 Clear 32 1002 66 10000 3.6 70 15:45 23.06.2019
5970 Clear 32 1002 66 10000 3.6 70 15:25 23.06.2019
5971 Clear 32 1002 66 10000 3.6 60 14:59 23.06.2019
5972 Clear 32 1002 66 10000 3.6 70 14:38 23.06.2019
5973 Clear 33 1001 63 10000 4.6 60 14:20 23.06.2019
5974 Clear 33 1001 66 10000 4.6 60 13:42 23.06.2019
5975 Clear 34 1001 63 10000 4.1 70 13:21 23.06.2019
5976 Clear 34 1001 63 10000 4.1 70 12:56 23.06.2019
5977 Clear 35 1001 63 10000 4.1 60 12:37 23.06.2019
5978 Clear 35 1000 63 10000 3.1 70 12:18 23.06.2019
5979 Clear 35 1000 63 10000 3.1 70 11:45 23.06.2019
5980 Clouds 35 1001 63 10000 3.1 60 11:25 23.06.2019
5981 Clouds 35 1001 63 10000 3.6 0 10:48 23.06.2019
5982 Clouds 35 1001 63 10000 3.6 60 10:21 23.06.2019
5983 Clouds 35 1001 63 10000 3.6 60 09:57 23.06.2019
5984 Clouds 36 1001 60 10000 2.6 40 09:22 23.06.2019
5985 Clouds 35 1002 63 10000 3.6 40 08:46 23.06.2019
5986 Clouds 35 1002 63 10000 3.6 40 08:27 23.06.2019
5987 Clouds 34 1002 67 10000 3.1 90 07:55 23.06.2019
5988 Clouds 34 1002 67 10000 3.6 90 07:25 23.06.2019
5989 Clouds 33 1002 70 10000 3.1 80 06:59 23.06.2019
5990 Clouds 33 1002 70 10000 3.1 80 06:40 23.06.2019
5991 Clouds 32 1002 75 10000 3.6 100 04:53 23.06.2019
5992 Clouds 31 1002 79 10000 4.1 120 02:32 23.06.2019
5993 Clouds 31 1001 79 10000 4.1 130 01:39 23.06.2019
5994 Clouds 31 1001 79 10000 5.1 120 00:47 23.06.2019
5995 Clouds 31 1001 79 10000 5.1 120 00:26 23.06.2019
5996 Clouds 31 1000 79 10000 5.7 120 23:42 22.06.2019
5997 Clouds 31 1000 79 10000 4.6 110 23:24 22.06.2019
5998 Clear 31 1000 84 10000 4.6 100 22:46 22.06.2019
5999 Clear 31 1000 84 10000 4.6 100 22:24 22.06.2019
6000 Clouds 29 1001 76 0 0.98 186.836 21:41 22.06.2019
6001 Clear 31 1000 79 10000 5.1 130 21:20 22.06.2019
6002 Clear 31 1000 79 10000 5.1 130 20:53 22.06.2019
6003 Clear 31 1000 79 10000 5.1 130 20:27 22.06.2019
6004 Clouds 31 1000 79 9000 4.1 110 19:53 22.06.2019
6005 Clouds 31 1000 79 9000 4.1 110 19:28 22.06.2019
6006 Clear 31 1000 74 10000 4.6 120 18:59 22.06.2019
6007 Clear 31 1001 74 10000 5.1 120 18:40 22.06.2019
6008 Clear 32 1001 70 10000 5.1 130 18:18 22.06.2019
6009 Clear 32 1000 70 10000 4.6 130 17:38 22.06.2019
6010 Clear 32 1000 75 10000 5.1 120 17:19 22.06.2019
6011 Clear 32 1000 79 10000 4.6 120 16:39 22.06.2019
6012 Clear 32 1000 79 10000 4.6 120 16:39 22.06.2019
6013 Clear 32 1000 75 10000 5.1 110 16:20 22.06.2019
6014 Clear 32 1000 75 10000 5.1 110 16:20 22.06.2019
6015 Clear 32 1000 75 10000 5.1 100 15:40 22.06.2019
6016 Clear 32 1000 75 10000 5.1 100 15:40 22.06.2019
6017 Clear 34 999 63 10000 5.7 110 15:22 22.06.2019
6018 Clear 34 999 63 10000 5.7 110 14:41 22.06.2019
6019 Clear 34 999 67 10000 8.2 120 14:20 22.06.2019
6020 Clouds 35 998 67 10000 7.2 120 13:42 22.06.2019
6021 Clouds 35 998 67 10000 7.2 120 13:23 22.06.2019
6022 Clouds 36 998 67 10000 7.7 100 12:53 22.06.2019
6023 Clouds 36 998 67 10000 7.7 100 12:34 22.06.2019
6024 Clouds 37 998 63 10000 7.2 100 11:58 22.06.2019
6025 Clouds 37 998 60 10000 6.2 100 11:34 22.06.2019
6026 Clouds 38 998 57 10000 4.1 90 10:53 22.06.2019
6027 Clouds 39 998 48 10000 1.5 0 10:21 22.06.2019
6028 Clouds 39 998 48 10000 1.5 0 10:21 22.06.2019
6029 Clouds 39 998 48 10000 1.5 0 09:55 22.06.2019
6030 Clouds 39 998 51 10000 2.1 170 09:23 22.06.2019
6031 Clouds 38 999 53 10000 2.6 320 08:43 22.06.2019
6032 Clouds 38 999 53 10000 2.6 320 08:23 22.06.2019
6033 Clouds 37 1000 56 10000 1.5 0 07:33 22.06.2019
6034 Clouds 36 1001 60 10000 2.6 60 06:55 22.06.2019
6035 Clouds 34 1002 67 10000 3.1 80 05:22 22.06.2019
6036 Clear 31 1002 84 10000 4.1 120 02:33 22.06.2019
6037 Clear 30 1001 89 10000 3.1 120 01:19 22.06.2019
6038 Clear 30 1001 84 10000 3.6 130 00:39 22.06.2019
6039 Clear 30 1001 84 10000 3.6 130 00:19 22.06.2019
6040 Clear 30 1001 84 10000 4.1 130 23:42 21.06.2019
6041 Clear 31 1001 79 10000 4.6 140 23:21 21.06.2019
6042 Clear 30 1001 84 10000 4.6 130 22:47 21.06.2019
6043 Clear 30 1001 84 10000 4.6 130 22:47 21.06.2019
6044 Clouds 31 1001 74 10000 4.6 130 22:23 21.06.2019
6045 Clear 31 1001 74 10000 4.6 130 21:40 21.06.2019
6046 Clear 31 1001 70 10000 5.1 130 21:22 21.06.2019
6047 Clear 31 1001 70 10000 5.1 130 20:53 21.06.2019
6048 Clear 31 1001 70 10000 4.6 140 20:27 21.06.2019
6049 Clear 31 1002 70 10000 4.1 130 19:58 21.06.2019
6050 Clear 31 1002 70 10000 3.1 120 19:30 21.06.2019
6051 Clear 31 1002 70 10000 4.6 130 18:46 21.06.2019
6052 Clear 31 1002 70 10000 4.6 130 18:28 21.06.2019
6053 Clear 32 1002 66 10000 4.1 120 17:45 21.06.2019
6054 Clear 32 1002 66 10000 4.1 120 17:27 21.06.2019
6055 Clear 33 1001 63 10000 5.1 120 16:38 21.06.2019
6056 Clear 33 1001 66 10000 5.7 130 16:19 21.06.2019
6057 Clouds 33 1001 66 10000 6.2 130 15:39 21.06.2019
6058 Clear 34 1000 67 10000 5.7 130 15:19 21.06.2019
6059 Clouds 34 1000 67 10000 6.7 120 14:45 21.06.2019
6060 Clear 34 1000 67 10000 5.7 100 14:25 21.06.2019
6061 Clear 35 999 67 10000 5.7 100 13:44 21.06.2019
6062 Clear 35 999 67 10000 5.7 100 13:25 21.06.2019
6063 Clear 36 999 63 10000 6.2 90 12:54 21.06.2019
6064 Clouds 37 999 53 10000 3.6 80 12:23 21.06.2019
6065 Clouds 37 999 56 10000 4.1 70 11:58 21.06.2019
6066 Clouds 37 1000 56 10000 3.1 70 11:40 21.06.2019
6067 Clouds 38 1000 53 10000 2.6 70 11:22 21.06.2019
6068 Clouds 38 1000 53 10000 2.6 70 11:22 21.06.2019
6069 Clouds 38 1000 50 10000 2.1 50 10:44 21.06.2019
6070 Clouds 37 1000 53 10000 1.5 0 10:21 21.06.2019
6071 Clouds 38 1001 50 10000 1.5 260 09:43 21.06.2019
6072 Clouds 38 1001 50 10000 1.5 260 09:25 21.06.2019
6073 Clouds 37 1001 53 10000 2.1 0 08:58 21.06.2019
6074 Clouds 37 1001 53 10000 2.1 0 08:58 21.06.2019
6075 Clouds 36 1002 56 10000 1.5 0 08:40 21.06.2019
6076 Clouds 36 1002 53 10000 2.1 0 08:19 21.06.2019
6077 Clouds 37 1002 53 10000 1 0 07:45 21.06.2019
6078 Clouds 37 1002 53 10000 1 0 07:45 21.06.2019
6079 Clouds 36 1002 56 10000 2.1 0 07:22 21.06.2019
6080 Clear 36 1002 56 10000 1 0 06:29 21.06.2019
6081 Clear 35 1002 59 10000 1.5 0 05:55 21.06.2019
6082 Clear 33 1003 66 10000 2.1 0 04:49 21.06.2019
6083 Clouds 32 1003 75 10000 3.1 100 03:48 21.06.2019
6084 Clouds 32 1003 75 10000 3.1 100 03:28 21.06.2019
6085 Clouds 30 1003 94 10000 2.6 80 02:34 21.06.2019
6086 Clear 30 1003 94 10000 2.6 110 01:32 21.06.2019
6087 Clear 29 1002 94 10000 3.1 140 00:46 21.06.2019
6088 Clear 30 1002 79 10000 2.6 120 23:57 20.06.2019
6089 Clear 29 1002 83 10000 2.6 120 23:39 20.06.2019
6090 Clear 29 1002 83 10000 3.1 120 23:19 20.06.2019
6091 Clear 30 1002 74 10000 2.6 130 22:41 20.06.2019
6092 Clear 29 1002 79 10000 2.6 110 22:23 20.06.2019
6093 Clear 29 1002 79 10000 2.6 110 22:23 20.06.2019
6094 Clear 29 1002 79 10000 2.6 110 21:56 20.06.2019
6095 Clear 30 1002 74 10000 3.1 120 21:37 20.06.2019
6096 Clear 30 1002 74 10000 3.6 130 21:19 20.06.2019
6097 Clear 30 1002 74 10000 3.6 130 21:19 20.06.2019
6098 Clear 30 1002 74 10000 2.6 130 20:41 20.06.2019
6099 Clear 30 1002 74 10000 2.6 130 20:23 20.06.2019
6100 Clear 31 1003 74 10000 4.1 130 19:45 20.06.2019
6101 Clear 31 1003 74 10000 3.6 120 19:19 20.06.2019
6102 Clear 31 1003 74 10000 3.6 120 18:57 20.06.2019
6103 Clear 31 1003 74 10000 4.1 120 18:38 20.06.2019
6104 Clear 31 1003 79 10000 3.6 110 18:20 20.06.2019
6105 Clear 31 1003 84 10000 3.6 110 17:46 20.06.2019
6106 Clear 31 1003 84 10000 3.6 110 17:25 20.06.2019
6107 Clear 31 1002 79 10000 4.1 100 16:42 20.06.2019
6108 Clear 32 1002 75 10000 4.6 100 16:19 20.06.2019
6109 Clear 32 1002 75 10000 4.1 100 15:44 20.06.2019
6110 Clear 32 1002 75 10000 4.1 100 15:24 20.06.2019
6111 Clear 32 1002 70 10000 3.6 90 14:58 20.06.2019
6112 Clear 33 1001 63 10000 3.1 80 14:39 20.06.2019
6113 Clear 34 1001 59 10000 3.6 120 14:19 20.06.2019
6114 Clear 34 1001 63 10000 4.1 90 13:39 20.06.2019
6115 Clear 35 1001 56 10000 3.1 110 13:19 20.06.2019
6116 Clear 35 1001 56 10000 2.6 130 12:43 20.06.2019
6117 Clear 35 1001 56 10000 2.6 150 12:22 20.06.2019
6118 Clear 35 1002 56 10000 3.6 150 11:43 20.06.2019
6119 Clear 35 1002 56 10000 3.6 150 11:23 20.06.2019
6120 Clear 35 1002 59 10000 2.6 170 10:45 20.06.2019
6121 Clear 35 1002 59 10000 2.6 170 10:45 20.06.2019
6122 Clear 35 1002 59 10000 2.6 170 10:45 20.06.2019
6123 Clear 35 1002 59 10000 2.6 170 10:24 20.06.2019
6124 Clear 35 1002 59 10000 3.6 140 09:57 20.06.2019
6125 Clear 34 1003 63 10000 3.1 150 09:38 20.06.2019
6126 Clear 34 1003 63 10000 2.6 0 09:20 20.06.2019
6127 Clouds 34 1003 63 10000 3.6 140 08:44 20.06.2019
6128 Clouds 34 1003 63 10000 3.6 140 08:25 20.06.2019
6129 Clouds 34 1004 63 10000 3.1 190 07:50 20.06.2019
6130 Clouds 34 1004 63 10000 3.1 190 07:26 20.06.2019
6131 Clouds 33 1005 66 10000 4.1 140 06:22 20.06.2019
6132 Clouds 31 1005 94 10000 2.6 140 03:41 20.06.2019
6133 Clouds 30 1004 94 10000 3.6 110 02:28 20.06.2019
6134 Clear 29 1004 94 10000 2.6 110 00:33 20.06.2019
6135 Clear 29 1004 94 10000 2.6 110 00:33 20.06.2019
6136 Clear 29 1004 94 10000 3.6 100 23:48 19.06.2019
6137 Clear 29 1004 94 10000 3.6 100 23:29 19.06.2019
6138 Clear 29 1003 94 10000 3.1 100 22:49 19.06.2019
6139 Clear 29 1003 94 10000 3.1 100 22:25 19.06.2019
6140 Clear 29 1003 94 10000 4.1 100 21:58 19.06.2019
6141 Clear 29 1003 94 10000 4.1 100 21:58 19.06.2019
6142 Clear 29 1003 94 10000 4.6 110 21:39 19.06.2019
6143 Clouds 29 1004 94 9000 4.1 100 21:20 19.06.2019
6144 Clouds 29 1004 94 9000 2.1 90 20:41 19.06.2019
6145 Clouds 30 1005 84 9000 2.1 100 20:21 19.06.2019
6146 Clouds 29 1005 89 10000 2.1 80 19:46 19.06.2019
6147 Clouds 29 1005 89 10000 2.1 80 19:26 19.06.2019
6148 Clear 29 1005 89 10000 3.1 80 18:56 19.06.2019
6149 Clear 30 1005 79 10000 3.6 100 18:24 19.06.2019
6150 Clear 30 1005 74 10000 3.1 130 17:48 19.06.2019
6151 Clear 30 1005 74 10000 3.1 130 17:27 19.06.2019
6152 Clear 30 1004 74 10000 4.1 120 16:56 19.06.2019
6153 Clear 30 1004 74 10000 3.6 120 16:37 19.06.2019
6154 Clear 31 1003 66 10000 4.1 120 16:19 19.06.2019
6155 Clear 31 1003 70 10000 5.1 120 15:45 19.06.2019
6156 Clear 31 1003 70 10000 5.1 120 15:24 19.06.2019
6157 Clouds 32 1003 66 10000 4.6 110 14:43 19.06.2019
6158 Clouds 32 1003 66 10000 4.6 110 14:25 19.06.2019
6159 Clouds 32 1002 70 10000 4.6 100 13:48 19.06.2019
6160 Clouds 32 1002 70 10000 4.6 100 13:29 19.06.2019
6161 Clouds 33 1002 66 10000 5.1 120 12:59 19.06.2019
6162 Clouds 33 1002 66 10000 6.2 90 12:40 19.06.2019
6163 Clouds 34 1001 63 10000 4.6 90 12:18 19.06.2019
6164 Clouds 34 1002 63 10000 5.1 100 11:42 19.06.2019
6165 Clouds 34 1002 63 10000 5.7 100 11:21 19.06.2019
6166 Clouds 34 1002 59 10000 3.6 120 10:49 19.06.2019
6167 Clouds 34 1002 59 10000 3.6 120 10:28 19.06.2019
6168 Clouds 35 1002 59 10000 3.1 120 09:56 19.06.2019
6169 Clouds 34 1003 63 10000 3.1 120 09:37 19.06.2019
6170 Clouds 34 1003 59 10000 2.6 150 09:18 19.06.2019
6171 Clouds 34 1004 63 10000 5.1 140 08:43 19.06.2019
6172 Clouds 34 1004 63 10000 4.1 120 08:25 19.06.2019
6173 Clouds 33 1004 63 10000 3.1 120 07:43 19.06.2019
6174 Clouds 34 1005 63 10000 2.6 120 07:23 19.06.2019
6175 Clouds 32 1005 66 10000 3.1 100 06:37 19.06.2019
6176 Clouds 33 1005 66 10000 3.1 130 06:19 19.06.2019
6177 Clouds 32 1006 66 10000 3.1 140 05:27 19.06.2019
6178 Clouds 30 1006 100 8000 2.6 80 03:53 19.06.2019
6179 Clouds 28 1006 100 7000 2.1 80 02:40 19.06.2019
6180 Clouds 27 1005 100 6000 2.1 70 01:39 19.06.2019
6181 Clouds 27 1005 100 6000 2.6 80 00:54 19.06.2019
6182 Clouds 27 1005 100 7000 1.5 70 00:36 19.06.2019
6183 Clouds 27 1005 100 6000 3.1 80 23:59 18.06.2019
6184 Mist 27 1005 100 4700 2.6 90 23:37 18.06.2019
6185 Clouds 27 1005 100 7000 3.1 100 23:19 18.06.2019
6186 Clouds 27 1005 100 8000 3.1 100 22:41 18.06.2019
6187 Clouds 27 1005 100 6000 3.1 90 22:21 18.06.2019
6188 Rain 28 1005 100 10000 3.6 100 21:44 18.06.2019
6189 Clouds 28 1005 100 10000 3.1 100 21:22 18.06.2019
6190 Clouds 28 1005 100 10000 3.1 100 20:58 18.06.2019
6191 Clouds 28 1005 100 10000 3.1 100 20:38 18.06.2019
6192 Clouds 28 1006 100 10000 3.1 100 20:19 18.06.2019
6193 Clouds 28 1006 100 10000 3.6 100 19:39 18.06.2019
6194 Clouds 28 1006 100 10000 3.1 100 19:21 18.06.2019
6195 Clouds 28 1006 100 10000 3.1 100 18:48 18.06.2019
6196 Clouds 28 1006 100 10000 3.1 100 18:25 18.06.2019
6197 Clouds 28 1006 100 10000 2.6 80 17:46 18.06.2019
6198 Clouds 28 1005 100 10000 3.1 90 17:22 18.06.2019
6199 Clouds 28 1005 100 10000 3.1 90 16:57 18.06.2019
6200 Clouds 29 1005 89 10000 3.1 120 16:39 18.06.2019
6201 Clouds 29 1005 89 10000 3.6 120 16:20 18.06.2019
6202 Clouds 29 1004 83 10000 2.6 110 15:38 18.06.2019
6203 -273 0 0 0 0 0 15:20 18.06.2019
6204 Clouds 29 1003 79 10000 3.6 90 14:55 18.06.2019
6205 Clouds 29 1003 79 10000 3.6 90 14:36 18.06.2019
6206 Clouds 30 1003 79 10000 1.5 60 14:18 18.06.2019
6207 Clouds 30 1003 74 10000 1.5 80 13:41 18.06.2019
6208 Clouds 30 1003 74 10000 2.6 80 13:22 18.06.2019
6209 Clouds 30 1003 74 10000 2.6 90 12:44 18.06.2019
6210 Clouds 30 1003 74 10000 2.6 90 12:25 18.06.2019
6211 Clouds 29 1003 74 7000 2.1 150 11:47 18.06.2019
6212 Clouds 29 1003 89 6000 2.1 140 11:23 18.06.2019
6213 Clouds 29 1003 89 6000 2.1 140 10:57 18.06.2019
6214 Clouds 29 1003 89 6000 1.5 80 10:38 18.06.2019
6215 Clouds 29 1003 89 7000 1 0 10:19 18.06.2019
6216 Clouds 29 1004 89 7000 2.1 80 09:49 18.06.2019
6217 Clouds 28 1004 94 7000 2.1 80 09:24 18.06.2019
6218 Mist 28 1005 94 5000 2.6 90 08:46 18.06.2019
6219 Clouds 28 1005 94 6000 2.6 80 08:21 18.06.2019
6220 Clouds 28 1005 94 6000 2.6 80 08:21 18.06.2019
6221 Clouds 28 1005 94 7000 2.1 70 07:41 18.06.2019
6222 Clouds 27 1006 100 7000 1.5 40 07:23 18.06.2019
6223 Clouds 27 1006 100 7000 2.1 80 06:44 18.06.2019
6224 Rain 26 1006 100 6000 2.1 50 05:21 18.06.2019
6225 Rain 26 1006 100 8000 1.5 90 02:53 18.06.2019
6226 Rain 25 1004 100 4100 3.1 50 01:55 18.06.2019
6227 Rain 25 1004 100 4100 3.1 50 01:25 18.06.2019
6228 Rain 26 1004 100 4500 3.1 60 00:55 18.06.2019
6229 Rain 25 1004 100 6000 3.1 60 00:27 18.06.2019
6230 Clouds 26 1004 100 8000 2.6 50 23:41 17.06.2019
6231 Rain 26 1004 100 8000 3.1 60 23:20 17.06.2019
6232 Rain 25 1004 100 8000 1.5 40 22:56 17.06.2019
6233 Rain 25 1004 100 8000 1.5 40 22:37 17.06.2019
6234 Rain 25 1004 100 10000 2.6 60 22:18 17.06.2019
6235 Clouds 25 1003 100 10000 3.1 70 21:42 17.06.2019
6236 Clouds 25 1004 100 10000 2.1 60 21:21 17.06.2019
6237 Clouds 25 1005 100 10000 1.5 60 20:37 17.06.2019
6238 Clouds 25 1005 100 10000 1.5 70 20:19 17.06.2019
6239 Rain 25 1006 100 10000 2.1 0 19:42 17.06.2019
6240 Rain 25 1006 100 10000 2.6 360 19:23 17.06.2019
6241 Rain 25 1006 100 10000 2.6 360 18:58 17.06.2019
6242 Rain 25 1006 100 10000 1 0 18:38 17.06.2019
6243 Rain 25 1006 100 7000 2.1 310 18:18 17.06.2019
6244 Rain 25 1006 100 7000 2.1 310 17:46 17.06.2019
6245 Rain 25 1006 100 9000 2.6 270 17:28 17.06.2019
6246 Clouds 28 1005 69 10000 9.3 250 16:48 17.06.2019
6247 Clouds 28 1005 69 10000 9.3 250 16:29 17.06.2019
6248 Clouds 31 1004 70 10000 5.1 150 15:58 17.06.2019
6249 Clouds 31 1003 70 10000 5.7 130 15:39 17.06.2019
6250 Clouds 31 1002 70 10000 6.7 110 15:19 17.06.2019
6251 Clouds 31 1002 70 10000 6.7 100 14:51 17.06.2019
6252 Clouds 31 1002 70 10000 6.7 100 14:32 17.06.2019
6253 Clouds 32 1002 62 10000 6.7 120 13:54 17.06.2019
6254 Clouds 32 1001 66 10000 6.2 110 13:36 17.06.2019
6255 Clouds 33 1001 63 10000 6.2 110 13:18 17.06.2019
6256 Clouds 34 1001 63 10000 4.6 90 12:32 17.06.2019
6257 Clouds 34 1000 63 10000 5.7 110 11:51 17.06.2019
6258 -273 0 0 0 0 0 11:27 17.06.2019
6259 Clouds 34 1000 63 10000 5.7 110 11:27 17.06.2019
6260 Clouds 34 1000 63 10000 5.7 110 11:27 17.06.2019
6261 Clouds 34 1000 63 10000 5.1 110 10:59 17.06.2019
6262 Clouds 34 1001 63 10000 5.1 90 10:41 17.06.2019
6263 Clouds 33 1001 66 10000 4.1 100 10:22 17.06.2019
6264 Clouds 33 1001 66 10000 4.1 100 09:55 17.06.2019
6265 Clouds 34 1002 63 10000 3.6 110 09:30 17.06.2019
6266 Clouds 33 1002 66 10000 4.1 110 08:42 17.06.2019
6267 Clouds 32 1003 70 10000 5.7 100 08:23 17.06.2019
6268 Clouds 32 1003 70 10000 3.1 100 07:46 17.06.2019
6269 Clouds 32 1003 70 10000 3.1 100 07:28 17.06.2019
6270 Clouds 32 1003 70 10000 4.1 80 06:44 17.06.2019
6271 Clouds 31 1003 79 8000 3.1 60 05:50 17.06.2019
6272 Clouds 31 1003 89 8000 3.1 90 04:52 17.06.2019
6273 Clouds 29 1003 100 9000 2.6 70 03:50 17.06.2019
6274 Clouds 29 1003 94 9000 2.6 60 03:20 17.06.2019
6275 Clouds 28 1002 94 10000 3.6 60 02:41 17.06.2019
6276 Clouds 28 1002 100 10000 3.6 60 01:56 17.06.2019
6277 Clouds 28 1002 100 10000 3.6 50 01:34 17.06.2019
6278 Rain 28 1001 88 10000 2.1 60 00:44 17.06.2019
6279 Rain 28 1001 88 10000 2.1 60 00:44 17.06.2019
6280 Clouds 28 1001 83 10000 2.6 60 00:22 17.06.2019
6281 Clouds 28 1001 78 10000 3.6 50 23:43 16.06.2019
6282 Clouds 28 1001 78 10000 3.1 50 23:23 16.06.2019
6283 Clouds 28 1001 78 10000 3.1 50 22:57 16.06.2019
6284 Clouds 28 1001 78 10000 3.1 60 22:39 16.06.2019
6285 Clouds 28 1001 78 10000 2.6 70 22:18 16.06.2019
6286 Clouds 27 1001 83 10000 2.6 90 21:42 16.06.2019
6287 Clouds 28 1001 74 10000 3.6 60 21:23 16.06.2019
6288 Clouds 28 1001 74 10000 3.6 60 20:59 16.06.2019
6289 Clouds 28 1002 74 10000 3.1 60 20:37 16.06.2019
6290 Clear 28 1002 74 10000 3.1 50 20:18 16.06.2019
6291 Clear 29 1002 74 10000 4.1 80 19:43 16.06.2019
6292 Clear 29 1002 79 10000 4.6 80 19:22 16.06.2019
6293 Clear 29 1002 79 10000 4.6 80 18:59 16.06.2019
6294 Clear 29 1002 74 10000 4.1 80 18:40 16.06.2019
6295 Clear 29 1002 70 10000 3.6 60 18:20 16.06.2019
6296 Clear 29 1002 70 10000 4.6 80 17:48 16.06.2019
6297 Clear 30 1002 70 10000 5.1 80 17:22 16.06.2019
6298 Clear 30 1002 70 10000 5.1 80 16:57 16.06.2019
6299 Clouds 31 1002 74 10000 6.2 90 16:39 16.06.2019
6300 Clouds 31 1002 74 10000 6.2 90 16:39 16.06.2019
6301 Thunderstorm 31 1002 79 10000 5.1 70 16:21 16.06.2019
6302 Thunderstorm 32 1001 70 10000 4.6 100 15:42 16.06.2019
6303 Thunderstorm 32 1001 70 10000 4.6 100 15:24 16.06.2019
6304 Clouds 33 1000 66 9000 4.6 120 14:45 16.06.2019
6305 Clouds 33 999 66 10000 5.1 120 14:23 16.06.2019
6306 Clouds 34 999 63 10000 5.7 120 13:52 16.06.2019
6307 Clouds 34 999 63 10000 5.7 120 13:28 16.06.2019
6308 Clear 35 999 63 10000 5.1 120 12:58 16.06.2019
6309 Clear 35 999 63 10000 5.1 120 12:39 16.06.2019
6310 Clear 35 998 63 10000 5.1 110 12:19 16.06.2019
6311 Clouds 35 998 63 10000 4.1 100 11:46 16.06.2019
6312 Clouds 35 999 63 10000 4.1 100 11:20 16.06.2019
6313 Clouds 35 999 63 10000 4.1 100 10:46 16.06.2019
6314 Clear 36 999 56 10000 2.6 90 10:23 16.06.2019
6315 Clear 36 999 56 10000 2.6 90 09:56 16.06.2019
6316 Clear 36 999 60 10000 2.6 40 09:36 16.06.2019
6317 Clear 36 1000 60 10000 2.1 20 09:18 16.06.2019
6318 Clear 36 1000 56 10000 2.6 0 08:40 16.06.2019
6319 Clouds 35 1001 63 10000 3.1 40 08:19 16.06.2019
6320 Clouds 35 1001 59 10000 2.1 60 07:44 16.06.2019
6321 Clouds 34 1001 67 10000 2.1 70 06:59 16.06.2019
6322 Clouds 34 1001 63 10000 2.6 80 06:37 16.06.2019
6323 Clouds 34 1001 67 10000 3.1 80 05:47 16.06.2019
6324 Clouds 32 1001 75 8000 3.1 70 04:49 16.06.2019
6325 Clouds 31 1001 79 8000 3.1 80 03:57 16.06.2019
6326 Clouds 31 1001 79 8000 3.1 80 03:57 16.06.2019
6327 Clouds 31 1001 79 8000 3.1 80 03:57 16.06.2019
6328 Clouds 30 1001 84 8000 2.6 60 03:32 16.06.2019
6329 Clouds 30 1001 84 9000 3.1 70 02:26 16.06.2019
6330 Clouds 29 1001 94 9000 2.6 70 01:42 16.06.2019
6331 Clouds 29 1000 89 8000 2.6 80 01:24 16.06.2019
6332 Rain 29 999 89 9000 2.6 60 00:40 16.06.2019
6333 Clouds 29 999 89 9000 2.6 60 00:20 16.06.2019
6334 Clouds 29 999 94 9000 2.6 60 23:43 15.06.2019
6335 Clear 29 999 94 10000 2.1 80 23:25 15.06.2019
6336 Clear 29 1000 89 10000 2.6 80 22:49 15.06.2019
6337 Clear 29 1000 89 10000 2.6 80 22:27 15.06.2019
6338 Clear 29 1000 89 10000 3.6 70 21:49 15.06.2019
6339 Clear 29 1000 89 10000 3.6 70 21:29 15.06.2019
6340 Clear 30 1000 84 10000 3.1 80 20:57 15.06.2019
6341 Clear 30 1000 84 10000 3.1 80 20:39 15.06.2019
6342 Clear 30 1001 89 10000 3.6 80 20:18 15.06.2019
6343 Clouds 30 1001 89 8000 3.1 90 19:41 15.06.2019
6344 Clear 30 1001 84 10000 4.1 90 19:23 15.06.2019
6345 Clear 31 1001 79 10000 4.1 100 18:39 15.06.2019
6346 Clear 31 1001 79 10000 4.6 100 18:20 15.06.2019
6347 Clear 31 1001 79 10000 4.6 100 17:43 15.06.2019
6348 Clear 31 1001 79 10000 4.6 100 17:43 15.06.2019
6349 Clear 31 1001 79 10000 5.1 100 17:21 15.06.2019
6350 Clear 31 1000 74 10000 6.2 120 16:46 15.06.2019
6351 Clouds 32 1000 70 9000 6.2 120 16:19 15.06.2019
6352 Clouds 32 1000 70 7000 5.1 100 15:43 15.06.2019
6353 Clouds 33 999 66 8000 2.6 80 15:23 15.06.2019
6354 Clouds 33 999 66 8000 2.6 80 15:23 15.06.2019
6355 Clouds 33 999 66 7000 2.1 70 14:42 15.06.2019
6356 Clear 34 999 63 10000 2.1 0 14:19 15.06.2019
6357 Clear 34 999 63 10000 1 0 13:55 15.06.2019
6358 Clear 34 999 63 10000 1 0 13:36 15.06.2019
6359 Clear 35 998 59 10000 1 0 13:18 15.06.2019
6360 Clear 35 998 59 10000 2.1 40 12:42 15.06.2019
6361 Clear 34 999 63 10000 2.1 50 12:23 15.06.2019
6362 Clear 34 999 63 10000 2.6 30 11:48 15.06.2019
6363 Clear 34 999 63 10000 2.6 30 11:29 15.06.2019
6364 Clear 35 1000 59 10000 1.5 340 10:46 15.06.2019
6365 Clear 35 1000 59 10000 1.5 340 10:25 15.06.2019
6366 Clear 35 1001 59 10000 2.6 330 09:48 15.06.2019
6367 Clear 35 1001 59 10000 2.6 330 09:27 15.06.2019
6368 Clouds 35 1001 59 10000 2.1 340 08:55 15.06.2019
6369 Clouds 35 1001 59 10000 2.1 340 08:55 15.06.2019
6370 Clouds 35 1001 59 10000 2.1 340 08:37 15.06.2019
6371 Clouds 35 1001 59 10000 3.1 320 08:18 15.06.2019
6372 Clouds 35 1002 59 10000 3.1 330 07:26 15.06.2019
6373 Clouds 34 1002 67 10000 2.1 360 06:48 15.06.2019
6374 Clouds 34 1002 67 10000 2.1 360 06:25 15.06.2019
6375 Clouds 33 1002 66 9000 3.1 70 05:39 15.06.2019
6376 Clouds 33 1002 66 9000 3.1 70 05:39 15.06.2019
6377 Clouds 32 1003 70 7000 2.6 80 04:51 15.06.2019
6378 Clouds 30 1003 94 7000 2.6 70 03:51 15.06.2019
6379 Clouds 30 1002 94 6000 2.6 70 03:22 15.06.2019
6380 Mist 29 1002 100 5000 2.1 60 02:31 15.06.2019
6381 Mist 29 1001 100 5000 2.1 70 01:53 15.06.2019
6382 Clouds 28 1001 100 6000 3.1 80 01:19 15.06.2019
6383 Clouds 28 1001 100 9000 2.6 80 00:40 15.06.2019
6384 Clouds 29 1001 100 10000 3.1 90 23:55 14.06.2019
6385 Clouds 29 1001 100 10000 3.1 90 23:37 14.06.2019
6386 Clouds 29 1001 100 9000 3.6 100 23:18 14.06.2019
6387 Clouds 29 1001 100 7000 3.1 90 22:40 14.06.2019
6388 Clouds 29 1001 100 7000 3.1 80 22:19 14.06.2019
6389 Clouds 29 1001 100 7000 3.6 80 21:41 14.06.2019
6390 Clouds 29 1002 100 7000 2.1 70 21:23 14.06.2019
6391 Clouds 29 1002 100 8000 2.6 80 20:43 14.06.2019
6392 Rain 29 1002 94 8000 2.1 80 20:19 14.06.2019
6393 Rain 29 1002 94 8000 2.1 80 19:57 14.06.2019
6394 Rain 29 1002 89 8000 3.1 90 19:37 14.06.2019
6395 Clear 29 1002 79 10000 3.1 100 19:18 14.06.2019
6396 Clear 29 1003 74 10000 2.6 130 18:43 14.06.2019
6397 Clear 30 1003 66 10000 4.1 130 18:24 14.06.2019
6398 Clear 29 1003 70 10000 3.1 130 17:55 14.06.2019
6399 Clear 29 1003 70 10000 3.1 130 17:37 14.06.2019
6400 Clear 30 1002 66 10000 4.1 140 17:19 14.06.2019
6401 Clear 30 1002 66 10000 4.1 130 16:45 14.06.2019
6402 Clear 30 1002 74 10000 3.1 150 16:21 14.06.2019
6403 Clear 30 1002 74 10000 3.1 150 16:20 14.06.2019
6404 Clear 30 1002 74 10000 3.1 150 15:57 14.06.2019
6405 Clear 31 1002 70 10000 4.6 140 15:38 14.06.2019
6406 Clear 31 1001 66 10000 4.1 120 15:18 14.06.2019
6407 Clouds 32 1000 62 10000 3.6 140 14:40 14.06.2019
6408 Clouds 32 1000 62 10000 3.6 140 14:40 14.06.2019
6409 Clouds 32 1000 70 10000 4.1 160 14:21 14.06.2019
6410 Clouds 33 1000 66 9000 3.6 110 13:42 14.06.2019
6411 Clouds 33 999 63 10000 3.6 90 13:24 14.06.2019
6412 Clouds 33 1000 66 10000 4.1 100 12:43 14.06.2019
6413 Clouds 34 999 63 10000 4.1 80 12:25 14.06.2019
6414 Clouds 34 999 63 10000 4.1 80 12:25 14.06.2019
6415 Clouds 34 999 63 10000 4.1 80 11:58 14.06.2019
6416 Clouds 34 1000 63 10000 3.6 60 11:39 14.06.2019
6417 Clear 34 1000 59 10000 3.6 70 11:20 14.06.2019
6418 Clear 34 1000 63 10000 3.1 60 10:43 14.06.2019
6419 Clear 33 1001 63 10000 3.1 60 10:20 14.06.2019
6420 Clear 33 1001 63 10000 3.6 70 09:46 14.06.2019
6421 Clear 32 1002 66 10000 3.6 80 09:22 14.06.2019
6422 Clear 32 1002 66 10000 3.6 70 08:46 14.06.2019
6423 Clear 32 1002 66 10000 3.1 50 08:19 14.06.2019
6424 Clear 32 1003 62 10000 3.1 60 07:50 14.06.2019
6425 Clear 31 1003 66 10000 3.1 60 07:21 14.06.2019
6426 Clear 30 1003 70 10000 2.6 60 06:34 14.06.2019
6427 Clear 30 1003 70 10000 3.6 80 05:58 14.06.2019
6428 Clear 30 1003 70 10000 3.6 80 05:58 14.06.2019
6429 Clouds 28 1004 83 10000 3.6 70 05:21 14.06.2019
6430 Clouds 28 1004 88 10000 3.1 70 04:45 14.06.2019
6431 Rain 27 1003 100 10000 3.1 80 03:52 14.06.2019
6432 Rain 27 1003 100 10000 3.1 80 03:25 14.06.2019
6433 Rain 27 1003 94 10000 3.1 70 02:50 14.06.2019
6434 Rain 27 1003 94 10000 3.1 70 02:27 14.06.2019
6435 Rain 27 1003 94 10000 3.1 70 02:27 14.06.2019
6436 Clouds 28 1002 83 10000 3.6 50 00:57 14.06.2019
6437 Clouds 28 1001 88 10000 4.1 50 00:23 14.06.2019
6438 Clouds 28 1001 88 10000 4.1 50 23:57 13.06.2019
6439 Clouds 28 1001 83 10000 4.1 50 23:39 13.06.2019
6440 Clouds 28 1001 83 10000 4.1 50 23:39 13.06.2019
6441 Clouds 29 1001 74 10000 3.6 30 23:20 13.06.2019
6442 Clouds 29 1001 79 10000 2.6 50 22:39 13.06.2019
6443 Clouds 29 1001 79 10000 2.6 50 22:39 13.06.2019
6444 Clouds 29 1001 74 10000 3.6 50 22:20 13.06.2019
6445 Clear 29 1001 74 10000 2.1 60 21:39 13.06.2019
6446 Clear 29 1001 79 10000 2.1 60 21:20 13.06.2019
6447 Clear 29 1001 79 10000 2.1 60 21:20 13.06.2019
6448 Clear 29 1001 79 10000 2.1 60 21:20 13.06.2019
6449 Clear 29 1001 79 10000 2.6 70 20:45 13.06.2019
6450 Clear 29 1002 79 10000 2.1 60 20:23 13.06.2019
6451 Clear 29 1002 79 10000 2.1 60 19:59 13.06.2019
6452 Clear 29 1002 79 10000 2.6 50 19:41 13.06.2019
6453 Clear 29 1003 74 10000 3.1 50 19:21 13.06.2019
6454 Clear 29 1003 74 10000 3.1 50 18:55 13.06.2019
6455 Clear 29 1003 74 10000 3.1 50 18:36 13.06.2019
6456 Clear 29 1003 74 10000 3.1 50 18:18 13.06.2019
6457 Clear 29 1003 74 10000 3.1 60 17:41 13.06.2019
6458 Clear 30 1003 70 10000 3.6 50 17:20 13.06.2019
6459 Clouds 30 1002 74 10000 4.1 50 16:46 13.06.2019
6460 Clouds 30 1002 70 10000 3.1 60 16:21 13.06.2019
6461 Clouds 30 1002 70 10000 3.1 60 15:57 13.06.2019
6462 Clouds 30 1002 74 9000 3.1 60 15:38 13.06.2019
6463 Clear 30 1002 74 10000 2.6 70 15:18 13.06.2019
6464 Clouds 30 1001 74 9000 2.1 50 14:44 13.06.2019
6465 Clouds 31 1001 70 8000 3.1 50 14:23 13.06.2019
6466 Clear 31 1000 70 10000 3.6 60 13:46 13.06.2019
6467 Clear 31 1000 70 10000 3.6 70 13:21 13.06.2019
6468 Clear 31 1000 70 10000 3.1 80 12:44 13.06.2019
6469 Clear 31 1000 70 10000 3.1 70 12:23 13.06.2019
6470 Clear 31 1000 70 10000 3.1 70 11:59 13.06.2019
6471 Clear 31 1000 70 10000 3.6 50 11:41 13.06.2019
6472 Clear 31 1001 70 10000 4.1 50 11:21 13.06.2019
6473 Clear 30 1001 74 10000 3.1 60 10:46 13.06.2019
6474 Clear 30 1001 74 10000 3.1 60 10:27 13.06.2019
6475 Clear 30 1001 74 10000 3.1 60 10:27 13.06.2019
6476 Clear 30 1001 70 10000 2.1 0 09:45 13.06.2019
6477 Clear 30 1001 70 10000 2.1 0 09:25 13.06.2019
6478 Clear 29 1002 74 10000 1.5 60 08:49 13.06.2019
6479 Clear 29 1002 74 10000 1.5 60 08:28 13.06.2019
6480 Clear 29 1002 74 10000 1.5 60 07:56 13.06.2019
6481 -273 0 0 0 0 0 07:27 13.06.2019
6482 Rain 29 1003 70 10000 2.1 20 06:51 13.06.2019
6483 Rain 29 1004 74 10000 3.6 10 06:24 13.06.2019
6484 Rain 29 1004 74 10000 3.6 10 06:24 13.06.2019
6485 Clouds 30 1004 70 10000 4.1 10 05:56 13.06.2019
6486 Clouds 30 1004 70 10000 4.1 10 05:37 13.06.2019
6487 Clear 30 1004 70 10000 4.6 20 04:58 13.06.2019
6488 Clear 30 1002 79 10000 1.5 60 02:42 13.06.2019
6489 Clear 30 1001 74 10000 2.6 50 01:25 13.06.2019
6490 Clear 30 1001 79 10000 2.6 50 00:27 13.06.2019
6491 Clear 30 1000 84 10000 2.1 60 23:24 12.06.2019
6492 Clear 30 1000 89 10000 2.6 60 22:45 12.06.2019
6493 Clear 30 1000 89 10000 3.1 60 22:27 12.06.2019
6494 Clear 30 1000 89 10000 3.1 60 21:57 12.06.2019
6495 Clear 30 999 89 10000 3.1 70 21:39 12.06.2019
6496 Clear 30 1000 89 10000 2.1 70 21:19 12.06.2019
6497 Clear 30 1000 89 10000 3.1 90 20:40 12.06.2019
6498 Clear 30 1000 89 10000 3.6 90 20:21 12.06.2019
6499 Clear 30 1001 84 10000 3.1 70 19:42 12.06.2019
6500 Clear 31 1001 79 10000 3.1 80 19:23 12.06.2019
6501 Clear 31 1001 79 10000 3.1 80 18:58 12.06.2019
6502 Clear 31 1002 74 10000 4.1 90 18:39 12.06.2019
6503 Clear 32 1002 66 10000 3.6 100 18:20 12.06.2019
6504 Clear 32 1002 70 10000 4.6 110 17:44 12.06.2019
6505 Clear 33 1001 63 10000 4.6 120 17:21 12.06.2019
6506 Clear 33 1001 66 10000 5.7 120 16:42 12.06.2019
6507 Clouds 33 1001 70 7000 5.1 100 16:24 12.06.2019
6508 Clouds 33 1000 70 7000 5.7 90 15:56 12.06.2019
6509 Clouds 33 1000 70 7000 5.7 90 15:32 12.06.2019
6510 Clouds 34 999 63 6000 4.6 90 14:50 12.06.2019
6511 Clouds 34 999 63 6000 4.6 90 14:30 12.06.2019
6512 Clear 36 998 53 10000 3.6 90 13:55 12.06.2019
6513 Clear 36 998 53 10000 3.1 130 13:37 12.06.2019
6514 Clear 37 998 53 10000 2.1 180 13:18 12.06.2019
6515 Clouds 37 998 50 10000 1.5 200 12:39 12.06.2019
6516 Clouds 36 998 56 10000 3.6 190 12:19 12.06.2019
6517 Clouds 38 999 50 10000 2.1 280 11:47 12.06.2019
6518 Clouds 38 999 50 10000 2.1 280 11:47 12.06.2019
6519 Clouds 38 999 50 10000 2.1 280 11:29 12.06.2019
6520 Clouds 37 999 53 10000 1.5 0 10:54 12.06.2019
6521 Clouds 38 999 50 10000 2.1 310 10:35 12.06.2019
6522 Clouds 37 1000 53 10000 1 0 09:58 12.06.2019
6523 Clouds 37 1000 56 10000 2.1 230 09:40 12.06.2019
6524 Clouds 37 1001 53 10000 2.6 0 09:18 12.06.2019
6525 Clouds 37 1001 53 10000 2.6 280 08:26 12.06.2019
6526 Clouds 36 1002 56 10000 1.5 0 07:52 12.06.2019
6527 Clouds 36 1002 60 10000 2.6 290 06:55 12.06.2019
6528 Clear 34 1003 67 10000 2.1 0 05:54 12.06.2019
6529 Clear 33 1003 70 10000 2.6 0 05:24 12.06.2019
6530 Clouds 29 1002 100 7000 3.1 60 02:19 12.06.2019
6531 Clouds 29 1000 100 7000 2.6 60 00:41 12.06.2019
6532 Clouds 29 1000 100 6000 2.1 50 23:52 11.06.2019
6533 Clouds 29 1000 100 6000 2.1 50 23:33 11.06.2019
6534 Clouds 29 1000 100 6000 2.6 70 22:44 11.06.2019
6535 Clouds 29 1001 100 6000 2.6 80 22:23 11.06.2019
6536 Clouds 29 1001 100 6000 2.6 80 21:58 11.06.2019
6537 Clouds 29 1001 100 6000 3.1 80 21:40 11.06.2019
6538 Clouds 29 1001 100 6000 3.6 70 21:21 11.06.2019
6539 Clouds 29 1002 100 7000 3.1 70 20:49 11.06.2019
6540 Clouds 29 1002 94 7000 2.6 70 20:27 11.06.2019
6541 Clouds 30 1002 84 7000 3.6 70 19:57 11.06.2019
6542 Clouds 30 1002 84 7000 3.1 70 19:39 11.06.2019
6543 -273 0 0 0 0 0 19:38 11.06.2019
6544 Clouds 30 1002 84 7000 3.1 70 19:18 11.06.2019
6545 Clouds 30 1002 79 6000 3.1 60 18:23 11.06.2019
6546 Clouds 30 1002 79 6000 3.1 60 18:22 11.06.2019
6547 Clouds 30 1002 79 6000 2.6 60 17:42 11.06.2019
6548 Clouds 31 1002 70 6000 3.1 60 17:23 11.06.2019
6549 Clouds 31 1002 70 6000 2.6 60 16:58 11.06.2019
6550 Clouds 31 1002 70 6000 2.6 60 16:40 11.06.2019
6551 Smoke 31 1001 70 5000 3.1 70 16:22 11.06.2019
6552 Smoke 31 1001 70 5000 3.6 70 15:42 11.06.2019
6553 Smoke 31 1000 70 5000 3.6 80 15:23 11.06.2019
6554 Clouds 32 1000 66 6000 3.1 70 14:49 11.06.2019
6555 Clouds 32 1000 66 8000 3.6 80 14:22 11.06.2019
6556 Clear 33 999 63 10000 4.1 80 13:52 11.06.2019
6557 Clear 33 999 66 10000 3.6 80 13:24 11.06.2019
6558 Clear 33 999 66 10000 3.6 80 13:24 11.06.2019
6559 Clear 34 999 63 10000 3.1 0 12:58 11.06.2019
6560 Clear 34 999 63 10000 3.1 0 12:40 11.06.2019
6561 Clear 33 999 66 10000 2.6 80 12:19 11.06.2019
6562 Clear 33 999 63 10000 3.1 80 11:39 11.06.2019
6563 Clear 33 999 66 10000 3.1 90 11:19 11.06.2019
6564 Clear 33 1000 66 10000 3.1 80 10:46 11.06.2019
6565 Clear 33 1000 66 10000 3.1 80 10:46 11.06.2019
6566 Clear 33 1000 66 10000 3.1 80 10:46 11.06.2019
6567 Clear 33 1000 66 10000 3.1 80 10:25 11.06.2019
6568 Clear 33 1001 63 10000 2.1 50 09:49 11.06.2019
6569 Clear 32 1001 66 10000 2.1 70 09:24 11.06.2019
6570 Clear 32 1002 66 10000 1.5 20 08:45 11.06.2019
6571 Clear 32 1002 62 10000 2.1 0 08:26 11.06.2019
6572 Clouds 32 1002 62 10000 3.1 40 07:38 11.06.2019
6573 Clouds 31 1003 66 10000 3.1 40 06:56 11.06.2019
6574 Clouds 31 1003 66 10000 3.1 40 06:34 11.06.2019
6575 Clouds 31 1003 74 10000 3.6 20 04:55 11.06.2019
6576 Clouds 31 1003 74 10000 2.1 20 03:42 11.06.2019
6577 Clouds 30 1001 84 10000 3.1 60 01:33 11.06.2019
6578 Clouds 29 1000 94 10000 3.1 60 00:46 11.06.2019
6579 Clear 29 1000 89 10000 2.6 80 23:48 10.06.2019
6580 Clear 29 1000 89 10000 3.1 70 23:25 10.06.2019
6581 Clear 29 1000 89 10000 3.1 70 22:56 10.06.2019
6582 Clear 29 1000 89 10000 3.1 70 22:37 10.06.2019
6583 Clear 29 1000 94 10000 3.1 80 22:19 10.06.2019
6584 Clear 30 1000 89 10000 3.6 80 21:40 10.06.2019
6585 Clear 30 1001 84 10000 3.1 70 21:22 10.06.2019
6586 Clear 30 1001 84 10000 3.1 80 20:46 10.06.2019
6587 Clear 30 1001 84 10000 2.6 90 20:24 10.06.2019
6588 Clear 30 1001 84 10000 3.1 90 19:55 10.06.2019
6589 Clouds 30 1001 84 9000 3.1 90 19:36 10.06.2019
6590 Clouds 30 1001 84 9000 3.1 90 19:18 10.06.2019
6591 Clear 30 1002 84 10000 4.1 90 18:54 10.06.2019
6592 Clear 30 1002 84 10000 4.1 90 18:36 10.06.2019
6593 Clear 31 1002 74 10000 4.1 100 18:18 10.06.2019
6594 Clear 31 1001 74 10000 4.6 90 17:39 10.06.2019
6595 Clouds 31 1001 74 8000 5.1 100 17:19 10.06.2019
6596 Clouds 32 1001 75 6000 4.6 80 16:42 10.06.2019
6597 Clouds 32 1001 70 6000 5.1 90 16:24 10.06.2019
6598 Clouds 32 1000 70 6000 5.7 90 15:42 10.06.2019
6599 Clouds 32 1000 70 6000 5.7 90 15:24 10.06.2019
6600 Clouds 32 999 70 6000 5.1 90 14:55 10.06.2019
6601 Clouds 33 999 70 6000 4.6 90 14:36 10.06.2019
6602 Clouds 34 998 67 6000 5.1 90 14:18 10.06.2019
6603 Clouds 34 998 67 6000 4.1 80 13:42 10.06.2019
6604 Clouds 35 997 63 9000 4.6 90 13:21 10.06.2019
6605 Clear 36 997 60 10000 4.1 80 12:42 10.06.2019
6606 Clear 36 997 60 10000 4.6 70 12:23 10.06.2019
6607 Clear 36 998 60 10000 4.1 80 11:44 10.06.2019
6608 Clear 36 998 60 10000 4.1 80 11:24 10.06.2019
6609 Clear 36 998 60 10000 3.1 50 10:42 10.06.2019
6610 Clouds 36 998 60 10000 3.1 60 10:21 10.06.2019
6611 Clouds 36 998 60 10000 3.1 60 09:57 10.06.2019
6612 Clouds 36 998 60 10000 2.6 80 09:38 10.06.2019
6613 Clear 36 998 56 10000 2.6 60 09:19 10.06.2019
6614 Clear 36 999 60 10000 1.5 0 08:44 10.06.2019
6615 Clear 36 999 60 10000 2.1 100 08:23 10.06.2019
6616 Clear 35 999 59 10000 2.6 50 06:56 10.06.2019
6617 Clear 33 1000 66 10000 3.1 80 04:28 10.06.2019
6618 Clear 29 1000 100 10000 2.6 50 01:58 10.06.2019
6619 Clear 29 1000 100 10000 2.6 50 01:26 10.06.2019
6620 Clear 29 1000 100 10000 2.6 50 00:55 10.06.2019
6621 Clear 29 999 100 10000 2.1 60 00:19 10.06.2019
6622 Clear 29 999 100 10000 2.6 80 23:42 09.06.2019
6623 Clear 29 999 100 10000 2.6 70 23:19 09.06.2019
6624 Clear 29 999 100 10000 3.6 80 22:43 09.06.2019
6625 Clear 29 999 100 10000 3.6 70 22:25 09.06.2019
6626 Clear 29 999 100 10000 3.6 80 21:43 09.06.2019
6627 Clear 29 999 100 10000 3.6 70 21:23 09.06.2019
6628 Clouds 29 1000 94 9000 3.6 70 20:43 09.06.2019
6629 Clouds 29 1000 89 8000 4.1 90 20:23 09.06.2019
6630 Clouds 30 1000 79 9000 3.1 90 19:46 09.06.2019
6631 Clear 30 1000 74 10000 3.6 90 19:19 09.06.2019
6632 Clear 31 1000 70 10000 4.1 120 18:57 09.06.2019
6633 Clear 31 1000 70 10000 4.1 120 18:39 09.06.2019
6634 Clouds 31 1000 70 8000 4.6 140 18:21 09.06.2019
6635 Clouds 31 1000 66 8000 5.1 130 17:46 09.06.2019
6636 Clouds 32 1000 62 9000 4.6 130 17:26 09.06.2019
6637 Clouds 32 999 66 9000 5.1 130 16:41 09.06.2019
6638 Clouds 32 999 66 8000 5.7 140 16:21 09.06.2019
6639 Clouds 32 999 66 8000 5.7 140 15:56 09.06.2019
6640 Clouds 33 999 63 9000 6.2 140 15:38 09.06.2019
6641 Clouds 34 999 59 9000 6.2 140 15:20 09.06.2019
6642 Clear 34 999 63 10000 6.2 140 14:42 09.06.2019
6643 Clear 36 998 56 10000 4.6 130 14:21 09.06.2019
6644 Clear 36 998 56 10000 4.6 130 13:50 09.06.2019
6645 Clear 36 998 56 10000 4.1 140 13:19 09.06.2019
6646 Clear 37 998 53 10000 2.1 0 12:40 09.06.2019
6647 Clouds 38 998 47 10000 2.1 170 12:21 09.06.2019
6648 Clouds 38 999 50 10000 2.6 210 11:39 09.06.2019
6649 Clouds 37 999 50 10000 3.6 180 11:20 09.06.2019
6650 Clouds 37 999 53 10000 3.6 170 10:44 09.06.2019
6651 Clouds 38 999 50 10000 3.1 240 10:22 09.06.2019
6652 Clear 38 1000 50 10000 2.6 250 09:40 09.06.2019
6653 Clouds 37 1000 53 10000 3.1 210 09:21 09.06.2019
6654 Clouds 37 1000 53 10000 2.6 200 08:46 09.06.2019
6655 Clouds 37 1000 53 10000 2.6 200 08:28 09.06.2019
6656 Clouds 36 1002 56 10000 2.1 0 07:21 09.06.2019
6657 Clouds 35 1002 56 10000 1.5 0 06:30 09.06.2019
6658 Clouds 33 1003 66 10000 1.5 0 04:57 09.06.2019
6659 Clouds 28 1003 100 6000 3.1 110 01:38 09.06.2019
6660 Mist 28 1002 100 5000 3.1 120 01:20 09.06.2019
6661 Mist 28 1002 100 5000 3.1 120 00:58 09.06.2019
6662 Clear 28 1002 100 10000 3.6 100 23:44 08.06.2019
6663 Clear 28 1002 100 10000 3.6 100 23:24 08.06.2019
6664 Clear 28 1002 100 10000 3.1 100 22:57 08.06.2019
6665 Clear 28 1003 100 10000 3.1 100 22:39 08.06.2019
6666 Clouds 29 1003 100 8000 4.1 100 22:19 08.06.2019
6667 Clouds 29 1003 100 8000 4.1 100 22:19 08.06.2019
6668 Clouds 29 1003 100 8000 4.1 100 21:51 08.06.2019
6669 Clouds 29 1003 100 8000 4.1 100 21:26 08.06.2019
6670 Clouds 29 1003 94 9000 3.1 110 20:49 08.06.2019
6671 Clouds 29 1003 94 8000 3.1 100 20:26 08.06.2019
6672 Clouds 29 1003 94 8000 3.1 100 19:59 08.06.2019
6673 Clouds 29 1003 83 7000 4.6 110 19:39 08.06.2019
6674 Clouds 30 1004 74 7000 3.6 120 19:19 08.06.2019
6675 Clouds 30 1004 74 7000 4.6 120 18:52 08.06.2019
6676 Clouds 30 1004 74 7000 4.6 120 18:33 08.06.2019
6677 Clouds 30 1004 74 6000 4.1 130 17:49 08.06.2019
6678 Clouds 30 1004 74 6000 4.1 130 17:49 08.06.2019
6679 Clouds 30 1004 74 6000 3.6 140 17:23 08.06.2019
6680 Clouds 30 1004 74 6000 3.6 140 16:57 08.06.2019
6681 Clouds 30 1003 79 6000 3.6 130 16:38 08.06.2019
6682 Clouds 31 1003 74 6000 4.6 120 15:56 08.06.2019
6683 Clouds 31 1003 74 6000 4.6 120 15:36 08.06.2019
6684 Clouds 32 1002 70 8000 4.6 130 14:49 08.06.2019
6685 Clouds 32 1002 70 8000 4.6 130 14:31 08.06.2019
6686 Clear 33 1002 66 10000 5.1 120 13:53 08.06.2019
6687 Clear 33 1002 66 10000 5.1 120 12:57 08.06.2019
6688 Clouds 34 1002 59 10000 2.6 120 12:39 08.06.2019
6689 Clouds 34 1003 59 10000 3.1 140 11:57 08.06.2019
6690 Clouds 34 1003 59 10000 3.1 140 11:38 08.06.2019
6691 Clouds 34 1003 59 10000 2.6 140 11:20 08.06.2019
6692 Clouds 34 1004 59 10000 3.1 140 10:43 08.06.2019
6693 Clouds 34 1004 59 10000 3.6 130 10:22 08.06.2019
6694 Clouds 34 1004 59 10000 3.6 130 09:36 08.06.2019
6695 Clouds 34 1005 59 10000 3.6 140 08:58 08.06.2019
6696 Clouds 33 1005 63 10000 3.1 160 08:22 08.06.2019
6697 Clouds 32 1006 66 10000 3.1 150 07:39 08.06.2019
6698 Clouds 32 1007 70 10000 2.6 180 06:45 08.06.2019
6699 Clouds 30 1008 89 10000 1 0 03:40 08.06.2019
6700 Clouds 29 1007 100 7000 3.1 120 02:20 08.06.2019
6701 Clouds 28 1006 100 6000 2.6 90 00:32 08.06.2019
6702 Clouds 28 1006 100 6000 2.6 100 23:59 07.06.2019
6703 Clouds 28 1006 100 7000 3.1 110 23:21 07.06.2019
6704 Clouds 29 1006 100 8000 3.1 130 22:53 07.06.2019
6705 Clouds 29 1006 100 8000 3.1 130 22:33 07.06.2019
6706 Rain 29 1006 100 7000 3.6 130 21:55 07.06.2019
6707 Rain 29 1006 100 7000 3.6 130 21:37 07.06.2019
6708 Rain 28 1006 100 5000 3.6 120 21:19 07.06.2019
6709 Rain 28 1007 100 4000 2.6 80 20:42 07.06.2019
6710 Rain 28 1007 100 3900 3.1 90 20:22 07.06.2019
6711 Rain 28 1008 100 4200 3.1 80 19:41 07.06.2019
6712 Rain 29 1008 100 5000 2.6 80 19:19 07.06.2019
6713 Rain 29 1008 100 5000 2.6 100 18:43 07.06.2019
6714 Rain